<?xml version="1.0" encoding="UTF-8" standalone="no" ?>
<gpx xmlns="http://www.topografix.com/GPX/1/1" xmlns:xsi="http://www.w3.org/2001/XMLSchema-instance" xsi:schemaLocation="http://www.topografix.com/GPX/1/1 http://www.topografix.com/GPX/1/1/gpx.xsd" version="1.1" creator="VisuGPX - https://www.visugpx.com">
  <metadata>
    <name>Pèlerinage de secteur - 14 avril 2013</name>
    <desc><![CDATA[Pèlerinage du secteur de Massy-Verrières à Evry, le dimanche 14 avril 2013]]></desc>
  </metadata>
  <trk>
    <name><![CDATA[14/04/2013 7:57]]></name>
    <desc><![CDATA[]]></desc>
    <trkseg>
      <trkpt lat="48.68203" lon="2.43297">
        <ele>130</ele>
        <time>2013-04-14T05:57:37.000Z</time>
      </trkpt>
      <trkpt lat="48.68207" lon="2.43296">
        <ele>129</ele>
        <time>2013-04-14T05:58:08.000Z</time>
      </trkpt>
      <trkpt lat="48.68208" lon="2.43296">
        <ele>129</ele>
        <time>2013-04-14T05:58:09.000Z</time>
      </trkpt>
      <trkpt lat="48.68209" lon="2.43302">
        <ele>125</ele>
        <time>2013-04-14T06:01:23.000Z</time>
      </trkpt>
      <trkpt lat="48.68212" lon="2.43303">
        <ele>126</ele>
        <time>2013-04-14T06:01:24.000Z</time>
      </trkpt>
      <trkpt lat="48.68215" lon="2.43307">
        <ele>127</ele>
        <time>2013-04-14T06:01:28.000Z</time>
      </trkpt>
      <trkpt lat="48.68216" lon="2.43309">
        <ele>127</ele>
        <time>2013-04-14T06:01:29.000Z</time>
      </trkpt>
      <trkpt lat="48.68215" lon="2.43314">
        <ele>126</ele>
        <time>2013-04-14T06:01:32.000Z</time>
      </trkpt>
      <trkpt lat="48.68216" lon="2.43316">
        <ele>126</ele>
        <time>2013-04-14T06:01:33.000Z</time>
      </trkpt>
      <trkpt lat="48.68217" lon="2.43321">
        <ele>125</ele>
        <time>2013-04-14T06:01:36.000Z</time>
      </trkpt>
      <trkpt lat="48.68217" lon="2.43323">
        <ele>125</ele>
        <time>2013-04-14T06:01:37.000Z</time>
      </trkpt>
      <trkpt lat="48.68218" lon="2.43328">
        <ele>125</ele>
        <time>2013-04-14T06:01:41.000Z</time>
      </trkpt>
      <trkpt lat="48.68219" lon="2.43329">
        <ele>125</ele>
        <time>2013-04-14T06:01:42.000Z</time>
      </trkpt>
      <trkpt lat="48.68222" lon="2.43334">
        <ele>125</ele>
        <time>2013-04-14T06:01:45.000Z</time>
      </trkpt>
      <trkpt lat="48.68223" lon="2.43335">
        <ele>125</ele>
        <time>2013-04-14T06:01:46.000Z</time>
      </trkpt>
      <trkpt lat="48.68225" lon="2.43341">
        <ele>124</ele>
        <time>2013-04-14T06:01:51.000Z</time>
      </trkpt>
      <trkpt lat="48.68225" lon="2.43343">
        <ele>124</ele>
        <time>2013-04-14T06:01:52.000Z</time>
      </trkpt>
      <trkpt lat="48.68223" lon="2.43347">
        <ele>124</ele>
        <time>2013-04-14T06:01:55.000Z</time>
      </trkpt>
      <trkpt lat="48.68222" lon="2.43347">
        <ele>124</ele>
        <time>2013-04-14T06:01:56.000Z</time>
      </trkpt>
      <trkpt lat="48.68218" lon="2.43349">
        <ele>125</ele>
        <time>2013-04-14T06:01:59.000Z</time>
      </trkpt>
      <trkpt lat="48.68217" lon="2.43351">
        <ele>125</ele>
        <time>2013-04-14T06:02:00.000Z</time>
      </trkpt>
      <trkpt lat="48.68214" lon="2.43353">
        <ele>125</ele>
        <time>2013-04-14T06:02:04.000Z</time>
      </trkpt>
      <trkpt lat="48.68212" lon="2.43354">
        <ele>125</ele>
        <time>2013-04-14T06:02:05.000Z</time>
      </trkpt>
      <trkpt lat="48.68208" lon="2.43356">
        <ele>125</ele>
        <time>2013-04-14T06:02:10.000Z</time>
      </trkpt>
      <trkpt lat="48.68207" lon="2.43356">
        <ele>125</ele>
        <time>2013-04-14T06:02:11.000Z</time>
      </trkpt>
      <trkpt lat="48.68203" lon="2.43355">
        <ele>126</ele>
        <time>2013-04-14T06:02:15.000Z</time>
      </trkpt>
      <trkpt lat="48.68202" lon="2.43357">
        <ele>125</ele>
        <time>2013-04-14T06:02:16.000Z</time>
      </trkpt>
      <trkpt lat="48.68198" lon="2.43355">
        <ele>126</ele>
        <time>2013-04-14T06:02:19.000Z</time>
      </trkpt>
      <trkpt lat="48.68197" lon="2.43355">
        <ele>126</ele>
        <time>2013-04-14T06:02:20.000Z</time>
      </trkpt>
      <trkpt lat="48.68196" lon="2.43354">
        <ele>126</ele>
        <time>2013-04-14T06:02:21.000Z</time>
      </trkpt>
      <trkpt lat="48.68194" lon="2.43362">
        <ele>127</ele>
        <time>2013-04-14T06:02:22.000Z</time>
      </trkpt>
      <trkpt lat="48.68192" lon="2.43366">
        <ele>128</ele>
        <time>2013-04-14T06:02:25.000Z</time>
      </trkpt>
      <trkpt lat="48.68191" lon="2.43369">
        <ele>128</ele>
        <time>2013-04-14T06:02:26.000Z</time>
      </trkpt>
      <trkpt lat="48.68187" lon="2.43373">
        <ele>129</ele>
        <time>2013-04-14T06:02:29.000Z</time>
      </trkpt>
      <trkpt lat="48.68187" lon="2.43373">
        <ele>129</ele>
        <time>2013-04-14T06:02:30.000Z</time>
      </trkpt>
      <trkpt lat="48.68185" lon="2.43377">
        <ele>129</ele>
        <time>2013-04-14T06:02:32.000Z</time>
      </trkpt>
      <trkpt lat="48.68184" lon="2.43379">
        <ele>130</ele>
        <time>2013-04-14T06:02:33.000Z</time>
      </trkpt>
      <trkpt lat="48.68181" lon="2.43384">
        <ele>130</ele>
        <time>2013-04-14T06:02:35.000Z</time>
      </trkpt>
      <trkpt lat="48.6818" lon="2.43385">
        <ele>130</ele>
        <time>2013-04-14T06:02:36.000Z</time>
      </trkpt>
      <trkpt lat="48.68177" lon="2.43387">
        <ele>129</ele>
        <time>2013-04-14T06:02:39.000Z</time>
      </trkpt>
      <trkpt lat="48.68175" lon="2.4339">
        <ele>130</ele>
        <time>2013-04-14T06:02:40.000Z</time>
      </trkpt>
      <trkpt lat="48.68172" lon="2.43394">
        <ele>129</ele>
        <time>2013-04-14T06:02:43.000Z</time>
      </trkpt>
      <trkpt lat="48.68171" lon="2.43395">
        <ele>129</ele>
        <time>2013-04-14T06:02:44.000Z</time>
      </trkpt>
      <trkpt lat="48.68168" lon="2.43398">
        <ele>129</ele>
        <time>2013-04-14T06:02:47.000Z</time>
      </trkpt>
      <trkpt lat="48.68167" lon="2.43399">
        <ele>130</ele>
        <time>2013-04-14T06:02:48.000Z</time>
      </trkpt>
      <trkpt lat="48.68164" lon="2.43402">
        <ele>130</ele>
        <time>2013-04-14T06:02:51.000Z</time>
      </trkpt>
      <trkpt lat="48.68163" lon="2.43403">
        <ele>130</ele>
        <time>2013-04-14T06:02:52.000Z</time>
      </trkpt>
      <trkpt lat="48.68159" lon="2.43407">
        <ele>129</ele>
        <time>2013-04-14T06:02:56.000Z</time>
      </trkpt>
      <trkpt lat="48.68159" lon="2.43408">
        <ele>129</ele>
        <time>2013-04-14T06:02:57.000Z</time>
      </trkpt>
      <trkpt lat="48.68156" lon="2.43411">
        <ele>129</ele>
        <time>2013-04-14T06:03:01.000Z</time>
      </trkpt>
      <trkpt lat="48.68155" lon="2.43412">
        <ele>129</ele>
        <time>2013-04-14T06:03:02.000Z</time>
      </trkpt>
      <trkpt lat="48.68151" lon="2.43416">
        <ele>128</ele>
        <time>2013-04-14T06:03:06.000Z</time>
      </trkpt>
      <trkpt lat="48.6815" lon="2.43418">
        <ele>129</ele>
        <time>2013-04-14T06:03:07.000Z</time>
      </trkpt>
      <trkpt lat="48.68147" lon="2.43421">
        <ele>128</ele>
        <time>2013-04-14T06:03:11.000Z</time>
      </trkpt>
      <trkpt lat="48.68147" lon="2.43423">
        <ele>129</ele>
        <time>2013-04-14T06:03:12.000Z</time>
      </trkpt>
      <trkpt lat="48.68144" lon="2.43427">
        <ele>129</ele>
        <time>2013-04-14T06:03:16.000Z</time>
      </trkpt>
      <trkpt lat="48.68143" lon="2.43428">
        <ele>129</ele>
        <time>2013-04-14T06:03:17.000Z</time>
      </trkpt>
      <trkpt lat="48.68141" lon="2.43431">
        <ele>128</ele>
        <time>2013-04-14T06:03:20.000Z</time>
      </trkpt>
      <trkpt lat="48.6814" lon="2.43433">
        <ele>128</ele>
        <time>2013-04-14T06:03:21.000Z</time>
      </trkpt>
      <trkpt lat="48.68137" lon="2.43436">
        <ele>128</ele>
        <time>2013-04-14T06:03:26.000Z</time>
      </trkpt>
      <trkpt lat="48.68136" lon="2.43442">
        <ele>128</ele>
        <time>2013-04-14T06:03:27.000Z</time>
      </trkpt>
      <trkpt lat="48.68134" lon="2.43446">
        <ele>128</ele>
        <time>2013-04-14T06:03:29.000Z</time>
      </trkpt>
      <trkpt lat="48.68134" lon="2.4345">
        <ele>128</ele>
        <time>2013-04-14T06:03:30.000Z</time>
      </trkpt>
      <trkpt lat="48.68131" lon="2.43454">
        <ele>129</ele>
        <time>2013-04-14T06:03:34.000Z</time>
      </trkpt>
      <trkpt lat="48.6813" lon="2.43456">
        <ele>129</ele>
        <time>2013-04-14T06:03:35.000Z</time>
      </trkpt>
      <trkpt lat="48.68126" lon="2.43459">
        <ele>128</ele>
        <time>2013-04-14T06:03:38.000Z</time>
      </trkpt>
      <trkpt lat="48.68125" lon="2.4346">
        <ele>127</ele>
        <time>2013-04-14T06:03:39.000Z</time>
      </trkpt>
      <trkpt lat="48.68121" lon="2.43463">
        <ele>127</ele>
        <time>2013-04-14T06:03:43.000Z</time>
      </trkpt>
      <trkpt lat="48.6812" lon="2.43465">
        <ele>127</ele>
        <time>2013-04-14T06:03:44.000Z</time>
      </trkpt>
      <trkpt lat="48.68118" lon="2.43468">
        <ele>126</ele>
        <time>2013-04-14T06:03:48.000Z</time>
      </trkpt>
      <trkpt lat="48.68117" lon="2.43469">
        <ele>126</ele>
        <time>2013-04-14T06:03:49.000Z</time>
      </trkpt>
      <trkpt lat="48.68113" lon="2.43471">
        <ele>126</ele>
        <time>2013-04-14T06:03:53.000Z</time>
      </trkpt>
      <trkpt lat="48.68112" lon="2.43473">
        <ele>127</ele>
        <time>2013-04-14T06:03:54.000Z</time>
      </trkpt>
      <trkpt lat="48.68109" lon="2.43476">
        <ele>127</ele>
        <time>2013-04-14T06:03:57.000Z</time>
      </trkpt>
      <trkpt lat="48.68108" lon="2.43478">
        <ele>127</ele>
        <time>2013-04-14T06:03:58.000Z</time>
      </trkpt>
      <trkpt lat="48.68105" lon="2.43482">
        <ele>128</ele>
        <time>2013-04-14T06:04:01.000Z</time>
      </trkpt>
      <trkpt lat="48.68104" lon="2.43482">
        <ele>128</ele>
        <time>2013-04-14T06:04:02.000Z</time>
      </trkpt>
      <trkpt lat="48.681" lon="2.43486">
        <ele>127</ele>
        <time>2013-04-14T06:04:07.000Z</time>
      </trkpt>
      <trkpt lat="48.68099" lon="2.43488">
        <ele>127</ele>
        <time>2013-04-14T06:04:08.000Z</time>
      </trkpt>
      <trkpt lat="48.68096" lon="2.43492">
        <ele>127</ele>
        <time>2013-04-14T06:04:11.000Z</time>
      </trkpt>
      <trkpt lat="48.68093" lon="2.43495">
        <ele>127</ele>
        <time>2013-04-14T06:04:12.000Z</time>
      </trkpt>
      <trkpt lat="48.68091" lon="2.43499">
        <ele>126</ele>
        <time>2013-04-14T06:04:14.000Z</time>
      </trkpt>
      <trkpt lat="48.6809" lon="2.43501">
        <ele>126</ele>
        <time>2013-04-14T06:04:15.000Z</time>
      </trkpt>
      <trkpt lat="48.68087" lon="2.43504">
        <ele>127</ele>
        <time>2013-04-14T06:04:17.000Z</time>
      </trkpt>
      <trkpt lat="48.68086" lon="2.43505">
        <ele>126</ele>
        <time>2013-04-14T06:04:18.000Z</time>
      </trkpt>
      <trkpt lat="48.68083" lon="2.43509">
        <ele>127</ele>
        <time>2013-04-14T06:04:20.000Z</time>
      </trkpt>
      <trkpt lat="48.68081" lon="2.43511">
        <ele>126</ele>
        <time>2013-04-14T06:04:21.000Z</time>
      </trkpt>
      <trkpt lat="48.68079" lon="2.43514">
        <ele>127</ele>
        <time>2013-04-14T06:04:22.000Z</time>
      </trkpt>
      <trkpt lat="48.68077" lon="2.43516">
        <ele>127</ele>
        <time>2013-04-14T06:04:23.000Z</time>
      </trkpt>
      <trkpt lat="48.68075" lon="2.4352">
        <ele>127</ele>
        <time>2013-04-14T06:04:25.000Z</time>
      </trkpt>
      <trkpt lat="48.68073" lon="2.43523">
        <ele>127</ele>
        <time>2013-04-14T06:04:26.000Z</time>
      </trkpt>
      <trkpt lat="48.6807" lon="2.43528">
        <ele>128</ele>
        <time>2013-04-14T06:04:28.000Z</time>
      </trkpt>
      <trkpt lat="48.6807" lon="2.43528">
        <ele>128</ele>
        <time>2013-04-14T06:04:29.000Z</time>
      </trkpt>
      <trkpt lat="48.68067" lon="2.4353">
        <ele>128</ele>
        <time>2013-04-14T06:04:31.000Z</time>
      </trkpt>
      <trkpt lat="48.68066" lon="2.43531">
        <ele>127</ele>
        <time>2013-04-14T06:04:32.000Z</time>
      </trkpt>
      <trkpt lat="48.68062" lon="2.43534">
        <ele>127</ele>
        <time>2013-04-14T06:04:34.000Z</time>
      </trkpt>
      <trkpt lat="48.6806" lon="2.43536">
        <ele>127</ele>
        <time>2013-04-14T06:04:35.000Z</time>
      </trkpt>
      <trkpt lat="48.68058" lon="2.43539">
        <ele>127</ele>
        <time>2013-04-14T06:04:36.000Z</time>
      </trkpt>
      <trkpt lat="48.68056" lon="2.4354">
        <ele>126</ele>
        <time>2013-04-14T06:04:37.000Z</time>
      </trkpt>
      <trkpt lat="48.68053" lon="2.43543">
        <ele>124</ele>
        <time>2013-04-14T06:04:43.000Z</time>
      </trkpt>
      <trkpt lat="48.68052" lon="2.43544">
        <ele>124</ele>
        <time>2013-04-14T06:04:44.000Z</time>
      </trkpt>
      <trkpt lat="48.68047" lon="2.43546">
        <ele>125</ele>
        <time>2013-04-14T06:05:25.000Z</time>
      </trkpt>
      <trkpt lat="48.68047" lon="2.43547">
        <ele>125</ele>
        <time>2013-04-14T06:05:26.000Z</time>
      </trkpt>
      <trkpt lat="48.68044" lon="2.4355">
        <ele>125</ele>
        <time>2013-04-14T06:05:32.000Z</time>
      </trkpt>
      <trkpt lat="48.68043" lon="2.4355">
        <ele>125</ele>
        <time>2013-04-14T06:05:33.000Z</time>
      </trkpt>
      <trkpt lat="48.6804" lon="2.43555">
        <ele>125</ele>
        <time>2013-04-14T06:05:38.000Z</time>
      </trkpt>
      <trkpt lat="48.6804" lon="2.43557">
        <ele>125</ele>
        <time>2013-04-14T06:05:39.000Z</time>
      </trkpt>
      <trkpt lat="48.68038" lon="2.43562">
        <ele>125</ele>
        <time>2013-04-14T06:05:43.000Z</time>
      </trkpt>
      <trkpt lat="48.68037" lon="2.43563">
        <ele>125</ele>
        <time>2013-04-14T06:05:44.000Z</time>
      </trkpt>
      <trkpt lat="48.68034" lon="2.43567">
        <ele>126</ele>
        <time>2013-04-14T06:05:47.000Z</time>
      </trkpt>
      <trkpt lat="48.68033" lon="2.43568">
        <ele>125</ele>
        <time>2013-04-14T06:05:48.000Z</time>
      </trkpt>
      <trkpt lat="48.6803" lon="2.43572">
        <ele>126</ele>
        <time>2013-04-14T06:05:51.000Z</time>
      </trkpt>
      <trkpt lat="48.6803" lon="2.43572">
        <ele>126</ele>
        <time>2013-04-14T06:05:52.000Z</time>
      </trkpt>
      <trkpt lat="48.68026" lon="2.43576">
        <ele>126</ele>
        <time>2013-04-14T06:05:56.000Z</time>
      </trkpt>
      <trkpt lat="48.68026" lon="2.43578">
        <ele>126</ele>
        <time>2013-04-14T06:05:57.000Z</time>
      </trkpt>
      <trkpt lat="48.68023" lon="2.43581">
        <ele>126</ele>
        <time>2013-04-14T06:06:02.000Z</time>
      </trkpt>
      <trkpt lat="48.68022" lon="2.43584">
        <ele>126</ele>
        <time>2013-04-14T06:06:03.000Z</time>
      </trkpt>
      <trkpt lat="48.68021" lon="2.43586">
        <ele>126</ele>
        <time>2013-04-14T06:06:04.000Z</time>
      </trkpt>
      <trkpt lat="48.68019" lon="2.4359">
        <ele>127</ele>
        <time>2013-04-14T06:06:05.000Z</time>
      </trkpt>
      <trkpt lat="48.68015" lon="2.43592">
        <ele>124</ele>
        <time>2013-04-14T06:06:11.000Z</time>
      </trkpt>
      <trkpt lat="48.68015" lon="2.43592">
        <ele>124</ele>
        <time>2013-04-14T06:06:12.000Z</time>
      </trkpt>
      <trkpt lat="48.68011" lon="2.43596">
        <ele>125</ele>
        <time>2013-04-14T06:06:17.000Z</time>
      </trkpt>
      <trkpt lat="48.6801" lon="2.43597">
        <ele>124</ele>
        <time>2013-04-14T06:06:18.000Z</time>
      </trkpt>
      <trkpt lat="48.68007" lon="2.436">
        <ele>124</ele>
        <time>2013-04-14T06:06:21.000Z</time>
      </trkpt>
      <trkpt lat="48.68006" lon="2.436">
        <ele>124</ele>
        <time>2013-04-14T06:06:22.000Z</time>
      </trkpt>
      <trkpt lat="48.68002" lon="2.43602">
        <ele>125</ele>
        <time>2013-04-14T06:06:27.000Z</time>
      </trkpt>
      <trkpt lat="48.68001" lon="2.43604">
        <ele>124</ele>
        <time>2013-04-14T06:06:28.000Z</time>
      </trkpt>
      <trkpt lat="48.67999" lon="2.43607">
        <ele>124</ele>
        <time>2013-04-14T06:06:32.000Z</time>
      </trkpt>
      <trkpt lat="48.67998" lon="2.43608">
        <ele>124</ele>
        <time>2013-04-14T06:06:33.000Z</time>
      </trkpt>
      <trkpt lat="48.67995" lon="2.43611">
        <ele>124</ele>
        <time>2013-04-14T06:06:36.000Z</time>
      </trkpt>
      <trkpt lat="48.67994" lon="2.43611">
        <ele>124</ele>
        <time>2013-04-14T06:06:37.000Z</time>
      </trkpt>
      <trkpt lat="48.6799" lon="2.43614">
        <ele>124</ele>
        <time>2013-04-14T06:06:40.000Z</time>
      </trkpt>
      <trkpt lat="48.67989" lon="2.43615">
        <ele>125</ele>
        <time>2013-04-14T06:06:41.000Z</time>
      </trkpt>
      <trkpt lat="48.67986" lon="2.43617">
        <ele>126</ele>
        <time>2013-04-14T06:06:44.000Z</time>
      </trkpt>
      <trkpt lat="48.67985" lon="2.43618">
        <ele>126</ele>
        <time>2013-04-14T06:06:45.000Z</time>
      </trkpt>
      <trkpt lat="48.67981" lon="2.43621">
        <ele>126</ele>
        <time>2013-04-14T06:06:49.000Z</time>
      </trkpt>
      <trkpt lat="48.6798" lon="2.43621">
        <ele>126</ele>
        <time>2013-04-14T06:06:50.000Z</time>
      </trkpt>
      <trkpt lat="48.67977" lon="2.43619">
        <ele>125</ele>
        <time>2013-04-14T06:06:56.000Z</time>
      </trkpt>
      <trkpt lat="48.67975" lon="2.43621">
        <ele>125</ele>
        <time>2013-04-14T06:06:57.000Z</time>
      </trkpt>
      <trkpt lat="48.67971" lon="2.43619">
        <ele>127</ele>
        <time>2013-04-14T06:07:01.000Z</time>
      </trkpt>
      <trkpt lat="48.6797" lon="2.43618">
        <ele>126</ele>
        <time>2013-04-14T06:07:02.000Z</time>
      </trkpt>
      <trkpt lat="48.6797" lon="2.43614">
        <ele>127</ele>
        <time>2013-04-14T06:07:06.000Z</time>
      </trkpt>
      <trkpt lat="48.67971" lon="2.43611">
        <ele>127</ele>
        <time>2013-04-14T06:07:07.000Z</time>
      </trkpt>
      <trkpt lat="48.67971" lon="2.43605">
        <ele>130</ele>
        <time>2013-04-14T06:07:57.000Z</time>
      </trkpt>
      <trkpt lat="48.6797" lon="2.43604">
        <ele>130</ele>
        <time>2013-04-14T06:07:58.000Z</time>
      </trkpt>
      <trkpt lat="48.67971" lon="2.43611">
        <ele>125</ele>
        <time>2013-04-14T06:08:06.000Z</time>
      </trkpt>
      <trkpt lat="48.67971" lon="2.43613">
        <ele>125</ele>
        <time>2013-04-14T06:08:07.000Z</time>
      </trkpt>
      <trkpt lat="48.67971" lon="2.4362">
        <ele>124</ele>
        <time>2013-04-14T06:08:08.000Z</time>
      </trkpt>
      <trkpt lat="48.67971" lon="2.43624">
        <ele>124</ele>
        <time>2013-04-14T06:08:09.000Z</time>
      </trkpt>
      <trkpt lat="48.67972" lon="2.4363">
        <ele>123</ele>
        <time>2013-04-14T06:08:11.000Z</time>
      </trkpt>
      <trkpt lat="48.67973" lon="2.43633">
        <ele>123</ele>
        <time>2013-04-14T06:08:12.000Z</time>
      </trkpt>
      <trkpt lat="48.6797" lon="2.43636">
        <ele>125</ele>
        <time>2013-04-14T06:08:15.000Z</time>
      </trkpt>
      <trkpt lat="48.67968" lon="2.43638">
        <ele>126</ele>
        <time>2013-04-14T06:08:16.000Z</time>
      </trkpt>
      <trkpt lat="48.67966" lon="2.4364">
        <ele>126</ele>
        <time>2013-04-14T06:08:17.000Z</time>
      </trkpt>
      <trkpt lat="48.67962" lon="2.43645">
        <ele>127</ele>
        <time>2013-04-14T06:08:18.000Z</time>
      </trkpt>
      <trkpt lat="48.67959" lon="2.43648">
        <ele>128</ele>
        <time>2013-04-14T06:08:19.000Z</time>
      </trkpt>
      <trkpt lat="48.67957" lon="2.43651">
        <ele>128</ele>
        <time>2013-04-14T06:08:20.000Z</time>
      </trkpt>
      <trkpt lat="48.67955" lon="2.43653">
        <ele>128</ele>
        <time>2013-04-14T06:08:21.000Z</time>
      </trkpt>
      <trkpt lat="48.67952" lon="2.43657">
        <ele>129</ele>
        <time>2013-04-14T06:08:22.000Z</time>
      </trkpt>
      <trkpt lat="48.6795" lon="2.43662">
        <ele>128</ele>
        <time>2013-04-14T06:08:23.000Z</time>
      </trkpt>
      <trkpt lat="48.67949" lon="2.43663">
        <ele>128</ele>
        <time>2013-04-14T06:08:24.000Z</time>
      </trkpt>
      <trkpt lat="48.67945" lon="2.43666">
        <ele>127</ele>
        <time>2013-04-14T06:08:26.000Z</time>
      </trkpt>
      <trkpt lat="48.67944" lon="2.43668">
        <ele>126</ele>
        <time>2013-04-14T06:08:27.000Z</time>
      </trkpt>
      <trkpt lat="48.67942" lon="2.4367">
        <ele>126</ele>
        <time>2013-04-14T06:08:29.000Z</time>
      </trkpt>
      <trkpt lat="48.67938" lon="2.43672">
        <ele>126</ele>
        <time>2013-04-14T06:08:30.000Z</time>
      </trkpt>
      <trkpt lat="48.67935" lon="2.43675">
        <ele>127</ele>
        <time>2013-04-14T06:08:32.000Z</time>
      </trkpt>
      <trkpt lat="48.67933" lon="2.43678">
        <ele>127</ele>
        <time>2013-04-14T06:08:33.000Z</time>
      </trkpt>
      <trkpt lat="48.6793" lon="2.43682">
        <ele>128</ele>
        <time>2013-04-14T06:08:36.000Z</time>
      </trkpt>
      <trkpt lat="48.67929" lon="2.43686">
        <ele>129</ele>
        <time>2013-04-14T06:08:37.000Z</time>
      </trkpt>
      <trkpt lat="48.67928" lon="2.43688">
        <ele>127</ele>
        <time>2013-04-14T06:08:38.000Z</time>
      </trkpt>
      <trkpt lat="48.67927" lon="2.43693">
        <ele>127</ele>
        <time>2013-04-14T06:08:39.000Z</time>
      </trkpt>
      <trkpt lat="48.67925" lon="2.43696">
        <ele>127</ele>
        <time>2013-04-14T06:08:40.000Z</time>
      </trkpt>
      <trkpt lat="48.67923" lon="2.437">
        <ele>128</ele>
        <time>2013-04-14T06:08:41.000Z</time>
      </trkpt>
      <trkpt lat="48.6792" lon="2.43703">
        <ele>127</ele>
        <time>2013-04-14T06:08:43.000Z</time>
      </trkpt>
      <trkpt lat="48.67919" lon="2.43706">
        <ele>128</ele>
        <time>2013-04-14T06:08:44.000Z</time>
      </trkpt>
      <trkpt lat="48.67915" lon="2.43704">
        <ele>126</ele>
        <time>2013-04-14T06:09:04.000Z</time>
      </trkpt>
      <trkpt lat="48.67912" lon="2.43706">
        <ele>126</ele>
        <time>2013-04-14T06:09:05.000Z</time>
      </trkpt>
      <trkpt lat="48.67911" lon="2.4371">
        <ele>126</ele>
        <time>2013-04-14T06:09:07.000Z</time>
      </trkpt>
      <trkpt lat="48.67909" lon="2.43712">
        <ele>126</ele>
        <time>2013-04-14T06:09:08.000Z</time>
      </trkpt>
      <trkpt lat="48.67906" lon="2.43716">
        <ele>123</ele>
        <time>2013-04-14T06:09:10.000Z</time>
      </trkpt>
      <trkpt lat="48.67905" lon="2.43718">
        <ele>123</ele>
        <time>2013-04-14T06:09:11.000Z</time>
      </trkpt>
      <trkpt lat="48.67901" lon="2.43722">
        <ele>125</ele>
        <time>2013-04-14T06:09:16.000Z</time>
      </trkpt>
      <trkpt lat="48.67899" lon="2.43722">
        <ele>125</ele>
        <time>2013-04-14T06:09:17.000Z</time>
      </trkpt>
      <trkpt lat="48.67897" lon="2.43728">
        <ele>126</ele>
        <time>2013-04-14T06:09:19.000Z</time>
      </trkpt>
      <trkpt lat="48.67895" lon="2.43728">
        <ele>126</ele>
        <time>2013-04-14T06:09:20.000Z</time>
      </trkpt>
      <trkpt lat="48.67891" lon="2.43729">
        <ele>127</ele>
        <time>2013-04-14T06:09:23.000Z</time>
      </trkpt>
      <trkpt lat="48.6789" lon="2.43731">
        <ele>128</ele>
        <time>2013-04-14T06:09:24.000Z</time>
      </trkpt>
      <trkpt lat="48.67887" lon="2.43735">
        <ele>130</ele>
        <time>2013-04-14T06:09:26.000Z</time>
      </trkpt>
      <trkpt lat="48.67885" lon="2.43736">
        <ele>129</ele>
        <time>2013-04-14T06:09:27.000Z</time>
      </trkpt>
      <trkpt lat="48.67882" lon="2.43739">
        <ele>128</ele>
        <time>2013-04-14T06:09:30.000Z</time>
      </trkpt>
      <trkpt lat="48.67881" lon="2.43739">
        <ele>128</ele>
        <time>2013-04-14T06:09:31.000Z</time>
      </trkpt>
      <trkpt lat="48.67878" lon="2.43741">
        <ele>128</ele>
        <time>2013-04-14T06:09:34.000Z</time>
      </trkpt>
      <trkpt lat="48.67876" lon="2.4374">
        <ele>128</ele>
        <time>2013-04-14T06:09:35.000Z</time>
      </trkpt>
      <trkpt lat="48.67873" lon="2.43743">
        <ele>128</ele>
        <time>2013-04-14T06:09:37.000Z</time>
      </trkpt>
      <trkpt lat="48.67871" lon="2.43745">
        <ele>129</ele>
        <time>2013-04-14T06:09:38.000Z</time>
      </trkpt>
      <trkpt lat="48.67868" lon="2.43749">
        <ele>127</ele>
        <time>2013-04-14T06:09:41.000Z</time>
      </trkpt>
      <trkpt lat="48.67867" lon="2.43751">
        <ele>127</ele>
        <time>2013-04-14T06:09:42.000Z</time>
      </trkpt>
      <trkpt lat="48.67864" lon="2.43756">
        <ele>126</ele>
        <time>2013-04-14T06:09:46.000Z</time>
      </trkpt>
      <trkpt lat="48.67863" lon="2.43758">
        <ele>125</ele>
        <time>2013-04-14T06:09:47.000Z</time>
      </trkpt>
      <trkpt lat="48.67861" lon="2.43762">
        <ele>126</ele>
        <time>2013-04-14T06:09:50.000Z</time>
      </trkpt>
      <trkpt lat="48.6786" lon="2.43763">
        <ele>127</ele>
        <time>2013-04-14T06:09:51.000Z</time>
      </trkpt>
      <trkpt lat="48.67856" lon="2.43766">
        <ele>129</ele>
        <time>2013-04-14T06:09:55.000Z</time>
      </trkpt>
      <trkpt lat="48.67855" lon="2.43767">
        <ele>129</ele>
        <time>2013-04-14T06:09:56.000Z</time>
      </trkpt>
      <trkpt lat="48.67853" lon="2.43769">
        <ele>129</ele>
        <time>2013-04-14T06:09:58.000Z</time>
      </trkpt>
      <trkpt lat="48.67852" lon="2.43771">
        <ele>128</ele>
        <time>2013-04-14T06:09:59.000Z</time>
      </trkpt>
      <trkpt lat="48.67848" lon="2.43775">
        <ele>129</ele>
        <time>2013-04-14T06:10:03.000Z</time>
      </trkpt>
      <trkpt lat="48.67846" lon="2.43774">
        <ele>129</ele>
        <time>2013-04-14T06:10:04.000Z</time>
      </trkpt>
      <trkpt lat="48.67843" lon="2.43777">
        <ele>129</ele>
        <time>2013-04-14T06:10:07.000Z</time>
      </trkpt>
      <trkpt lat="48.67842" lon="2.43779">
        <ele>129</ele>
        <time>2013-04-14T06:10:08.000Z</time>
      </trkpt>
      <trkpt lat="48.67839" lon="2.43782">
        <ele>130</ele>
        <time>2013-04-14T06:10:11.000Z</time>
      </trkpt>
      <trkpt lat="48.67838" lon="2.43783">
        <ele>130</ele>
        <time>2013-04-14T06:10:12.000Z</time>
      </trkpt>
      <trkpt lat="48.67834" lon="2.43787">
        <ele>129</ele>
        <time>2013-04-14T06:10:16.000Z</time>
      </trkpt>
      <trkpt lat="48.67834" lon="2.43788">
        <ele>129</ele>
        <time>2013-04-14T06:10:17.000Z</time>
      </trkpt>
      <trkpt lat="48.67831" lon="2.43791">
        <ele>129</ele>
        <time>2013-04-14T06:10:19.000Z</time>
      </trkpt>
      <trkpt lat="48.67829" lon="2.43792">
        <ele>129</ele>
        <time>2013-04-14T06:10:20.000Z</time>
      </trkpt>
      <trkpt lat="48.67826" lon="2.43793">
        <ele>129</ele>
        <time>2013-04-14T06:10:22.000Z</time>
      </trkpt>
      <trkpt lat="48.67824" lon="2.43795">
        <ele>128</ele>
        <time>2013-04-14T06:10:23.000Z</time>
      </trkpt>
      <trkpt lat="48.6782" lon="2.43796">
        <ele>129</ele>
        <time>2013-04-14T06:10:26.000Z</time>
      </trkpt>
      <trkpt lat="48.67819" lon="2.43797">
        <ele>129</ele>
        <time>2013-04-14T06:10:27.000Z</time>
      </trkpt>
      <trkpt lat="48.67815" lon="2.438">
        <ele>129</ele>
        <time>2013-04-14T06:10:33.000Z</time>
      </trkpt>
      <trkpt lat="48.67814" lon="2.438">
        <ele>129</ele>
        <time>2013-04-14T06:10:34.000Z</time>
      </trkpt>
      <trkpt lat="48.67811" lon="2.43802">
        <ele>129</ele>
        <time>2013-04-14T06:10:37.000Z</time>
      </trkpt>
      <trkpt lat="48.67809" lon="2.43802">
        <ele>129</ele>
        <time>2013-04-14T06:10:38.000Z</time>
      </trkpt>
      <trkpt lat="48.67804" lon="2.438">
        <ele>129</ele>
        <time>2013-04-14T06:10:43.000Z</time>
      </trkpt>
      <trkpt lat="48.67803" lon="2.438">
        <ele>129</ele>
        <time>2013-04-14T06:10:44.000Z</time>
      </trkpt>
      <trkpt lat="48.67799" lon="2.43801">
        <ele>129</ele>
        <time>2013-04-14T06:10:47.000Z</time>
      </trkpt>
      <trkpt lat="48.67797" lon="2.43801">
        <ele>129</ele>
        <time>2013-04-14T06:10:48.000Z</time>
      </trkpt>
      <trkpt lat="48.67793" lon="2.438">
        <ele>129</ele>
        <time>2013-04-14T06:10:52.000Z</time>
      </trkpt>
      <trkpt lat="48.67791" lon="2.43799">
        <ele>129</ele>
        <time>2013-04-14T06:10:53.000Z</time>
      </trkpt>
      <trkpt lat="48.67788" lon="2.438">
        <ele>129</ele>
        <time>2013-04-14T06:10:57.000Z</time>
      </trkpt>
      <trkpt lat="48.67787" lon="2.43802">
        <ele>129</ele>
        <time>2013-04-14T06:10:58.000Z</time>
      </trkpt>
      <trkpt lat="48.67783" lon="2.43804">
        <ele>130</ele>
        <time>2013-04-14T06:11:04.000Z</time>
      </trkpt>
      <trkpt lat="48.67782" lon="2.43806">
        <ele>130</ele>
        <time>2013-04-14T06:11:05.000Z</time>
      </trkpt>
      <trkpt lat="48.67778" lon="2.4381">
        <ele>130</ele>
        <time>2013-04-14T06:11:11.000Z</time>
      </trkpt>
      <trkpt lat="48.67776" lon="2.43812">
        <ele>130</ele>
        <time>2013-04-14T06:11:12.000Z</time>
      </trkpt>
      <trkpt lat="48.67773" lon="2.43813">
        <ele>130</ele>
        <time>2013-04-14T06:11:16.000Z</time>
      </trkpt>
      <trkpt lat="48.67771" lon="2.43817">
        <ele>130</ele>
        <time>2013-04-14T06:11:17.000Z</time>
      </trkpt>
      <trkpt lat="48.67769" lon="2.43822">
        <ele>129</ele>
        <time>2013-04-14T06:11:19.000Z</time>
      </trkpt>
      <trkpt lat="48.67768" lon="2.43825">
        <ele>130</ele>
        <time>2013-04-14T06:11:20.000Z</time>
      </trkpt>
      <trkpt lat="48.67766" lon="2.43827">
        <ele>130</ele>
        <time>2013-04-14T06:11:21.000Z</time>
      </trkpt>
      <trkpt lat="48.67764" lon="2.43831">
        <ele>130</ele>
        <time>2013-04-14T06:11:22.000Z</time>
      </trkpt>
      <trkpt lat="48.6776" lon="2.43835">
        <ele>130</ele>
        <time>2013-04-14T06:11:25.000Z</time>
      </trkpt>
      <trkpt lat="48.67759" lon="2.43837">
        <ele>130</ele>
        <time>2013-04-14T06:11:26.000Z</time>
      </trkpt>
      <trkpt lat="48.67757" lon="2.43841">
        <ele>131</ele>
        <time>2013-04-14T06:11:28.000Z</time>
      </trkpt>
      <trkpt lat="48.67756" lon="2.43842">
        <ele>131</ele>
        <time>2013-04-14T06:11:29.000Z</time>
      </trkpt>
      <trkpt lat="48.67753" lon="2.43845">
        <ele>130</ele>
        <time>2013-04-14T06:11:31.000Z</time>
      </trkpt>
      <trkpt lat="48.67752" lon="2.43847">
        <ele>130</ele>
        <time>2013-04-14T06:11:32.000Z</time>
      </trkpt>
      <trkpt lat="48.67749" lon="2.4385">
        <ele>129</ele>
        <time>2013-04-14T06:11:36.000Z</time>
      </trkpt>
      <trkpt lat="48.67749" lon="2.43852">
        <ele>129</ele>
        <time>2013-04-14T06:11:37.000Z</time>
      </trkpt>
      <trkpt lat="48.67748" lon="2.43857">
        <ele>130</ele>
        <time>2013-04-14T06:11:41.000Z</time>
      </trkpt>
      <trkpt lat="48.67748" lon="2.4386">
        <ele>130</ele>
        <time>2013-04-14T06:11:42.000Z</time>
      </trkpt>
      <trkpt lat="48.67746" lon="2.43866">
        <ele>128</ele>
        <time>2013-04-14T06:11:45.000Z</time>
      </trkpt>
      <trkpt lat="48.67746" lon="2.43868">
        <ele>129</ele>
        <time>2013-04-14T06:11:46.000Z</time>
      </trkpt>
      <trkpt lat="48.67744" lon="2.43873">
        <ele>129</ele>
        <time>2013-04-14T06:11:50.000Z</time>
      </trkpt>
      <trkpt lat="48.67743" lon="2.43875">
        <ele>130</ele>
        <time>2013-04-14T06:11:51.000Z</time>
      </trkpt>
      <trkpt lat="48.67741" lon="2.43879">
        <ele>130</ele>
        <time>2013-04-14T06:11:55.000Z</time>
      </trkpt>
      <trkpt lat="48.67738" lon="2.43881">
        <ele>130</ele>
        <time>2013-04-14T06:11:56.000Z</time>
      </trkpt>
      <trkpt lat="48.67736" lon="2.43886">
        <ele>131</ele>
        <time>2013-04-14T06:11:59.000Z</time>
      </trkpt>
      <trkpt lat="48.67732" lon="2.43886">
        <ele>131</ele>
        <time>2013-04-14T06:12:00.000Z</time>
      </trkpt>
      <trkpt lat="48.67729" lon="2.43889">
        <ele>131</ele>
        <time>2013-04-14T06:12:02.000Z</time>
      </trkpt>
      <trkpt lat="48.67727" lon="2.43888">
        <ele>130</ele>
        <time>2013-04-14T06:12:03.000Z</time>
      </trkpt>
      <trkpt lat="48.67723" lon="2.43887">
        <ele>129</ele>
        <time>2013-04-14T06:12:06.000Z</time>
      </trkpt>
      <trkpt lat="48.67721" lon="2.43886">
        <ele>128</ele>
        <time>2013-04-14T06:12:07.000Z</time>
      </trkpt>
      <trkpt lat="48.67717" lon="2.43887">
        <ele>128</ele>
        <time>2013-04-14T06:12:09.000Z</time>
      </trkpt>
      <trkpt lat="48.67715" lon="2.43888">
        <ele>128</ele>
        <time>2013-04-14T06:12:10.000Z</time>
      </trkpt>
      <trkpt lat="48.67712" lon="2.43888">
        <ele>128</ele>
        <time>2013-04-14T06:12:12.000Z</time>
      </trkpt>
      <trkpt lat="48.6771" lon="2.43889">
        <ele>128</ele>
        <time>2013-04-14T06:12:13.000Z</time>
      </trkpt>
      <trkpt lat="48.67706" lon="2.43889">
        <ele>127</ele>
        <time>2013-04-14T06:12:16.000Z</time>
      </trkpt>
      <trkpt lat="48.67705" lon="2.43888">
        <ele>127</ele>
        <time>2013-04-14T06:12:17.000Z</time>
      </trkpt>
      <trkpt lat="48.67701" lon="2.43888">
        <ele>125</ele>
        <time>2013-04-14T06:12:20.000Z</time>
      </trkpt>
      <trkpt lat="48.67699" lon="2.43889">
        <ele>125</ele>
        <time>2013-04-14T06:12:21.000Z</time>
      </trkpt>
      <trkpt lat="48.67695" lon="2.43888">
        <ele>125</ele>
        <time>2013-04-14T06:12:25.000Z</time>
      </trkpt>
      <trkpt lat="48.67694" lon="2.43887">
        <ele>125</ele>
        <time>2013-04-14T06:12:26.000Z</time>
      </trkpt>
      <trkpt lat="48.6769" lon="2.43887">
        <ele>126</ele>
        <time>2013-04-14T06:12:29.000Z</time>
      </trkpt>
      <trkpt lat="48.67689" lon="2.43888">
        <ele>126</ele>
        <time>2013-04-14T06:12:30.000Z</time>
      </trkpt>
      <trkpt lat="48.67686" lon="2.4389">
        <ele>127</ele>
        <time>2013-04-14T06:12:33.000Z</time>
      </trkpt>
      <trkpt lat="48.67684" lon="2.43889">
        <ele>127</ele>
        <time>2013-04-14T06:12:34.000Z</time>
      </trkpt>
      <trkpt lat="48.67681" lon="2.43889">
        <ele>127</ele>
        <time>2013-04-14T06:12:37.000Z</time>
      </trkpt>
      <trkpt lat="48.67679" lon="2.43892">
        <ele>127</ele>
        <time>2013-04-14T06:12:38.000Z</time>
      </trkpt>
      <trkpt lat="48.67676" lon="2.43895">
        <ele>128</ele>
        <time>2013-04-14T06:12:42.000Z</time>
      </trkpt>
      <trkpt lat="48.67675" lon="2.43896">
        <ele>127</ele>
        <time>2013-04-14T06:12:43.000Z</time>
      </trkpt>
      <trkpt lat="48.67671" lon="2.439">
        <ele>126</ele>
        <time>2013-04-14T06:12:47.000Z</time>
      </trkpt>
      <trkpt lat="48.6767" lon="2.43901">
        <ele>126</ele>
        <time>2013-04-14T06:12:48.000Z</time>
      </trkpt>
      <trkpt lat="48.67666" lon="2.43903">
        <ele>125</ele>
        <time>2013-04-14T06:12:52.000Z</time>
      </trkpt>
      <trkpt lat="48.67666" lon="2.43905">
        <ele>124</ele>
        <time>2013-04-14T06:12:53.000Z</time>
      </trkpt>
      <trkpt lat="48.67663" lon="2.43907">
        <ele>123</ele>
        <time>2013-04-14T06:12:55.000Z</time>
      </trkpt>
      <trkpt lat="48.67661" lon="2.43908">
        <ele>123</ele>
        <time>2013-04-14T06:12:56.000Z</time>
      </trkpt>
      <trkpt lat="48.67657" lon="2.4391">
        <ele>123</ele>
        <time>2013-04-14T06:12:59.000Z</time>
      </trkpt>
      <trkpt lat="48.67656" lon="2.43911">
        <ele>123</ele>
        <time>2013-04-14T06:13:00.000Z</time>
      </trkpt>
      <trkpt lat="48.67652" lon="2.43913">
        <ele>123</ele>
        <time>2013-04-14T06:13:03.000Z</time>
      </trkpt>
      <trkpt lat="48.6765" lon="2.43913">
        <ele>123</ele>
        <time>2013-04-14T06:13:04.000Z</time>
      </trkpt>
      <trkpt lat="48.67647" lon="2.43914">
        <ele>124</ele>
        <time>2013-04-14T06:13:07.000Z</time>
      </trkpt>
      <trkpt lat="48.67645" lon="2.43915">
        <ele>124</ele>
        <time>2013-04-14T06:13:08.000Z</time>
      </trkpt>
      <trkpt lat="48.67641" lon="2.43917">
        <ele>124</ele>
        <time>2013-04-14T06:13:10.000Z</time>
      </trkpt>
      <trkpt lat="48.6764" lon="2.43918">
        <ele>124</ele>
        <time>2013-04-14T06:13:11.000Z</time>
      </trkpt>
      <trkpt lat="48.67637" lon="2.43923">
        <ele>123</ele>
        <time>2013-04-14T06:13:14.000Z</time>
      </trkpt>
      <trkpt lat="48.67636" lon="2.43924">
        <ele>123</ele>
        <time>2013-04-14T06:13:15.000Z</time>
      </trkpt>
      <trkpt lat="48.67633" lon="2.43929">
        <ele>124</ele>
        <time>2013-04-14T06:13:19.000Z</time>
      </trkpt>
      <trkpt lat="48.67633" lon="2.4393">
        <ele>123</ele>
        <time>2013-04-14T06:13:20.000Z</time>
      </trkpt>
      <trkpt lat="48.6763" lon="2.43931">
        <ele>123</ele>
        <time>2013-04-14T06:13:22.000Z</time>
      </trkpt>
      <trkpt lat="48.67629" lon="2.43932">
        <ele>124</ele>
        <time>2013-04-14T06:13:23.000Z</time>
      </trkpt>
      <trkpt lat="48.67626" lon="2.43935">
        <ele>123</ele>
        <time>2013-04-14T06:13:25.000Z</time>
      </trkpt>
      <trkpt lat="48.67624" lon="2.43936">
        <ele>124</ele>
        <time>2013-04-14T06:13:26.000Z</time>
      </trkpt>
      <trkpt lat="48.67622" lon="2.4394">
        <ele>125</ele>
        <time>2013-04-14T06:13:28.000Z</time>
      </trkpt>
      <trkpt lat="48.6762" lon="2.43942">
        <ele>125</ele>
        <time>2013-04-14T06:13:29.000Z</time>
      </trkpt>
      <trkpt lat="48.67617" lon="2.43946">
        <ele>125</ele>
        <time>2013-04-14T06:13:31.000Z</time>
      </trkpt>
      <trkpt lat="48.67615" lon="2.43948">
        <ele>125</ele>
        <time>2013-04-14T06:13:32.000Z</time>
      </trkpt>
      <trkpt lat="48.67612" lon="2.4395">
        <ele>125</ele>
        <time>2013-04-14T06:13:34.000Z</time>
      </trkpt>
      <trkpt lat="48.67611" lon="2.43952">
        <ele>126</ele>
        <time>2013-04-14T06:13:35.000Z</time>
      </trkpt>
      <trkpt lat="48.67606" lon="2.43954">
        <ele>125</ele>
        <time>2013-04-14T06:13:38.000Z</time>
      </trkpt>
      <trkpt lat="48.67605" lon="2.43955">
        <ele>125</ele>
        <time>2013-04-14T06:13:39.000Z</time>
      </trkpt>
      <trkpt lat="48.67603" lon="2.43958">
        <ele>124</ele>
        <time>2013-04-14T06:13:41.000Z</time>
      </trkpt>
      <trkpt lat="48.67601" lon="2.4396">
        <ele>124</ele>
        <time>2013-04-14T06:13:42.000Z</time>
      </trkpt>
      <trkpt lat="48.67599" lon="2.43963">
        <ele>124</ele>
        <time>2013-04-14T06:13:45.000Z</time>
      </trkpt>
      <trkpt lat="48.67598" lon="2.43965">
        <ele>123</ele>
        <time>2013-04-14T06:13:46.000Z</time>
      </trkpt>
      <trkpt lat="48.67596" lon="2.43967">
        <ele>124</ele>
        <time>2013-04-14T06:13:47.000Z</time>
      </trkpt>
      <trkpt lat="48.67594" lon="2.43969">
        <ele>124</ele>
        <time>2013-04-14T06:13:48.000Z</time>
      </trkpt>
      <trkpt lat="48.67591" lon="2.43971">
        <ele>124</ele>
        <time>2013-04-14T06:13:50.000Z</time>
      </trkpt>
      <trkpt lat="48.6759" lon="2.43973">
        <ele>124</ele>
        <time>2013-04-14T06:13:51.000Z</time>
      </trkpt>
      <trkpt lat="48.67587" lon="2.43977">
        <ele>122</ele>
        <time>2013-04-14T06:13:57.000Z</time>
      </trkpt>
      <trkpt lat="48.67587" lon="2.43979">
        <ele>122</ele>
        <time>2013-04-14T06:13:58.000Z</time>
      </trkpt>
      <trkpt lat="48.67583" lon="2.43981">
        <ele>123</ele>
        <time>2013-04-14T06:14:29.000Z</time>
      </trkpt>
      <trkpt lat="48.67582" lon="2.43982">
        <ele>124</ele>
        <time>2013-04-14T06:14:30.000Z</time>
      </trkpt>
      <trkpt lat="48.6758" lon="2.43986">
        <ele>123</ele>
        <time>2013-04-14T06:14:32.000Z</time>
      </trkpt>
      <trkpt lat="48.67577" lon="2.43988">
        <ele>123</ele>
        <time>2013-04-14T06:14:33.000Z</time>
      </trkpt>
      <trkpt lat="48.67575" lon="2.43993">
        <ele>124</ele>
        <time>2013-04-14T06:14:37.000Z</time>
      </trkpt>
      <trkpt lat="48.67574" lon="2.43996">
        <ele>125</ele>
        <time>2013-04-14T06:14:38.000Z</time>
      </trkpt>
      <trkpt lat="48.67573" lon="2.43998">
        <ele>126</ele>
        <time>2013-04-14T06:14:39.000Z</time>
      </trkpt>
      <trkpt lat="48.67571" lon="2.44002">
        <ele>125</ele>
        <time>2013-04-14T06:14:40.000Z</time>
      </trkpt>
      <trkpt lat="48.67569" lon="2.44004">
        <ele>124</ele>
        <time>2013-04-14T06:14:42.000Z</time>
      </trkpt>
      <trkpt lat="48.67567" lon="2.44007">
        <ele>124</ele>
        <time>2013-04-14T06:14:43.000Z</time>
      </trkpt>
      <trkpt lat="48.67566" lon="2.4401">
        <ele>124</ele>
        <time>2013-04-14T06:14:46.000Z</time>
      </trkpt>
      <trkpt lat="48.67563" lon="2.44015">
        <ele>125</ele>
        <time>2013-04-14T06:14:47.000Z</time>
      </trkpt>
      <trkpt lat="48.67561" lon="2.44019">
        <ele>126</ele>
        <time>2013-04-14T06:14:49.000Z</time>
      </trkpt>
      <trkpt lat="48.6756" lon="2.4402">
        <ele>127</ele>
        <time>2013-04-14T06:14:50.000Z</time>
      </trkpt>
      <trkpt lat="48.67557" lon="2.44024">
        <ele>127</ele>
        <time>2013-04-14T06:14:53.000Z</time>
      </trkpt>
      <trkpt lat="48.67557" lon="2.44025">
        <ele>128</ele>
        <time>2013-04-14T06:14:54.000Z</time>
      </trkpt>
      <trkpt lat="48.67554" lon="2.44029">
        <ele>128</ele>
        <time>2013-04-14T06:14:56.000Z</time>
      </trkpt>
      <trkpt lat="48.67553" lon="2.4403">
        <ele>127</ele>
        <time>2013-04-14T06:14:57.000Z</time>
      </trkpt>
      <trkpt lat="48.67552" lon="2.44035">
        <ele>128</ele>
        <time>2013-04-14T06:15:01.000Z</time>
      </trkpt>
      <trkpt lat="48.67551" lon="2.44036">
        <ele>128</ele>
        <time>2013-04-14T06:15:02.000Z</time>
      </trkpt>
      <trkpt lat="48.67549" lon="2.44041">
        <ele>129</ele>
        <time>2013-04-14T06:15:05.000Z</time>
      </trkpt>
      <trkpt lat="48.67548" lon="2.44042">
        <ele>130</ele>
        <time>2013-04-14T06:15:06.000Z</time>
      </trkpt>
      <trkpt lat="48.67546" lon="2.44046">
        <ele>129</ele>
        <time>2013-04-14T06:15:09.000Z</time>
      </trkpt>
      <trkpt lat="48.67545" lon="2.44048">
        <ele>128</ele>
        <time>2013-04-14T06:15:10.000Z</time>
      </trkpt>
      <trkpt lat="48.67543" lon="2.44054">
        <ele>128</ele>
        <time>2013-04-14T06:15:13.000Z</time>
      </trkpt>
      <trkpt lat="48.67543" lon="2.44056">
        <ele>128</ele>
        <time>2013-04-14T06:15:14.000Z</time>
      </trkpt>
      <trkpt lat="48.67541" lon="2.44062">
        <ele>128</ele>
        <time>2013-04-14T06:15:17.000Z</time>
      </trkpt>
      <trkpt lat="48.67541" lon="2.44064">
        <ele>127</ele>
        <time>2013-04-14T06:15:18.000Z</time>
      </trkpt>
      <trkpt lat="48.67541" lon="2.4407">
        <ele>128</ele>
        <time>2013-04-14T06:15:22.000Z</time>
      </trkpt>
      <trkpt lat="48.67541" lon="2.44073">
        <ele>129</ele>
        <time>2013-04-14T06:15:23.000Z</time>
      </trkpt>
      <trkpt lat="48.67539" lon="2.44078">
        <ele>127</ele>
        <time>2013-04-14T06:15:27.000Z</time>
      </trkpt>
      <trkpt lat="48.67538" lon="2.44079">
        <ele>127</ele>
        <time>2013-04-14T06:15:28.000Z</time>
      </trkpt>
      <trkpt lat="48.67536" lon="2.44083">
        <ele>127</ele>
        <time>2013-04-14T06:15:30.000Z</time>
      </trkpt>
      <trkpt lat="48.67535" lon="2.44084">
        <ele>127</ele>
        <time>2013-04-14T06:15:31.000Z</time>
      </trkpt>
      <trkpt lat="48.67531" lon="2.44086">
        <ele>127</ele>
        <time>2013-04-14T06:15:34.000Z</time>
      </trkpt>
      <trkpt lat="48.6753" lon="2.44086">
        <ele>127</ele>
        <time>2013-04-14T06:15:35.000Z</time>
      </trkpt>
      <trkpt lat="48.67525" lon="2.44087">
        <ele>127</ele>
        <time>2013-04-14T06:15:40.000Z</time>
      </trkpt>
      <trkpt lat="48.67525" lon="2.44088">
        <ele>127</ele>
        <time>2013-04-14T06:15:41.000Z</time>
      </trkpt>
      <trkpt lat="48.67522" lon="2.44092">
        <ele>128</ele>
        <time>2013-04-14T06:15:44.000Z</time>
      </trkpt>
      <trkpt lat="48.67521" lon="2.44093">
        <ele>128</ele>
        <time>2013-04-14T06:15:45.000Z</time>
      </trkpt>
      <trkpt lat="48.67518" lon="2.44096">
        <ele>128</ele>
        <time>2013-04-14T06:15:48.000Z</time>
      </trkpt>
      <trkpt lat="48.67516" lon="2.44099">
        <ele>129</ele>
        <time>2013-04-14T06:15:49.000Z</time>
      </trkpt>
      <trkpt lat="48.67515" lon="2.44104">
        <ele>129</ele>
        <time>2013-04-14T06:15:51.000Z</time>
      </trkpt>
      <trkpt lat="48.67514" lon="2.44106">
        <ele>129</ele>
        <time>2013-04-14T06:15:52.000Z</time>
      </trkpt>
      <trkpt lat="48.6751" lon="2.44108">
        <ele>130</ele>
        <time>2013-04-14T06:15:55.000Z</time>
      </trkpt>
      <trkpt lat="48.67509" lon="2.44109">
        <ele>130</ele>
        <time>2013-04-14T06:15:56.000Z</time>
      </trkpt>
      <trkpt lat="48.67506" lon="2.44113">
        <ele>129</ele>
        <time>2013-04-14T06:16:00.000Z</time>
      </trkpt>
      <trkpt lat="48.67505" lon="2.44114">
        <ele>129</ele>
        <time>2013-04-14T06:16:01.000Z</time>
      </trkpt>
      <trkpt lat="48.67502" lon="2.44117">
        <ele>128</ele>
        <time>2013-04-14T06:16:04.000Z</time>
      </trkpt>
      <trkpt lat="48.675" lon="2.44118">
        <ele>128</ele>
        <time>2013-04-14T06:16:05.000Z</time>
      </trkpt>
      <trkpt lat="48.67498" lon="2.44121">
        <ele>125</ele>
        <time>2013-04-14T06:16:09.000Z</time>
      </trkpt>
      <trkpt lat="48.67496" lon="2.44122">
        <ele>125</ele>
        <time>2013-04-14T06:16:10.000Z</time>
      </trkpt>
      <trkpt lat="48.67494" lon="2.44126">
        <ele>124</ele>
        <time>2013-04-14T06:16:12.000Z</time>
      </trkpt>
      <trkpt lat="48.67493" lon="2.44128">
        <ele>125</ele>
        <time>2013-04-14T06:16:13.000Z</time>
      </trkpt>
      <trkpt lat="48.67489" lon="2.44133">
        <ele>125</ele>
        <time>2013-04-14T06:16:16.000Z</time>
      </trkpt>
      <trkpt lat="48.67489" lon="2.44135">
        <ele>125</ele>
        <time>2013-04-14T06:16:17.000Z</time>
      </trkpt>
      <trkpt lat="48.67487" lon="2.44139">
        <ele>126</ele>
        <time>2013-04-14T06:16:20.000Z</time>
      </trkpt>
      <trkpt lat="48.67487" lon="2.44142">
        <ele>125</ele>
        <time>2013-04-14T06:16:21.000Z</time>
      </trkpt>
      <trkpt lat="48.67488" lon="2.44147">
        <ele>124</ele>
        <time>2013-04-14T06:16:25.000Z</time>
      </trkpt>
      <trkpt lat="48.67489" lon="2.4415">
        <ele>123</ele>
        <time>2013-04-14T06:16:26.000Z</time>
      </trkpt>
      <trkpt lat="48.67491" lon="2.44154">
        <ele>124</ele>
        <time>2013-04-14T06:16:30.000Z</time>
      </trkpt>
      <trkpt lat="48.67492" lon="2.44156">
        <ele>123</ele>
        <time>2013-04-14T06:16:31.000Z</time>
      </trkpt>
      <trkpt lat="48.67493" lon="2.44159">
        <ele>123</ele>
        <time>2013-04-14T06:16:34.000Z</time>
      </trkpt>
      <trkpt lat="48.67494" lon="2.44163">
        <ele>122</ele>
        <time>2013-04-14T06:16:36.000Z</time>
      </trkpt>
      <trkpt lat="48.67496" lon="2.44168">
        <ele>121</ele>
        <time>2013-04-14T06:16:40.000Z</time>
      </trkpt>
      <trkpt lat="48.67496" lon="2.44172">
        <ele>121</ele>
        <time>2013-04-14T06:16:41.000Z</time>
      </trkpt>
      <trkpt lat="48.67497" lon="2.44178">
        <ele>122</ele>
        <time>2013-04-14T06:16:43.000Z</time>
      </trkpt>
      <trkpt lat="48.67498" lon="2.44179">
        <ele>122</ele>
        <time>2013-04-14T06:16:44.000Z</time>
      </trkpt>
      <trkpt lat="48.67498" lon="2.44183">
        <ele>123</ele>
        <time>2013-04-14T06:16:46.000Z</time>
      </trkpt>
      <trkpt lat="48.67498" lon="2.44186">
        <ele>123</ele>
        <time>2013-04-14T06:16:47.000Z</time>
      </trkpt>
      <trkpt lat="48.67499" lon="2.44192">
        <ele>124</ele>
        <time>2013-04-14T06:16:50.000Z</time>
      </trkpt>
      <trkpt lat="48.67499" lon="2.44193">
        <ele>123</ele>
        <time>2013-04-14T06:16:51.000Z</time>
      </trkpt>
      <trkpt lat="48.675" lon="2.44199">
        <ele>124</ele>
        <time>2013-04-14T06:16:54.000Z</time>
      </trkpt>
      <trkpt lat="48.675" lon="2.44201">
        <ele>125</ele>
        <time>2013-04-14T06:16:55.000Z</time>
      </trkpt>
      <trkpt lat="48.675" lon="2.44206">
        <ele>125</ele>
        <time>2013-04-14T06:16:58.000Z</time>
      </trkpt>
      <trkpt lat="48.675" lon="2.44208">
        <ele>125</ele>
        <time>2013-04-14T06:16:59.000Z</time>
      </trkpt>
      <trkpt lat="48.675" lon="2.44213">
        <ele>127</ele>
        <time>2013-04-14T06:17:04.000Z</time>
      </trkpt>
      <trkpt lat="48.675" lon="2.44215">
        <ele>127</ele>
        <time>2013-04-14T06:17:05.000Z</time>
      </trkpt>
      <trkpt lat="48.67498" lon="2.44218">
        <ele>126</ele>
        <time>2013-04-14T06:17:07.000Z</time>
      </trkpt>
      <trkpt lat="48.67496" lon="2.44223">
        <ele>125</ele>
        <time>2013-04-14T06:17:08.000Z</time>
      </trkpt>
      <trkpt lat="48.67494" lon="2.44229">
        <ele>126</ele>
        <time>2013-04-14T06:17:13.000Z</time>
      </trkpt>
      <trkpt lat="48.67495" lon="2.4423">
        <ele>126</ele>
        <time>2013-04-14T06:17:14.000Z</time>
      </trkpt>
      <trkpt lat="48.67493" lon="2.44235">
        <ele>126</ele>
        <time>2013-04-14T06:17:17.000Z</time>
      </trkpt>
      <trkpt lat="48.67493" lon="2.44238">
        <ele>127</ele>
        <time>2013-04-14T06:17:18.000Z</time>
      </trkpt>
      <trkpt lat="48.67492" lon="2.44245">
        <ele>128</ele>
        <time>2013-04-14T06:17:21.000Z</time>
      </trkpt>
      <trkpt lat="48.6749" lon="2.44247">
        <ele>129</ele>
        <time>2013-04-14T06:17:22.000Z</time>
      </trkpt>
      <trkpt lat="48.67487" lon="2.44251">
        <ele>128</ele>
        <time>2013-04-14T06:17:25.000Z</time>
      </trkpt>
      <trkpt lat="48.67485" lon="2.44253">
        <ele>127</ele>
        <time>2013-04-14T06:17:26.000Z</time>
      </trkpt>
      <trkpt lat="48.67484" lon="2.44258">
        <ele>127</ele>
        <time>2013-04-14T06:17:29.000Z</time>
      </trkpt>
      <trkpt lat="48.67482" lon="2.44259">
        <ele>127</ele>
        <time>2013-04-14T06:17:30.000Z</time>
      </trkpt>
      <trkpt lat="48.67479" lon="2.44262">
        <ele>127</ele>
        <time>2013-04-14T06:17:32.000Z</time>
      </trkpt>
      <trkpt lat="48.67478" lon="2.44264">
        <ele>127</ele>
        <time>2013-04-14T06:17:33.000Z</time>
      </trkpt>
      <trkpt lat="48.67477" lon="2.44271">
        <ele>128</ele>
        <time>2013-04-14T06:17:36.000Z</time>
      </trkpt>
      <trkpt lat="48.67477" lon="2.44273">
        <ele>128</ele>
        <time>2013-04-14T06:17:37.000Z</time>
      </trkpt>
      <trkpt lat="48.67476" lon="2.44278">
        <ele>128</ele>
        <time>2013-04-14T06:17:41.000Z</time>
      </trkpt>
      <trkpt lat="48.67477" lon="2.4428">
        <ele>128</ele>
        <time>2013-04-14T06:17:42.000Z</time>
      </trkpt>
      <trkpt lat="48.67476" lon="2.44285">
        <ele>131</ele>
        <time>2013-04-14T06:17:45.000Z</time>
      </trkpt>
      <trkpt lat="48.67476" lon="2.44288">
        <ele>132</ele>
        <time>2013-04-14T06:17:46.000Z</time>
      </trkpt>
      <trkpt lat="48.67477" lon="2.44295">
        <ele>131</ele>
        <time>2013-04-14T06:17:50.000Z</time>
      </trkpt>
      <trkpt lat="48.67477" lon="2.44298">
        <ele>131</ele>
        <time>2013-04-14T06:17:51.000Z</time>
      </trkpt>
      <trkpt lat="48.67476" lon="2.44304">
        <ele>131</ele>
        <time>2013-04-14T06:17:57.000Z</time>
      </trkpt>
      <trkpt lat="48.67476" lon="2.44305">
        <ele>131</ele>
        <time>2013-04-14T06:17:58.000Z</time>
      </trkpt>
      <trkpt lat="48.67474" lon="2.4431">
        <ele>131</ele>
        <time>2013-04-14T06:18:01.000Z</time>
      </trkpt>
      <trkpt lat="48.67472" lon="2.44311">
        <ele>131</ele>
        <time>2013-04-14T06:18:02.000Z</time>
      </trkpt>
      <trkpt lat="48.67471" lon="2.44317">
        <ele>132</ele>
        <time>2013-04-14T06:18:05.000Z</time>
      </trkpt>
      <trkpt lat="48.6747" lon="2.44319">
        <ele>132</ele>
        <time>2013-04-14T06:18:06.000Z</time>
      </trkpt>
      <trkpt lat="48.67469" lon="2.44323">
        <ele>132</ele>
        <time>2013-04-14T06:18:13.000Z</time>
      </trkpt>
      <trkpt lat="48.67468" lon="2.44327">
        <ele>132</ele>
        <time>2013-04-14T06:18:14.000Z</time>
      </trkpt>
      <trkpt lat="48.67467" lon="2.44332">
        <ele>133</ele>
        <time>2013-04-14T06:18:16.000Z</time>
      </trkpt>
      <trkpt lat="48.67466" lon="2.44334">
        <ele>133</ele>
        <time>2013-04-14T06:18:17.000Z</time>
      </trkpt>
      <trkpt lat="48.67463" lon="2.44339">
        <ele>133</ele>
        <time>2013-04-14T06:18:19.000Z</time>
      </trkpt>
      <trkpt lat="48.67462" lon="2.44339">
        <ele>133</ele>
        <time>2013-04-14T06:18:20.000Z</time>
      </trkpt>
      <trkpt lat="48.6746" lon="2.44343">
        <ele>134</ele>
        <time>2013-04-14T06:18:22.000Z</time>
      </trkpt>
      <trkpt lat="48.67459" lon="2.44344">
        <ele>134</ele>
        <time>2013-04-14T06:18:23.000Z</time>
      </trkpt>
      <trkpt lat="48.67457" lon="2.44348">
        <ele>132</ele>
        <time>2013-04-14T06:18:27.000Z</time>
      </trkpt>
      <trkpt lat="48.67456" lon="2.44351">
        <ele>132</ele>
        <time>2013-04-14T06:18:28.000Z</time>
      </trkpt>
      <trkpt lat="48.67452" lon="2.44354">
        <ele>131</ele>
        <time>2013-04-14T06:18:30.000Z</time>
      </trkpt>
      <trkpt lat="48.67451" lon="2.44356">
        <ele>131</ele>
        <time>2013-04-14T06:18:31.000Z</time>
      </trkpt>
      <trkpt lat="48.67449" lon="2.44358">
        <ele>130</ele>
        <time>2013-04-14T06:18:33.000Z</time>
      </trkpt>
      <trkpt lat="48.67448" lon="2.4436">
        <ele>129</ele>
        <time>2013-04-14T06:18:34.000Z</time>
      </trkpt>
      <trkpt lat="48.67444" lon="2.44362">
        <ele>127</ele>
        <time>2013-04-14T06:18:37.000Z</time>
      </trkpt>
      <trkpt lat="48.67443" lon="2.44363">
        <ele>127</ele>
        <time>2013-04-14T06:18:38.000Z</time>
      </trkpt>
      <trkpt lat="48.67441" lon="2.44366">
        <ele>129</ele>
        <time>2013-04-14T06:18:39.000Z</time>
      </trkpt>
      <trkpt lat="48.6744" lon="2.44367">
        <ele>128</ele>
        <time>2013-04-14T06:18:40.000Z</time>
      </trkpt>
      <trkpt lat="48.67437" lon="2.44371">
        <ele>128</ele>
        <time>2013-04-14T06:18:43.000Z</time>
      </trkpt>
      <trkpt lat="48.67436" lon="2.44373">
        <ele>128</ele>
        <time>2013-04-14T06:18:44.000Z</time>
      </trkpt>
      <trkpt lat="48.67433" lon="2.44376">
        <ele>129</ele>
        <time>2013-04-14T06:18:47.000Z</time>
      </trkpt>
      <trkpt lat="48.67431" lon="2.44378">
        <ele>129</ele>
        <time>2013-04-14T06:18:48.000Z</time>
      </trkpt>
      <trkpt lat="48.67429" lon="2.44384">
        <ele>128</ele>
        <time>2013-04-14T06:18:53.000Z</time>
      </trkpt>
      <trkpt lat="48.67427" lon="2.44386">
        <ele>129</ele>
        <time>2013-04-14T06:18:54.000Z</time>
      </trkpt>
      <trkpt lat="48.67426" lon="2.4439">
        <ele>128</ele>
        <time>2013-04-14T06:18:57.000Z</time>
      </trkpt>
      <trkpt lat="48.67425" lon="2.44392">
        <ele>128</ele>
        <time>2013-04-14T06:18:58.000Z</time>
      </trkpt>
      <trkpt lat="48.67421" lon="2.44394">
        <ele>128</ele>
        <time>2013-04-14T06:19:01.000Z</time>
      </trkpt>
      <trkpt lat="48.6742" lon="2.44395">
        <ele>129</ele>
        <time>2013-04-14T06:19:02.000Z</time>
      </trkpt>
      <trkpt lat="48.67416" lon="2.44395">
        <ele>129</ele>
        <time>2013-04-14T06:19:06.000Z</time>
      </trkpt>
      <trkpt lat="48.67415" lon="2.44396">
        <ele>129</ele>
        <time>2013-04-14T06:19:07.000Z</time>
      </trkpt>
      <trkpt lat="48.67411" lon="2.44396">
        <ele>128</ele>
        <time>2013-04-14T06:19:11.000Z</time>
      </trkpt>
      <trkpt lat="48.67409" lon="2.44395">
        <ele>127</ele>
        <time>2013-04-14T06:19:12.000Z</time>
      </trkpt>
      <trkpt lat="48.67406" lon="2.44394">
        <ele>127</ele>
        <time>2013-04-14T06:19:15.000Z</time>
      </trkpt>
      <trkpt lat="48.67404" lon="2.44395">
        <ele>127</ele>
        <time>2013-04-14T06:19:16.000Z</time>
      </trkpt>
      <trkpt lat="48.674" lon="2.44397">
        <ele>128</ele>
        <time>2013-04-14T06:19:20.000Z</time>
      </trkpt>
      <trkpt lat="48.67399" lon="2.44398">
        <ele>128</ele>
        <time>2013-04-14T06:19:21.000Z</time>
      </trkpt>
      <trkpt lat="48.67396" lon="2.44398">
        <ele>128</ele>
        <time>2013-04-14T06:19:24.000Z</time>
      </trkpt>
      <trkpt lat="48.67395" lon="2.44399">
        <ele>128</ele>
        <time>2013-04-14T06:19:25.000Z</time>
      </trkpt>
      <trkpt lat="48.67391" lon="2.44397">
        <ele>128</ele>
        <time>2013-04-14T06:19:29.000Z</time>
      </trkpt>
      <trkpt lat="48.6739" lon="2.44398">
        <ele>128</ele>
        <time>2013-04-14T06:19:30.000Z</time>
      </trkpt>
      <trkpt lat="48.67385" lon="2.44399">
        <ele>128</ele>
        <time>2013-04-14T06:19:33.000Z</time>
      </trkpt>
      <trkpt lat="48.67384" lon="2.44398">
        <ele>129</ele>
        <time>2013-04-14T06:19:34.000Z</time>
      </trkpt>
      <trkpt lat="48.67382" lon="2.44401">
        <ele>129</ele>
        <time>2013-04-14T06:19:37.000Z</time>
      </trkpt>
      <trkpt lat="48.67381" lon="2.44403">
        <ele>129</ele>
        <time>2013-04-14T06:19:38.000Z</time>
      </trkpt>
      <trkpt lat="48.6738" lon="2.44408">
        <ele>128</ele>
        <time>2013-04-14T06:19:41.000Z</time>
      </trkpt>
      <trkpt lat="48.6738" lon="2.4441">
        <ele>129</ele>
        <time>2013-04-14T06:19:42.000Z</time>
      </trkpt>
      <trkpt lat="48.67379" lon="2.44417">
        <ele>129</ele>
        <time>2013-04-14T06:19:46.000Z</time>
      </trkpt>
      <trkpt lat="48.67378" lon="2.44419">
        <ele>129</ele>
        <time>2013-04-14T06:19:47.000Z</time>
      </trkpt>
      <trkpt lat="48.67378" lon="2.44425">
        <ele>129</ele>
        <time>2013-04-14T06:19:50.000Z</time>
      </trkpt>
      <trkpt lat="48.67378" lon="2.44427">
        <ele>130</ele>
        <time>2013-04-14T06:19:51.000Z</time>
      </trkpt>
      <trkpt lat="48.67378" lon="2.44433">
        <ele>131</ele>
        <time>2013-04-14T06:19:55.000Z</time>
      </trkpt>
      <trkpt lat="48.67379" lon="2.44434">
        <ele>130</ele>
        <time>2013-04-14T06:19:56.000Z</time>
      </trkpt>
      <trkpt lat="48.67381" lon="2.44439">
        <ele>130</ele>
        <time>2013-04-14T06:19:59.000Z</time>
      </trkpt>
      <trkpt lat="48.67382" lon="2.44442">
        <ele>131</ele>
        <time>2013-04-14T06:20:00.000Z</time>
      </trkpt>
      <trkpt lat="48.67386" lon="2.44445">
        <ele>131</ele>
        <time>2013-04-14T06:20:03.000Z</time>
      </trkpt>
      <trkpt lat="48.67387" lon="2.44447">
        <ele>131</ele>
        <time>2013-04-14T06:20:04.000Z</time>
      </trkpt>
      <trkpt lat="48.67391" lon="2.44448">
        <ele>133</ele>
        <time>2013-04-14T06:20:06.000Z</time>
      </trkpt>
      <trkpt lat="48.67392" lon="2.4445">
        <ele>132</ele>
        <time>2013-04-14T06:20:07.000Z</time>
      </trkpt>
      <trkpt lat="48.67394" lon="2.44454">
        <ele>134</ele>
        <time>2013-04-14T06:20:10.000Z</time>
      </trkpt>
      <trkpt lat="48.67393" lon="2.44457">
        <ele>134</ele>
        <time>2013-04-14T06:20:11.000Z</time>
      </trkpt>
      <trkpt lat="48.67392" lon="2.44462">
        <ele>135</ele>
        <time>2013-04-14T06:20:14.000Z</time>
      </trkpt>
      <trkpt lat="48.67392" lon="2.44464">
        <ele>134</ele>
        <time>2013-04-14T06:20:15.000Z</time>
      </trkpt>
      <trkpt lat="48.67389" lon="2.44467">
        <ele>134</ele>
        <time>2013-04-14T06:20:18.000Z</time>
      </trkpt>
      <trkpt lat="48.67388" lon="2.44468">
        <ele>133</ele>
        <time>2013-04-14T06:20:19.000Z</time>
      </trkpt>
      <trkpt lat="48.67384" lon="2.44468">
        <ele>132</ele>
        <time>2013-04-14T06:20:36.000Z</time>
      </trkpt>
      <trkpt lat="48.67383" lon="2.44469">
        <ele>133</ele>
        <time>2013-04-14T06:20:37.000Z</time>
      </trkpt>
      <trkpt lat="48.67381" lon="2.44472">
        <ele>133</ele>
        <time>2013-04-14T06:20:40.000Z</time>
      </trkpt>
      <trkpt lat="48.67379" lon="2.44473">
        <ele>132</ele>
        <time>2013-04-14T06:20:41.000Z</time>
      </trkpt>
      <trkpt lat="48.67378" lon="2.44479">
        <ele>133</ele>
        <time>2013-04-14T06:20:47.000Z</time>
      </trkpt>
      <trkpt lat="48.67376" lon="2.4448">
        <ele>132</ele>
        <time>2013-04-14T06:20:48.000Z</time>
      </trkpt>
      <trkpt lat="48.67373" lon="2.44484">
        <ele>133</ele>
        <time>2013-04-14T06:20:50.000Z</time>
      </trkpt>
      <trkpt lat="48.67372" lon="2.44485">
        <ele>131</ele>
        <time>2013-04-14T06:20:51.000Z</time>
      </trkpt>
      <trkpt lat="48.67368" lon="2.44487">
        <ele>135</ele>
        <time>2013-04-14T06:20:54.000Z</time>
      </trkpt>
      <trkpt lat="48.67367" lon="2.44489">
        <ele>135</ele>
        <time>2013-04-14T06:20:55.000Z</time>
      </trkpt>
      <trkpt lat="48.67365" lon="2.4449">
        <ele>134</ele>
        <time>2013-04-14T06:20:58.000Z</time>
      </trkpt>
      <trkpt lat="48.67363" lon="2.44492">
        <ele>133</ele>
        <time>2013-04-14T06:20:59.000Z</time>
      </trkpt>
      <trkpt lat="48.67361" lon="2.44494">
        <ele>133</ele>
        <time>2013-04-14T06:21:00.000Z</time>
      </trkpt>
      <trkpt lat="48.67359" lon="2.44496">
        <ele>132</ele>
        <time>2013-04-14T06:21:01.000Z</time>
      </trkpt>
      <trkpt lat="48.67359" lon="2.44503">
        <ele>131</ele>
        <time>2013-04-14T06:21:06.000Z</time>
      </trkpt>
      <trkpt lat="48.67358" lon="2.44504">
        <ele>130</ele>
        <time>2013-04-14T06:21:07.000Z</time>
      </trkpt>
      <trkpt lat="48.67354" lon="2.44504">
        <ele>130</ele>
        <time>2013-04-14T06:21:09.000Z</time>
      </trkpt>
      <trkpt lat="48.67354" lon="2.44506">
        <ele>129</ele>
        <time>2013-04-14T06:21:10.000Z</time>
      </trkpt>
      <trkpt lat="48.67351" lon="2.44509">
        <ele>128</ele>
        <time>2013-04-14T06:21:13.000Z</time>
      </trkpt>
      <trkpt lat="48.67349" lon="2.4451">
        <ele>128</ele>
        <time>2013-04-14T06:21:14.000Z</time>
      </trkpt>
      <trkpt lat="48.67346" lon="2.44514">
        <ele>127</ele>
        <time>2013-04-14T06:21:19.000Z</time>
      </trkpt>
      <trkpt lat="48.67345" lon="2.44513">
        <ele>127</ele>
        <time>2013-04-14T06:21:20.000Z</time>
      </trkpt>
      <trkpt lat="48.67342" lon="2.44516">
        <ele>126</ele>
        <time>2013-04-14T06:21:23.000Z</time>
      </trkpt>
      <trkpt lat="48.6734" lon="2.44516">
        <ele>126</ele>
        <time>2013-04-14T06:21:24.000Z</time>
      </trkpt>
      <trkpt lat="48.67337" lon="2.44519">
        <ele>127</ele>
        <time>2013-04-14T06:21:30.000Z</time>
      </trkpt>
      <trkpt lat="48.67335" lon="2.44519">
        <ele>127</ele>
        <time>2013-04-14T06:21:31.000Z</time>
      </trkpt>
      <trkpt lat="48.67334" lon="2.44525">
        <ele>127</ele>
        <time>2013-04-14T06:21:34.000Z</time>
      </trkpt>
      <trkpt lat="48.67332" lon="2.44525">
        <ele>127</ele>
        <time>2013-04-14T06:21:35.000Z</time>
      </trkpt>
      <trkpt lat="48.6733" lon="2.44528">
        <ele>125</ele>
        <time>2013-04-14T06:21:40.000Z</time>
      </trkpt>
      <trkpt lat="48.67329" lon="2.4453">
        <ele>126</ele>
        <time>2013-04-14T06:21:41.000Z</time>
      </trkpt>
      <trkpt lat="48.67326" lon="2.44533">
        <ele>127</ele>
        <time>2013-04-14T06:21:44.000Z</time>
      </trkpt>
      <trkpt lat="48.67325" lon="2.44534">
        <ele>128</ele>
        <time>2013-04-14T06:21:45.000Z</time>
      </trkpt>
      <trkpt lat="48.67324" lon="2.44538">
        <ele>128</ele>
        <time>2013-04-14T06:21:47.000Z</time>
      </trkpt>
      <trkpt lat="48.67324" lon="2.44542">
        <ele>128</ele>
        <time>2013-04-14T06:21:48.000Z</time>
      </trkpt>
      <trkpt lat="48.67322" lon="2.44547">
        <ele>128</ele>
        <time>2013-04-14T06:21:52.000Z</time>
      </trkpt>
      <trkpt lat="48.6732" lon="2.44547">
        <ele>128</ele>
        <time>2013-04-14T06:21:53.000Z</time>
      </trkpt>
      <trkpt lat="48.67317" lon="2.44549">
        <ele>129</ele>
        <time>2013-04-14T06:21:58.000Z</time>
      </trkpt>
      <trkpt lat="48.67315" lon="2.44549">
        <ele>130</ele>
        <time>2013-04-14T06:21:59.000Z</time>
      </trkpt>
      <trkpt lat="48.67311" lon="2.44552">
        <ele>131</ele>
        <time>2013-04-14T06:22:02.000Z</time>
      </trkpt>
      <trkpt lat="48.6731" lon="2.44554">
        <ele>130</ele>
        <time>2013-04-14T06:22:03.000Z</time>
      </trkpt>
      <trkpt lat="48.67307" lon="2.44558">
        <ele>132</ele>
        <time>2013-04-14T06:22:06.000Z</time>
      </trkpt>
      <trkpt lat="48.67306" lon="2.4456">
        <ele>132</ele>
        <time>2013-04-14T06:22:07.000Z</time>
      </trkpt>
      <trkpt lat="48.67302" lon="2.44563">
        <ele>132</ele>
        <time>2013-04-14T06:22:11.000Z</time>
      </trkpt>
      <trkpt lat="48.67301" lon="2.44564">
        <ele>133</ele>
        <time>2013-04-14T06:22:12.000Z</time>
      </trkpt>
      <trkpt lat="48.67298" lon="2.44567">
        <ele>133</ele>
        <time>2013-04-14T06:22:14.000Z</time>
      </trkpt>
      <trkpt lat="48.67297" lon="2.44568">
        <ele>134</ele>
        <time>2013-04-14T06:22:15.000Z</time>
      </trkpt>
      <trkpt lat="48.67293" lon="2.4457">
        <ele>134</ele>
        <time>2013-04-14T06:22:19.000Z</time>
      </trkpt>
      <trkpt lat="48.67292" lon="2.44569">
        <ele>132</ele>
        <time>2013-04-14T06:22:20.000Z</time>
      </trkpt>
      <trkpt lat="48.67288" lon="2.44571">
        <ele>132</ele>
        <time>2013-04-14T06:22:25.000Z</time>
      </trkpt>
      <trkpt lat="48.67288" lon="2.44573">
        <ele>132</ele>
        <time>2013-04-14T06:22:26.000Z</time>
      </trkpt>
      <trkpt lat="48.67285" lon="2.44577">
        <ele>132</ele>
        <time>2013-04-14T06:22:31.000Z</time>
      </trkpt>
      <trkpt lat="48.67284" lon="2.44578">
        <ele>132</ele>
        <time>2013-04-14T06:22:32.000Z</time>
      </trkpt>
      <trkpt lat="48.67281" lon="2.44582">
        <ele>132</ele>
        <time>2013-04-14T06:22:35.000Z</time>
      </trkpt>
      <trkpt lat="48.6728" lon="2.44583">
        <ele>131</ele>
        <time>2013-04-14T06:22:36.000Z</time>
      </trkpt>
      <trkpt lat="48.67278" lon="2.44586">
        <ele>131</ele>
        <time>2013-04-14T06:22:39.000Z</time>
      </trkpt>
      <trkpt lat="48.67276" lon="2.44587">
        <ele>131</ele>
        <time>2013-04-14T06:22:40.000Z</time>
      </trkpt>
      <trkpt lat="48.67273" lon="2.4459">
        <ele>130</ele>
        <time>2013-04-14T06:22:42.000Z</time>
      </trkpt>
      <trkpt lat="48.67271" lon="2.44593">
        <ele>132</ele>
        <time>2013-04-14T06:22:43.000Z</time>
      </trkpt>
      <trkpt lat="48.67268" lon="2.44596">
        <ele>132</ele>
        <time>2013-04-14T06:22:45.000Z</time>
      </trkpt>
      <trkpt lat="48.67267" lon="2.44597">
        <ele>133</ele>
        <time>2013-04-14T06:22:46.000Z</time>
      </trkpt>
      <trkpt lat="48.67264" lon="2.446">
        <ele>133</ele>
        <time>2013-04-14T06:22:49.000Z</time>
      </trkpt>
      <trkpt lat="48.67263" lon="2.44601">
        <ele>133</ele>
        <time>2013-04-14T06:22:50.000Z</time>
      </trkpt>
      <trkpt lat="48.67259" lon="2.44604">
        <ele>132</ele>
        <time>2013-04-14T06:22:54.000Z</time>
      </trkpt>
      <trkpt lat="48.67258" lon="2.44605">
        <ele>131</ele>
        <time>2013-04-14T06:22:55.000Z</time>
      </trkpt>
      <trkpt lat="48.67256" lon="2.44608">
        <ele>131</ele>
        <time>2013-04-14T06:22:58.000Z</time>
      </trkpt>
      <trkpt lat="48.67255" lon="2.44609">
        <ele>131</ele>
        <time>2013-04-14T06:22:59.000Z</time>
      </trkpt>
      <trkpt lat="48.67251" lon="2.44613">
        <ele>130</ele>
        <time>2013-04-14T06:23:03.000Z</time>
      </trkpt>
      <trkpt lat="48.67251" lon="2.44614">
        <ele>130</ele>
        <time>2013-04-14T06:23:04.000Z</time>
      </trkpt>
      <trkpt lat="48.67248" lon="2.44617">
        <ele>131</ele>
        <time>2013-04-14T06:23:06.000Z</time>
      </trkpt>
      <trkpt lat="48.67246" lon="2.44619">
        <ele>131</ele>
        <time>2013-04-14T06:23:07.000Z</time>
      </trkpt>
      <trkpt lat="48.67243" lon="2.44622">
        <ele>132</ele>
        <time>2013-04-14T06:23:10.000Z</time>
      </trkpt>
      <trkpt lat="48.67242" lon="2.44623">
        <ele>132</ele>
        <time>2013-04-14T06:23:11.000Z</time>
      </trkpt>
      <trkpt lat="48.67238" lon="2.44626">
        <ele>133</ele>
        <time>2013-04-14T06:23:15.000Z</time>
      </trkpt>
      <trkpt lat="48.67237" lon="2.44628">
        <ele>133</ele>
        <time>2013-04-14T06:23:16.000Z</time>
      </trkpt>
      <trkpt lat="48.67234" lon="2.44631">
        <ele>133</ele>
        <time>2013-04-14T06:23:20.000Z</time>
      </trkpt>
      <trkpt lat="48.67233" lon="2.44631">
        <ele>133</ele>
        <time>2013-04-14T06:23:21.000Z</time>
      </trkpt>
      <trkpt lat="48.6723" lon="2.44634">
        <ele>133</ele>
        <time>2013-04-14T06:23:23.000Z</time>
      </trkpt>
      <trkpt lat="48.67228" lon="2.44635">
        <ele>134</ele>
        <time>2013-04-14T06:23:24.000Z</time>
      </trkpt>
      <trkpt lat="48.67225" lon="2.44637">
        <ele>134</ele>
        <time>2013-04-14T06:23:28.000Z</time>
      </trkpt>
      <trkpt lat="48.67223" lon="2.44639">
        <ele>134</ele>
        <time>2013-04-14T06:23:29.000Z</time>
      </trkpt>
      <trkpt lat="48.67221" lon="2.44643">
        <ele>134</ele>
        <time>2013-04-14T06:23:32.000Z</time>
      </trkpt>
      <trkpt lat="48.6722" lon="2.44644">
        <ele>134</ele>
        <time>2013-04-14T06:23:33.000Z</time>
      </trkpt>
      <trkpt lat="48.67217" lon="2.44645">
        <ele>134</ele>
        <time>2013-04-14T06:23:37.000Z</time>
      </trkpt>
      <trkpt lat="48.67215" lon="2.44648">
        <ele>134</ele>
        <time>2013-04-14T06:23:38.000Z</time>
      </trkpt>
      <trkpt lat="48.67212" lon="2.44651">
        <ele>134</ele>
        <time>2013-04-14T06:23:42.000Z</time>
      </trkpt>
      <trkpt lat="48.6721" lon="2.44651">
        <ele>133</ele>
        <time>2013-04-14T06:23:43.000Z</time>
      </trkpt>
      <trkpt lat="48.67206" lon="2.44655">
        <ele>131</ele>
        <time>2013-04-14T06:23:48.000Z</time>
      </trkpt>
      <trkpt lat="48.67206" lon="2.44656">
        <ele>131</ele>
        <time>2013-04-14T06:23:49.000Z</time>
      </trkpt>
      <trkpt lat="48.67204" lon="2.44659">
        <ele>131</ele>
        <time>2013-04-14T06:23:52.000Z</time>
      </trkpt>
      <trkpt lat="48.67202" lon="2.4466">
        <ele>131</ele>
        <time>2013-04-14T06:23:53.000Z</time>
      </trkpt>
      <trkpt lat="48.67201" lon="2.44664">
        <ele>130</ele>
        <time>2013-04-14T06:23:56.000Z</time>
      </trkpt>
      <trkpt lat="48.67199" lon="2.44666">
        <ele>131</ele>
        <time>2013-04-14T06:23:57.000Z</time>
      </trkpt>
      <trkpt lat="48.67196" lon="2.4467">
        <ele>132</ele>
        <time>2013-04-14T06:24:00.000Z</time>
      </trkpt>
      <trkpt lat="48.67195" lon="2.44671">
        <ele>132</ele>
        <time>2013-04-14T06:24:01.000Z</time>
      </trkpt>
      <trkpt lat="48.67192" lon="2.44673">
        <ele>132</ele>
        <time>2013-04-14T06:24:03.000Z</time>
      </trkpt>
      <trkpt lat="48.67191" lon="2.44675">
        <ele>131</ele>
        <time>2013-04-14T06:24:04.000Z</time>
      </trkpt>
      <trkpt lat="48.67188" lon="2.44678">
        <ele>129</ele>
        <time>2013-04-14T06:24:07.000Z</time>
      </trkpt>
      <trkpt lat="48.67187" lon="2.44679">
        <ele>129</ele>
        <time>2013-04-14T06:24:08.000Z</time>
      </trkpt>
      <trkpt lat="48.67183" lon="2.44682">
        <ele>128</ele>
        <time>2013-04-14T06:24:13.000Z</time>
      </trkpt>
      <trkpt lat="48.67183" lon="2.44683">
        <ele>128</ele>
        <time>2013-04-14T06:24:14.000Z</time>
      </trkpt>
      <trkpt lat="48.67179" lon="2.44686">
        <ele>128</ele>
        <time>2013-04-14T06:24:17.000Z</time>
      </trkpt>
      <trkpt lat="48.67178" lon="2.44686">
        <ele>128</ele>
        <time>2013-04-14T06:24:18.000Z</time>
      </trkpt>
      <trkpt lat="48.67175" lon="2.44689">
        <ele>128</ele>
        <time>2013-04-14T06:24:21.000Z</time>
      </trkpt>
      <trkpt lat="48.67173" lon="2.44691">
        <ele>128</ele>
        <time>2013-04-14T06:24:22.000Z</time>
      </trkpt>
      <trkpt lat="48.67169" lon="2.44694">
        <ele>128</ele>
        <time>2013-04-14T06:24:26.000Z</time>
      </trkpt>
      <trkpt lat="48.67169" lon="2.44695">
        <ele>128</ele>
        <time>2013-04-14T06:24:27.000Z</time>
      </trkpt>
      <trkpt lat="48.67166" lon="2.44697">
        <ele>128</ele>
        <time>2013-04-14T06:24:29.000Z</time>
      </trkpt>
      <trkpt lat="48.67164" lon="2.44701">
        <ele>128</ele>
        <time>2013-04-14T06:24:30.000Z</time>
      </trkpt>
      <trkpt lat="48.67161" lon="2.44705">
        <ele>128</ele>
        <time>2013-04-14T06:24:33.000Z</time>
      </trkpt>
      <trkpt lat="48.6716" lon="2.44705">
        <ele>128</ele>
        <time>2013-04-14T06:24:34.000Z</time>
      </trkpt>
      <trkpt lat="48.67156" lon="2.44709">
        <ele>128</ele>
        <time>2013-04-14T06:24:37.000Z</time>
      </trkpt>
      <trkpt lat="48.67155" lon="2.44709">
        <ele>129</ele>
        <time>2013-04-14T06:24:38.000Z</time>
      </trkpt>
      <trkpt lat="48.67154" lon="2.44715">
        <ele>129</ele>
        <time>2013-04-14T06:24:41.000Z</time>
      </trkpt>
      <trkpt lat="48.67153" lon="2.44716">
        <ele>128</ele>
        <time>2013-04-14T06:24:42.000Z</time>
      </trkpt>
      <trkpt lat="48.67149" lon="2.4472">
        <ele>127</ele>
        <time>2013-04-14T06:24:46.000Z</time>
      </trkpt>
      <trkpt lat="48.67149" lon="2.44722">
        <ele>127</ele>
        <time>2013-04-14T06:24:47.000Z</time>
      </trkpt>
      <trkpt lat="48.67146" lon="2.44724">
        <ele>128</ele>
        <time>2013-04-14T06:24:49.000Z</time>
      </trkpt>
      <trkpt lat="48.67145" lon="2.44725">
        <ele>128</ele>
        <time>2013-04-14T06:24:50.000Z</time>
      </trkpt>
      <trkpt lat="48.67141" lon="2.44727">
        <ele>128</ele>
        <time>2013-04-14T06:24:54.000Z</time>
      </trkpt>
      <trkpt lat="48.6714" lon="2.44728">
        <ele>128</ele>
        <time>2013-04-14T06:24:55.000Z</time>
      </trkpt>
      <trkpt lat="48.67138" lon="2.44732">
        <ele>128</ele>
        <time>2013-04-14T06:24:58.000Z</time>
      </trkpt>
      <trkpt lat="48.67136" lon="2.44732">
        <ele>129</ele>
        <time>2013-04-14T06:24:59.000Z</time>
      </trkpt>
      <trkpt lat="48.67133" lon="2.44735">
        <ele>129</ele>
        <time>2013-04-14T06:25:03.000Z</time>
      </trkpt>
      <trkpt lat="48.67132" lon="2.44736">
        <ele>129</ele>
        <time>2013-04-14T06:25:04.000Z</time>
      </trkpt>
      <trkpt lat="48.67129" lon="2.44733">
        <ele>130</ele>
        <time>2013-04-14T06:25:09.000Z</time>
      </trkpt>
      <trkpt lat="48.67128" lon="2.44733">
        <ele>129</ele>
        <time>2013-04-14T06:25:10.000Z</time>
      </trkpt>
      <trkpt lat="48.67125" lon="2.44737">
        <ele>129</ele>
        <time>2013-04-14T06:25:12.000Z</time>
      </trkpt>
      <trkpt lat="48.67124" lon="2.44738">
        <ele>129</ele>
        <time>2013-04-14T06:25:13.000Z</time>
      </trkpt>
      <trkpt lat="48.67121" lon="2.44741">
        <ele>130</ele>
        <time>2013-04-14T06:25:15.000Z</time>
      </trkpt>
      <trkpt lat="48.6712" lon="2.44744">
        <ele>129</ele>
        <time>2013-04-14T06:25:16.000Z</time>
      </trkpt>
      <trkpt lat="48.67117" lon="2.44747">
        <ele>129</ele>
        <time>2013-04-14T06:25:21.000Z</time>
      </trkpt>
      <trkpt lat="48.67116" lon="2.44749">
        <ele>129</ele>
        <time>2013-04-14T06:25:22.000Z</time>
      </trkpt>
      <trkpt lat="48.67112" lon="2.44752">
        <ele>129</ele>
        <time>2013-04-14T06:25:25.000Z</time>
      </trkpt>
      <trkpt lat="48.67111" lon="2.44754">
        <ele>128</ele>
        <time>2013-04-14T06:25:26.000Z</time>
      </trkpt>
      <trkpt lat="48.67108" lon="2.44757">
        <ele>131</ele>
        <time>2013-04-14T06:25:31.000Z</time>
      </trkpt>
      <trkpt lat="48.67106" lon="2.44759">
        <ele>131</ele>
        <time>2013-04-14T06:25:32.000Z</time>
      </trkpt>
      <trkpt lat="48.67103" lon="2.44763">
        <ele>131</ele>
        <time>2013-04-14T06:25:35.000Z</time>
      </trkpt>
      <trkpt lat="48.67102" lon="2.44765">
        <ele>130</ele>
        <time>2013-04-14T06:25:36.000Z</time>
      </trkpt>
      <trkpt lat="48.67098" lon="2.44767">
        <ele>132</ele>
        <time>2013-04-14T06:25:39.000Z</time>
      </trkpt>
      <trkpt lat="48.67097" lon="2.44769">
        <ele>132</ele>
        <time>2013-04-14T06:25:40.000Z</time>
      </trkpt>
      <trkpt lat="48.67094" lon="2.44772">
        <ele>131</ele>
        <time>2013-04-14T06:25:43.000Z</time>
      </trkpt>
      <trkpt lat="48.67093" lon="2.44774">
        <ele>132</ele>
        <time>2013-04-14T06:25:44.000Z</time>
      </trkpt>
      <trkpt lat="48.6709" lon="2.44777">
        <ele>132</ele>
        <time>2013-04-14T06:25:47.000Z</time>
      </trkpt>
      <trkpt lat="48.67089" lon="2.44778">
        <ele>132</ele>
        <time>2013-04-14T06:25:48.000Z</time>
      </trkpt>
      <trkpt lat="48.67086" lon="2.44781">
        <ele>131</ele>
        <time>2013-04-14T06:25:51.000Z</time>
      </trkpt>
      <trkpt lat="48.67084" lon="2.44782">
        <ele>131</ele>
        <time>2013-04-14T06:25:52.000Z</time>
      </trkpt>
      <trkpt lat="48.67081" lon="2.44786">
        <ele>131</ele>
        <time>2013-04-14T06:25:55.000Z</time>
      </trkpt>
      <trkpt lat="48.6708" lon="2.44788">
        <ele>130</ele>
        <time>2013-04-14T06:25:56.000Z</time>
      </trkpt>
      <trkpt lat="48.67077" lon="2.44791">
        <ele>132</ele>
        <time>2013-04-14T06:25:59.000Z</time>
      </trkpt>
      <trkpt lat="48.67076" lon="2.44793">
        <ele>132</ele>
        <time>2013-04-14T06:26:00.000Z</time>
      </trkpt>
      <trkpt lat="48.67072" lon="2.44797">
        <ele>131</ele>
        <time>2013-04-14T06:26:04.000Z</time>
      </trkpt>
      <trkpt lat="48.67071" lon="2.44799">
        <ele>131</ele>
        <time>2013-04-14T06:26:05.000Z</time>
      </trkpt>
      <trkpt lat="48.67068" lon="2.44801">
        <ele>131</ele>
        <time>2013-04-14T06:26:09.000Z</time>
      </trkpt>
      <trkpt lat="48.67067" lon="2.44803">
        <ele>131</ele>
        <time>2013-04-14T06:26:10.000Z</time>
      </trkpt>
      <trkpt lat="48.67064" lon="2.44806">
        <ele>130</ele>
        <time>2013-04-14T06:26:14.000Z</time>
      </trkpt>
      <trkpt lat="48.67062" lon="2.44806">
        <ele>130</ele>
        <time>2013-04-14T06:26:15.000Z</time>
      </trkpt>
      <trkpt lat="48.67059" lon="2.4481">
        <ele>129</ele>
        <time>2013-04-14T06:26:19.000Z</time>
      </trkpt>
      <trkpt lat="48.67058" lon="2.44811">
        <ele>128</ele>
        <time>2013-04-14T06:26:20.000Z</time>
      </trkpt>
      <trkpt lat="48.67054" lon="2.44814">
        <ele>125</ele>
        <time>2013-04-14T06:26:23.000Z</time>
      </trkpt>
      <trkpt lat="48.67054" lon="2.44815">
        <ele>124</ele>
        <time>2013-04-14T06:26:24.000Z</time>
      </trkpt>
      <trkpt lat="48.67052" lon="2.44819">
        <ele>125</ele>
        <time>2013-04-14T06:26:26.000Z</time>
      </trkpt>
      <trkpt lat="48.6705" lon="2.44821">
        <ele>126</ele>
        <time>2013-04-14T06:26:27.000Z</time>
      </trkpt>
      <trkpt lat="48.67047" lon="2.44825">
        <ele>127</ele>
        <time>2013-04-14T06:26:29.000Z</time>
      </trkpt>
      <trkpt lat="48.67046" lon="2.44825">
        <ele>128</ele>
        <time>2013-04-14T06:26:30.000Z</time>
      </trkpt>
      <trkpt lat="48.67043" lon="2.44828">
        <ele>128</ele>
        <time>2013-04-14T06:26:33.000Z</time>
      </trkpt>
      <trkpt lat="48.67042" lon="2.44829">
        <ele>128</ele>
        <time>2013-04-14T06:26:34.000Z</time>
      </trkpt>
      <trkpt lat="48.67039" lon="2.44833">
        <ele>129</ele>
        <time>2013-04-14T06:26:37.000Z</time>
      </trkpt>
      <trkpt lat="48.67038" lon="2.44834">
        <ele>129</ele>
        <time>2013-04-14T06:26:38.000Z</time>
      </trkpt>
      <trkpt lat="48.67036" lon="2.44837">
        <ele>130</ele>
        <time>2013-04-14T06:26:40.000Z</time>
      </trkpt>
      <trkpt lat="48.67035" lon="2.44838">
        <ele>130</ele>
        <time>2013-04-14T06:26:41.000Z</time>
      </trkpt>
      <trkpt lat="48.67032" lon="2.44841">
        <ele>130</ele>
        <time>2013-04-14T06:26:44.000Z</time>
      </trkpt>
      <trkpt lat="48.6703" lon="2.44842">
        <ele>130</ele>
        <time>2013-04-14T06:26:45.000Z</time>
      </trkpt>
      <trkpt lat="48.67027" lon="2.44845">
        <ele>131</ele>
        <time>2013-04-14T06:26:49.000Z</time>
      </trkpt>
      <trkpt lat="48.67025" lon="2.44845">
        <ele>130</ele>
        <time>2013-04-14T06:26:50.000Z</time>
      </trkpt>
      <trkpt lat="48.67022" lon="2.44849">
        <ele>130</ele>
        <time>2013-04-14T06:26:54.000Z</time>
      </trkpt>
      <trkpt lat="48.67021" lon="2.4485">
        <ele>130</ele>
        <time>2013-04-14T06:26:55.000Z</time>
      </trkpt>
      <trkpt lat="48.67017" lon="2.44853">
        <ele>130</ele>
        <time>2013-04-14T06:26:58.000Z</time>
      </trkpt>
      <trkpt lat="48.67016" lon="2.44853">
        <ele>129</ele>
        <time>2013-04-14T06:26:59.000Z</time>
      </trkpt>
      <trkpt lat="48.67012" lon="2.44853">
        <ele>129</ele>
        <time>2013-04-14T06:27:04.000Z</time>
      </trkpt>
      <trkpt lat="48.67011" lon="2.44855">
        <ele>129</ele>
        <time>2013-04-14T06:27:05.000Z</time>
      </trkpt>
      <trkpt lat="48.67009" lon="2.44859">
        <ele>128</ele>
        <time>2013-04-14T06:27:07.000Z</time>
      </trkpt>
      <trkpt lat="48.67008" lon="2.4486">
        <ele>128</ele>
        <time>2013-04-14T06:27:08.000Z</time>
      </trkpt>
      <trkpt lat="48.67004" lon="2.44863">
        <ele>128</ele>
        <time>2013-04-14T06:27:13.000Z</time>
      </trkpt>
      <trkpt lat="48.67003" lon="2.44864">
        <ele>127</ele>
        <time>2013-04-14T06:27:14.000Z</time>
      </trkpt>
      <trkpt lat="48.67001" lon="2.44867">
        <ele>127</ele>
        <time>2013-04-14T06:27:16.000Z</time>
      </trkpt>
      <trkpt lat="48.67" lon="2.44869">
        <ele>127</ele>
        <time>2013-04-14T06:27:17.000Z</time>
      </trkpt>
      <trkpt lat="48.66997" lon="2.44873">
        <ele>126</ele>
        <time>2013-04-14T06:27:21.000Z</time>
      </trkpt>
      <trkpt lat="48.66996" lon="2.44874">
        <ele>126</ele>
        <time>2013-04-14T06:27:22.000Z</time>
      </trkpt>
      <trkpt lat="48.66992" lon="2.44876">
        <ele>126</ele>
        <time>2013-04-14T06:27:25.000Z</time>
      </trkpt>
      <trkpt lat="48.66991" lon="2.44877">
        <ele>126</ele>
        <time>2013-04-14T06:27:26.000Z</time>
      </trkpt>
      <trkpt lat="48.66988" lon="2.4488">
        <ele>127</ele>
        <time>2013-04-14T06:27:29.000Z</time>
      </trkpt>
      <trkpt lat="48.66987" lon="2.44882">
        <ele>128</ele>
        <time>2013-04-14T06:27:30.000Z</time>
      </trkpt>
      <trkpt lat="48.66984" lon="2.44885">
        <ele>127</ele>
        <time>2013-04-14T06:27:33.000Z</time>
      </trkpt>
      <trkpt lat="48.66983" lon="2.44886">
        <ele>128</ele>
        <time>2013-04-14T06:27:34.000Z</time>
      </trkpt>
      <trkpt lat="48.66979" lon="2.44888">
        <ele>127</ele>
        <time>2013-04-14T06:27:38.000Z</time>
      </trkpt>
      <trkpt lat="48.66978" lon="2.4489">
        <ele>127</ele>
        <time>2013-04-14T06:27:39.000Z</time>
      </trkpt>
      <trkpt lat="48.66976" lon="2.44894">
        <ele>127</ele>
        <time>2013-04-14T06:27:42.000Z</time>
      </trkpt>
      <trkpt lat="48.66974" lon="2.44895">
        <ele>127</ele>
        <time>2013-04-14T06:27:43.000Z</time>
      </trkpt>
      <trkpt lat="48.66971" lon="2.44899">
        <ele>126</ele>
        <time>2013-04-14T06:27:46.000Z</time>
      </trkpt>
      <trkpt lat="48.6697" lon="2.449">
        <ele>126</ele>
        <time>2013-04-14T06:27:47.000Z</time>
      </trkpt>
      <trkpt lat="48.66967" lon="2.44903">
        <ele>126</ele>
        <time>2013-04-14T06:27:51.000Z</time>
      </trkpt>
      <trkpt lat="48.66966" lon="2.44904">
        <ele>126</ele>
        <time>2013-04-14T06:27:52.000Z</time>
      </trkpt>
      <trkpt lat="48.66962" lon="2.44908">
        <ele>126</ele>
        <time>2013-04-14T06:27:57.000Z</time>
      </trkpt>
      <trkpt lat="48.66961" lon="2.44908">
        <ele>126</ele>
        <time>2013-04-14T06:27:58.000Z</time>
      </trkpt>
      <trkpt lat="48.66957" lon="2.44911">
        <ele>126</ele>
        <time>2013-04-14T06:28:01.000Z</time>
      </trkpt>
      <trkpt lat="48.66955" lon="2.44914">
        <ele>128</ele>
        <time>2013-04-14T06:28:02.000Z</time>
      </trkpt>
      <trkpt lat="48.66952" lon="2.44916">
        <ele>130</ele>
        <time>2013-04-14T06:28:04.000Z</time>
      </trkpt>
      <trkpt lat="48.66951" lon="2.44917">
        <ele>129</ele>
        <time>2013-04-14T06:28:05.000Z</time>
      </trkpt>
      <trkpt lat="48.66948" lon="2.4492">
        <ele>129</ele>
        <time>2013-04-14T06:28:08.000Z</time>
      </trkpt>
      <trkpt lat="48.66947" lon="2.44922">
        <ele>130</ele>
        <time>2013-04-14T06:28:09.000Z</time>
      </trkpt>
      <trkpt lat="48.66944" lon="2.44923">
        <ele>130</ele>
        <time>2013-04-14T06:28:12.000Z</time>
      </trkpt>
      <trkpt lat="48.66943" lon="2.44924">
        <ele>130</ele>
        <time>2013-04-14T06:28:13.000Z</time>
      </trkpt>
      <trkpt lat="48.66939" lon="2.44928">
        <ele>131</ele>
        <time>2013-04-14T06:28:16.000Z</time>
      </trkpt>
      <trkpt lat="48.66937" lon="2.44929">
        <ele>132</ele>
        <time>2013-04-14T06:28:17.000Z</time>
      </trkpt>
      <trkpt lat="48.66935" lon="2.44932">
        <ele>133</ele>
        <time>2013-04-14T06:28:20.000Z</time>
      </trkpt>
      <trkpt lat="48.66934" lon="2.44934">
        <ele>133</ele>
        <time>2013-04-14T06:28:21.000Z</time>
      </trkpt>
      <trkpt lat="48.66931" lon="2.44939">
        <ele>133</ele>
        <time>2013-04-14T06:28:24.000Z</time>
      </trkpt>
      <trkpt lat="48.6693" lon="2.4494">
        <ele>134</ele>
        <time>2013-04-14T06:28:25.000Z</time>
      </trkpt>
      <trkpt lat="48.66928" lon="2.44944">
        <ele>133</ele>
        <time>2013-04-14T06:28:29.000Z</time>
      </trkpt>
      <trkpt lat="48.66927" lon="2.44946">
        <ele>135</ele>
        <time>2013-04-14T06:28:30.000Z</time>
      </trkpt>
      <trkpt lat="48.66924" lon="2.44949">
        <ele>134</ele>
        <time>2013-04-14T06:28:33.000Z</time>
      </trkpt>
      <trkpt lat="48.66923" lon="2.44951">
        <ele>133</ele>
        <time>2013-04-14T06:28:34.000Z</time>
      </trkpt>
      <trkpt lat="48.6692" lon="2.44953">
        <ele>132</ele>
        <time>2013-04-14T06:28:37.000Z</time>
      </trkpt>
      <trkpt lat="48.66919" lon="2.44957">
        <ele>132</ele>
        <time>2013-04-14T06:28:38.000Z</time>
      </trkpt>
      <trkpt lat="48.66915" lon="2.44962">
        <ele>130</ele>
        <time>2013-04-14T06:28:43.000Z</time>
      </trkpt>
      <trkpt lat="48.66915" lon="2.44964">
        <ele>130</ele>
        <time>2013-04-14T06:28:44.000Z</time>
      </trkpt>
      <trkpt lat="48.66914" lon="2.4496">
        <ele>129</ele>
        <time>2013-04-14T06:28:50.000Z</time>
      </trkpt>
      <trkpt lat="48.66913" lon="2.44957">
        <ele>130</ele>
        <time>2013-04-14T06:28:51.000Z</time>
      </trkpt>
      <trkpt lat="48.66913" lon="2.44963">
        <ele>130</ele>
        <time>2013-04-14T06:28:58.000Z</time>
      </trkpt>
      <trkpt lat="48.66914" lon="2.44965">
        <ele>130</ele>
        <time>2013-04-14T06:28:59.000Z</time>
      </trkpt>
      <trkpt lat="48.66916" lon="2.44969">
        <ele>131</ele>
        <time>2013-04-14T06:29:01.000Z</time>
      </trkpt>
      <trkpt lat="48.66917" lon="2.44972">
        <ele>131</ele>
        <time>2013-04-14T06:29:02.000Z</time>
      </trkpt>
      <trkpt lat="48.66919" lon="2.44976">
        <ele>130</ele>
        <time>2013-04-14T06:29:04.000Z</time>
      </trkpt>
      <trkpt lat="48.66919" lon="2.44978">
        <ele>131</ele>
        <time>2013-04-14T06:29:05.000Z</time>
      </trkpt>
      <trkpt lat="48.6692" lon="2.44983">
        <ele>131</ele>
        <time>2013-04-14T06:29:07.000Z</time>
      </trkpt>
      <trkpt lat="48.66921" lon="2.44984">
        <ele>131</ele>
        <time>2013-04-14T06:29:08.000Z</time>
      </trkpt>
      <trkpt lat="48.66923" lon="2.44988">
        <ele>131</ele>
        <time>2013-04-14T06:29:10.000Z</time>
      </trkpt>
      <trkpt lat="48.66923" lon="2.44991">
        <ele>132</ele>
        <time>2013-04-14T06:29:11.000Z</time>
      </trkpt>
      <trkpt lat="48.66921" lon="2.44997">
        <ele>132</ele>
        <time>2013-04-14T06:29:14.000Z</time>
      </trkpt>
      <trkpt lat="48.66922" lon="2.44998">
        <ele>132</ele>
        <time>2013-04-14T06:29:15.000Z</time>
      </trkpt>
      <trkpt lat="48.6692" lon="2.45004">
        <ele>131</ele>
        <time>2013-04-14T06:29:17.000Z</time>
      </trkpt>
      <trkpt lat="48.6692" lon="2.45007">
        <ele>131</ele>
        <time>2013-04-14T06:29:18.000Z</time>
      </trkpt>
      <trkpt lat="48.66919" lon="2.45012">
        <ele>130</ele>
        <time>2013-04-14T06:29:21.000Z</time>
      </trkpt>
      <trkpt lat="48.6692" lon="2.45014">
        <ele>130</ele>
        <time>2013-04-14T06:29:22.000Z</time>
      </trkpt>
      <trkpt lat="48.66918" lon="2.4502">
        <ele>130</ele>
        <time>2013-04-14T06:29:26.000Z</time>
      </trkpt>
      <trkpt lat="48.66917" lon="2.45022">
        <ele>131</ele>
        <time>2013-04-14T06:29:27.000Z</time>
      </trkpt>
      <trkpt lat="48.66914" lon="2.45027">
        <ele>133</ele>
        <time>2013-04-14T06:29:31.000Z</time>
      </trkpt>
      <trkpt lat="48.66913" lon="2.45029">
        <ele>133</ele>
        <time>2013-04-14T06:29:32.000Z</time>
      </trkpt>
      <trkpt lat="48.66911" lon="2.45034">
        <ele>134</ele>
        <time>2013-04-14T06:29:34.000Z</time>
      </trkpt>
      <trkpt lat="48.6691" lon="2.45036">
        <ele>134</ele>
        <time>2013-04-14T06:29:35.000Z</time>
      </trkpt>
      <trkpt lat="48.66908" lon="2.45042">
        <ele>136</ele>
        <time>2013-04-14T06:29:39.000Z</time>
      </trkpt>
      <trkpt lat="48.66907" lon="2.45043">
        <ele>136</ele>
        <time>2013-04-14T06:29:40.000Z</time>
      </trkpt>
      <trkpt lat="48.66905" lon="2.45049">
        <ele>137</ele>
        <time>2013-04-14T06:29:44.000Z</time>
      </trkpt>
      <trkpt lat="48.66904" lon="2.45048">
        <ele>137</ele>
        <time>2013-04-14T06:29:45.000Z</time>
      </trkpt>
      <trkpt lat="48.66903" lon="2.45053">
        <ele>138</ele>
        <time>2013-04-14T06:29:46.000Z</time>
      </trkpt>
      <trkpt lat="48.66902" lon="2.45055">
        <ele>137</ele>
        <time>2013-04-14T06:29:47.000Z</time>
      </trkpt>
      <trkpt lat="48.66902" lon="2.4506">
        <ele>137</ele>
        <time>2013-04-14T06:29:50.000Z</time>
      </trkpt>
      <trkpt lat="48.66902" lon="2.45062">
        <ele>136</ele>
        <time>2013-04-14T06:29:51.000Z</time>
      </trkpt>
      <trkpt lat="48.66898" lon="2.45066">
        <ele>142</ele>
        <time>2013-04-14T06:29:56.000Z</time>
      </trkpt>
      <trkpt lat="48.66897" lon="2.45068">
        <ele>142</ele>
        <time>2013-04-14T06:29:57.000Z</time>
      </trkpt>
      <trkpt lat="48.66897" lon="2.45073">
        <ele>139</ele>
        <time>2013-04-14T06:30:01.000Z</time>
      </trkpt>
      <trkpt lat="48.66897" lon="2.45075">
        <ele>139</ele>
        <time>2013-04-14T06:30:02.000Z</time>
      </trkpt>
      <trkpt lat="48.66895" lon="2.4508">
        <ele>139</ele>
        <time>2013-04-14T06:30:05.000Z</time>
      </trkpt>
      <trkpt lat="48.66894" lon="2.45081">
        <ele>139</ele>
        <time>2013-04-14T06:30:06.000Z</time>
      </trkpt>
      <trkpt lat="48.66893" lon="2.45085">
        <ele>137</ele>
        <time>2013-04-14T06:30:11.000Z</time>
      </trkpt>
      <trkpt lat="48.66891" lon="2.45088">
        <ele>137</ele>
        <time>2013-04-14T06:30:12.000Z</time>
      </trkpt>
      <trkpt lat="48.6689" lon="2.45092">
        <ele>137</ele>
        <time>2013-04-14T06:30:14.000Z</time>
      </trkpt>
      <trkpt lat="48.66889" lon="2.45095">
        <ele>137</ele>
        <time>2013-04-14T06:30:15.000Z</time>
      </trkpt>
      <trkpt lat="48.66888" lon="2.45099">
        <ele>137</ele>
        <time>2013-04-14T06:30:17.000Z</time>
      </trkpt>
      <trkpt lat="48.66887" lon="2.45101">
        <ele>138</ele>
        <time>2013-04-14T06:30:18.000Z</time>
      </trkpt>
      <trkpt lat="48.66885" lon="2.45105">
        <ele>138</ele>
        <time>2013-04-14T06:30:21.000Z</time>
      </trkpt>
      <trkpt lat="48.66885" lon="2.45108">
        <ele>138</ele>
        <time>2013-04-14T06:30:22.000Z</time>
      </trkpt>
      <trkpt lat="48.66888" lon="2.45113">
        <ele>134</ele>
        <time>2013-04-14T06:30:25.000Z</time>
      </trkpt>
      <trkpt lat="48.66887" lon="2.45114">
        <ele>134</ele>
        <time>2013-04-14T06:30:26.000Z</time>
      </trkpt>
      <trkpt lat="48.66887" lon="2.4512">
        <ele>134</ele>
        <time>2013-04-14T06:30:28.000Z</time>
      </trkpt>
      <trkpt lat="48.66887" lon="2.45122">
        <ele>133</ele>
        <time>2013-04-14T06:30:29.000Z</time>
      </trkpt>
      <trkpt lat="48.66887" lon="2.45128">
        <ele>131</ele>
        <time>2013-04-14T06:30:33.000Z</time>
      </trkpt>
      <trkpt lat="48.66887" lon="2.4513">
        <ele>131</ele>
        <time>2013-04-14T06:30:34.000Z</time>
      </trkpt>
      <trkpt lat="48.66886" lon="2.45136">
        <ele>133</ele>
        <time>2013-04-14T06:30:37.000Z</time>
      </trkpt>
      <trkpt lat="48.66886" lon="2.45138">
        <ele>133</ele>
        <time>2013-04-14T06:30:38.000Z</time>
      </trkpt>
      <trkpt lat="48.66886" lon="2.45143">
        <ele>134</ele>
        <time>2013-04-14T06:30:42.000Z</time>
      </trkpt>
      <trkpt lat="48.66885" lon="2.45147">
        <ele>135</ele>
        <time>2013-04-14T06:30:43.000Z</time>
      </trkpt>
      <trkpt lat="48.66884" lon="2.45153">
        <ele>135</ele>
        <time>2013-04-14T06:30:46.000Z</time>
      </trkpt>
      <trkpt lat="48.66884" lon="2.45154">
        <ele>135</ele>
        <time>2013-04-14T06:30:47.000Z</time>
      </trkpt>
      <trkpt lat="48.66883" lon="2.45159">
        <ele>134</ele>
        <time>2013-04-14T06:30:49.000Z</time>
      </trkpt>
      <trkpt lat="48.66882" lon="2.45162">
        <ele>135</ele>
        <time>2013-04-14T06:30:50.000Z</time>
      </trkpt>
      <trkpt lat="48.66881" lon="2.45168">
        <ele>136</ele>
        <time>2013-04-14T06:30:52.000Z</time>
      </trkpt>
      <trkpt lat="48.66881" lon="2.4517">
        <ele>137</ele>
        <time>2013-04-14T06:30:53.000Z</time>
      </trkpt>
      <trkpt lat="48.66881" lon="2.45176">
        <ele>137</ele>
        <time>2013-04-14T06:30:56.000Z</time>
      </trkpt>
      <trkpt lat="48.6688" lon="2.45178">
        <ele>137</ele>
        <time>2013-04-14T06:30:57.000Z</time>
      </trkpt>
      <trkpt lat="48.6688" lon="2.45184">
        <ele>137</ele>
        <time>2013-04-14T06:31:03.000Z</time>
      </trkpt>
      <trkpt lat="48.6688" lon="2.45186">
        <ele>137</ele>
        <time>2013-04-14T06:31:04.000Z</time>
      </trkpt>
      <trkpt lat="48.66881" lon="2.4519">
        <ele>136</ele>
        <time>2013-04-14T06:31:07.000Z</time>
      </trkpt>
      <trkpt lat="48.66882" lon="2.45194">
        <ele>135</ele>
        <time>2013-04-14T06:31:08.000Z</time>
      </trkpt>
      <trkpt lat="48.66882" lon="2.45199">
        <ele>136</ele>
        <time>2013-04-14T06:31:10.000Z</time>
      </trkpt>
      <trkpt lat="48.66882" lon="2.45201">
        <ele>137</ele>
        <time>2013-04-14T06:31:11.000Z</time>
      </trkpt>
      <trkpt lat="48.66882" lon="2.45206">
        <ele>136</ele>
        <time>2013-04-14T06:31:14.000Z</time>
      </trkpt>
      <trkpt lat="48.66883" lon="2.45208">
        <ele>136</ele>
        <time>2013-04-14T06:31:15.000Z</time>
      </trkpt>
      <trkpt lat="48.66883" lon="2.45213">
        <ele>135</ele>
        <time>2013-04-14T06:31:17.000Z</time>
      </trkpt>
      <trkpt lat="48.66884" lon="2.45218">
        <ele>135</ele>
        <time>2013-04-14T06:31:18.000Z</time>
      </trkpt>
      <trkpt lat="48.66884" lon="2.45224">
        <ele>132</ele>
        <time>2013-04-14T06:31:21.000Z</time>
      </trkpt>
      <trkpt lat="48.66884" lon="2.45226">
        <ele>132</ele>
        <time>2013-04-14T06:31:22.000Z</time>
      </trkpt>
      <trkpt lat="48.66885" lon="2.45232">
        <ele>131</ele>
        <time>2013-04-14T06:31:26.000Z</time>
      </trkpt>
      <trkpt lat="48.66883" lon="2.45233">
        <ele>131</ele>
        <time>2013-04-14T06:31:27.000Z</time>
      </trkpt>
      <trkpt lat="48.66884" lon="2.45239">
        <ele>133</ele>
        <time>2013-04-14T06:31:29.000Z</time>
      </trkpt>
      <trkpt lat="48.66884" lon="2.45241">
        <ele>134</ele>
        <time>2013-04-14T06:31:30.000Z</time>
      </trkpt>
      <trkpt lat="48.66884" lon="2.45246">
        <ele>134</ele>
        <time>2013-04-14T06:31:34.000Z</time>
      </trkpt>
      <trkpt lat="48.66885" lon="2.45248">
        <ele>135</ele>
        <time>2013-04-14T06:31:36.000Z</time>
      </trkpt>
      <trkpt lat="48.66885" lon="2.45253">
        <ele>134</ele>
        <time>2013-04-14T06:31:38.000Z</time>
      </trkpt>
      <trkpt lat="48.66885" lon="2.45256">
        <ele>134</ele>
        <time>2013-04-14T06:31:39.000Z</time>
      </trkpt>
      <trkpt lat="48.66884" lon="2.45261">
        <ele>135</ele>
        <time>2013-04-14T06:31:42.000Z</time>
      </trkpt>
      <trkpt lat="48.66885" lon="2.45263">
        <ele>135</ele>
        <time>2013-04-14T06:31:43.000Z</time>
      </trkpt>
      <trkpt lat="48.66886" lon="2.45268">
        <ele>136</ele>
        <time>2013-04-14T06:31:46.000Z</time>
      </trkpt>
      <trkpt lat="48.66884" lon="2.45271">
        <ele>136</ele>
        <time>2013-04-14T06:31:47.000Z</time>
      </trkpt>
      <trkpt lat="48.66884" lon="2.45277">
        <ele>136</ele>
        <time>2013-04-14T06:31:49.000Z</time>
      </trkpt>
      <trkpt lat="48.66882" lon="2.45278">
        <ele>136</ele>
        <time>2013-04-14T06:31:50.000Z</time>
      </trkpt>
      <trkpt lat="48.66879" lon="2.45281">
        <ele>136</ele>
        <time>2013-04-14T06:31:52.000Z</time>
      </trkpt>
      <trkpt lat="48.66877" lon="2.45283">
        <ele>135</ele>
        <time>2013-04-14T06:31:53.000Z</time>
      </trkpt>
      <trkpt lat="48.66873" lon="2.45283">
        <ele>136</ele>
        <time>2013-04-14T06:31:55.000Z</time>
      </trkpt>
      <trkpt lat="48.66872" lon="2.45283">
        <ele>136</ele>
        <time>2013-04-14T06:31:56.000Z</time>
      </trkpt>
      <trkpt lat="48.66869" lon="2.45284">
        <ele>135</ele>
        <time>2013-04-14T06:31:59.000Z</time>
      </trkpt>
      <trkpt lat="48.66867" lon="2.45284">
        <ele>135</ele>
        <time>2013-04-14T06:32:00.000Z</time>
      </trkpt>
      <trkpt lat="48.66865" lon="2.45285">
        <ele>135</ele>
        <time>2013-04-14T06:32:02.000Z</time>
      </trkpt>
      <trkpt lat="48.66862" lon="2.45285">
        <ele>134</ele>
        <time>2013-04-14T06:32:03.000Z</time>
      </trkpt>
      <trkpt lat="48.66859" lon="2.45286">
        <ele>134</ele>
        <time>2013-04-14T06:32:06.000Z</time>
      </trkpt>
      <trkpt lat="48.66857" lon="2.45288">
        <ele>134</ele>
        <time>2013-04-14T06:32:07.000Z</time>
      </trkpt>
      <trkpt lat="48.66854" lon="2.4529">
        <ele>136</ele>
        <time>2013-04-14T06:32:10.000Z</time>
      </trkpt>
      <trkpt lat="48.66853" lon="2.45291">
        <ele>137</ele>
        <time>2013-04-14T06:32:11.000Z</time>
      </trkpt>
      <trkpt lat="48.66849" lon="2.45291">
        <ele>136</ele>
        <time>2013-04-14T06:32:14.000Z</time>
      </trkpt>
      <trkpt lat="48.66848" lon="2.4529">
        <ele>137</ele>
        <time>2013-04-14T06:32:15.000Z</time>
      </trkpt>
      <trkpt lat="48.66844" lon="2.45289">
        <ele>137</ele>
        <time>2013-04-14T06:32:18.000Z</time>
      </trkpt>
      <trkpt lat="48.66843" lon="2.45287">
        <ele>137</ele>
        <time>2013-04-14T06:32:19.000Z</time>
      </trkpt>
      <trkpt lat="48.66839" lon="2.45284">
        <ele>137</ele>
        <time>2013-04-14T06:32:22.000Z</time>
      </trkpt>
      <trkpt lat="48.66838" lon="2.45283">
        <ele>137</ele>
        <time>2013-04-14T06:32:23.000Z</time>
      </trkpt>
      <trkpt lat="48.66834" lon="2.45283">
        <ele>137</ele>
        <time>2013-04-14T06:32:27.000Z</time>
      </trkpt>
      <trkpt lat="48.66833" lon="2.45284">
        <ele>139</ele>
        <time>2013-04-14T06:32:28.000Z</time>
      </trkpt>
      <trkpt lat="48.66829" lon="2.45286">
        <ele>142</ele>
        <time>2013-04-14T06:32:31.000Z</time>
      </trkpt>
      <trkpt lat="48.66828" lon="2.45287">
        <ele>142</ele>
        <time>2013-04-14T06:32:32.000Z</time>
      </trkpt>
      <trkpt lat="48.66824" lon="2.45288">
        <ele>141</ele>
        <time>2013-04-14T06:32:35.000Z</time>
      </trkpt>
      <trkpt lat="48.66823" lon="2.45288">
        <ele>141</ele>
        <time>2013-04-14T06:32:36.000Z</time>
      </trkpt>
      <trkpt lat="48.66818" lon="2.45287">
        <ele>141</ele>
        <time>2013-04-14T06:32:40.000Z</time>
      </trkpt>
      <trkpt lat="48.66817" lon="2.45287">
        <ele>141</ele>
        <time>2013-04-14T06:32:41.000Z</time>
      </trkpt>
      <trkpt lat="48.66815" lon="2.45286">
        <ele>138</ele>
        <time>2013-04-14T06:32:46.000Z</time>
      </trkpt>
      <trkpt lat="48.66813" lon="2.45285">
        <ele>138</ele>
        <time>2013-04-14T06:32:47.000Z</time>
      </trkpt>
      <trkpt lat="48.6681" lon="2.45283">
        <ele>138</ele>
        <time>2013-04-14T06:32:49.000Z</time>
      </trkpt>
      <trkpt lat="48.66809" lon="2.45282">
        <ele>138</ele>
        <time>2013-04-14T06:32:50.000Z</time>
      </trkpt>
      <trkpt lat="48.66805" lon="2.45284">
        <ele>138</ele>
        <time>2013-04-14T06:32:54.000Z</time>
      </trkpt>
      <trkpt lat="48.66804" lon="2.45285">
        <ele>138</ele>
        <time>2013-04-14T06:32:55.000Z</time>
      </trkpt>
      <trkpt lat="48.668" lon="2.45286">
        <ele>138</ele>
        <time>2013-04-14T06:32:59.000Z</time>
      </trkpt>
      <trkpt lat="48.66799" lon="2.45287">
        <ele>140</ele>
        <time>2013-04-14T06:33:00.000Z</time>
      </trkpt>
      <trkpt lat="48.66794" lon="2.45285">
        <ele>140</ele>
        <time>2013-04-14T06:33:04.000Z</time>
      </trkpt>
      <trkpt lat="48.66793" lon="2.45285">
        <ele>140</ele>
        <time>2013-04-14T06:33:05.000Z</time>
      </trkpt>
      <trkpt lat="48.66788" lon="2.45284">
        <ele>138</ele>
        <time>2013-04-14T06:33:09.000Z</time>
      </trkpt>
      <trkpt lat="48.66787" lon="2.45285">
        <ele>138</ele>
        <time>2013-04-14T06:33:10.000Z</time>
      </trkpt>
      <trkpt lat="48.66783" lon="2.45287">
        <ele>139</ele>
        <time>2013-04-14T06:33:14.000Z</time>
      </trkpt>
      <trkpt lat="48.66782" lon="2.45286">
        <ele>139</ele>
        <time>2013-04-14T06:33:15.000Z</time>
      </trkpt>
      <trkpt lat="48.66778" lon="2.45287">
        <ele>136</ele>
        <time>2013-04-14T06:33:21.000Z</time>
      </trkpt>
      <trkpt lat="48.66777" lon="2.45287">
        <ele>135</ele>
        <time>2013-04-14T06:33:22.000Z</time>
      </trkpt>
      <trkpt lat="48.66773" lon="2.45287">
        <ele>136</ele>
        <time>2013-04-14T06:33:26.000Z</time>
      </trkpt>
      <trkpt lat="48.66771" lon="2.45289">
        <ele>136</ele>
        <time>2013-04-14T06:33:27.000Z</time>
      </trkpt>
      <trkpt lat="48.66767" lon="2.45289">
        <ele>136</ele>
        <time>2013-04-14T06:33:32.000Z</time>
      </trkpt>
      <trkpt lat="48.66766" lon="2.4529">
        <ele>136</ele>
        <time>2013-04-14T06:33:33.000Z</time>
      </trkpt>
      <trkpt lat="48.66762" lon="2.45289">
        <ele>138</ele>
        <time>2013-04-14T06:33:37.000Z</time>
      </trkpt>
      <trkpt lat="48.66761" lon="2.45289">
        <ele>138</ele>
        <time>2013-04-14T06:33:38.000Z</time>
      </trkpt>
      <trkpt lat="48.66757" lon="2.45289">
        <ele>139</ele>
        <time>2013-04-14T06:33:42.000Z</time>
      </trkpt>
      <trkpt lat="48.66756" lon="2.45287">
        <ele>139</ele>
        <time>2013-04-14T06:33:43.000Z</time>
      </trkpt>
      <trkpt lat="48.66752" lon="2.45284">
        <ele>138</ele>
        <time>2013-04-14T06:33:47.000Z</time>
      </trkpt>
      <trkpt lat="48.66751" lon="2.45284">
        <ele>137</ele>
        <time>2013-04-14T06:33:48.000Z</time>
      </trkpt>
      <trkpt lat="48.66747" lon="2.45282">
        <ele>138</ele>
        <time>2013-04-14T06:33:52.000Z</time>
      </trkpt>
      <trkpt lat="48.66746" lon="2.45281">
        <ele>138</ele>
        <time>2013-04-14T06:33:53.000Z</time>
      </trkpt>
      <trkpt lat="48.66743" lon="2.45283">
        <ele>139</ele>
        <time>2013-04-14T06:33:55.000Z</time>
      </trkpt>
      <trkpt lat="48.66742" lon="2.45283">
        <ele>139</ele>
        <time>2013-04-14T06:33:56.000Z</time>
      </trkpt>
      <trkpt lat="48.66737" lon="2.45284">
        <ele>140</ele>
        <time>2013-04-14T06:34:00.000Z</time>
      </trkpt>
      <trkpt lat="48.66736" lon="2.45284">
        <ele>140</ele>
        <time>2013-04-14T06:34:01.000Z</time>
      </trkpt>
      <trkpt lat="48.66731" lon="2.45283">
        <ele>140</ele>
        <time>2013-04-14T06:34:05.000Z</time>
      </trkpt>
      <trkpt lat="48.6673" lon="2.45283">
        <ele>140</ele>
        <time>2013-04-14T06:34:06.000Z</time>
      </trkpt>
      <trkpt lat="48.66726" lon="2.45282">
        <ele>139</ele>
        <time>2013-04-14T06:34:10.000Z</time>
      </trkpt>
      <trkpt lat="48.66724" lon="2.45282">
        <ele>139</ele>
        <time>2013-04-14T06:34:11.000Z</time>
      </trkpt>
      <trkpt lat="48.66721" lon="2.45278">
        <ele>140</ele>
        <time>2013-04-14T06:34:15.000Z</time>
      </trkpt>
      <trkpt lat="48.6672" lon="2.45279">
        <ele>140</ele>
        <time>2013-04-14T06:34:16.000Z</time>
      </trkpt>
      <trkpt lat="48.66715" lon="2.45281">
        <ele>140</ele>
        <time>2013-04-14T06:34:20.000Z</time>
      </trkpt>
      <trkpt lat="48.66714" lon="2.45281">
        <ele>139</ele>
        <time>2013-04-14T06:34:21.000Z</time>
      </trkpt>
      <trkpt lat="48.6671" lon="2.4528">
        <ele>138</ele>
        <time>2013-04-14T06:34:25.000Z</time>
      </trkpt>
      <trkpt lat="48.66709" lon="2.45281">
        <ele>138</ele>
        <time>2013-04-14T06:34:26.000Z</time>
      </trkpt>
      <trkpt lat="48.66705" lon="2.4528">
        <ele>137</ele>
        <time>2013-04-14T06:34:30.000Z</time>
      </trkpt>
      <trkpt lat="48.66704" lon="2.45281">
        <ele>137</ele>
        <time>2013-04-14T06:34:31.000Z</time>
      </trkpt>
      <trkpt lat="48.66699" lon="2.45279">
        <ele>137</ele>
        <time>2013-04-14T06:34:34.000Z</time>
      </trkpt>
      <trkpt lat="48.66699" lon="2.45279">
        <ele>136</ele>
        <time>2013-04-14T06:34:35.000Z</time>
      </trkpt>
      <trkpt lat="48.66695" lon="2.45282">
        <ele>140</ele>
        <time>2013-04-14T06:34:38.000Z</time>
      </trkpt>
      <trkpt lat="48.66694" lon="2.45283">
        <ele>141</ele>
        <time>2013-04-14T06:34:39.000Z</time>
      </trkpt>
      <trkpt lat="48.6669" lon="2.45282">
        <ele>141</ele>
        <time>2013-04-14T06:34:43.000Z</time>
      </trkpt>
      <trkpt lat="48.66689" lon="2.45282">
        <ele>142</ele>
        <time>2013-04-14T06:34:44.000Z</time>
      </trkpt>
      <trkpt lat="48.66685" lon="2.45281">
        <ele>142</ele>
        <time>2013-04-14T06:34:47.000Z</time>
      </trkpt>
      <trkpt lat="48.66684" lon="2.4528">
        <ele>142</ele>
        <time>2013-04-14T06:34:48.000Z</time>
      </trkpt>
      <trkpt lat="48.6668" lon="2.45281">
        <ele>142</ele>
        <time>2013-04-14T06:34:51.000Z</time>
      </trkpt>
      <trkpt lat="48.66679" lon="2.4528">
        <ele>142</ele>
        <time>2013-04-14T06:34:52.000Z</time>
      </trkpt>
      <trkpt lat="48.66676" lon="2.45281">
        <ele>142</ele>
        <time>2013-04-14T06:34:55.000Z</time>
      </trkpt>
      <trkpt lat="48.66674" lon="2.4528">
        <ele>141</ele>
        <time>2013-04-14T06:34:56.000Z</time>
      </trkpt>
      <trkpt lat="48.6667" lon="2.4528">
        <ele>140</ele>
        <time>2013-04-14T06:35:00.000Z</time>
      </trkpt>
      <trkpt lat="48.66669" lon="2.45281">
        <ele>140</ele>
        <time>2013-04-14T06:35:01.000Z</time>
      </trkpt>
      <trkpt lat="48.66665" lon="2.45282">
        <ele>140</ele>
        <time>2013-04-14T06:35:04.000Z</time>
      </trkpt>
      <trkpt lat="48.66664" lon="2.45282">
        <ele>139</ele>
        <time>2013-04-14T06:35:05.000Z</time>
      </trkpt>
      <trkpt lat="48.66661" lon="2.45281">
        <ele>140</ele>
        <time>2013-04-14T06:35:09.000Z</time>
      </trkpt>
      <trkpt lat="48.66659" lon="2.45281">
        <ele>139</ele>
        <time>2013-04-14T06:35:10.000Z</time>
      </trkpt>
      <trkpt lat="48.66655" lon="2.4528">
        <ele>138</ele>
        <time>2013-04-14T06:35:13.000Z</time>
      </trkpt>
      <trkpt lat="48.66654" lon="2.45279">
        <ele>137</ele>
        <time>2013-04-14T06:35:14.000Z</time>
      </trkpt>
      <trkpt lat="48.66649" lon="2.45279">
        <ele>138</ele>
        <time>2013-04-14T06:35:18.000Z</time>
      </trkpt>
      <trkpt lat="48.66648" lon="2.45279">
        <ele>139</ele>
        <time>2013-04-14T06:35:19.000Z</time>
      </trkpt>
      <trkpt lat="48.66645" lon="2.45278">
        <ele>138</ele>
        <time>2013-04-14T06:35:23.000Z</time>
      </trkpt>
      <trkpt lat="48.66643" lon="2.45278">
        <ele>138</ele>
        <time>2013-04-14T06:35:24.000Z</time>
      </trkpt>
      <trkpt lat="48.66639" lon="2.45279">
        <ele>138</ele>
        <time>2013-04-14T06:35:28.000Z</time>
      </trkpt>
      <trkpt lat="48.66638" lon="2.45279">
        <ele>138</ele>
        <time>2013-04-14T06:35:29.000Z</time>
      </trkpt>
      <trkpt lat="48.66634" lon="2.45279">
        <ele>138</ele>
        <time>2013-04-14T06:35:33.000Z</time>
      </trkpt>
      <trkpt lat="48.66632" lon="2.4528">
        <ele>139</ele>
        <time>2013-04-14T06:35:34.000Z</time>
      </trkpt>
      <trkpt lat="48.6663" lon="2.45279">
        <ele>138</ele>
        <time>2013-04-14T06:35:36.000Z</time>
      </trkpt>
      <trkpt lat="48.66627" lon="2.4528">
        <ele>139</ele>
        <time>2013-04-14T06:35:39.000Z</time>
      </trkpt>
      <trkpt lat="48.66623" lon="2.45279">
        <ele>141</ele>
        <time>2013-04-14T06:35:42.000Z</time>
      </trkpt>
      <trkpt lat="48.66622" lon="2.45279">
        <ele>141</ele>
        <time>2013-04-14T06:35:43.000Z</time>
      </trkpt>
      <trkpt lat="48.66619" lon="2.45281">
        <ele>141</ele>
        <time>2013-04-14T06:35:45.000Z</time>
      </trkpt>
      <trkpt lat="48.66617" lon="2.45281">
        <ele>141</ele>
        <time>2013-04-14T06:35:46.000Z</time>
      </trkpt>
      <trkpt lat="48.66613" lon="2.45279">
        <ele>140</ele>
        <time>2013-04-14T06:35:50.000Z</time>
      </trkpt>
      <trkpt lat="48.66612" lon="2.45278">
        <ele>140</ele>
        <time>2013-04-14T06:35:51.000Z</time>
      </trkpt>
      <trkpt lat="48.66608" lon="2.45277">
        <ele>140</ele>
        <time>2013-04-14T06:35:56.000Z</time>
      </trkpt>
      <trkpt lat="48.66607" lon="2.45277">
        <ele>140</ele>
        <time>2013-04-14T06:35:57.000Z</time>
      </trkpt>
      <trkpt lat="48.66603" lon="2.45277">
        <ele>139</ele>
        <time>2013-04-14T06:36:02.000Z</time>
      </trkpt>
      <trkpt lat="48.66602" lon="2.45276">
        <ele>139</ele>
        <time>2013-04-14T06:36:03.000Z</time>
      </trkpt>
      <trkpt lat="48.66601" lon="2.45271">
        <ele>138</ele>
        <time>2013-04-14T06:39:18.000Z</time>
      </trkpt>
      <trkpt lat="48.666" lon="2.4527">
        <ele>137</ele>
        <time>2013-04-14T06:39:19.000Z</time>
      </trkpt>
      <trkpt lat="48.66596" lon="2.45271">
        <ele>137</ele>
        <time>2013-04-14T06:44:21.000Z</time>
      </trkpt>
      <trkpt lat="48.66595" lon="2.45272">
        <ele>137</ele>
        <time>2013-04-14T06:44:22.000Z</time>
      </trkpt>
      <trkpt lat="48.66592" lon="2.45277">
        <ele>135</ele>
        <time>2013-04-14T06:44:26.000Z</time>
      </trkpt>
      <trkpt lat="48.66591" lon="2.45279">
        <ele>135</ele>
        <time>2013-04-14T06:44:27.000Z</time>
      </trkpt>
      <trkpt lat="48.66589" lon="2.45284">
        <ele>135</ele>
        <time>2013-04-14T06:44:33.000Z</time>
      </trkpt>
      <trkpt lat="48.66588" lon="2.45284">
        <ele>135</ele>
        <time>2013-04-14T06:44:34.000Z</time>
      </trkpt>
      <trkpt lat="48.66585" lon="2.45289">
        <ele>134</ele>
        <time>2013-04-14T06:44:38.000Z</time>
      </trkpt>
      <trkpt lat="48.66584" lon="2.4529">
        <ele>134</ele>
        <time>2013-04-14T06:44:39.000Z</time>
      </trkpt>
      <trkpt lat="48.66581" lon="2.45294">
        <ele>137</ele>
        <time>2013-04-14T06:44:44.000Z</time>
      </trkpt>
      <trkpt lat="48.66581" lon="2.45294">
        <ele>137</ele>
        <time>2013-04-14T06:44:45.000Z</time>
      </trkpt>
      <trkpt lat="48.66578" lon="2.45298">
        <ele>137</ele>
        <time>2013-04-14T06:44:50.000Z</time>
      </trkpt>
      <trkpt lat="48.66577" lon="2.45299">
        <ele>137</ele>
        <time>2013-04-14T06:44:51.000Z</time>
      </trkpt>
      <trkpt lat="48.66573" lon="2.45301">
        <ele>137</ele>
        <time>2013-04-14T06:44:55.000Z</time>
      </trkpt>
      <trkpt lat="48.66573" lon="2.45301">
        <ele>137</ele>
        <time>2013-04-14T06:44:56.000Z</time>
      </trkpt>
      <trkpt lat="48.66569" lon="2.45305">
        <ele>132</ele>
        <time>2013-04-14T06:45:06.000Z</time>
      </trkpt>
      <trkpt lat="48.66568" lon="2.45306">
        <ele>132</ele>
        <time>2013-04-14T06:45:07.000Z</time>
      </trkpt>
      <trkpt lat="48.66566" lon="2.4531">
        <ele>132</ele>
        <time>2013-04-14T06:45:10.000Z</time>
      </trkpt>
      <trkpt lat="48.66565" lon="2.45311">
        <ele>132</ele>
        <time>2013-04-14T06:45:11.000Z</time>
      </trkpt>
      <trkpt lat="48.66562" lon="2.45314">
        <ele>133</ele>
        <time>2013-04-14T06:45:14.000Z</time>
      </trkpt>
      <trkpt lat="48.66561" lon="2.45315">
        <ele>133</ele>
        <time>2013-04-14T06:45:15.000Z</time>
      </trkpt>
      <trkpt lat="48.66557" lon="2.45317">
        <ele>132</ele>
        <time>2013-04-14T06:45:23.000Z</time>
      </trkpt>
      <trkpt lat="48.66556" lon="2.45319">
        <ele>132</ele>
        <time>2013-04-14T06:45:24.000Z</time>
      </trkpt>
      <trkpt lat="48.66552" lon="2.45321">
        <ele>133</ele>
        <time>2013-04-14T06:45:31.000Z</time>
      </trkpt>
      <trkpt lat="48.66551" lon="2.45328">
        <ele>135</ele>
        <time>2013-04-14T06:45:32.000Z</time>
      </trkpt>
      <trkpt lat="48.66547" lon="2.4533">
        <ele>135</ele>
        <time>2013-04-14T06:45:36.000Z</time>
      </trkpt>
      <trkpt lat="48.66546" lon="2.45331">
        <ele>135</ele>
        <time>2013-04-14T06:45:37.000Z</time>
      </trkpt>
      <trkpt lat="48.66542" lon="2.45333">
        <ele>134</ele>
        <time>2013-04-14T06:45:42.000Z</time>
      </trkpt>
      <trkpt lat="48.6654" lon="2.45334">
        <ele>135</ele>
        <time>2013-04-14T06:45:43.000Z</time>
      </trkpt>
      <trkpt lat="48.66538" lon="2.4534">
        <ele>135</ele>
        <time>2013-04-14T06:45:48.000Z</time>
      </trkpt>
      <trkpt lat="48.66538" lon="2.4534">
        <ele>135</ele>
        <time>2013-04-14T06:45:49.000Z</time>
      </trkpt>
      <trkpt lat="48.66535" lon="2.45343">
        <ele>134</ele>
        <time>2013-04-14T06:45:52.000Z</time>
      </trkpt>
      <trkpt lat="48.66533" lon="2.45344">
        <ele>135</ele>
        <time>2013-04-14T06:45:53.000Z</time>
      </trkpt>
      <trkpt lat="48.6653" lon="2.45348">
        <ele>134</ele>
        <time>2013-04-14T06:45:57.000Z</time>
      </trkpt>
      <trkpt lat="48.66529" lon="2.4535">
        <ele>134</ele>
        <time>2013-04-14T06:45:58.000Z</time>
      </trkpt>
      <trkpt lat="48.66525" lon="2.45352">
        <ele>133</ele>
        <time>2013-04-14T06:46:03.000Z</time>
      </trkpt>
      <trkpt lat="48.66525" lon="2.45354">
        <ele>133</ele>
        <time>2013-04-14T06:46:04.000Z</time>
      </trkpt>
      <trkpt lat="48.66521" lon="2.45357">
        <ele>132</ele>
        <time>2013-04-14T06:46:08.000Z</time>
      </trkpt>
      <trkpt lat="48.66521" lon="2.45358">
        <ele>132</ele>
        <time>2013-04-14T06:46:09.000Z</time>
      </trkpt>
      <trkpt lat="48.66518" lon="2.45362">
        <ele>133</ele>
        <time>2013-04-14T06:46:12.000Z</time>
      </trkpt>
      <trkpt lat="48.66517" lon="2.45363">
        <ele>133</ele>
        <time>2013-04-14T06:46:13.000Z</time>
      </trkpt>
      <trkpt lat="48.66515" lon="2.45367">
        <ele>133</ele>
        <time>2013-04-14T06:46:18.000Z</time>
      </trkpt>
      <trkpt lat="48.66514" lon="2.45367">
        <ele>132</ele>
        <time>2013-04-14T06:46:19.000Z</time>
      </trkpt>
      <trkpt lat="48.66511" lon="2.45369">
        <ele>131</ele>
        <time>2013-04-14T06:46:28.000Z</time>
      </trkpt>
      <trkpt lat="48.6651" lon="2.45372">
        <ele>131</ele>
        <time>2013-04-14T06:46:29.000Z</time>
      </trkpt>
      <trkpt lat="48.66508" lon="2.45377">
        <ele>130</ele>
        <time>2013-04-14T06:46:33.000Z</time>
      </trkpt>
      <trkpt lat="48.66507" lon="2.45379">
        <ele>130</ele>
        <time>2013-04-14T06:46:34.000Z</time>
      </trkpt>
      <trkpt lat="48.66505" lon="2.45384">
        <ele>128</ele>
        <time>2013-04-14T06:46:36.000Z</time>
      </trkpt>
      <trkpt lat="48.66503" lon="2.45385">
        <ele>128</ele>
        <time>2013-04-14T06:46:37.000Z</time>
      </trkpt>
      <trkpt lat="48.66499" lon="2.45387">
        <ele>128</ele>
        <time>2013-04-14T06:46:45.000Z</time>
      </trkpt>
      <trkpt lat="48.66498" lon="2.45387">
        <ele>128</ele>
        <time>2013-04-14T06:46:46.000Z</time>
      </trkpt>
      <trkpt lat="48.66494" lon="2.45386">
        <ele>127</ele>
        <time>2013-04-14T06:46:55.000Z</time>
      </trkpt>
      <trkpt lat="48.66493" lon="2.45386">
        <ele>128</ele>
        <time>2013-04-14T06:46:56.000Z</time>
      </trkpt>
      <trkpt lat="48.66491" lon="2.4539">
        <ele>128</ele>
        <time>2013-04-14T06:47:00.000Z</time>
      </trkpt>
      <trkpt lat="48.6649" lon="2.45393">
        <ele>128</ele>
        <time>2013-04-14T06:47:01.000Z</time>
      </trkpt>
      <trkpt lat="48.66487" lon="2.45396">
        <ele>131</ele>
        <time>2013-04-14T06:47:08.000Z</time>
      </trkpt>
      <trkpt lat="48.66485" lon="2.45397">
        <ele>130</ele>
        <time>2013-04-14T06:47:09.000Z</time>
      </trkpt>
      <trkpt lat="48.66481" lon="2.45401">
        <ele>132</ele>
        <time>2013-04-14T06:47:12.000Z</time>
      </trkpt>
      <trkpt lat="48.66481" lon="2.45402">
        <ele>133</ele>
        <time>2013-04-14T06:47:13.000Z</time>
      </trkpt>
      <trkpt lat="48.66478" lon="2.45405">
        <ele>134</ele>
        <time>2013-04-14T06:47:19.000Z</time>
      </trkpt>
      <trkpt lat="48.66478" lon="2.45407">
        <ele>133</ele>
        <time>2013-04-14T06:47:20.000Z</time>
      </trkpt>
      <trkpt lat="48.66475" lon="2.45408">
        <ele>133</ele>
        <time>2013-04-14T06:47:24.000Z</time>
      </trkpt>
      <trkpt lat="48.66473" lon="2.4541">
        <ele>133</ele>
        <time>2013-04-14T06:47:25.000Z</time>
      </trkpt>
      <trkpt lat="48.66469" lon="2.45411">
        <ele>132</ele>
        <time>2013-04-14T06:47:31.000Z</time>
      </trkpt>
      <trkpt lat="48.66468" lon="2.45412">
        <ele>132</ele>
        <time>2013-04-14T06:47:32.000Z</time>
      </trkpt>
      <trkpt lat="48.66466" lon="2.45418">
        <ele>131</ele>
        <time>2013-04-14T06:47:35.000Z</time>
      </trkpt>
      <trkpt lat="48.66465" lon="2.45418">
        <ele>130</ele>
        <time>2013-04-14T06:47:36.000Z</time>
      </trkpt>
      <trkpt lat="48.66461" lon="2.45419">
        <ele>130</ele>
        <time>2013-04-14T06:47:43.000Z</time>
      </trkpt>
      <trkpt lat="48.66461" lon="2.45419">
        <ele>130</ele>
        <time>2013-04-14T06:47:44.000Z</time>
      </trkpt>
      <trkpt lat="48.66457" lon="2.45423">
        <ele>129</ele>
        <time>2013-04-14T06:47:50.000Z</time>
      </trkpt>
      <trkpt lat="48.66456" lon="2.45424">
        <ele>128</ele>
        <time>2013-04-14T06:47:51.000Z</time>
      </trkpt>
      <trkpt lat="48.66455" lon="2.45427">
        <ele>128</ele>
        <time>2013-04-14T06:47:54.000Z</time>
      </trkpt>
      <trkpt lat="48.66453" lon="2.4543">
        <ele>130</ele>
        <time>2013-04-14T06:47:55.000Z</time>
      </trkpt>
      <trkpt lat="48.6645" lon="2.45435">
        <ele>132</ele>
        <time>2013-04-14T06:48:03.000Z</time>
      </trkpt>
      <trkpt lat="48.66449" lon="2.45436">
        <ele>132</ele>
        <time>2013-04-14T06:48:04.000Z</time>
      </trkpt>
      <trkpt lat="48.66447" lon="2.4544">
        <ele>133</ele>
        <time>2013-04-14T06:48:07.000Z</time>
      </trkpt>
      <trkpt lat="48.66446" lon="2.45441">
        <ele>134</ele>
        <time>2013-04-14T06:48:08.000Z</time>
      </trkpt>
      <trkpt lat="48.66442" lon="2.45445">
        <ele>134</ele>
        <time>2013-04-14T06:48:12.000Z</time>
      </trkpt>
      <trkpt lat="48.66441" lon="2.45447">
        <ele>134</ele>
        <time>2013-04-14T06:48:13.000Z</time>
      </trkpt>
      <trkpt lat="48.66439" lon="2.45452">
        <ele>135</ele>
        <time>2013-04-14T06:48:17.000Z</time>
      </trkpt>
      <trkpt lat="48.66437" lon="2.45451">
        <ele>135</ele>
        <time>2013-04-14T06:48:18.000Z</time>
      </trkpt>
      <trkpt lat="48.66434" lon="2.45452">
        <ele>136</ele>
        <time>2013-04-14T06:48:22.000Z</time>
      </trkpt>
      <trkpt lat="48.66432" lon="2.45453">
        <ele>136</ele>
        <time>2013-04-14T06:48:23.000Z</time>
      </trkpt>
      <trkpt lat="48.6643" lon="2.45456">
        <ele>136</ele>
        <time>2013-04-14T06:48:28.000Z</time>
      </trkpt>
      <trkpt lat="48.66429" lon="2.45459">
        <ele>136</ele>
        <time>2013-04-14T06:48:29.000Z</time>
      </trkpt>
      <trkpt lat="48.66426" lon="2.45461">
        <ele>131</ele>
        <time>2013-04-14T06:48:36.000Z</time>
      </trkpt>
      <trkpt lat="48.66425" lon="2.45461">
        <ele>131</ele>
        <time>2013-04-14T06:48:37.000Z</time>
      </trkpt>
      <trkpt lat="48.66421" lon="2.45463">
        <ele>130</ele>
        <time>2013-04-14T06:48:39.000Z</time>
      </trkpt>
      <trkpt lat="48.66421" lon="2.45466">
        <ele>130</ele>
        <time>2013-04-14T06:48:40.000Z</time>
      </trkpt>
      <trkpt lat="48.66418" lon="2.4547">
        <ele>130</ele>
        <time>2013-04-14T06:48:42.000Z</time>
      </trkpt>
      <trkpt lat="48.66416" lon="2.45474">
        <ele>131</ele>
        <time>2013-04-14T06:48:43.000Z</time>
      </trkpt>
      <trkpt lat="48.66412" lon="2.45477">
        <ele>130</ele>
        <time>2013-04-14T06:48:50.000Z</time>
      </trkpt>
      <trkpt lat="48.66412" lon="2.45479">
        <ele>130</ele>
        <time>2013-04-14T06:48:51.000Z</time>
      </trkpt>
      <trkpt lat="48.6641" lon="2.45482">
        <ele>132</ele>
        <time>2013-04-14T06:48:54.000Z</time>
      </trkpt>
      <trkpt lat="48.66409" lon="2.45484">
        <ele>132</ele>
        <time>2013-04-14T06:48:55.000Z</time>
      </trkpt>
      <trkpt lat="48.66406" lon="2.45489">
        <ele>134</ele>
        <time>2013-04-14T06:48:58.000Z</time>
      </trkpt>
      <trkpt lat="48.66405" lon="2.4549">
        <ele>134</ele>
        <time>2013-04-14T06:48:59.000Z</time>
      </trkpt>
      <trkpt lat="48.66402" lon="2.45495">
        <ele>134</ele>
        <time>2013-04-14T06:49:02.000Z</time>
      </trkpt>
      <trkpt lat="48.66401" lon="2.45496">
        <ele>134</ele>
        <time>2013-04-14T06:49:03.000Z</time>
      </trkpt>
      <trkpt lat="48.66397" lon="2.45497">
        <ele>133</ele>
        <time>2013-04-14T06:49:09.000Z</time>
      </trkpt>
      <trkpt lat="48.66397" lon="2.45498">
        <ele>134</ele>
        <time>2013-04-14T06:49:10.000Z</time>
      </trkpt>
      <trkpt lat="48.66395" lon="2.455">
        <ele>134</ele>
        <time>2013-04-14T06:49:15.000Z</time>
      </trkpt>
      <trkpt lat="48.66394" lon="2.45503">
        <ele>135</ele>
        <time>2013-04-14T06:49:16.000Z</time>
      </trkpt>
      <trkpt lat="48.6639" lon="2.45504">
        <ele>135</ele>
        <time>2013-04-14T06:49:19.000Z</time>
      </trkpt>
      <trkpt lat="48.66389" lon="2.45503">
        <ele>135</ele>
        <time>2013-04-14T06:49:20.000Z</time>
      </trkpt>
      <trkpt lat="48.66385" lon="2.45507">
        <ele>137</ele>
        <time>2013-04-14T06:49:22.000Z</time>
      </trkpt>
      <trkpt lat="48.66384" lon="2.45508">
        <ele>138</ele>
        <time>2013-04-14T06:49:23.000Z</time>
      </trkpt>
      <trkpt lat="48.6638" lon="2.45509">
        <ele>138</ele>
        <time>2013-04-14T06:49:26.000Z</time>
      </trkpt>
      <trkpt lat="48.66378" lon="2.45508">
        <ele>138</ele>
        <time>2013-04-14T06:49:27.000Z</time>
      </trkpt>
      <trkpt lat="48.66375" lon="2.4551">
        <ele>138</ele>
        <time>2013-04-14T06:49:29.000Z</time>
      </trkpt>
      <trkpt lat="48.66374" lon="2.4551">
        <ele>137</ele>
        <time>2013-04-14T06:49:30.000Z</time>
      </trkpt>
      <trkpt lat="48.66371" lon="2.45511">
        <ele>138</ele>
        <time>2013-04-14T06:49:32.000Z</time>
      </trkpt>
      <trkpt lat="48.66369" lon="2.45513">
        <ele>138</ele>
        <time>2013-04-14T06:49:33.000Z</time>
      </trkpt>
      <trkpt lat="48.66367" lon="2.45513">
        <ele>138</ele>
        <time>2013-04-14T06:49:36.000Z</time>
      </trkpt>
      <trkpt lat="48.66365" lon="2.45514">
        <ele>139</ele>
        <time>2013-04-14T06:49:37.000Z</time>
      </trkpt>
      <trkpt lat="48.6636" lon="2.45516">
        <ele>140</ele>
        <time>2013-04-14T06:49:41.000Z</time>
      </trkpt>
      <trkpt lat="48.66359" lon="2.45517">
        <ele>140</ele>
        <time>2013-04-14T06:49:42.000Z</time>
      </trkpt>
      <trkpt lat="48.66355" lon="2.45518">
        <ele>140</ele>
        <time>2013-04-14T06:49:46.000Z</time>
      </trkpt>
      <trkpt lat="48.66354" lon="2.45519">
        <ele>141</ele>
        <time>2013-04-14T06:49:47.000Z</time>
      </trkpt>
      <trkpt lat="48.6635" lon="2.45521">
        <ele>142</ele>
        <time>2013-04-14T06:49:50.000Z</time>
      </trkpt>
      <trkpt lat="48.6635" lon="2.45521">
        <ele>142</ele>
        <time>2013-04-14T06:49:51.000Z</time>
      </trkpt>
      <trkpt lat="48.66345" lon="2.45522">
        <ele>143</ele>
        <time>2013-04-14T06:49:56.000Z</time>
      </trkpt>
      <trkpt lat="48.66345" lon="2.45524">
        <ele>142</ele>
        <time>2013-04-14T06:49:57.000Z</time>
      </trkpt>
      <trkpt lat="48.6634" lon="2.45522">
        <ele>142</ele>
        <time>2013-04-14T06:50:01.000Z</time>
      </trkpt>
      <trkpt lat="48.66339" lon="2.45523">
        <ele>142</ele>
        <time>2013-04-14T06:50:02.000Z</time>
      </trkpt>
      <trkpt lat="48.66336" lon="2.45524">
        <ele>142</ele>
        <time>2013-04-14T06:50:04.000Z</time>
      </trkpt>
      <trkpt lat="48.66333" lon="2.45525">
        <ele>144</ele>
        <time>2013-04-14T06:50:05.000Z</time>
      </trkpt>
      <trkpt lat="48.66329" lon="2.45527">
        <ele>144</ele>
        <time>2013-04-14T06:50:08.000Z</time>
      </trkpt>
      <trkpt lat="48.66328" lon="2.45527">
        <ele>144</ele>
        <time>2013-04-14T06:50:09.000Z</time>
      </trkpt>
      <trkpt lat="48.66324" lon="2.45529">
        <ele>144</ele>
        <time>2013-04-14T06:50:13.000Z</time>
      </trkpt>
      <trkpt lat="48.66322" lon="2.45529">
        <ele>144</ele>
        <time>2013-04-14T06:50:14.000Z</time>
      </trkpt>
      <trkpt lat="48.66317" lon="2.4553">
        <ele>144</ele>
        <time>2013-04-14T06:50:19.000Z</time>
      </trkpt>
      <trkpt lat="48.66317" lon="2.4553">
        <ele>143</ele>
        <time>2013-04-14T06:50:20.000Z</time>
      </trkpt>
      <trkpt lat="48.66315" lon="2.4553">
        <ele>143</ele>
        <time>2013-04-14T06:50:24.000Z</time>
      </trkpt>
      <trkpt lat="48.66313" lon="2.45533">
        <ele>144</ele>
        <time>2013-04-14T06:50:25.000Z</time>
      </trkpt>
      <trkpt lat="48.66309" lon="2.45536">
        <ele>144</ele>
        <time>2013-04-14T06:50:31.000Z</time>
      </trkpt>
      <trkpt lat="48.66308" lon="2.45535">
        <ele>143</ele>
        <time>2013-04-14T06:50:32.000Z</time>
      </trkpt>
      <trkpt lat="48.66304" lon="2.45535">
        <ele>143</ele>
        <time>2013-04-14T06:50:35.000Z</time>
      </trkpt>
      <trkpt lat="48.66303" lon="2.45536">
        <ele>143</ele>
        <time>2013-04-14T06:50:36.000Z</time>
      </trkpt>
      <trkpt lat="48.66299" lon="2.45536">
        <ele>143</ele>
        <time>2013-04-14T06:50:41.000Z</time>
      </trkpt>
      <trkpt lat="48.66298" lon="2.45535">
        <ele>143</ele>
        <time>2013-04-14T06:50:42.000Z</time>
      </trkpt>
      <trkpt lat="48.66294" lon="2.45538">
        <ele>146</ele>
        <time>2013-04-14T06:50:46.000Z</time>
      </trkpt>
      <trkpt lat="48.66293" lon="2.45539">
        <ele>146</ele>
        <time>2013-04-14T06:50:47.000Z</time>
      </trkpt>
      <trkpt lat="48.66289" lon="2.45539">
        <ele>146</ele>
        <time>2013-04-14T06:50:50.000Z</time>
      </trkpt>
      <trkpt lat="48.66288" lon="2.45539">
        <ele>146</ele>
        <time>2013-04-14T06:50:51.000Z</time>
      </trkpt>
      <trkpt lat="48.66284" lon="2.45538">
        <ele>145</ele>
        <time>2013-04-14T06:50:56.000Z</time>
      </trkpt>
      <trkpt lat="48.66282" lon="2.45539">
        <ele>145</ele>
        <time>2013-04-14T06:50:57.000Z</time>
      </trkpt>
      <trkpt lat="48.66279" lon="2.45541">
        <ele>145</ele>
        <time>2013-04-14T06:51:01.000Z</time>
      </trkpt>
      <trkpt lat="48.66278" lon="2.45541">
        <ele>145</ele>
        <time>2013-04-14T06:51:02.000Z</time>
      </trkpt>
      <trkpt lat="48.66273" lon="2.45542">
        <ele>144</ele>
        <time>2013-04-14T06:51:06.000Z</time>
      </trkpt>
      <trkpt lat="48.66273" lon="2.45542">
        <ele>144</ele>
        <time>2013-04-14T06:51:07.000Z</time>
      </trkpt>
      <trkpt lat="48.66269" lon="2.45544">
        <ele>143</ele>
        <time>2013-04-14T06:51:12.000Z</time>
      </trkpt>
      <trkpt lat="48.66268" lon="2.45544">
        <ele>143</ele>
        <time>2013-04-14T06:51:13.000Z</time>
      </trkpt>
      <trkpt lat="48.66264" lon="2.45543">
        <ele>143</ele>
        <time>2013-04-14T06:51:16.000Z</time>
      </trkpt>
      <trkpt lat="48.66262" lon="2.45544">
        <ele>143</ele>
        <time>2013-04-14T06:51:17.000Z</time>
      </trkpt>
      <trkpt lat="48.66258" lon="2.45546">
        <ele>143</ele>
        <time>2013-04-14T06:51:22.000Z</time>
      </trkpt>
      <trkpt lat="48.66257" lon="2.45546">
        <ele>144</ele>
        <time>2013-04-14T06:51:23.000Z</time>
      </trkpt>
      <trkpt lat="48.66253" lon="2.45545">
        <ele>142</ele>
        <time>2013-04-14T06:51:26.000Z</time>
      </trkpt>
      <trkpt lat="48.66252" lon="2.45545">
        <ele>141</ele>
        <time>2013-04-14T06:51:27.000Z</time>
      </trkpt>
      <trkpt lat="48.66248" lon="2.45547">
        <ele>141</ele>
        <time>2013-04-14T06:51:30.000Z</time>
      </trkpt>
      <trkpt lat="48.66246" lon="2.45547">
        <ele>141</ele>
        <time>2013-04-14T06:51:31.000Z</time>
      </trkpt>
      <trkpt lat="48.66242" lon="2.45549">
        <ele>141</ele>
        <time>2013-04-14T06:51:35.000Z</time>
      </trkpt>
      <trkpt lat="48.66241" lon="2.4555">
        <ele>141</ele>
        <time>2013-04-14T06:51:36.000Z</time>
      </trkpt>
      <trkpt lat="48.66237" lon="2.45552">
        <ele>142</ele>
        <time>2013-04-14T06:51:40.000Z</time>
      </trkpt>
      <trkpt lat="48.66236" lon="2.45552">
        <ele>142</ele>
        <time>2013-04-14T06:51:41.000Z</time>
      </trkpt>
      <trkpt lat="48.66233" lon="2.45554">
        <ele>142</ele>
        <time>2013-04-14T06:51:45.000Z</time>
      </trkpt>
      <trkpt lat="48.66232" lon="2.45554">
        <ele>142</ele>
        <time>2013-04-14T06:51:46.000Z</time>
      </trkpt>
      <trkpt lat="48.66228" lon="2.45556">
        <ele>143</ele>
        <time>2013-04-14T06:51:49.000Z</time>
      </trkpt>
      <trkpt lat="48.66227" lon="2.45556">
        <ele>143</ele>
        <time>2013-04-14T06:51:50.000Z</time>
      </trkpt>
      <trkpt lat="48.66223" lon="2.4556">
        <ele>145</ele>
        <time>2013-04-14T06:51:52.000Z</time>
      </trkpt>
      <trkpt lat="48.66222" lon="2.45561">
        <ele>145</ele>
        <time>2013-04-14T06:51:53.000Z</time>
      </trkpt>
      <trkpt lat="48.66218" lon="2.45562">
        <ele>145</ele>
        <time>2013-04-14T06:51:57.000Z</time>
      </trkpt>
      <trkpt lat="48.66216" lon="2.45562">
        <ele>145</ele>
        <time>2013-04-14T06:51:58.000Z</time>
      </trkpt>
      <trkpt lat="48.66212" lon="2.45563">
        <ele>145</ele>
        <time>2013-04-14T06:52:02.000Z</time>
      </trkpt>
      <trkpt lat="48.66211" lon="2.45564">
        <ele>146</ele>
        <time>2013-04-14T06:52:03.000Z</time>
      </trkpt>
      <trkpt lat="48.66207" lon="2.45564">
        <ele>145</ele>
        <time>2013-04-14T06:52:08.000Z</time>
      </trkpt>
      <trkpt lat="48.66206" lon="2.45564">
        <ele>145</ele>
        <time>2013-04-14T06:52:09.000Z</time>
      </trkpt>
      <trkpt lat="48.66202" lon="2.45565">
        <ele>145</ele>
        <time>2013-04-14T06:52:13.000Z</time>
      </trkpt>
      <trkpt lat="48.662" lon="2.45565">
        <ele>145</ele>
        <time>2013-04-14T06:52:14.000Z</time>
      </trkpt>
      <trkpt lat="48.66197" lon="2.45567">
        <ele>145</ele>
        <time>2013-04-14T06:52:18.000Z</time>
      </trkpt>
      <trkpt lat="48.66196" lon="2.45568">
        <ele>145</ele>
        <time>2013-04-14T06:52:19.000Z</time>
      </trkpt>
      <trkpt lat="48.66192" lon="2.4557">
        <ele>146</ele>
        <time>2013-04-14T06:52:22.000Z</time>
      </trkpt>
      <trkpt lat="48.66191" lon="2.4557">
        <ele>146</ele>
        <time>2013-04-14T06:52:23.000Z</time>
      </trkpt>
      <trkpt lat="48.66186" lon="2.45571">
        <ele>144</ele>
        <time>2013-04-14T06:52:27.000Z</time>
      </trkpt>
      <trkpt lat="48.66185" lon="2.45572">
        <ele>144</ele>
        <time>2013-04-14T06:52:28.000Z</time>
      </trkpt>
      <trkpt lat="48.66181" lon="2.45573">
        <ele>144</ele>
        <time>2013-04-14T06:52:31.000Z</time>
      </trkpt>
      <trkpt lat="48.6618" lon="2.45574">
        <ele>144</ele>
        <time>2013-04-14T06:52:32.000Z</time>
      </trkpt>
      <trkpt lat="48.66176" lon="2.45576">
        <ele>144</ele>
        <time>2013-04-14T06:52:35.000Z</time>
      </trkpt>
      <trkpt lat="48.66175" lon="2.45576">
        <ele>144</ele>
        <time>2013-04-14T06:52:36.000Z</time>
      </trkpt>
      <trkpt lat="48.6617" lon="2.45577">
        <ele>144</ele>
        <time>2013-04-14T06:52:40.000Z</time>
      </trkpt>
      <trkpt lat="48.66169" lon="2.45578">
        <ele>145</ele>
        <time>2013-04-14T06:52:41.000Z</time>
      </trkpt>
      <trkpt lat="48.66166" lon="2.4558">
        <ele>146</ele>
        <time>2013-04-14T06:52:44.000Z</time>
      </trkpt>
      <trkpt lat="48.66164" lon="2.45582">
        <ele>146</ele>
        <time>2013-04-14T06:52:45.000Z</time>
      </trkpt>
      <trkpt lat="48.66161" lon="2.45581">
        <ele>145</ele>
        <time>2013-04-14T06:52:50.000Z</time>
      </trkpt>
      <trkpt lat="48.66159" lon="2.45583">
        <ele>147</ele>
        <time>2013-04-14T06:52:51.000Z</time>
      </trkpt>
      <trkpt lat="48.66154" lon="2.45583">
        <ele>145</ele>
        <time>2013-04-14T06:52:56.000Z</time>
      </trkpt>
      <trkpt lat="48.66153" lon="2.45583">
        <ele>144</ele>
        <time>2013-04-14T06:52:57.000Z</time>
      </trkpt>
      <trkpt lat="48.66149" lon="2.45585">
        <ele>142</ele>
        <time>2013-04-14T06:53:01.000Z</time>
      </trkpt>
      <trkpt lat="48.66148" lon="2.45585">
        <ele>141</ele>
        <time>2013-04-14T06:53:02.000Z</time>
      </trkpt>
      <trkpt lat="48.66144" lon="2.45587">
        <ele>142</ele>
        <time>2013-04-14T06:53:06.000Z</time>
      </trkpt>
      <trkpt lat="48.66144" lon="2.45588">
        <ele>142</ele>
        <time>2013-04-14T06:53:07.000Z</time>
      </trkpt>
      <trkpt lat="48.6614" lon="2.45589">
        <ele>143</ele>
        <time>2013-04-14T06:53:10.000Z</time>
      </trkpt>
      <trkpt lat="48.66139" lon="2.45589">
        <ele>143</ele>
        <time>2013-04-14T06:53:11.000Z</time>
      </trkpt>
      <trkpt lat="48.66134" lon="2.45591">
        <ele>143</ele>
        <time>2013-04-14T06:53:15.000Z</time>
      </trkpt>
      <trkpt lat="48.66133" lon="2.45591">
        <ele>143</ele>
        <time>2013-04-14T06:53:16.000Z</time>
      </trkpt>
      <trkpt lat="48.66129" lon="2.45593">
        <ele>143</ele>
        <time>2013-04-14T06:53:20.000Z</time>
      </trkpt>
      <trkpt lat="48.66129" lon="2.45593">
        <ele>143</ele>
        <time>2013-04-14T06:53:21.000Z</time>
      </trkpt>
      <trkpt lat="48.66124" lon="2.45592">
        <ele>144</ele>
        <time>2013-04-14T06:53:28.000Z</time>
      </trkpt>
      <trkpt lat="48.66123" lon="2.45593">
        <ele>144</ele>
        <time>2013-04-14T06:53:29.000Z</time>
      </trkpt>
      <trkpt lat="48.66118" lon="2.45594">
        <ele>145</ele>
        <time>2013-04-14T06:53:31.000Z</time>
      </trkpt>
      <trkpt lat="48.66117" lon="2.45596">
        <ele>145</ele>
        <time>2013-04-14T06:53:32.000Z</time>
      </trkpt>
      <trkpt lat="48.66113" lon="2.45596">
        <ele>145</ele>
        <time>2013-04-14T06:53:37.000Z</time>
      </trkpt>
      <trkpt lat="48.66112" lon="2.45596">
        <ele>144</ele>
        <time>2013-04-14T06:53:38.000Z</time>
      </trkpt>
      <trkpt lat="48.6611" lon="2.45598">
        <ele>145</ele>
        <time>2013-04-14T06:53:41.000Z</time>
      </trkpt>
      <trkpt lat="48.66108" lon="2.45599">
        <ele>144</ele>
        <time>2013-04-14T06:53:42.000Z</time>
      </trkpt>
      <trkpt lat="48.66105" lon="2.45601">
        <ele>145</ele>
        <time>2013-04-14T06:53:44.000Z</time>
      </trkpt>
      <trkpt lat="48.66103" lon="2.45601">
        <ele>146</ele>
        <time>2013-04-14T06:53:45.000Z</time>
      </trkpt>
      <trkpt lat="48.66099" lon="2.45603">
        <ele>147</ele>
        <time>2013-04-14T06:53:48.000Z</time>
      </trkpt>
      <trkpt lat="48.66098" lon="2.45603">
        <ele>147</ele>
        <time>2013-04-14T06:53:49.000Z</time>
      </trkpt>
      <trkpt lat="48.66094" lon="2.45605">
        <ele>147</ele>
        <time>2013-04-14T06:53:55.000Z</time>
      </trkpt>
      <trkpt lat="48.66093" lon="2.45604">
        <ele>147</ele>
        <time>2013-04-14T06:53:56.000Z</time>
      </trkpt>
      <trkpt lat="48.66088" lon="2.45608">
        <ele>149</ele>
        <time>2013-04-14T06:53:57.000Z</time>
      </trkpt>
      <trkpt lat="48.66084" lon="2.45609">
        <ele>150</ele>
        <time>2013-04-14T06:54:01.000Z</time>
      </trkpt>
      <trkpt lat="48.66083" lon="2.45608">
        <ele>150</ele>
        <time>2013-04-14T06:54:02.000Z</time>
      </trkpt>
      <trkpt lat="48.66079" lon="2.45608">
        <ele>146</ele>
        <time>2013-04-14T06:54:12.000Z</time>
      </trkpt>
      <trkpt lat="48.66079" lon="2.45608">
        <ele>146</ele>
        <time>2013-04-14T06:54:13.000Z</time>
      </trkpt>
      <trkpt lat="48.66074" lon="2.45607">
        <ele>145</ele>
        <time>2013-04-14T06:54:23.000Z</time>
      </trkpt>
      <trkpt lat="48.66074" lon="2.45607">
        <ele>145</ele>
        <time>2013-04-14T06:54:24.000Z</time>
      </trkpt>
      <trkpt lat="48.66071" lon="2.45607">
        <ele>144</ele>
        <time>2013-04-14T06:54:29.000Z</time>
      </trkpt>
      <trkpt lat="48.66067" lon="2.45608">
        <ele>145</ele>
        <time>2013-04-14T06:54:30.000Z</time>
      </trkpt>
      <trkpt lat="48.66063" lon="2.4561">
        <ele>145</ele>
        <time>2013-04-14T06:54:34.000Z</time>
      </trkpt>
      <trkpt lat="48.66061" lon="2.45612">
        <ele>145</ele>
        <time>2013-04-14T06:54:35.000Z</time>
      </trkpt>
      <trkpt lat="48.66058" lon="2.45615">
        <ele>147</ele>
        <time>2013-04-14T06:54:40.000Z</time>
      </trkpt>
      <trkpt lat="48.66056" lon="2.45615">
        <ele>144</ele>
        <time>2013-04-14T06:54:41.000Z</time>
      </trkpt>
      <trkpt lat="48.66052" lon="2.45614">
        <ele>144</ele>
        <time>2013-04-14T06:54:43.000Z</time>
      </trkpt>
      <trkpt lat="48.66051" lon="2.45614">
        <ele>143</ele>
        <time>2013-04-14T06:54:44.000Z</time>
      </trkpt>
      <trkpt lat="48.66047" lon="2.45616">
        <ele>143</ele>
        <time>2013-04-14T06:54:47.000Z</time>
      </trkpt>
      <trkpt lat="48.66045" lon="2.45617">
        <ele>143</ele>
        <time>2013-04-14T06:54:48.000Z</time>
      </trkpt>
      <trkpt lat="48.66041" lon="2.4562">
        <ele>144</ele>
        <time>2013-04-14T06:54:53.000Z</time>
      </trkpt>
      <trkpt lat="48.6604" lon="2.45619">
        <ele>144</ele>
        <time>2013-04-14T06:54:54.000Z</time>
      </trkpt>
      <trkpt lat="48.66036" lon="2.4562">
        <ele>145</ele>
        <time>2013-04-14T06:54:58.000Z</time>
      </trkpt>
      <trkpt lat="48.66034" lon="2.45621">
        <ele>144</ele>
        <time>2013-04-14T06:54:59.000Z</time>
      </trkpt>
      <trkpt lat="48.66031" lon="2.45621">
        <ele>144</ele>
        <time>2013-04-14T06:55:01.000Z</time>
      </trkpt>
      <trkpt lat="48.66029" lon="2.45622">
        <ele>144</ele>
        <time>2013-04-14T06:55:02.000Z</time>
      </trkpt>
      <trkpt lat="48.66025" lon="2.45624">
        <ele>143</ele>
        <time>2013-04-14T06:55:07.000Z</time>
      </trkpt>
      <trkpt lat="48.66024" lon="2.45625">
        <ele>143</ele>
        <time>2013-04-14T06:55:08.000Z</time>
      </trkpt>
      <trkpt lat="48.66021" lon="2.45627">
        <ele>144</ele>
        <time>2013-04-14T06:55:15.000Z</time>
      </trkpt>
      <trkpt lat="48.66016" lon="2.45629">
        <ele>144</ele>
        <time>2013-04-14T06:55:16.000Z</time>
      </trkpt>
      <trkpt lat="48.66013" lon="2.45629">
        <ele>143</ele>
        <time>2013-04-14T06:55:20.000Z</time>
      </trkpt>
      <trkpt lat="48.6601" lon="2.4563">
        <ele>143</ele>
        <time>2013-04-14T06:55:21.000Z</time>
      </trkpt>
      <trkpt lat="48.66006" lon="2.45631">
        <ele>144</ele>
        <time>2013-04-14T06:55:27.000Z</time>
      </trkpt>
      <trkpt lat="48.66005" lon="2.45632">
        <ele>143</ele>
        <time>2013-04-14T06:55:28.000Z</time>
      </trkpt>
      <trkpt lat="48.66" lon="2.45631">
        <ele>142</ele>
        <time>2013-04-14T06:55:30.000Z</time>
      </trkpt>
      <trkpt lat="48.66" lon="2.45633">
        <ele>142</ele>
        <time>2013-04-14T06:55:31.000Z</time>
      </trkpt>
      <trkpt lat="48.65996" lon="2.45635">
        <ele>142</ele>
        <time>2013-04-14T06:55:36.000Z</time>
      </trkpt>
      <trkpt lat="48.65995" lon="2.45636">
        <ele>142</ele>
        <time>2013-04-14T06:55:37.000Z</time>
      </trkpt>
      <trkpt lat="48.65991" lon="2.45637">
        <ele>143</ele>
        <time>2013-04-14T06:55:42.000Z</time>
      </trkpt>
      <trkpt lat="48.6599" lon="2.45637">
        <ele>144</ele>
        <time>2013-04-14T06:55:43.000Z</time>
      </trkpt>
      <trkpt lat="48.65986" lon="2.45638">
        <ele>144</ele>
        <time>2013-04-14T06:55:47.000Z</time>
      </trkpt>
      <trkpt lat="48.65985" lon="2.45637">
        <ele>144</ele>
        <time>2013-04-14T06:55:48.000Z</time>
      </trkpt>
      <trkpt lat="48.65982" lon="2.45636">
        <ele>145</ele>
        <time>2013-04-14T06:55:50.000Z</time>
      </trkpt>
      <trkpt lat="48.6598" lon="2.45636">
        <ele>145</ele>
        <time>2013-04-14T06:55:51.000Z</time>
      </trkpt>
      <trkpt lat="48.65976" lon="2.45633">
        <ele>145</ele>
        <time>2013-04-14T06:55:54.000Z</time>
      </trkpt>
      <trkpt lat="48.65973" lon="2.45632">
        <ele>147</ele>
        <time>2013-04-14T06:55:55.000Z</time>
      </trkpt>
      <trkpt lat="48.65969" lon="2.45631">
        <ele>145</ele>
        <time>2013-04-14T06:55:58.000Z</time>
      </trkpt>
      <trkpt lat="48.65969" lon="2.45629">
        <ele>145</ele>
        <time>2013-04-14T06:55:59.000Z</time>
      </trkpt>
      <trkpt lat="48.65966" lon="2.45624">
        <ele>143</ele>
        <time>2013-04-14T06:56:02.000Z</time>
      </trkpt>
      <trkpt lat="48.65965" lon="2.45623">
        <ele>143</ele>
        <time>2013-04-14T06:56:03.000Z</time>
      </trkpt>
      <trkpt lat="48.65963" lon="2.45618">
        <ele>142</ele>
        <time>2013-04-14T06:56:06.000Z</time>
      </trkpt>
      <trkpt lat="48.65963" lon="2.45616">
        <ele>141</ele>
        <time>2013-04-14T06:56:07.000Z</time>
      </trkpt>
      <trkpt lat="48.65961" lon="2.45611">
        <ele>140</ele>
        <time>2013-04-14T06:56:11.000Z</time>
      </trkpt>
      <trkpt lat="48.65961" lon="2.45609">
        <ele>140</ele>
        <time>2013-04-14T06:56:12.000Z</time>
      </trkpt>
      <trkpt lat="48.6596" lon="2.45604">
        <ele>139</ele>
        <time>2013-04-14T06:56:15.000Z</time>
      </trkpt>
      <trkpt lat="48.65959" lon="2.45602">
        <ele>139</ele>
        <time>2013-04-14T06:56:16.000Z</time>
      </trkpt>
      <trkpt lat="48.65957" lon="2.45598">
        <ele>139</ele>
        <time>2013-04-14T06:56:19.000Z</time>
      </trkpt>
      <trkpt lat="48.65957" lon="2.45595">
        <ele>138</ele>
        <time>2013-04-14T06:56:20.000Z</time>
      </trkpt>
      <trkpt lat="48.65956" lon="2.45589">
        <ele>138</ele>
        <time>2013-04-14T06:56:24.000Z</time>
      </trkpt>
      <trkpt lat="48.65956" lon="2.45588">
        <ele>138</ele>
        <time>2013-04-14T06:56:25.000Z</time>
      </trkpt>
      <trkpt lat="48.65955" lon="2.45582">
        <ele>137</ele>
        <time>2013-04-14T06:56:28.000Z</time>
      </trkpt>
      <trkpt lat="48.65955" lon="2.45581">
        <ele>137</ele>
        <time>2013-04-14T06:56:29.000Z</time>
      </trkpt>
      <trkpt lat="48.65954" lon="2.45574">
        <ele>136</ele>
        <time>2013-04-14T06:56:33.000Z</time>
      </trkpt>
      <trkpt lat="48.65954" lon="2.45573">
        <ele>136</ele>
        <time>2013-04-14T06:56:34.000Z</time>
      </trkpt>
      <trkpt lat="48.65953" lon="2.45566">
        <ele>136</ele>
        <time>2013-04-14T06:56:38.000Z</time>
      </trkpt>
      <trkpt lat="48.65952" lon="2.45565">
        <ele>136</ele>
        <time>2013-04-14T06:56:39.000Z</time>
      </trkpt>
      <trkpt lat="48.65951" lon="2.45559">
        <ele>135</ele>
        <time>2013-04-14T06:56:42.000Z</time>
      </trkpt>
      <trkpt lat="48.65951" lon="2.45556">
        <ele>135</ele>
        <time>2013-04-14T06:56:43.000Z</time>
      </trkpt>
      <trkpt lat="48.65948" lon="2.45552">
        <ele>134</ele>
        <time>2013-04-14T06:56:46.000Z</time>
      </trkpt>
      <trkpt lat="48.65947" lon="2.4555">
        <ele>134</ele>
        <time>2013-04-14T06:56:47.000Z</time>
      </trkpt>
      <trkpt lat="48.65946" lon="2.45545">
        <ele>134</ele>
        <time>2013-04-14T06:56:51.000Z</time>
      </trkpt>
      <trkpt lat="48.65945" lon="2.45543">
        <ele>133</ele>
        <time>2013-04-14T06:56:52.000Z</time>
      </trkpt>
      <trkpt lat="48.65943" lon="2.45539">
        <ele>133</ele>
        <time>2013-04-14T06:56:56.000Z</time>
      </trkpt>
      <trkpt lat="48.65942" lon="2.45537">
        <ele>133</ele>
        <time>2013-04-14T06:56:57.000Z</time>
      </trkpt>
      <trkpt lat="48.65941" lon="2.4553">
        <ele>131</ele>
        <time>2013-04-14T06:57:02.000Z</time>
      </trkpt>
      <trkpt lat="48.65941" lon="2.45529">
        <ele>131</ele>
        <time>2013-04-14T06:57:03.000Z</time>
      </trkpt>
      <trkpt lat="48.65939" lon="2.45524">
        <ele>131</ele>
        <time>2013-04-14T06:57:06.000Z</time>
      </trkpt>
      <trkpt lat="48.65939" lon="2.45522">
        <ele>131</ele>
        <time>2013-04-14T06:57:07.000Z</time>
      </trkpt>
      <trkpt lat="48.65937" lon="2.45518">
        <ele>132</ele>
        <time>2013-04-14T06:57:10.000Z</time>
      </trkpt>
      <trkpt lat="48.65937" lon="2.45516">
        <ele>131</ele>
        <time>2013-04-14T06:57:11.000Z</time>
      </trkpt>
      <trkpt lat="48.65935" lon="2.4551">
        <ele>131</ele>
        <time>2013-04-14T06:57:15.000Z</time>
      </trkpt>
      <trkpt lat="48.65935" lon="2.45509">
        <ele>131</ele>
        <time>2013-04-14T06:57:16.000Z</time>
      </trkpt>
      <trkpt lat="48.65933" lon="2.45503">
        <ele>131</ele>
        <time>2013-04-14T06:57:20.000Z</time>
      </trkpt>
      <trkpt lat="48.65933" lon="2.45502">
        <ele>131</ele>
        <time>2013-04-14T06:57:21.000Z</time>
      </trkpt>
      <trkpt lat="48.65931" lon="2.45498">
        <ele>131</ele>
        <time>2013-04-14T06:57:24.000Z</time>
      </trkpt>
      <trkpt lat="48.65931" lon="2.45496">
        <ele>130</ele>
        <time>2013-04-14T06:57:25.000Z</time>
      </trkpt>
      <trkpt lat="48.65929" lon="2.4549">
        <ele>129</ele>
        <time>2013-04-14T06:57:29.000Z</time>
      </trkpt>
      <trkpt lat="48.65929" lon="2.45489">
        <ele>129</ele>
        <time>2013-04-14T06:57:30.000Z</time>
      </trkpt>
      <trkpt lat="48.65927" lon="2.45484">
        <ele>129</ele>
        <time>2013-04-14T06:57:33.000Z</time>
      </trkpt>
      <trkpt lat="48.65926" lon="2.45482">
        <ele>129</ele>
        <time>2013-04-14T06:57:34.000Z</time>
      </trkpt>
      <trkpt lat="48.65925" lon="2.45475">
        <ele>129</ele>
        <time>2013-04-14T06:57:38.000Z</time>
      </trkpt>
      <trkpt lat="48.65924" lon="2.45474">
        <ele>129</ele>
        <time>2013-04-14T06:57:39.000Z</time>
      </trkpt>
      <trkpt lat="48.65924" lon="2.45467">
        <ele>130</ele>
        <time>2013-04-14T06:57:43.000Z</time>
      </trkpt>
      <trkpt lat="48.65924" lon="2.45466">
        <ele>131</ele>
        <time>2013-04-14T06:57:44.000Z</time>
      </trkpt>
      <trkpt lat="48.65921" lon="2.45461">
        <ele>130</ele>
        <time>2013-04-14T06:57:48.000Z</time>
      </trkpt>
      <trkpt lat="48.65921" lon="2.45459">
        <ele>130</ele>
        <time>2013-04-14T06:57:49.000Z</time>
      </trkpt>
      <trkpt lat="48.65918" lon="2.45454">
        <ele>130</ele>
        <time>2013-04-14T06:57:53.000Z</time>
      </trkpt>
      <trkpt lat="48.65918" lon="2.45453">
        <ele>130</ele>
        <time>2013-04-14T06:57:54.000Z</time>
      </trkpt>
      <trkpt lat="48.65917" lon="2.45448">
        <ele>130</ele>
        <time>2013-04-14T06:57:57.000Z</time>
      </trkpt>
      <trkpt lat="48.65917" lon="2.45446">
        <ele>130</ele>
        <time>2013-04-14T06:57:58.000Z</time>
      </trkpt>
      <trkpt lat="48.65916" lon="2.45441">
        <ele>129</ele>
        <time>2013-04-14T06:58:01.000Z</time>
      </trkpt>
      <trkpt lat="48.65916" lon="2.45438">
        <ele>129</ele>
        <time>2013-04-14T06:58:02.000Z</time>
      </trkpt>
      <trkpt lat="48.65914" lon="2.45432">
        <ele>129</ele>
        <time>2013-04-14T06:58:06.000Z</time>
      </trkpt>
      <trkpt lat="48.65914" lon="2.45431">
        <ele>129</ele>
        <time>2013-04-14T06:58:07.000Z</time>
      </trkpt>
      <trkpt lat="48.65913" lon="2.45425">
        <ele>128</ele>
        <time>2013-04-14T06:58:12.000Z</time>
      </trkpt>
      <trkpt lat="48.65912" lon="2.45424">
        <ele>128</ele>
        <time>2013-04-14T06:58:13.000Z</time>
      </trkpt>
      <trkpt lat="48.65909" lon="2.45418">
        <ele>128</ele>
        <time>2013-04-14T06:58:17.000Z</time>
      </trkpt>
      <trkpt lat="48.65909" lon="2.45417">
        <ele>128</ele>
        <time>2013-04-14T06:58:18.000Z</time>
      </trkpt>
      <trkpt lat="48.65909" lon="2.45411">
        <ele>129</ele>
        <time>2013-04-14T06:58:22.000Z</time>
      </trkpt>
      <trkpt lat="48.65909" lon="2.45409">
        <ele>129</ele>
        <time>2013-04-14T06:58:23.000Z</time>
      </trkpt>
      <trkpt lat="48.65907" lon="2.45403">
        <ele>127</ele>
        <time>2013-04-14T06:58:27.000Z</time>
      </trkpt>
      <trkpt lat="48.65907" lon="2.45402">
        <ele>127</ele>
        <time>2013-04-14T06:58:28.000Z</time>
      </trkpt>
      <trkpt lat="48.65907" lon="2.45396">
        <ele>127</ele>
        <time>2013-04-14T06:58:33.000Z</time>
      </trkpt>
      <trkpt lat="48.65907" lon="2.45394">
        <ele>127</ele>
        <time>2013-04-14T06:58:34.000Z</time>
      </trkpt>
      <trkpt lat="48.65907" lon="2.45389">
        <ele>128</ele>
        <time>2013-04-14T06:58:38.000Z</time>
      </trkpt>
      <trkpt lat="48.65907" lon="2.45385">
        <ele>128</ele>
        <time>2013-04-14T06:58:39.000Z</time>
      </trkpt>
      <trkpt lat="48.65906" lon="2.45379">
        <ele>129</ele>
        <time>2013-04-14T06:58:42.000Z</time>
      </trkpt>
      <trkpt lat="48.65905" lon="2.45378">
        <ele>128</ele>
        <time>2013-04-14T06:58:43.000Z</time>
      </trkpt>
      <trkpt lat="48.65905" lon="2.45374">
        <ele>129</ele>
        <time>2013-04-14T06:58:46.000Z</time>
      </trkpt>
      <trkpt lat="48.65904" lon="2.45372">
        <ele>128</ele>
        <time>2013-04-14T06:58:47.000Z</time>
      </trkpt>
      <trkpt lat="48.65902" lon="2.45366">
        <ele>128</ele>
        <time>2013-04-14T06:58:49.000Z</time>
      </trkpt>
      <trkpt lat="48.65902" lon="2.45364">
        <ele>129</ele>
        <time>2013-04-14T06:58:50.000Z</time>
      </trkpt>
      <trkpt lat="48.65901" lon="2.45358">
        <ele>131</ele>
        <time>2013-04-14T06:58:54.000Z</time>
      </trkpt>
      <trkpt lat="48.65901" lon="2.45355">
        <ele>132</ele>
        <time>2013-04-14T06:58:55.000Z</time>
      </trkpt>
      <trkpt lat="48.65902" lon="2.45351">
        <ele>132</ele>
        <time>2013-04-14T06:58:58.000Z</time>
      </trkpt>
      <trkpt lat="48.65902" lon="2.45349">
        <ele>133</ele>
        <time>2013-04-14T06:58:59.000Z</time>
      </trkpt>
      <trkpt lat="48.65899" lon="2.45345">
        <ele>135</ele>
        <time>2013-04-14T06:59:02.000Z</time>
      </trkpt>
      <trkpt lat="48.65899" lon="2.45343">
        <ele>135</ele>
        <time>2013-04-14T06:59:03.000Z</time>
      </trkpt>
      <trkpt lat="48.65897" lon="2.45338">
        <ele>134</ele>
        <time>2013-04-14T06:59:07.000Z</time>
      </trkpt>
      <trkpt lat="48.65897" lon="2.45336">
        <ele>134</ele>
        <time>2013-04-14T06:59:08.000Z</time>
      </trkpt>
      <trkpt lat="48.65896" lon="2.4533">
        <ele>134</ele>
        <time>2013-04-14T06:59:12.000Z</time>
      </trkpt>
      <trkpt lat="48.65897" lon="2.45327">
        <ele>134</ele>
        <time>2013-04-14T06:59:13.000Z</time>
      </trkpt>
      <trkpt lat="48.65896" lon="2.45321">
        <ele>135</ele>
        <time>2013-04-14T06:59:17.000Z</time>
      </trkpt>
      <trkpt lat="48.65895" lon="2.45319">
        <ele>134</ele>
        <time>2013-04-14T06:59:18.000Z</time>
      </trkpt>
      <trkpt lat="48.65891" lon="2.45316">
        <ele>130</ele>
        <time>2013-04-14T06:59:22.000Z</time>
      </trkpt>
      <trkpt lat="48.6589" lon="2.45316">
        <ele>130</ele>
        <time>2013-04-14T06:59:23.000Z</time>
      </trkpt>
      <trkpt lat="48.65888" lon="2.4531">
        <ele>131</ele>
        <time>2013-04-14T06:59:27.000Z</time>
      </trkpt>
      <trkpt lat="48.65888" lon="2.45309">
        <ele>131</ele>
        <time>2013-04-14T06:59:28.000Z</time>
      </trkpt>
      <trkpt lat="48.65889" lon="2.45304">
        <ele>133</ele>
        <time>2013-04-14T06:59:35.000Z</time>
      </trkpt>
      <trkpt lat="48.65888" lon="2.453">
        <ele>133</ele>
        <time>2013-04-14T06:59:36.000Z</time>
      </trkpt>
      <trkpt lat="48.65885" lon="2.45297">
        <ele>132</ele>
        <time>2013-04-14T06:59:39.000Z</time>
      </trkpt>
      <trkpt lat="48.65884" lon="2.45294">
        <ele>133</ele>
        <time>2013-04-14T06:59:40.000Z</time>
      </trkpt>
      <trkpt lat="48.65881" lon="2.45289">
        <ele>132</ele>
        <time>2013-04-14T06:59:44.000Z</time>
      </trkpt>
      <trkpt lat="48.6588" lon="2.45286">
        <ele>132</ele>
        <time>2013-04-14T06:59:45.000Z</time>
      </trkpt>
      <trkpt lat="48.65879" lon="2.45279">
        <ele>130</ele>
        <time>2013-04-14T06:59:50.000Z</time>
      </trkpt>
      <trkpt lat="48.65879" lon="2.45278">
        <ele>130</ele>
        <time>2013-04-14T06:59:51.000Z</time>
      </trkpt>
      <trkpt lat="48.65877" lon="2.45274">
        <ele>129</ele>
        <time>2013-04-14T06:59:55.000Z</time>
      </trkpt>
      <trkpt lat="48.65877" lon="2.45271">
        <ele>130</ele>
        <time>2013-04-14T06:59:56.000Z</time>
      </trkpt>
      <trkpt lat="48.65876" lon="2.45265">
        <ele>129</ele>
        <time>2013-04-14T07:00:02.000Z</time>
      </trkpt>
      <trkpt lat="48.65875" lon="2.45264">
        <ele>129</ele>
        <time>2013-04-14T07:00:03.000Z</time>
      </trkpt>
      <trkpt lat="48.65875" lon="2.45258">
        <ele>128</ele>
        <time>2013-04-14T07:00:08.000Z</time>
      </trkpt>
      <trkpt lat="48.65875" lon="2.45256">
        <ele>128</ele>
        <time>2013-04-14T07:00:09.000Z</time>
      </trkpt>
      <trkpt lat="48.65875" lon="2.4525">
        <ele>129</ele>
        <time>2013-04-14T07:00:13.000Z</time>
      </trkpt>
      <trkpt lat="48.65874" lon="2.45249">
        <ele>129</ele>
        <time>2013-04-14T07:00:14.000Z</time>
      </trkpt>
      <trkpt lat="48.65873" lon="2.45242">
        <ele>129</ele>
        <time>2013-04-14T07:00:19.000Z</time>
      </trkpt>
      <trkpt lat="48.65873" lon="2.45241">
        <ele>129</ele>
        <time>2013-04-14T07:00:20.000Z</time>
      </trkpt>
      <trkpt lat="48.65871" lon="2.45235">
        <ele>129</ele>
        <time>2013-04-14T07:00:24.000Z</time>
      </trkpt>
      <trkpt lat="48.65869" lon="2.45234">
        <ele>128</ele>
        <time>2013-04-14T07:00:25.000Z</time>
      </trkpt>
      <trkpt lat="48.65866" lon="2.45229">
        <ele>127</ele>
        <time>2013-04-14T07:00:28.000Z</time>
      </trkpt>
      <trkpt lat="48.65866" lon="2.45227">
        <ele>126</ele>
        <time>2013-04-14T07:00:29.000Z</time>
      </trkpt>
      <trkpt lat="48.65864" lon="2.45221">
        <ele>126</ele>
        <time>2013-04-14T07:00:33.000Z</time>
      </trkpt>
      <trkpt lat="48.65863" lon="2.4522">
        <ele>127</ele>
        <time>2013-04-14T07:00:34.000Z</time>
      </trkpt>
      <trkpt lat="48.65862" lon="2.45215">
        <ele>128</ele>
        <time>2013-04-14T07:00:38.000Z</time>
      </trkpt>
      <trkpt lat="48.65861" lon="2.45213">
        <ele>127</ele>
        <time>2013-04-14T07:00:39.000Z</time>
      </trkpt>
      <trkpt lat="48.65859" lon="2.45209">
        <ele>127</ele>
        <time>2013-04-14T07:00:42.000Z</time>
      </trkpt>
      <trkpt lat="48.65859" lon="2.45207">
        <ele>127</ele>
        <time>2013-04-14T07:00:43.000Z</time>
      </trkpt>
      <trkpt lat="48.65858" lon="2.45201">
        <ele>126</ele>
        <time>2013-04-14T07:00:48.000Z</time>
      </trkpt>
      <trkpt lat="48.65858" lon="2.45199">
        <ele>125</ele>
        <time>2013-04-14T07:00:49.000Z</time>
      </trkpt>
      <trkpt lat="48.65857" lon="2.45193">
        <ele>126</ele>
        <time>2013-04-14T07:00:53.000Z</time>
      </trkpt>
      <trkpt lat="48.65856" lon="2.45191">
        <ele>126</ele>
        <time>2013-04-14T07:00:54.000Z</time>
      </trkpt>
      <trkpt lat="48.65856" lon="2.45185">
        <ele>126</ele>
        <time>2013-04-14T07:00:57.000Z</time>
      </trkpt>
      <trkpt lat="48.65856" lon="2.45183">
        <ele>127</ele>
        <time>2013-04-14T07:00:58.000Z</time>
      </trkpt>
      <trkpt lat="48.65853" lon="2.45179">
        <ele>128</ele>
        <time>2013-04-14T07:01:01.000Z</time>
      </trkpt>
      <trkpt lat="48.65853" lon="2.45176">
        <ele>128</ele>
        <time>2013-04-14T07:01:02.000Z</time>
      </trkpt>
      <trkpt lat="48.65853" lon="2.45171">
        <ele>128</ele>
        <time>2013-04-14T07:01:06.000Z</time>
      </trkpt>
      <trkpt lat="48.65853" lon="2.45169">
        <ele>128</ele>
        <time>2013-04-14T07:01:07.000Z</time>
      </trkpt>
      <trkpt lat="48.65849" lon="2.45168">
        <ele>126</ele>
        <time>2013-04-14T07:01:09.000Z</time>
      </trkpt>
      <trkpt lat="48.65847" lon="2.45166">
        <ele>126</ele>
        <time>2013-04-14T07:01:10.000Z</time>
      </trkpt>
      <trkpt lat="48.65846" lon="2.4516">
        <ele>127</ele>
        <time>2013-04-14T07:01:14.000Z</time>
      </trkpt>
      <trkpt lat="48.65846" lon="2.45156">
        <ele>127</ele>
        <time>2013-04-14T07:01:15.000Z</time>
      </trkpt>
      <trkpt lat="48.65846" lon="2.45151">
        <ele>125</ele>
        <time>2013-04-14T07:01:19.000Z</time>
      </trkpt>
      <trkpt lat="48.65846" lon="2.45149">
        <ele>124</ele>
        <time>2013-04-14T07:01:20.000Z</time>
      </trkpt>
      <trkpt lat="48.65844" lon="2.45143">
        <ele>123</ele>
        <time>2013-04-14T07:01:25.000Z</time>
      </trkpt>
      <trkpt lat="48.65844" lon="2.4514">
        <ele>124</ele>
        <time>2013-04-14T07:01:26.000Z</time>
      </trkpt>
      <trkpt lat="48.65843" lon="2.45136">
        <ele>124</ele>
        <time>2013-04-14T07:01:29.000Z</time>
      </trkpt>
      <trkpt lat="48.65843" lon="2.45134">
        <ele>125</ele>
        <time>2013-04-14T07:01:30.000Z</time>
      </trkpt>
      <trkpt lat="48.6584" lon="2.45129">
        <ele>125</ele>
        <time>2013-04-14T07:01:33.000Z</time>
      </trkpt>
      <trkpt lat="48.6584" lon="2.45126">
        <ele>125</ele>
        <time>2013-04-14T07:01:34.000Z</time>
      </trkpt>
      <trkpt lat="48.65837" lon="2.45122">
        <ele>129</ele>
        <time>2013-04-14T07:01:38.000Z</time>
      </trkpt>
      <trkpt lat="48.65836" lon="2.45121">
        <ele>129</ele>
        <time>2013-04-14T07:01:39.000Z</time>
      </trkpt>
      <trkpt lat="48.65832" lon="2.45117">
        <ele>131</ele>
        <time>2013-04-14T07:01:43.000Z</time>
      </trkpt>
      <trkpt lat="48.65832" lon="2.45115">
        <ele>131</ele>
        <time>2013-04-14T07:01:44.000Z</time>
      </trkpt>
      <trkpt lat="48.65833" lon="2.45108">
        <ele>130</ele>
        <time>2013-04-14T07:01:47.000Z</time>
      </trkpt>
      <trkpt lat="48.65833" lon="2.45106">
        <ele>129</ele>
        <time>2013-04-14T07:01:48.000Z</time>
      </trkpt>
      <trkpt lat="48.6583" lon="2.45101">
        <ele>131</ele>
        <time>2013-04-14T07:01:51.000Z</time>
      </trkpt>
      <trkpt lat="48.6583" lon="2.451">
        <ele>130</ele>
        <time>2013-04-14T07:01:52.000Z</time>
      </trkpt>
      <trkpt lat="48.65828" lon="2.45095">
        <ele>130</ele>
        <time>2013-04-14T07:01:58.000Z</time>
      </trkpt>
      <trkpt lat="48.65829" lon="2.45093">
        <ele>130</ele>
        <time>2013-04-14T07:01:59.000Z</time>
      </trkpt>
      <trkpt lat="48.6583" lon="2.45087">
        <ele>130</ele>
        <time>2013-04-14T07:02:02.000Z</time>
      </trkpt>
      <trkpt lat="48.6583" lon="2.45085">
        <ele>130</ele>
        <time>2013-04-14T07:02:03.000Z</time>
      </trkpt>
      <trkpt lat="48.65827" lon="2.45082">
        <ele>130</ele>
        <time>2013-04-14T07:02:05.000Z</time>
      </trkpt>
      <trkpt lat="48.65824" lon="2.45081">
        <ele>130</ele>
        <time>2013-04-14T07:02:06.000Z</time>
      </trkpt>
      <trkpt lat="48.65821" lon="2.45078">
        <ele>131</ele>
        <time>2013-04-14T07:02:10.000Z</time>
      </trkpt>
      <trkpt lat="48.6582" lon="2.45077">
        <ele>131</ele>
        <time>2013-04-14T07:02:11.000Z</time>
      </trkpt>
      <trkpt lat="48.65822" lon="2.45073">
        <ele>133</ele>
        <time>2013-04-14T07:02:13.000Z</time>
      </trkpt>
      <trkpt lat="48.65824" lon="2.45069">
        <ele>133</ele>
        <time>2013-04-14T07:02:14.000Z</time>
      </trkpt>
      <trkpt lat="48.65821" lon="2.45065">
        <ele>134</ele>
        <time>2013-04-14T07:02:18.000Z</time>
      </trkpt>
      <trkpt lat="48.6582" lon="2.45064">
        <ele>134</ele>
        <time>2013-04-14T07:02:19.000Z</time>
      </trkpt>
      <trkpt lat="48.65816" lon="2.4506">
        <ele>134</ele>
        <time>2013-04-14T07:02:24.000Z</time>
      </trkpt>
      <trkpt lat="48.65815" lon="2.45061">
        <ele>134</ele>
        <time>2013-04-14T07:02:25.000Z</time>
      </trkpt>
      <trkpt lat="48.65811" lon="2.45057">
        <ele>134</ele>
        <time>2013-04-14T07:02:30.000Z</time>
      </trkpt>
      <trkpt lat="48.6581" lon="2.45058">
        <ele>134</ele>
        <time>2013-04-14T07:02:31.000Z</time>
      </trkpt>
      <trkpt lat="48.65807" lon="2.45056">
        <ele>134</ele>
        <time>2013-04-14T07:02:34.000Z</time>
      </trkpt>
      <trkpt lat="48.65806" lon="2.45055">
        <ele>134</ele>
        <time>2013-04-14T07:02:35.000Z</time>
      </trkpt>
      <trkpt lat="48.65802" lon="2.45053">
        <ele>132</ele>
        <time>2013-04-14T07:02:39.000Z</time>
      </trkpt>
      <trkpt lat="48.65801" lon="2.45054">
        <ele>132</ele>
        <time>2013-04-14T07:02:40.000Z</time>
      </trkpt>
      <trkpt lat="48.65796" lon="2.45053">
        <ele>135</ele>
        <time>2013-04-14T07:02:46.000Z</time>
      </trkpt>
      <trkpt lat="48.65796" lon="2.45053">
        <ele>135</ele>
        <time>2013-04-14T07:02:47.000Z</time>
      </trkpt>
      <trkpt lat="48.65793" lon="2.45055">
        <ele>136</ele>
        <time>2013-04-14T07:02:52.000Z</time>
      </trkpt>
      <trkpt lat="48.65791" lon="2.45055">
        <ele>136</ele>
        <time>2013-04-14T07:02:53.000Z</time>
      </trkpt>
      <trkpt lat="48.65787" lon="2.45058">
        <ele>137</ele>
        <time>2013-04-14T07:02:57.000Z</time>
      </trkpt>
      <trkpt lat="48.65787" lon="2.45058">
        <ele>137</ele>
        <time>2013-04-14T07:02:58.000Z</time>
      </trkpt>
      <trkpt lat="48.65782" lon="2.45059">
        <ele>137</ele>
        <time>2013-04-14T07:03:04.000Z</time>
      </trkpt>
      <trkpt lat="48.6578" lon="2.45059">
        <ele>137</ele>
        <time>2013-04-14T07:03:05.000Z</time>
      </trkpt>
      <trkpt lat="48.65776" lon="2.45058">
        <ele>137</ele>
        <time>2013-04-14T07:03:09.000Z</time>
      </trkpt>
      <trkpt lat="48.65774" lon="2.45058">
        <ele>137</ele>
        <time>2013-04-14T07:03:10.000Z</time>
      </trkpt>
      <trkpt lat="48.65772" lon="2.45058">
        <ele>136</ele>
        <time>2013-04-14T07:03:14.000Z</time>
      </trkpt>
      <trkpt lat="48.65769" lon="2.45058">
        <ele>137</ele>
        <time>2013-04-14T07:03:15.000Z</time>
      </trkpt>
      <trkpt lat="48.65765" lon="2.45059">
        <ele>137</ele>
        <time>2013-04-14T07:03:18.000Z</time>
      </trkpt>
      <trkpt lat="48.65764" lon="2.45059">
        <ele>137</ele>
        <time>2013-04-14T07:03:19.000Z</time>
      </trkpt>
      <trkpt lat="48.65761" lon="2.45057">
        <ele>138</ele>
        <time>2013-04-14T07:03:23.000Z</time>
      </trkpt>
      <trkpt lat="48.65759" lon="2.45055">
        <ele>138</ele>
        <time>2013-04-14T07:03:24.000Z</time>
      </trkpt>
      <trkpt lat="48.65755" lon="2.45055">
        <ele>140</ele>
        <time>2013-04-14T07:03:29.000Z</time>
      </trkpt>
      <trkpt lat="48.65755" lon="2.45054">
        <ele>139</ele>
        <time>2013-04-14T07:03:30.000Z</time>
      </trkpt>
      <trkpt lat="48.65751" lon="2.45049">
        <ele>142</ele>
        <time>2013-04-14T07:03:34.000Z</time>
      </trkpt>
      <trkpt lat="48.6575" lon="2.45048">
        <ele>142</ele>
        <time>2013-04-14T07:03:35.000Z</time>
      </trkpt>
      <trkpt lat="48.65748" lon="2.45043">
        <ele>142</ele>
        <time>2013-04-14T07:03:42.000Z</time>
      </trkpt>
      <trkpt lat="48.65747" lon="2.45041">
        <ele>142</ele>
        <time>2013-04-14T07:03:43.000Z</time>
      </trkpt>
      <trkpt lat="48.65748" lon="2.45036">
        <ele>142</ele>
        <time>2013-04-14T07:03:45.000Z</time>
      </trkpt>
      <trkpt lat="48.65748" lon="2.45034">
        <ele>142</ele>
        <time>2013-04-14T07:03:46.000Z</time>
      </trkpt>
      <trkpt lat="48.65744" lon="2.45032">
        <ele>138</ele>
        <time>2013-04-14T07:03:49.000Z</time>
      </trkpt>
      <trkpt lat="48.65743" lon="2.4503">
        <ele>138</ele>
        <time>2013-04-14T07:03:50.000Z</time>
      </trkpt>
      <trkpt lat="48.65742" lon="2.45025">
        <ele>137</ele>
        <time>2013-04-14T07:03:53.000Z</time>
      </trkpt>
      <trkpt lat="48.65742" lon="2.45023">
        <ele>136</ele>
        <time>2013-04-14T07:03:54.000Z</time>
      </trkpt>
      <trkpt lat="48.65742" lon="2.45017">
        <ele>130</ele>
        <time>2013-04-14T07:04:01.000Z</time>
      </trkpt>
      <trkpt lat="48.65741" lon="2.45016">
        <ele>130</ele>
        <time>2013-04-14T07:04:02.000Z</time>
      </trkpt>
      <trkpt lat="48.6574" lon="2.45012">
        <ele>130</ele>
        <time>2013-04-14T07:04:05.000Z</time>
      </trkpt>
      <trkpt lat="48.6574" lon="2.45009">
        <ele>131</ele>
        <time>2013-04-14T07:04:06.000Z</time>
      </trkpt>
      <trkpt lat="48.65736" lon="2.45005">
        <ele>133</ele>
        <time>2013-04-14T07:04:10.000Z</time>
      </trkpt>
      <trkpt lat="48.65735" lon="2.45003">
        <ele>132</ele>
        <time>2013-04-14T07:04:11.000Z</time>
      </trkpt>
      <trkpt lat="48.65733" lon="2.44998">
        <ele>132</ele>
        <time>2013-04-14T07:04:14.000Z</time>
      </trkpt>
      <trkpt lat="48.65733" lon="2.44996">
        <ele>132</ele>
        <time>2013-04-14T07:04:15.000Z</time>
      </trkpt>
      <trkpt lat="48.65729" lon="2.44994">
        <ele>130</ele>
        <time>2013-04-14T07:04:19.000Z</time>
      </trkpt>
      <trkpt lat="48.65728" lon="2.44993">
        <ele>130</ele>
        <time>2013-04-14T07:04:20.000Z</time>
      </trkpt>
      <trkpt lat="48.65725" lon="2.44988">
        <ele>131</ele>
        <time>2013-04-14T07:04:24.000Z</time>
      </trkpt>
      <trkpt lat="48.65723" lon="2.44987">
        <ele>131</ele>
        <time>2013-04-14T07:04:25.000Z</time>
      </trkpt>
      <trkpt lat="48.65721" lon="2.44982">
        <ele>131</ele>
        <time>2013-04-14T07:04:30.000Z</time>
      </trkpt>
      <trkpt lat="48.6572" lon="2.44981">
        <ele>132</ele>
        <time>2013-04-14T07:04:31.000Z</time>
      </trkpt>
      <trkpt lat="48.65718" lon="2.4498">
        <ele>132</ele>
        <time>2013-04-14T07:04:32.000Z</time>
      </trkpt>
      <trkpt lat="48.65715" lon="2.44978">
        <ele>132</ele>
        <time>2013-04-14T07:04:33.000Z</time>
      </trkpt>
      <trkpt lat="48.65712" lon="2.44975">
        <ele>131</ele>
        <time>2013-04-14T07:04:37.000Z</time>
      </trkpt>
      <trkpt lat="48.65711" lon="2.44976">
        <ele>131</ele>
        <time>2013-04-14T07:04:38.000Z</time>
      </trkpt>
      <trkpt lat="48.65709" lon="2.44972">
        <ele>130</ele>
        <time>2013-04-14T07:04:42.000Z</time>
      </trkpt>
      <trkpt lat="48.6571" lon="2.44969">
        <ele>130</ele>
        <time>2013-04-14T07:04:43.000Z</time>
      </trkpt>
      <trkpt lat="48.65709" lon="2.44963">
        <ele>131</ele>
        <time>2013-04-14T07:04:52.000Z</time>
      </trkpt>
      <trkpt lat="48.65708" lon="2.44961">
        <ele>130</ele>
        <time>2013-04-14T07:04:53.000Z</time>
      </trkpt>
      <trkpt lat="48.65705" lon="2.44959">
        <ele>132</ele>
        <time>2013-04-14T07:04:56.000Z</time>
      </trkpt>
      <trkpt lat="48.65704" lon="2.44958">
        <ele>133</ele>
        <time>2013-04-14T07:04:57.000Z</time>
      </trkpt>
      <trkpt lat="48.657" lon="2.4496">
        <ele>133</ele>
        <time>2013-04-14T07:04:59.000Z</time>
      </trkpt>
      <trkpt lat="48.65698" lon="2.44961">
        <ele>133</ele>
        <time>2013-04-14T07:05:00.000Z</time>
      </trkpt>
      <trkpt lat="48.65695" lon="2.4496">
        <ele>134</ele>
        <time>2013-04-14T07:05:04.000Z</time>
      </trkpt>
      <trkpt lat="48.65693" lon="2.44959">
        <ele>134</ele>
        <time>2013-04-14T07:05:05.000Z</time>
      </trkpt>
      <trkpt lat="48.6569" lon="2.44955">
        <ele>136</ele>
        <time>2013-04-14T07:05:09.000Z</time>
      </trkpt>
      <trkpt lat="48.6569" lon="2.44954">
        <ele>137</ele>
        <time>2013-04-14T07:05:10.000Z</time>
      </trkpt>
      <trkpt lat="48.65686" lon="2.44952">
        <ele>137</ele>
        <time>2013-04-14T07:05:13.000Z</time>
      </trkpt>
      <trkpt lat="48.65685" lon="2.44952">
        <ele>137</ele>
        <time>2013-04-14T07:05:14.000Z</time>
      </trkpt>
      <trkpt lat="48.65682" lon="2.44951">
        <ele>138</ele>
        <time>2013-04-14T07:05:16.000Z</time>
      </trkpt>
      <trkpt lat="48.65681" lon="2.4495">
        <ele>137</ele>
        <time>2013-04-14T07:05:17.000Z</time>
      </trkpt>
      <trkpt lat="48.65677" lon="2.44947">
        <ele>136</ele>
        <time>2013-04-14T07:05:21.000Z</time>
      </trkpt>
      <trkpt lat="48.65676" lon="2.44946">
        <ele>136</ele>
        <time>2013-04-14T07:05:22.000Z</time>
      </trkpt>
      <trkpt lat="48.65673" lon="2.44944">
        <ele>136</ele>
        <time>2013-04-14T07:05:25.000Z</time>
      </trkpt>
      <trkpt lat="48.65671" lon="2.44943">
        <ele>137</ele>
        <time>2013-04-14T07:05:26.000Z</time>
      </trkpt>
      <trkpt lat="48.65669" lon="2.44937">
        <ele>136</ele>
        <time>2013-04-14T07:05:29.000Z</time>
      </trkpt>
      <trkpt lat="48.65668" lon="2.44936">
        <ele>136</ele>
        <time>2013-04-14T07:05:30.000Z</time>
      </trkpt>
      <trkpt lat="48.65664" lon="2.44932">
        <ele>133</ele>
        <time>2013-04-14T07:05:33.000Z</time>
      </trkpt>
      <trkpt lat="48.65663" lon="2.4493">
        <ele>134</ele>
        <time>2013-04-14T07:05:34.000Z</time>
      </trkpt>
      <trkpt lat="48.65659" lon="2.44928">
        <ele>135</ele>
        <time>2013-04-14T07:05:38.000Z</time>
      </trkpt>
      <trkpt lat="48.65658" lon="2.44926">
        <ele>135</ele>
        <time>2013-04-14T07:05:39.000Z</time>
      </trkpt>
      <trkpt lat="48.65654" lon="2.44923">
        <ele>135</ele>
        <time>2013-04-14T07:05:45.000Z</time>
      </trkpt>
      <trkpt lat="48.65654" lon="2.44923">
        <ele>136</ele>
        <time>2013-04-14T07:05:46.000Z</time>
      </trkpt>
      <trkpt lat="48.65651" lon="2.44918">
        <ele>135</ele>
        <time>2013-04-14T07:05:50.000Z</time>
      </trkpt>
      <trkpt lat="48.6565" lon="2.44917">
        <ele>135</ele>
        <time>2013-04-14T07:05:51.000Z</time>
      </trkpt>
      <trkpt lat="48.65649" lon="2.44913">
        <ele>134</ele>
        <time>2013-04-14T07:05:54.000Z</time>
      </trkpt>
      <trkpt lat="48.65647" lon="2.44911">
        <ele>133</ele>
        <time>2013-04-14T07:05:55.000Z</time>
      </trkpt>
      <trkpt lat="48.65644" lon="2.44906">
        <ele>132</ele>
        <time>2013-04-14T07:05:59.000Z</time>
      </trkpt>
      <trkpt lat="48.65643" lon="2.44906">
        <ele>132</ele>
        <time>2013-04-14T07:06:00.000Z</time>
      </trkpt>
      <trkpt lat="48.6564" lon="2.44902">
        <ele>132</ele>
        <time>2013-04-14T07:06:04.000Z</time>
      </trkpt>
      <trkpt lat="48.65639" lon="2.44901">
        <ele>132</ele>
        <time>2013-04-14T07:06:05.000Z</time>
      </trkpt>
      <trkpt lat="48.65638" lon="2.44896">
        <ele>133</ele>
        <time>2013-04-14T07:06:07.000Z</time>
      </trkpt>
      <trkpt lat="48.65638" lon="2.44894">
        <ele>132</ele>
        <time>2013-04-14T07:06:08.000Z</time>
      </trkpt>
      <trkpt lat="48.65636" lon="2.44889">
        <ele>130</ele>
        <time>2013-04-14T07:06:15.000Z</time>
      </trkpt>
      <trkpt lat="48.65636" lon="2.44886">
        <ele>130</ele>
        <time>2013-04-14T07:06:16.000Z</time>
      </trkpt>
      <trkpt lat="48.65634" lon="2.44881">
        <ele>129</ele>
        <time>2013-04-14T07:06:20.000Z</time>
      </trkpt>
      <trkpt lat="48.65633" lon="2.4488">
        <ele>129</ele>
        <time>2013-04-14T07:06:21.000Z</time>
      </trkpt>
      <trkpt lat="48.6563" lon="2.44877">
        <ele>128</ele>
        <time>2013-04-14T07:06:26.000Z</time>
      </trkpt>
      <trkpt lat="48.6563" lon="2.44875">
        <ele>129</ele>
        <time>2013-04-14T07:06:27.000Z</time>
      </trkpt>
      <trkpt lat="48.65627" lon="2.4487">
        <ele>129</ele>
        <time>2013-04-14T07:06:32.000Z</time>
      </trkpt>
      <trkpt lat="48.65626" lon="2.44869">
        <ele>129</ele>
        <time>2013-04-14T07:06:33.000Z</time>
      </trkpt>
      <trkpt lat="48.65623" lon="2.44865">
        <ele>128</ele>
        <time>2013-04-14T07:06:38.000Z</time>
      </trkpt>
      <trkpt lat="48.65622" lon="2.44865">
        <ele>129</ele>
        <time>2013-04-14T07:06:39.000Z</time>
      </trkpt>
      <trkpt lat="48.65618" lon="2.44862">
        <ele>128</ele>
        <time>2013-04-14T07:06:44.000Z</time>
      </trkpt>
      <trkpt lat="48.65618" lon="2.4486">
        <ele>127</ele>
        <time>2013-04-14T07:06:45.000Z</time>
      </trkpt>
      <trkpt lat="48.65615" lon="2.44859">
        <ele>128</ele>
        <time>2013-04-14T07:06:48.000Z</time>
      </trkpt>
      <trkpt lat="48.65614" lon="2.44857">
        <ele>128</ele>
        <time>2013-04-14T07:06:49.000Z</time>
      </trkpt>
      <trkpt lat="48.65609" lon="2.44856">
        <ele>124</ele>
        <time>2013-04-14T07:06:53.000Z</time>
      </trkpt>
      <trkpt lat="48.65608" lon="2.44855">
        <ele>123</ele>
        <time>2013-04-14T07:06:54.000Z</time>
      </trkpt>
      <trkpt lat="48.65607" lon="2.44849">
        <ele>126</ele>
        <time>2013-04-14T07:06:57.000Z</time>
      </trkpt>
      <trkpt lat="48.65606" lon="2.44847">
        <ele>128</ele>
        <time>2013-04-14T07:06:58.000Z</time>
      </trkpt>
      <trkpt lat="48.65603" lon="2.44842">
        <ele>129</ele>
        <time>2013-04-14T07:07:04.000Z</time>
      </trkpt>
      <trkpt lat="48.65602" lon="2.44841">
        <ele>129</ele>
        <time>2013-04-14T07:07:05.000Z</time>
      </trkpt>
      <trkpt lat="48.65599" lon="2.44838">
        <ele>129</ele>
        <time>2013-04-14T07:07:09.000Z</time>
      </trkpt>
      <trkpt lat="48.65597" lon="2.44838">
        <ele>128</ele>
        <time>2013-04-14T07:07:10.000Z</time>
      </trkpt>
      <trkpt lat="48.65595" lon="2.44834">
        <ele>127</ele>
        <time>2013-04-14T07:07:14.000Z</time>
      </trkpt>
      <trkpt lat="48.65594" lon="2.44833">
        <ele>127</ele>
        <time>2013-04-14T07:07:15.000Z</time>
      </trkpt>
      <trkpt lat="48.65592" lon="2.44829">
        <ele>129</ele>
        <time>2013-04-14T07:07:19.000Z</time>
      </trkpt>
      <trkpt lat="48.65591" lon="2.44828">
        <ele>129</ele>
        <time>2013-04-14T07:07:20.000Z</time>
      </trkpt>
      <trkpt lat="48.65588" lon="2.44826">
        <ele>130</ele>
        <time>2013-04-14T07:07:24.000Z</time>
      </trkpt>
      <trkpt lat="48.65587" lon="2.44823">
        <ele>132</ele>
        <time>2013-04-14T07:07:25.000Z</time>
      </trkpt>
      <trkpt lat="48.65584" lon="2.44821">
        <ele>133</ele>
        <time>2013-04-14T07:07:29.000Z</time>
      </trkpt>
      <trkpt lat="48.65583" lon="2.44819">
        <ele>132</ele>
        <time>2013-04-14T07:07:30.000Z</time>
      </trkpt>
      <trkpt lat="48.6558" lon="2.44815">
        <ele>133</ele>
        <time>2013-04-14T07:07:34.000Z</time>
      </trkpt>
      <trkpt lat="48.65579" lon="2.44814">
        <ele>132</ele>
        <time>2013-04-14T07:07:35.000Z</time>
      </trkpt>
      <trkpt lat="48.65575" lon="2.44813">
        <ele>130</ele>
        <time>2013-04-14T07:07:38.000Z</time>
      </trkpt>
      <trkpt lat="48.65573" lon="2.44812">
        <ele>131</ele>
        <time>2013-04-14T07:07:39.000Z</time>
      </trkpt>
      <trkpt lat="48.65571" lon="2.44809">
        <ele>131</ele>
        <time>2013-04-14T07:07:43.000Z</time>
      </trkpt>
      <trkpt lat="48.65569" lon="2.44808">
        <ele>131</ele>
        <time>2013-04-14T07:07:44.000Z</time>
      </trkpt>
      <trkpt lat="48.65566" lon="2.44805">
        <ele>131</ele>
        <time>2013-04-14T07:07:49.000Z</time>
      </trkpt>
      <trkpt lat="48.65565" lon="2.44803">
        <ele>130</ele>
        <time>2013-04-14T07:07:50.000Z</time>
      </trkpt>
      <trkpt lat="48.65562" lon="2.44798">
        <ele>130</ele>
        <time>2013-04-14T07:07:54.000Z</time>
      </trkpt>
      <trkpt lat="48.65561" lon="2.44798">
        <ele>130</ele>
        <time>2013-04-14T07:07:55.000Z</time>
      </trkpt>
      <trkpt lat="48.65557" lon="2.44796">
        <ele>130</ele>
        <time>2013-04-14T07:07:58.000Z</time>
      </trkpt>
      <trkpt lat="48.65557" lon="2.44794">
        <ele>130</ele>
        <time>2013-04-14T07:07:59.000Z</time>
      </trkpt>
      <trkpt lat="48.65553" lon="2.44793">
        <ele>130</ele>
        <time>2013-04-14T07:08:02.000Z</time>
      </trkpt>
      <trkpt lat="48.65552" lon="2.44792">
        <ele>130</ele>
        <time>2013-04-14T07:08:03.000Z</time>
      </trkpt>
      <trkpt lat="48.65549" lon="2.44789">
        <ele>131</ele>
        <time>2013-04-14T07:08:07.000Z</time>
      </trkpt>
      <trkpt lat="48.65548" lon="2.44788">
        <ele>131</ele>
        <time>2013-04-14T07:08:08.000Z</time>
      </trkpt>
      <trkpt lat="48.65545" lon="2.44784">
        <ele>131</ele>
        <time>2013-04-14T07:08:11.000Z</time>
      </trkpt>
      <trkpt lat="48.65544" lon="2.44781">
        <ele>131</ele>
        <time>2013-04-14T07:08:12.000Z</time>
      </trkpt>
      <trkpt lat="48.65541" lon="2.44778">
        <ele>130</ele>
        <time>2013-04-14T07:08:15.000Z</time>
      </trkpt>
      <trkpt lat="48.65539" lon="2.44777">
        <ele>129</ele>
        <time>2013-04-14T07:08:16.000Z</time>
      </trkpt>
      <trkpt lat="48.65535" lon="2.44774">
        <ele>129</ele>
        <time>2013-04-14T07:08:19.000Z</time>
      </trkpt>
      <trkpt lat="48.65535" lon="2.44774">
        <ele>129</ele>
        <time>2013-04-14T07:08:20.000Z</time>
      </trkpt>
      <trkpt lat="48.65535" lon="2.44767">
        <ele>128</ele>
        <time>2013-04-14T07:08:24.000Z</time>
      </trkpt>
      <trkpt lat="48.65534" lon="2.44766">
        <ele>128</ele>
        <time>2013-04-14T07:08:25.000Z</time>
      </trkpt>
      <trkpt lat="48.6553" lon="2.44763">
        <ele>127</ele>
        <time>2013-04-14T07:08:29.000Z</time>
      </trkpt>
      <trkpt lat="48.65529" lon="2.44761">
        <ele>128</ele>
        <time>2013-04-14T07:08:30.000Z</time>
      </trkpt>
      <trkpt lat="48.65527" lon="2.44756">
        <ele>128</ele>
        <time>2013-04-14T07:08:34.000Z</time>
      </trkpt>
      <trkpt lat="48.65527" lon="2.44754">
        <ele>129</ele>
        <time>2013-04-14T07:08:35.000Z</time>
      </trkpt>
      <trkpt lat="48.65525" lon="2.44749">
        <ele>129</ele>
        <time>2013-04-14T07:08:40.000Z</time>
      </trkpt>
      <trkpt lat="48.65524" lon="2.44748">
        <ele>129</ele>
        <time>2013-04-14T07:08:41.000Z</time>
      </trkpt>
      <trkpt lat="48.65523" lon="2.44742">
        <ele>129</ele>
        <time>2013-04-14T07:08:45.000Z</time>
      </trkpt>
      <trkpt lat="48.65522" lon="2.44741">
        <ele>130</ele>
        <time>2013-04-14T07:08:46.000Z</time>
      </trkpt>
      <trkpt lat="48.65519" lon="2.44737">
        <ele>130</ele>
        <time>2013-04-14T07:08:49.000Z</time>
      </trkpt>
      <trkpt lat="48.65518" lon="2.44735">
        <ele>129</ele>
        <time>2013-04-14T07:08:50.000Z</time>
      </trkpt>
      <trkpt lat="48.65517" lon="2.44731">
        <ele>129</ele>
        <time>2013-04-14T07:08:53.000Z</time>
      </trkpt>
      <trkpt lat="48.65516" lon="2.44729">
        <ele>129</ele>
        <time>2013-04-14T07:08:54.000Z</time>
      </trkpt>
      <trkpt lat="48.65514" lon="2.44725">
        <ele>129</ele>
        <time>2013-04-14T07:08:57.000Z</time>
      </trkpt>
      <trkpt lat="48.65513" lon="2.44723">
        <ele>129</ele>
        <time>2013-04-14T07:08:58.000Z</time>
      </trkpt>
      <trkpt lat="48.6551" lon="2.4472">
        <ele>128</ele>
        <time>2013-04-14T07:09:00.000Z</time>
      </trkpt>
      <trkpt lat="48.65508" lon="2.44719">
        <ele>128</ele>
        <time>2013-04-14T07:09:01.000Z</time>
      </trkpt>
      <trkpt lat="48.65506" lon="2.44714">
        <ele>128</ele>
        <time>2013-04-14T07:09:05.000Z</time>
      </trkpt>
      <trkpt lat="48.65506" lon="2.44713">
        <ele>125</ele>
        <time>2013-04-14T07:09:06.000Z</time>
      </trkpt>
      <trkpt lat="48.65503" lon="2.44711">
        <ele>125</ele>
        <time>2013-04-14T07:09:08.000Z</time>
      </trkpt>
      <trkpt lat="48.65501" lon="2.4471">
        <ele>126</ele>
        <time>2013-04-14T07:09:09.000Z</time>
      </trkpt>
      <trkpt lat="48.65498" lon="2.44705">
        <ele>125</ele>
        <time>2013-04-14T07:09:13.000Z</time>
      </trkpt>
      <trkpt lat="48.65498" lon="2.44704">
        <ele>124</ele>
        <time>2013-04-14T07:09:14.000Z</time>
      </trkpt>
      <trkpt lat="48.65497" lon="2.44698">
        <ele>124</ele>
        <time>2013-04-14T07:09:19.000Z</time>
      </trkpt>
      <trkpt lat="48.65496" lon="2.44697">
        <ele>124</ele>
        <time>2013-04-14T07:09:20.000Z</time>
      </trkpt>
      <trkpt lat="48.65493" lon="2.44692">
        <ele>125</ele>
        <time>2013-04-14T07:09:26.000Z</time>
      </trkpt>
      <trkpt lat="48.65492" lon="2.44692">
        <ele>125</ele>
        <time>2013-04-14T07:09:27.000Z</time>
      </trkpt>
      <trkpt lat="48.65491" lon="2.44687">
        <ele>125</ele>
        <time>2013-04-14T07:09:30.000Z</time>
      </trkpt>
      <trkpt lat="48.6549" lon="2.44685">
        <ele>125</ele>
        <time>2013-04-14T07:09:31.000Z</time>
      </trkpt>
      <trkpt lat="48.65487" lon="2.44681">
        <ele>125</ele>
        <time>2013-04-14T07:09:33.000Z</time>
      </trkpt>
      <trkpt lat="48.65487" lon="2.44679">
        <ele>126</ele>
        <time>2013-04-14T07:09:34.000Z</time>
      </trkpt>
      <trkpt lat="48.65484" lon="2.44673">
        <ele>126</ele>
        <time>2013-04-14T07:09:37.000Z</time>
      </trkpt>
      <trkpt lat="48.65484" lon="2.44672">
        <ele>126</ele>
        <time>2013-04-14T07:09:38.000Z</time>
      </trkpt>
      <trkpt lat="48.65482" lon="2.44666">
        <ele>126</ele>
        <time>2013-04-14T07:09:43.000Z</time>
      </trkpt>
      <trkpt lat="48.65481" lon="2.44665">
        <ele>126</ele>
        <time>2013-04-14T07:09:44.000Z</time>
      </trkpt>
      <trkpt lat="48.6548" lon="2.44658">
        <ele>125</ele>
        <time>2013-04-14T07:09:51.000Z</time>
      </trkpt>
      <trkpt lat="48.65479" lon="2.44657">
        <ele>124</ele>
        <time>2013-04-14T07:09:52.000Z</time>
      </trkpt>
      <trkpt lat="48.65476" lon="2.44653">
        <ele>125</ele>
        <time>2013-04-14T07:09:55.000Z</time>
      </trkpt>
      <trkpt lat="48.65476" lon="2.44652">
        <ele>125</ele>
        <time>2013-04-14T07:09:56.000Z</time>
      </trkpt>
      <trkpt lat="48.65473" lon="2.44647">
        <ele>124</ele>
        <time>2013-04-14T07:10:00.000Z</time>
      </trkpt>
      <trkpt lat="48.65472" lon="2.44645">
        <ele>124</ele>
        <time>2013-04-14T07:10:01.000Z</time>
      </trkpt>
      <trkpt lat="48.65469" lon="2.44642">
        <ele>124</ele>
        <time>2013-04-14T07:10:05.000Z</time>
      </trkpt>
      <trkpt lat="48.65468" lon="2.44641">
        <ele>124</ele>
        <time>2013-04-14T07:10:06.000Z</time>
      </trkpt>
      <trkpt lat="48.65464" lon="2.44636">
        <ele>124</ele>
        <time>2013-04-14T07:10:10.000Z</time>
      </trkpt>
      <trkpt lat="48.65464" lon="2.44635">
        <ele>124</ele>
        <time>2013-04-14T07:10:11.000Z</time>
      </trkpt>
      <trkpt lat="48.65461" lon="2.4463">
        <ele>124</ele>
        <time>2013-04-14T07:10:15.000Z</time>
      </trkpt>
      <trkpt lat="48.65461" lon="2.44629">
        <ele>125</ele>
        <time>2013-04-14T07:10:16.000Z</time>
      </trkpt>
      <trkpt lat="48.65457" lon="2.44626">
        <ele>124</ele>
        <time>2013-04-14T07:10:19.000Z</time>
      </trkpt>
      <trkpt lat="48.65456" lon="2.44625">
        <ele>124</ele>
        <time>2013-04-14T07:10:20.000Z</time>
      </trkpt>
      <trkpt lat="48.65453" lon="2.44621">
        <ele>124</ele>
        <time>2013-04-14T07:10:24.000Z</time>
      </trkpt>
      <trkpt lat="48.65453" lon="2.44621">
        <ele>123</ele>
        <time>2013-04-14T07:10:25.000Z</time>
      </trkpt>
      <trkpt lat="48.65449" lon="2.44619">
        <ele>123</ele>
        <time>2013-04-14T07:10:29.000Z</time>
      </trkpt>
      <trkpt lat="48.65448" lon="2.44617">
        <ele>123</ele>
        <time>2013-04-14T07:10:30.000Z</time>
      </trkpt>
      <trkpt lat="48.65444" lon="2.44615">
        <ele>123</ele>
        <time>2013-04-14T07:10:34.000Z</time>
      </trkpt>
      <trkpt lat="48.65443" lon="2.44614">
        <ele>123</ele>
        <time>2013-04-14T07:10:35.000Z</time>
      </trkpt>
      <trkpt lat="48.65439" lon="2.44612">
        <ele>122</ele>
        <time>2013-04-14T07:10:39.000Z</time>
      </trkpt>
      <trkpt lat="48.65439" lon="2.44611">
        <ele>122</ele>
        <time>2013-04-14T07:10:40.000Z</time>
      </trkpt>
      <trkpt lat="48.65435" lon="2.44607">
        <ele>122</ele>
        <time>2013-04-14T07:10:44.000Z</time>
      </trkpt>
      <trkpt lat="48.65434" lon="2.44607">
        <ele>122</ele>
        <time>2013-04-14T07:10:45.000Z</time>
      </trkpt>
      <trkpt lat="48.6543" lon="2.44606">
        <ele>122</ele>
        <time>2013-04-14T07:10:49.000Z</time>
      </trkpt>
      <trkpt lat="48.65429" lon="2.44606">
        <ele>122</ele>
        <time>2013-04-14T07:10:50.000Z</time>
      </trkpt>
      <trkpt lat="48.65426" lon="2.44602">
        <ele>121</ele>
        <time>2013-04-14T07:12:14.000Z</time>
      </trkpt>
      <trkpt lat="48.65425" lon="2.44601">
        <ele>121</ele>
        <time>2013-04-14T07:12:15.000Z</time>
      </trkpt>
      <trkpt lat="48.65421" lon="2.44601">
        <ele>120</ele>
        <time>2013-04-14T07:12:57.000Z</time>
      </trkpt>
      <trkpt lat="48.6542" lon="2.446">
        <ele>120</ele>
        <time>2013-04-14T07:12:58.000Z</time>
      </trkpt>
      <trkpt lat="48.65417" lon="2.44601">
        <ele>119</ele>
        <time>2013-04-14T07:13:05.000Z</time>
      </trkpt>
      <trkpt lat="48.65415" lon="2.44601">
        <ele>121</ele>
        <time>2013-04-14T07:13:06.000Z</time>
      </trkpt>
      <trkpt lat="48.65414" lon="2.44595">
        <ele>122</ele>
        <time>2013-04-14T07:13:19.000Z</time>
      </trkpt>
      <trkpt lat="48.65413" lon="2.44594">
        <ele>122</ele>
        <time>2013-04-14T07:13:20.000Z</time>
      </trkpt>
      <trkpt lat="48.65411" lon="2.4459">
        <ele>123</ele>
        <time>2013-04-14T07:13:24.000Z</time>
      </trkpt>
      <trkpt lat="48.65411" lon="2.44587">
        <ele>122</ele>
        <time>2013-04-14T07:13:25.000Z</time>
      </trkpt>
      <trkpt lat="48.6541" lon="2.44582">
        <ele>122</ele>
        <time>2013-04-14T07:13:31.000Z</time>
      </trkpt>
      <trkpt lat="48.65409" lon="2.44582">
        <ele>122</ele>
        <time>2013-04-14T07:13:32.000Z</time>
      </trkpt>
      <trkpt lat="48.65405" lon="2.44578">
        <ele>123</ele>
        <time>2013-04-14T07:13:37.000Z</time>
      </trkpt>
      <trkpt lat="48.65404" lon="2.44578">
        <ele>123</ele>
        <time>2013-04-14T07:13:38.000Z</time>
      </trkpt>
      <trkpt lat="48.654" lon="2.44575">
        <ele>122</ele>
        <time>2013-04-14T07:13:43.000Z</time>
      </trkpt>
      <trkpt lat="48.65399" lon="2.44573">
        <ele>121</ele>
        <time>2013-04-14T07:13:44.000Z</time>
      </trkpt>
      <trkpt lat="48.65398" lon="2.44567">
        <ele>120</ele>
        <time>2013-04-14T07:13:52.000Z</time>
      </trkpt>
      <trkpt lat="48.654" lon="2.44565">
        <ele>120</ele>
        <time>2013-04-14T07:13:53.000Z</time>
      </trkpt>
      <trkpt lat="48.65402" lon="2.4456">
        <ele>120</ele>
        <time>2013-04-14T07:13:56.000Z</time>
      </trkpt>
      <trkpt lat="48.65403" lon="2.44558">
        <ele>121</ele>
        <time>2013-04-14T07:13:57.000Z</time>
      </trkpt>
      <trkpt lat="48.65403" lon="2.44551">
        <ele>120</ele>
        <time>2013-04-14T07:14:07.000Z</time>
      </trkpt>
      <trkpt lat="48.65403" lon="2.44551">
        <ele>120</ele>
        <time>2013-04-14T07:14:08.000Z</time>
      </trkpt>
      <trkpt lat="48.65404" lon="2.44557">
        <ele>120</ele>
        <time>2013-04-14T07:14:41.000Z</time>
      </trkpt>
      <trkpt lat="48.65405" lon="2.4456">
        <ele>119</ele>
        <time>2013-04-14T07:14:42.000Z</time>
      </trkpt>
      <trkpt lat="48.65402" lon="2.44564">
        <ele>118</ele>
        <time>2013-04-14T07:14:46.000Z</time>
      </trkpt>
      <trkpt lat="48.654" lon="2.44565">
        <ele>117</ele>
        <time>2013-04-14T07:14:47.000Z</time>
      </trkpt>
      <trkpt lat="48.65396" lon="2.44565">
        <ele>116</ele>
        <time>2013-04-14T07:14:51.000Z</time>
      </trkpt>
      <trkpt lat="48.65394" lon="2.44564">
        <ele>116</ele>
        <time>2013-04-14T07:14:52.000Z</time>
      </trkpt>
      <trkpt lat="48.65391" lon="2.4456">
        <ele>115</ele>
        <time>2013-04-14T07:14:54.000Z</time>
      </trkpt>
      <trkpt lat="48.6539" lon="2.44558">
        <ele>115</ele>
        <time>2013-04-14T07:14:55.000Z</time>
      </trkpt>
      <trkpt lat="48.65387" lon="2.44555">
        <ele>115</ele>
        <time>2013-04-14T07:14:57.000Z</time>
      </trkpt>
      <trkpt lat="48.65386" lon="2.44554">
        <ele>115</ele>
        <time>2013-04-14T07:14:58.000Z</time>
      </trkpt>
      <trkpt lat="48.65382" lon="2.44549">
        <ele>114</ele>
        <time>2013-04-14T07:15:01.000Z</time>
      </trkpt>
      <trkpt lat="48.65381" lon="2.44548">
        <ele>114</ele>
        <time>2013-04-14T07:15:02.000Z</time>
      </trkpt>
      <trkpt lat="48.65377" lon="2.44547">
        <ele>114</ele>
        <time>2013-04-14T07:15:04.000Z</time>
      </trkpt>
      <trkpt lat="48.65376" lon="2.44545">
        <ele>114</ele>
        <time>2013-04-14T07:15:05.000Z</time>
      </trkpt>
      <trkpt lat="48.65373" lon="2.44541">
        <ele>114</ele>
        <time>2013-04-14T07:15:07.000Z</time>
      </trkpt>
      <trkpt lat="48.65372" lon="2.4454">
        <ele>114</ele>
        <time>2013-04-14T07:15:08.000Z</time>
      </trkpt>
      <trkpt lat="48.65368" lon="2.44539">
        <ele>113</ele>
        <time>2013-04-14T07:15:10.000Z</time>
      </trkpt>
      <trkpt lat="48.65367" lon="2.44538">
        <ele>113</ele>
        <time>2013-04-14T07:15:11.000Z</time>
      </trkpt>
      <trkpt lat="48.65365" lon="2.44533">
        <ele>112</ele>
        <time>2013-04-14T07:15:14.000Z</time>
      </trkpt>
      <trkpt lat="48.65364" lon="2.44532">
        <ele>112</ele>
        <time>2013-04-14T07:15:15.000Z</time>
      </trkpt>
      <trkpt lat="48.65361" lon="2.44529">
        <ele>112</ele>
        <time>2013-04-14T07:15:18.000Z</time>
      </trkpt>
      <trkpt lat="48.65359" lon="2.44528">
        <ele>112</ele>
        <time>2013-04-14T07:15:19.000Z</time>
      </trkpt>
      <trkpt lat="48.65357" lon="2.44526">
        <ele>110</ele>
        <time>2013-04-14T07:15:21.000Z</time>
      </trkpt>
      <trkpt lat="48.65355" lon="2.44526">
        <ele>110</ele>
        <time>2013-04-14T07:15:22.000Z</time>
      </trkpt>
      <trkpt lat="48.65352" lon="2.44522">
        <ele>110</ele>
        <time>2013-04-14T07:15:25.000Z</time>
      </trkpt>
      <trkpt lat="48.65351" lon="2.44521">
        <ele>111</ele>
        <time>2013-04-14T07:15:26.000Z</time>
      </trkpt>
      <trkpt lat="48.6535" lon="2.44518">
        <ele>110</ele>
        <time>2013-04-14T07:15:28.000Z</time>
      </trkpt>
      <trkpt lat="48.65348" lon="2.44516">
        <ele>110</ele>
        <time>2013-04-14T07:15:29.000Z</time>
      </trkpt>
      <trkpt lat="48.65345" lon="2.44514">
        <ele>108</ele>
        <time>2013-04-14T07:15:31.000Z</time>
      </trkpt>
      <trkpt lat="48.65344" lon="2.44513">
        <ele>108</ele>
        <time>2013-04-14T07:15:32.000Z</time>
      </trkpt>
      <trkpt lat="48.6534" lon="2.44509">
        <ele>108</ele>
        <time>2013-04-14T07:15:35.000Z</time>
      </trkpt>
      <trkpt lat="48.65339" lon="2.44509">
        <ele>108</ele>
        <time>2013-04-14T07:15:36.000Z</time>
      </trkpt>
      <trkpt lat="48.65336" lon="2.44506">
        <ele>109</ele>
        <time>2013-04-14T07:15:39.000Z</time>
      </trkpt>
      <trkpt lat="48.65335" lon="2.44505">
        <ele>109</ele>
        <time>2013-04-14T07:15:40.000Z</time>
      </trkpt>
      <trkpt lat="48.65331" lon="2.44502">
        <ele>109</ele>
        <time>2013-04-14T07:15:42.000Z</time>
      </trkpt>
      <trkpt lat="48.6533" lon="2.44501">
        <ele>109</ele>
        <time>2013-04-14T07:15:43.000Z</time>
      </trkpt>
      <trkpt lat="48.65326" lon="2.44501">
        <ele>109</ele>
        <time>2013-04-14T07:15:45.000Z</time>
      </trkpt>
      <trkpt lat="48.65325" lon="2.44501">
        <ele>109</ele>
        <time>2013-04-14T07:15:46.000Z</time>
      </trkpt>
      <trkpt lat="48.65323" lon="2.44496">
        <ele>110</ele>
        <time>2013-04-14T07:15:50.000Z</time>
      </trkpt>
      <trkpt lat="48.65323" lon="2.44494">
        <ele>109</ele>
        <time>2013-04-14T07:15:51.000Z</time>
      </trkpt>
      <trkpt lat="48.6532" lon="2.44491">
        <ele>110</ele>
        <time>2013-04-14T07:15:54.000Z</time>
      </trkpt>
      <trkpt lat="48.65318" lon="2.44491">
        <ele>109</ele>
        <time>2013-04-14T07:15:55.000Z</time>
      </trkpt>
      <trkpt lat="48.65315" lon="2.44488">
        <ele>110</ele>
        <time>2013-04-14T07:15:58.000Z</time>
      </trkpt>
      <trkpt lat="48.65315" lon="2.44487">
        <ele>110</ele>
        <time>2013-04-14T07:15:59.000Z</time>
      </trkpt>
      <trkpt lat="48.65311" lon="2.44483">
        <ele>110</ele>
        <time>2013-04-14T07:16:03.000Z</time>
      </trkpt>
      <trkpt lat="48.65309" lon="2.44483">
        <ele>110</ele>
        <time>2013-04-14T07:16:04.000Z</time>
      </trkpt>
      <trkpt lat="48.65306" lon="2.4448">
        <ele>109</ele>
        <time>2013-04-14T07:16:08.000Z</time>
      </trkpt>
      <trkpt lat="48.65305" lon="2.44479">
        <ele>109</ele>
        <time>2013-04-14T07:16:09.000Z</time>
      </trkpt>
      <trkpt lat="48.65302" lon="2.44473">
        <ele>108</ele>
        <time>2013-04-14T07:16:13.000Z</time>
      </trkpt>
      <trkpt lat="48.65301" lon="2.44473">
        <ele>108</ele>
        <time>2013-04-14T07:16:14.000Z</time>
      </trkpt>
      <trkpt lat="48.65298" lon="2.44469">
        <ele>107</ele>
        <time>2013-04-14T07:16:17.000Z</time>
      </trkpt>
      <trkpt lat="48.65297" lon="2.44468">
        <ele>107</ele>
        <time>2013-04-14T07:16:18.000Z</time>
      </trkpt>
      <trkpt lat="48.65295" lon="2.44464">
        <ele>106</ele>
        <time>2013-04-14T07:16:20.000Z</time>
      </trkpt>
      <trkpt lat="48.65294" lon="2.44464">
        <ele>107</ele>
        <time>2013-04-14T07:16:21.000Z</time>
      </trkpt>
      <trkpt lat="48.65291" lon="2.44459">
        <ele>106</ele>
        <time>2013-04-14T07:16:24.000Z</time>
      </trkpt>
      <trkpt lat="48.65291" lon="2.44458">
        <ele>106</ele>
        <time>2013-04-14T07:16:25.000Z</time>
      </trkpt>
      <trkpt lat="48.65288" lon="2.44453">
        <ele>106</ele>
        <time>2013-04-14T07:16:28.000Z</time>
      </trkpt>
      <trkpt lat="48.65287" lon="2.44452">
        <ele>106</ele>
        <time>2013-04-14T07:16:29.000Z</time>
      </trkpt>
      <trkpt lat="48.65284" lon="2.44448">
        <ele>106</ele>
        <time>2013-04-14T07:16:32.000Z</time>
      </trkpt>
      <trkpt lat="48.65283" lon="2.44447">
        <ele>106</ele>
        <time>2013-04-14T07:16:33.000Z</time>
      </trkpt>
      <trkpt lat="48.65281" lon="2.44444">
        <ele>106</ele>
        <time>2013-04-14T07:16:35.000Z</time>
      </trkpt>
      <trkpt lat="48.65278" lon="2.44442">
        <ele>106</ele>
        <time>2013-04-14T07:16:37.000Z</time>
      </trkpt>
      <trkpt lat="48.65274" lon="2.44438">
        <ele>105</ele>
        <time>2013-04-14T07:16:40.000Z</time>
      </trkpt>
      <trkpt lat="48.65274" lon="2.44437">
        <ele>105</ele>
        <time>2013-04-14T07:16:41.000Z</time>
      </trkpt>
      <trkpt lat="48.65271" lon="2.44433">
        <ele>105</ele>
        <time>2013-04-14T07:16:44.000Z</time>
      </trkpt>
      <trkpt lat="48.6527" lon="2.44431">
        <ele>105</ele>
        <time>2013-04-14T07:16:45.000Z</time>
      </trkpt>
      <trkpt lat="48.65267" lon="2.44427">
        <ele>105</ele>
        <time>2013-04-14T07:16:48.000Z</time>
      </trkpt>
      <trkpt lat="48.65266" lon="2.44426">
        <ele>105</ele>
        <time>2013-04-14T07:16:49.000Z</time>
      </trkpt>
      <trkpt lat="48.65263" lon="2.44422">
        <ele>105</ele>
        <time>2013-04-14T07:16:52.000Z</time>
      </trkpt>
      <trkpt lat="48.65262" lon="2.44421">
        <ele>105</ele>
        <time>2013-04-14T07:16:53.000Z</time>
      </trkpt>
      <trkpt lat="48.65259" lon="2.44417">
        <ele>105</ele>
        <time>2013-04-14T07:16:56.000Z</time>
      </trkpt>
      <trkpt lat="48.65258" lon="2.44416">
        <ele>105</ele>
        <time>2013-04-14T07:16:57.000Z</time>
      </trkpt>
      <trkpt lat="48.65255" lon="2.44411">
        <ele>105</ele>
        <time>2013-04-14T07:17:01.000Z</time>
      </trkpt>
      <trkpt lat="48.65255" lon="2.4441">
        <ele>105</ele>
        <time>2013-04-14T07:17:02.000Z</time>
      </trkpt>
      <trkpt lat="48.65251" lon="2.44405">
        <ele>104</ele>
        <time>2013-04-14T07:17:06.000Z</time>
      </trkpt>
      <trkpt lat="48.6525" lon="2.44403">
        <ele>104</ele>
        <time>2013-04-14T07:17:07.000Z</time>
      </trkpt>
      <trkpt lat="48.65248" lon="2.444">
        <ele>103</ele>
        <time>2013-04-14T07:17:10.000Z</time>
      </trkpt>
      <trkpt lat="48.65247" lon="2.44398">
        <ele>103</ele>
        <time>2013-04-14T07:17:11.000Z</time>
      </trkpt>
      <trkpt lat="48.65244" lon="2.44393">
        <ele>103</ele>
        <time>2013-04-14T07:17:15.000Z</time>
      </trkpt>
      <trkpt lat="48.65243" lon="2.44392">
        <ele>102</ele>
        <time>2013-04-14T07:17:16.000Z</time>
      </trkpt>
      <trkpt lat="48.65241" lon="2.44389">
        <ele>102</ele>
        <time>2013-04-14T07:17:19.000Z</time>
      </trkpt>
      <trkpt lat="48.65239" lon="2.44387">
        <ele>102</ele>
        <time>2013-04-14T07:17:20.000Z</time>
      </trkpt>
      <trkpt lat="48.65236" lon="2.44383">
        <ele>102</ele>
        <time>2013-04-14T07:17:23.000Z</time>
      </trkpt>
      <trkpt lat="48.65235" lon="2.44382">
        <ele>102</ele>
        <time>2013-04-14T07:17:24.000Z</time>
      </trkpt>
      <trkpt lat="48.65232" lon="2.44379">
        <ele>102</ele>
        <time>2013-04-14T07:17:27.000Z</time>
      </trkpt>
      <trkpt lat="48.65231" lon="2.44377">
        <ele>102</ele>
        <time>2013-04-14T07:17:28.000Z</time>
      </trkpt>
      <trkpt lat="48.65227" lon="2.44374">
        <ele>101</ele>
        <time>2013-04-14T07:17:31.000Z</time>
      </trkpt>
      <trkpt lat="48.65226" lon="2.44373">
        <ele>101</ele>
        <time>2013-04-14T07:17:32.000Z</time>
      </trkpt>
      <trkpt lat="48.65224" lon="2.4437">
        <ele>101</ele>
        <time>2013-04-14T07:17:34.000Z</time>
      </trkpt>
      <trkpt lat="48.65222" lon="2.44367">
        <ele>100</ele>
        <time>2013-04-14T07:17:36.000Z</time>
      </trkpt>
      <trkpt lat="48.6522" lon="2.44364">
        <ele>100</ele>
        <time>2013-04-14T07:17:40.000Z</time>
      </trkpt>
      <trkpt lat="48.65218" lon="2.44362">
        <ele>99</ele>
        <time>2013-04-14T07:17:41.000Z</time>
      </trkpt>
      <trkpt lat="48.65216" lon="2.44357">
        <ele>99</ele>
        <time>2013-04-14T07:17:44.000Z</time>
      </trkpt>
      <trkpt lat="48.65215" lon="2.44355">
        <ele>99</ele>
        <time>2013-04-14T07:17:45.000Z</time>
      </trkpt>
      <trkpt lat="48.65212" lon="2.44349">
        <ele>99</ele>
        <time>2013-04-14T07:17:48.000Z</time>
      </trkpt>
      <trkpt lat="48.6521" lon="2.4435">
        <ele>99</ele>
        <time>2013-04-14T07:17:49.000Z</time>
      </trkpt>
      <trkpt lat="48.65206" lon="2.44347">
        <ele>98</ele>
        <time>2013-04-14T07:17:52.000Z</time>
      </trkpt>
      <trkpt lat="48.65204" lon="2.44345">
        <ele>98</ele>
        <time>2013-04-14T07:17:53.000Z</time>
      </trkpt>
      <trkpt lat="48.65206" lon="2.44341">
        <ele>98</ele>
        <time>2013-04-14T07:18:04.000Z</time>
      </trkpt>
      <trkpt lat="48.65205" lon="2.44338">
        <ele>98</ele>
        <time>2013-04-14T07:18:05.000Z</time>
      </trkpt>
      <trkpt lat="48.65204" lon="2.44332">
        <ele>98</ele>
        <time>2013-04-14T07:18:09.000Z</time>
      </trkpt>
      <trkpt lat="48.65202" lon="2.44331">
        <ele>98</ele>
        <time>2013-04-14T07:18:10.000Z</time>
      </trkpt>
      <trkpt lat="48.65198" lon="2.44332">
        <ele>97</ele>
        <time>2013-04-14T07:18:14.000Z</time>
      </trkpt>
      <trkpt lat="48.65196" lon="2.44333">
        <ele>96</ele>
        <time>2013-04-14T07:18:15.000Z</time>
      </trkpt>
      <trkpt lat="48.65193" lon="2.4433">
        <ele>95</ele>
        <time>2013-04-14T07:18:18.000Z</time>
      </trkpt>
      <trkpt lat="48.65192" lon="2.4433">
        <ele>95</ele>
        <time>2013-04-14T07:18:19.000Z</time>
      </trkpt>
      <trkpt lat="48.65189" lon="2.44326">
        <ele>93</ele>
        <time>2013-04-14T07:18:23.000Z</time>
      </trkpt>
      <trkpt lat="48.65189" lon="2.44323">
        <ele>93</ele>
        <time>2013-04-14T07:18:24.000Z</time>
      </trkpt>
      <trkpt lat="48.65187" lon="2.44318">
        <ele>93</ele>
        <time>2013-04-14T07:18:29.000Z</time>
      </trkpt>
      <trkpt lat="48.65187" lon="2.44315">
        <ele>93</ele>
        <time>2013-04-14T07:18:30.000Z</time>
      </trkpt>
      <trkpt lat="48.65184" lon="2.44312">
        <ele>94</ele>
        <time>2013-04-14T07:18:35.000Z</time>
      </trkpt>
      <trkpt lat="48.65183" lon="2.4431">
        <ele>93</ele>
        <time>2013-04-14T07:18:36.000Z</time>
      </trkpt>
      <trkpt lat="48.65181" lon="2.44304">
        <ele>92</ele>
        <time>2013-04-14T07:18:40.000Z</time>
      </trkpt>
      <trkpt lat="48.65181" lon="2.44303">
        <ele>92</ele>
        <time>2013-04-14T07:18:41.000Z</time>
      </trkpt>
      <trkpt lat="48.65177" lon="2.443">
        <ele>92</ele>
        <time>2013-04-14T07:18:44.000Z</time>
      </trkpt>
      <trkpt lat="48.65176" lon="2.44299">
        <ele>92</ele>
        <time>2013-04-14T07:18:45.000Z</time>
      </trkpt>
      <trkpt lat="48.65174" lon="2.44296">
        <ele>91</ele>
        <time>2013-04-14T07:18:49.000Z</time>
      </trkpt>
      <trkpt lat="48.65173" lon="2.44295">
        <ele>91</ele>
        <time>2013-04-14T07:18:50.000Z</time>
      </trkpt>
      <trkpt lat="48.65169" lon="2.4429">
        <ele>91</ele>
        <time>2013-04-14T07:18:54.000Z</time>
      </trkpt>
      <trkpt lat="48.65168" lon="2.44288">
        <ele>91</ele>
        <time>2013-04-14T07:18:55.000Z</time>
      </trkpt>
      <trkpt lat="48.65166" lon="2.44285">
        <ele>90</ele>
        <time>2013-04-14T07:18:58.000Z</time>
      </trkpt>
      <trkpt lat="48.65165" lon="2.44284">
        <ele>90</ele>
        <time>2013-04-14T07:18:59.000Z</time>
      </trkpt>
      <trkpt lat="48.65162" lon="2.44281">
        <ele>90</ele>
        <time>2013-04-14T07:19:02.000Z</time>
      </trkpt>
      <trkpt lat="48.65161" lon="2.44279">
        <ele>91</ele>
        <time>2013-04-14T07:19:03.000Z</time>
      </trkpt>
      <trkpt lat="48.65158" lon="2.44275">
        <ele>91</ele>
        <time>2013-04-14T07:19:06.000Z</time>
      </trkpt>
      <trkpt lat="48.65157" lon="2.44273">
        <ele>91</ele>
        <time>2013-04-14T07:19:07.000Z</time>
      </trkpt>
      <trkpt lat="48.65155" lon="2.4427">
        <ele>89</ele>
        <time>2013-04-14T07:19:11.000Z</time>
      </trkpt>
      <trkpt lat="48.65153" lon="2.44269">
        <ele>89</ele>
        <time>2013-04-14T07:19:12.000Z</time>
      </trkpt>
      <trkpt lat="48.65151" lon="2.44264">
        <ele>89</ele>
        <time>2013-04-14T07:19:16.000Z</time>
      </trkpt>
      <trkpt lat="48.65151" lon="2.44261">
        <ele>89</ele>
        <time>2013-04-14T07:19:17.000Z</time>
      </trkpt>
      <trkpt lat="48.65148" lon="2.44257">
        <ele>87</ele>
        <time>2013-04-14T07:19:20.000Z</time>
      </trkpt>
      <trkpt lat="48.65148" lon="2.44255">
        <ele>87</ele>
        <time>2013-04-14T07:19:21.000Z</time>
      </trkpt>
      <trkpt lat="48.65144" lon="2.44254">
        <ele>88</ele>
        <time>2013-04-14T07:19:25.000Z</time>
      </trkpt>
      <trkpt lat="48.65144" lon="2.44255">
        <ele>89</ele>
        <time>2013-04-14T07:19:26.000Z</time>
      </trkpt>
      <trkpt lat="48.65139" lon="2.44255">
        <ele>88</ele>
        <time>2013-04-14T07:19:30.000Z</time>
      </trkpt>
      <trkpt lat="48.65138" lon="2.44256">
        <ele>87</ele>
        <time>2013-04-14T07:19:31.000Z</time>
      </trkpt>
      <trkpt lat="48.65134" lon="2.44254">
        <ele>86</ele>
        <time>2013-04-14T07:19:35.000Z</time>
      </trkpt>
      <trkpt lat="48.65133" lon="2.44254">
        <ele>86</ele>
        <time>2013-04-14T07:19:36.000Z</time>
      </trkpt>
      <trkpt lat="48.65131" lon="2.44249">
        <ele>86</ele>
        <time>2013-04-14T07:19:42.000Z</time>
      </trkpt>
      <trkpt lat="48.65129" lon="2.44248">
        <ele>85</ele>
        <time>2013-04-14T07:19:43.000Z</time>
      </trkpt>
      <trkpt lat="48.65126" lon="2.44246">
        <ele>85</ele>
        <time>2013-04-14T07:19:45.000Z</time>
      </trkpt>
      <trkpt lat="48.65124" lon="2.44243">
        <ele>83</ele>
        <time>2013-04-14T07:19:46.000Z</time>
      </trkpt>
      <trkpt lat="48.65122" lon="2.44241">
        <ele>83</ele>
        <time>2013-04-14T07:19:47.000Z</time>
      </trkpt>
      <trkpt lat="48.65121" lon="2.44239">
        <ele>83</ele>
        <time>2013-04-14T07:19:48.000Z</time>
      </trkpt>
      <trkpt lat="48.65119" lon="2.44234">
        <ele>85</ele>
        <time>2013-04-14T07:19:50.000Z</time>
      </trkpt>
      <trkpt lat="48.65117" lon="2.44233">
        <ele>84</ele>
        <time>2013-04-14T07:19:51.000Z</time>
      </trkpt>
      <trkpt lat="48.65115" lon="2.4423">
        <ele>84</ele>
        <time>2013-04-14T07:19:53.000Z</time>
      </trkpt>
      <trkpt lat="48.65114" lon="2.44229">
        <ele>84</ele>
        <time>2013-04-14T07:19:54.000Z</time>
      </trkpt>
      <trkpt lat="48.6511" lon="2.44227">
        <ele>85</ele>
        <time>2013-04-14T07:19:56.000Z</time>
      </trkpt>
      <trkpt lat="48.65109" lon="2.44226">
        <ele>85</ele>
        <time>2013-04-14T07:19:57.000Z</time>
      </trkpt>
      <trkpt lat="48.65107" lon="2.44221">
        <ele>84</ele>
        <time>2013-04-14T07:20:02.000Z</time>
      </trkpt>
      <trkpt lat="48.65106" lon="2.4422">
        <ele>83</ele>
        <time>2013-04-14T07:20:03.000Z</time>
      </trkpt>
      <trkpt lat="48.65103" lon="2.44216">
        <ele>83</ele>
        <time>2013-04-14T07:20:07.000Z</time>
      </trkpt>
      <trkpt lat="48.65101" lon="2.44214">
        <ele>82</ele>
        <time>2013-04-14T07:20:08.000Z</time>
      </trkpt>
      <trkpt lat="48.65099" lon="2.4421">
        <ele>82</ele>
        <time>2013-04-14T07:20:12.000Z</time>
      </trkpt>
      <trkpt lat="48.65098" lon="2.44209">
        <ele>82</ele>
        <time>2013-04-14T07:20:13.000Z</time>
      </trkpt>
      <trkpt lat="48.65096" lon="2.44203">
        <ele>81</ele>
        <time>2013-04-14T07:20:16.000Z</time>
      </trkpt>
      <trkpt lat="48.65095" lon="2.44202">
        <ele>81</ele>
        <time>2013-04-14T07:20:17.000Z</time>
      </trkpt>
      <trkpt lat="48.65092" lon="2.44197">
        <ele>86</ele>
        <time>2013-04-14T07:20:22.000Z</time>
      </trkpt>
      <trkpt lat="48.65092" lon="2.44196">
        <ele>86</ele>
        <time>2013-04-14T07:20:23.000Z</time>
      </trkpt>
      <trkpt lat="48.65088" lon="2.44193">
        <ele>87</ele>
        <time>2013-04-14T07:20:27.000Z</time>
      </trkpt>
      <trkpt lat="48.65087" lon="2.44192">
        <ele>87</ele>
        <time>2013-04-14T07:20:28.000Z</time>
      </trkpt>
      <trkpt lat="48.65084" lon="2.44187">
        <ele>88</ele>
        <time>2013-04-14T07:20:32.000Z</time>
      </trkpt>
      <trkpt lat="48.65083" lon="2.44186">
        <ele>88</ele>
        <time>2013-04-14T07:20:33.000Z</time>
      </trkpt>
      <trkpt lat="48.65081" lon="2.44181">
        <ele>87</ele>
        <time>2013-04-14T07:20:36.000Z</time>
      </trkpt>
      <trkpt lat="48.65079" lon="2.44178">
        <ele>88</ele>
        <time>2013-04-14T07:20:37.000Z</time>
      </trkpt>
      <trkpt lat="48.65078" lon="2.44171">
        <ele>87</ele>
        <time>2013-04-14T07:20:41.000Z</time>
      </trkpt>
      <trkpt lat="48.65077" lon="2.4417">
        <ele>87</ele>
        <time>2013-04-14T07:20:42.000Z</time>
      </trkpt>
      <trkpt lat="48.65075" lon="2.44167">
        <ele>87</ele>
        <time>2013-04-14T07:20:45.000Z</time>
      </trkpt>
      <trkpt lat="48.65074" lon="2.44163">
        <ele>87</ele>
        <time>2013-04-14T07:20:46.000Z</time>
      </trkpt>
      <trkpt lat="48.65071" lon="2.44158">
        <ele>86</ele>
        <time>2013-04-14T07:20:49.000Z</time>
      </trkpt>
      <trkpt lat="48.6507" lon="2.44157">
        <ele>85</ele>
        <time>2013-04-14T07:20:50.000Z</time>
      </trkpt>
      <trkpt lat="48.65067" lon="2.44153">
        <ele>85</ele>
        <time>2013-04-14T07:20:54.000Z</time>
      </trkpt>
      <trkpt lat="48.65065" lon="2.44152">
        <ele>84</ele>
        <time>2013-04-14T07:20:55.000Z</time>
      </trkpt>
      <trkpt lat="48.65062" lon="2.44149">
        <ele>84</ele>
        <time>2013-04-14T07:20:58.000Z</time>
      </trkpt>
      <trkpt lat="48.6506" lon="2.44148">
        <ele>83</ele>
        <time>2013-04-14T07:20:59.000Z</time>
      </trkpt>
      <trkpt lat="48.65059" lon="2.44143">
        <ele>83</ele>
        <time>2013-04-14T07:21:02.000Z</time>
      </trkpt>
      <trkpt lat="48.65058" lon="2.44142">
        <ele>83</ele>
        <time>2013-04-14T07:21:03.000Z</time>
      </trkpt>
      <trkpt lat="48.65056" lon="2.44138">
        <ele>83</ele>
        <time>2013-04-14T07:21:06.000Z</time>
      </trkpt>
      <trkpt lat="48.65054" lon="2.44137">
        <ele>82</ele>
        <time>2013-04-14T07:21:07.000Z</time>
      </trkpt>
      <trkpt lat="48.65051" lon="2.44134">
        <ele>81</ele>
        <time>2013-04-14T07:21:10.000Z</time>
      </trkpt>
      <trkpt lat="48.6505" lon="2.44133">
        <ele>81</ele>
        <time>2013-04-14T07:21:11.000Z</time>
      </trkpt>
      <trkpt lat="48.65048" lon="2.44129">
        <ele>82</ele>
        <time>2013-04-14T07:21:15.000Z</time>
      </trkpt>
      <trkpt lat="48.65045" lon="2.44126">
        <ele>82</ele>
        <time>2013-04-14T07:21:16.000Z</time>
      </trkpt>
      <trkpt lat="48.65043" lon="2.4412">
        <ele>82</ele>
        <time>2013-04-14T07:21:20.000Z</time>
      </trkpt>
      <trkpt lat="48.65042" lon="2.44119">
        <ele>83</ele>
        <time>2013-04-14T07:21:21.000Z</time>
      </trkpt>
      <trkpt lat="48.6504" lon="2.44115">
        <ele>83</ele>
        <time>2013-04-14T07:21:23.000Z</time>
      </trkpt>
      <trkpt lat="48.65039" lon="2.44114">
        <ele>83</ele>
        <time>2013-04-14T07:21:24.000Z</time>
      </trkpt>
      <trkpt lat="48.65037" lon="2.44109">
        <ele>83</ele>
        <time>2013-04-14T07:21:27.000Z</time>
      </trkpt>
      <trkpt lat="48.65037" lon="2.44107">
        <ele>83</ele>
        <time>2013-04-14T07:21:28.000Z</time>
      </trkpt>
      <trkpt lat="48.65036" lon="2.44102">
        <ele>84</ele>
        <time>2013-04-14T07:21:32.000Z</time>
      </trkpt>
      <trkpt lat="48.65035" lon="2.44101">
        <ele>85</ele>
        <time>2013-04-14T07:21:33.000Z</time>
      </trkpt>
      <trkpt lat="48.65034" lon="2.44095">
        <ele>87</ele>
        <time>2013-04-14T07:21:39.000Z</time>
      </trkpt>
      <trkpt lat="48.65035" lon="2.44094">
        <ele>87</ele>
        <time>2013-04-14T07:21:40.000Z</time>
      </trkpt>
      <trkpt lat="48.6503" lon="2.44094">
        <ele>87</ele>
        <time>2013-04-14T07:21:48.000Z</time>
      </trkpt>
      <trkpt lat="48.65029" lon="2.44093">
        <ele>86</ele>
        <time>2013-04-14T07:21:49.000Z</time>
      </trkpt>
      <trkpt lat="48.65027" lon="2.44089">
        <ele>85</ele>
        <time>2013-04-14T07:21:52.000Z</time>
      </trkpt>
      <trkpt lat="48.65026" lon="2.44088">
        <ele>85</ele>
        <time>2013-04-14T07:21:53.000Z</time>
      </trkpt>
      <trkpt lat="48.65023" lon="2.44085">
        <ele>84</ele>
        <time>2013-04-14T07:21:58.000Z</time>
      </trkpt>
      <trkpt lat="48.65022" lon="2.44084">
        <ele>84</ele>
        <time>2013-04-14T07:21:59.000Z</time>
      </trkpt>
      <trkpt lat="48.65019" lon="2.44079">
        <ele>83</ele>
        <time>2013-04-14T07:22:04.000Z</time>
      </trkpt>
      <trkpt lat="48.65018" lon="2.44079">
        <ele>83</ele>
        <time>2013-04-14T07:22:05.000Z</time>
      </trkpt>
      <trkpt lat="48.65014" lon="2.44076">
        <ele>81</ele>
        <time>2013-04-14T07:22:08.000Z</time>
      </trkpt>
      <trkpt lat="48.65013" lon="2.44075">
        <ele>82</ele>
        <time>2013-04-14T07:22:09.000Z</time>
      </trkpt>
      <trkpt lat="48.65011" lon="2.44069">
        <ele>81</ele>
        <time>2013-04-14T07:22:14.000Z</time>
      </trkpt>
      <trkpt lat="48.6501" lon="2.44068">
        <ele>81</ele>
        <time>2013-04-14T07:22:15.000Z</time>
      </trkpt>
      <trkpt lat="48.65007" lon="2.44063">
        <ele>81</ele>
        <time>2013-04-14T07:22:18.000Z</time>
      </trkpt>
      <trkpt lat="48.65006" lon="2.44062">
        <ele>81</ele>
        <time>2013-04-14T07:22:19.000Z</time>
      </trkpt>
      <trkpt lat="48.65004" lon="2.44058">
        <ele>81</ele>
        <time>2013-04-14T07:22:22.000Z</time>
      </trkpt>
      <trkpt lat="48.65003" lon="2.44056">
        <ele>81</ele>
        <time>2013-04-14T07:22:23.000Z</time>
      </trkpt>
      <trkpt lat="48.65" lon="2.44052">
        <ele>81</ele>
        <time>2013-04-14T07:22:26.000Z</time>
      </trkpt>
      <trkpt lat="48.64999" lon="2.44051">
        <ele>81</ele>
        <time>2013-04-14T07:22:27.000Z</time>
      </trkpt>
      <trkpt lat="48.64997" lon="2.44047">
        <ele>81</ele>
        <time>2013-04-14T07:22:30.000Z</time>
      </trkpt>
      <trkpt lat="48.64996" lon="2.44046">
        <ele>81</ele>
        <time>2013-04-14T07:22:31.000Z</time>
      </trkpt>
      <trkpt lat="48.64993" lon="2.44042">
        <ele>81</ele>
        <time>2013-04-14T07:22:34.000Z</time>
      </trkpt>
      <trkpt lat="48.64992" lon="2.4404">
        <ele>81</ele>
        <time>2013-04-14T07:22:35.000Z</time>
      </trkpt>
      <trkpt lat="48.6499" lon="2.44036">
        <ele>81</ele>
        <time>2013-04-14T07:22:38.000Z</time>
      </trkpt>
      <trkpt lat="48.64989" lon="2.44035">
        <ele>81</ele>
        <time>2013-04-14T07:22:39.000Z</time>
      </trkpt>
      <trkpt lat="48.64986" lon="2.44031">
        <ele>81</ele>
        <time>2013-04-14T07:22:42.000Z</time>
      </trkpt>
      <trkpt lat="48.64985" lon="2.4403">
        <ele>81</ele>
        <time>2013-04-14T07:22:43.000Z</time>
      </trkpt>
      <trkpt lat="48.64982" lon="2.44025">
        <ele>81</ele>
        <time>2013-04-14T07:22:46.000Z</time>
      </trkpt>
      <trkpt lat="48.64981" lon="2.44024">
        <ele>81</ele>
        <time>2013-04-14T07:22:47.000Z</time>
      </trkpt>
      <trkpt lat="48.64978" lon="2.4402">
        <ele>82</ele>
        <time>2013-04-14T07:22:50.000Z</time>
      </trkpt>
      <trkpt lat="48.64977" lon="2.44019">
        <ele>82</ele>
        <time>2013-04-14T07:22:51.000Z</time>
      </trkpt>
      <trkpt lat="48.64974" lon="2.44014">
        <ele>82</ele>
        <time>2013-04-14T07:22:55.000Z</time>
      </trkpt>
      <trkpt lat="48.64973" lon="2.44012">
        <ele>82</ele>
        <time>2013-04-14T07:22:56.000Z</time>
      </trkpt>
      <trkpt lat="48.6497" lon="2.44009">
        <ele>82</ele>
        <time>2013-04-14T07:22:59.000Z</time>
      </trkpt>
      <trkpt lat="48.64969" lon="2.44008">
        <ele>82</ele>
        <time>2013-04-14T07:23:00.000Z</time>
      </trkpt>
      <trkpt lat="48.64966" lon="2.44004">
        <ele>81</ele>
        <time>2013-04-14T07:23:05.000Z</time>
      </trkpt>
      <trkpt lat="48.64965" lon="2.44003">
        <ele>81</ele>
        <time>2013-04-14T07:23:06.000Z</time>
      </trkpt>
      <trkpt lat="48.64963" lon="2.43999">
        <ele>82</ele>
        <time>2013-04-14T07:23:09.000Z</time>
      </trkpt>
      <trkpt lat="48.64962" lon="2.43997">
        <ele>82</ele>
        <time>2013-04-14T07:23:10.000Z</time>
      </trkpt>
      <trkpt lat="48.64959" lon="2.43991">
        <ele>82</ele>
        <time>2013-04-14T07:23:14.000Z</time>
      </trkpt>
      <trkpt lat="48.64959" lon="2.4399">
        <ele>82</ele>
        <time>2013-04-14T07:23:15.000Z</time>
      </trkpt>
      <trkpt lat="48.64956" lon="2.43986">
        <ele>82</ele>
        <time>2013-04-14T07:23:19.000Z</time>
      </trkpt>
      <trkpt lat="48.64955" lon="2.43984">
        <ele>82</ele>
        <time>2013-04-14T07:23:20.000Z</time>
      </trkpt>
      <trkpt lat="48.64952" lon="2.43981">
        <ele>82</ele>
        <time>2013-04-14T07:23:23.000Z</time>
      </trkpt>
      <trkpt lat="48.64952" lon="2.43979">
        <ele>82</ele>
        <time>2013-04-14T07:23:24.000Z</time>
      </trkpt>
      <trkpt lat="48.64948" lon="2.43975">
        <ele>83</ele>
        <time>2013-04-14T07:23:28.000Z</time>
      </trkpt>
      <trkpt lat="48.64947" lon="2.43974">
        <ele>83</ele>
        <time>2013-04-14T07:23:29.000Z</time>
      </trkpt>
      <trkpt lat="48.64945" lon="2.4397">
        <ele>83</ele>
        <time>2013-04-14T07:23:32.000Z</time>
      </trkpt>
      <trkpt lat="48.64944" lon="2.43968">
        <ele>83</ele>
        <time>2013-04-14T07:23:33.000Z</time>
      </trkpt>
      <trkpt lat="48.6494" lon="2.43966">
        <ele>83</ele>
        <time>2013-04-14T07:23:36.000Z</time>
      </trkpt>
      <trkpt lat="48.64938" lon="2.43964">
        <ele>83</ele>
        <time>2013-04-14T07:23:37.000Z</time>
      </trkpt>
      <trkpt lat="48.64935" lon="2.4396">
        <ele>83</ele>
        <time>2013-04-14T07:23:41.000Z</time>
      </trkpt>
      <trkpt lat="48.64934" lon="2.43959">
        <ele>82</ele>
        <time>2013-04-14T07:23:42.000Z</time>
      </trkpt>
      <trkpt lat="48.64932" lon="2.43954">
        <ele>82</ele>
        <time>2013-04-14T07:23:46.000Z</time>
      </trkpt>
      <trkpt lat="48.64931" lon="2.43953">
        <ele>82</ele>
        <time>2013-04-14T07:23:47.000Z</time>
      </trkpt>
      <trkpt lat="48.64928" lon="2.43949">
        <ele>81</ele>
        <time>2013-04-14T07:23:51.000Z</time>
      </trkpt>
      <trkpt lat="48.64927" lon="2.43947">
        <ele>81</ele>
        <time>2013-04-14T07:23:52.000Z</time>
      </trkpt>
      <trkpt lat="48.64925" lon="2.43944">
        <ele>82</ele>
        <time>2013-04-14T07:23:55.000Z</time>
      </trkpt>
      <trkpt lat="48.64924" lon="2.43942">
        <ele>81</ele>
        <time>2013-04-14T07:23:56.000Z</time>
      </trkpt>
      <trkpt lat="48.64921" lon="2.43938">
        <ele>82</ele>
        <time>2013-04-14T07:23:59.000Z</time>
      </trkpt>
      <trkpt lat="48.64919" lon="2.43936">
        <ele>82</ele>
        <time>2013-04-14T07:24:00.000Z</time>
      </trkpt>
      <trkpt lat="48.64918" lon="2.43932">
        <ele>82</ele>
        <time>2013-04-14T07:24:04.000Z</time>
      </trkpt>
      <trkpt lat="48.64916" lon="2.43931">
        <ele>82</ele>
        <time>2013-04-14T07:24:05.000Z</time>
      </trkpt>
      <trkpt lat="48.64912" lon="2.43927">
        <ele>82</ele>
        <time>2013-04-14T07:24:09.000Z</time>
      </trkpt>
      <trkpt lat="48.64912" lon="2.43925">
        <ele>83</ele>
        <time>2013-04-14T07:24:10.000Z</time>
      </trkpt>
      <trkpt lat="48.64911" lon="2.43919">
        <ele>84</ele>
        <time>2013-04-14T07:24:13.000Z</time>
      </trkpt>
      <trkpt lat="48.64911" lon="2.43917">
        <ele>84</ele>
        <time>2013-04-14T07:24:14.000Z</time>
      </trkpt>
      <trkpt lat="48.64909" lon="2.43913">
        <ele>84</ele>
        <time>2013-04-14T07:24:16.000Z</time>
      </trkpt>
      <trkpt lat="48.64908" lon="2.43911">
        <ele>84</ele>
        <time>2013-04-14T07:24:17.000Z</time>
      </trkpt>
      <trkpt lat="48.64904" lon="2.43908">
        <ele>84</ele>
        <time>2013-04-14T07:24:20.000Z</time>
      </trkpt>
      <trkpt lat="48.64903" lon="2.43907">
        <ele>84</ele>
        <time>2013-04-14T07:24:21.000Z</time>
      </trkpt>
      <trkpt lat="48.64901" lon="2.43902">
        <ele>85</ele>
        <time>2013-04-14T07:24:25.000Z</time>
      </trkpt>
      <trkpt lat="48.64901" lon="2.43901">
        <ele>85</ele>
        <time>2013-04-14T07:24:26.000Z</time>
      </trkpt>
      <trkpt lat="48.64898" lon="2.43896">
        <ele>86</ele>
        <time>2013-04-14T07:24:30.000Z</time>
      </trkpt>
      <trkpt lat="48.64897" lon="2.43894">
        <ele>86</ele>
        <time>2013-04-14T07:24:31.000Z</time>
      </trkpt>
      <trkpt lat="48.64896" lon="2.4389">
        <ele>85</ele>
        <time>2013-04-14T07:24:34.000Z</time>
      </trkpt>
      <trkpt lat="48.64895" lon="2.43888">
        <ele>85</ele>
        <time>2013-04-14T07:24:35.000Z</time>
      </trkpt>
      <trkpt lat="48.64891" lon="2.43886">
        <ele>85</ele>
        <time>2013-04-14T07:24:38.000Z</time>
      </trkpt>
      <trkpt lat="48.6489" lon="2.43885">
        <ele>85</ele>
        <time>2013-04-14T07:24:39.000Z</time>
      </trkpt>
      <trkpt lat="48.64888" lon="2.43881">
        <ele>84</ele>
        <time>2013-04-14T07:24:43.000Z</time>
      </trkpt>
      <trkpt lat="48.64887" lon="2.4388">
        <ele>85</ele>
        <time>2013-04-14T07:24:44.000Z</time>
      </trkpt>
      <trkpt lat="48.64887" lon="2.43875">
        <ele>85</ele>
        <time>2013-04-14T07:24:47.000Z</time>
      </trkpt>
      <trkpt lat="48.64888" lon="2.43873">
        <ele>85</ele>
        <time>2013-04-14T07:24:48.000Z</time>
      </trkpt>
      <trkpt lat="48.64893" lon="2.43871">
        <ele>80</ele>
        <time>2013-04-14T07:26:29.000Z</time>
      </trkpt>
      <trkpt lat="48.64893" lon="2.43871">
        <ele>80</ele>
        <time>2013-04-14T07:26:30.000Z</time>
      </trkpt>
      <trkpt lat="48.64891" lon="2.43865">
        <ele>83</ele>
        <time>2013-04-14T07:26:45.000Z</time>
      </trkpt>
      <trkpt lat="48.64892" lon="2.43863">
        <ele>83</ele>
        <time>2013-04-14T07:26:46.000Z</time>
      </trkpt>
      <trkpt lat="48.6489" lon="2.43869">
        <ele>83</ele>
        <time>2013-04-14T07:27:19.000Z</time>
      </trkpt>
      <trkpt lat="48.6489" lon="2.4387">
        <ele>83</ele>
        <time>2013-04-14T07:27:20.000Z</time>
      </trkpt>
      <trkpt lat="48.64888" lon="2.43876">
        <ele>83</ele>
        <time>2013-04-14T07:27:26.000Z</time>
      </trkpt>
      <trkpt lat="48.64887" lon="2.43877">
        <ele>82</ele>
        <time>2013-04-14T07:27:27.000Z</time>
      </trkpt>
      <trkpt lat="48.64884" lon="2.43882">
        <ele>81</ele>
        <time>2013-04-14T07:27:35.000Z</time>
      </trkpt>
      <trkpt lat="48.64883" lon="2.43882">
        <ele>81</ele>
        <time>2013-04-14T07:27:36.000Z</time>
      </trkpt>
      <trkpt lat="48.64882" lon="2.43888">
        <ele>82</ele>
        <time>2013-04-14T07:27:42.000Z</time>
      </trkpt>
      <trkpt lat="48.64882" lon="2.43889">
        <ele>83</ele>
        <time>2013-04-14T07:27:43.000Z</time>
      </trkpt>
      <trkpt lat="48.64879" lon="2.43893">
        <ele>83</ele>
        <time>2013-04-14T07:29:18.000Z</time>
      </trkpt>
      <trkpt lat="48.64878" lon="2.43894">
        <ele>83</ele>
        <time>2013-04-14T07:29:19.000Z</time>
      </trkpt>
      <trkpt lat="48.64876" lon="2.439">
        <ele>83</ele>
        <time>2013-04-14T07:31:39.000Z</time>
      </trkpt>
      <trkpt lat="48.64875" lon="2.43901">
        <ele>83</ele>
        <time>2013-04-14T07:31:40.000Z</time>
      </trkpt>
      <trkpt lat="48.64872" lon="2.43905">
        <ele>82</ele>
        <time>2013-04-14T07:31:44.000Z</time>
      </trkpt>
      <trkpt lat="48.64871" lon="2.43906">
        <ele>81</ele>
        <time>2013-04-14T07:31:45.000Z</time>
      </trkpt>
      <trkpt lat="48.64868" lon="2.4391">
        <ele>82</ele>
        <time>2013-04-14T07:31:49.000Z</time>
      </trkpt>
      <trkpt lat="48.64867" lon="2.43911">
        <ele>82</ele>
        <time>2013-04-14T07:31:50.000Z</time>
      </trkpt>
      <trkpt lat="48.64863" lon="2.43913">
        <ele>80</ele>
        <time>2013-04-14T07:32:13.000Z</time>
      </trkpt>
      <trkpt lat="48.64862" lon="2.43914">
        <ele>80</ele>
        <time>2013-04-14T07:32:14.000Z</time>
      </trkpt>
      <trkpt lat="48.64859" lon="2.43918">
        <ele>81</ele>
        <time>2013-04-14T07:32:20.000Z</time>
      </trkpt>
      <trkpt lat="48.64858" lon="2.43918">
        <ele>82</ele>
        <time>2013-04-14T07:32:21.000Z</time>
      </trkpt>
      <trkpt lat="48.64858" lon="2.43912">
        <ele>84</ele>
        <time>2013-04-14T07:32:52.000Z</time>
      </trkpt>
      <trkpt lat="48.64859" lon="2.4391">
        <ele>84</ele>
        <time>2013-04-14T07:32:53.000Z</time>
      </trkpt>
      <trkpt lat="48.6486" lon="2.43905">
        <ele>81</ele>
        <time>2013-04-14T07:38:45.000Z</time>
      </trkpt>
      <trkpt lat="48.6486" lon="2.43903">
        <ele>81</ele>
        <time>2013-04-14T07:38:46.000Z</time>
      </trkpt>
      <trkpt lat="48.64859" lon="2.43909">
        <ele>77</ele>
        <time>2013-04-14T07:42:22.000Z</time>
      </trkpt>
      <trkpt lat="48.64858" lon="2.43912">
        <ele>77</ele>
        <time>2013-04-14T07:42:23.000Z</time>
      </trkpt>
      <trkpt lat="48.64857" lon="2.43917">
        <ele>77</ele>
        <time>2013-04-14T07:42:26.000Z</time>
      </trkpt>
      <trkpt lat="48.64856" lon="2.43918">
        <ele>77</ele>
        <time>2013-04-14T07:42:27.000Z</time>
      </trkpt>
      <trkpt lat="48.64854" lon="2.43923">
        <ele>78</ele>
        <time>2013-04-14T07:42:31.000Z</time>
      </trkpt>
      <trkpt lat="48.64853" lon="2.43925">
        <ele>78</ele>
        <time>2013-04-14T07:42:32.000Z</time>
      </trkpt>
      <trkpt lat="48.64851" lon="2.43929">
        <ele>77</ele>
        <time>2013-04-14T07:42:35.000Z</time>
      </trkpt>
      <trkpt lat="48.6485" lon="2.43931">
        <ele>78</ele>
        <time>2013-04-14T07:42:36.000Z</time>
      </trkpt>
      <trkpt lat="48.64849" lon="2.43937">
        <ele>77</ele>
        <time>2013-04-14T07:42:41.000Z</time>
      </trkpt>
      <trkpt lat="48.64848" lon="2.43938">
        <ele>77</ele>
        <time>2013-04-14T07:42:42.000Z</time>
      </trkpt>
      <trkpt lat="48.64846" lon="2.43943">
        <ele>78</ele>
        <time>2013-04-14T07:42:53.000Z</time>
      </trkpt>
      <trkpt lat="48.64845" lon="2.43944">
        <ele>78</ele>
        <time>2013-04-14T07:42:54.000Z</time>
      </trkpt>
      <trkpt lat="48.64843" lon="2.43948">
        <ele>78</ele>
        <time>2013-04-14T07:42:57.000Z</time>
      </trkpt>
      <trkpt lat="48.64842" lon="2.4395">
        <ele>78</ele>
        <time>2013-04-14T07:42:58.000Z</time>
      </trkpt>
      <trkpt lat="48.64839" lon="2.43954">
        <ele>79</ele>
        <time>2013-04-14T07:43:01.000Z</time>
      </trkpt>
      <trkpt lat="48.64838" lon="2.43956">
        <ele>80</ele>
        <time>2013-04-14T07:43:02.000Z</time>
      </trkpt>
      <trkpt lat="48.64836" lon="2.43962">
        <ele>80</ele>
        <time>2013-04-14T07:43:05.000Z</time>
      </trkpt>
      <trkpt lat="48.64836" lon="2.43964">
        <ele>80</ele>
        <time>2013-04-14T07:43:06.000Z</time>
      </trkpt>
      <trkpt lat="48.64834" lon="2.43969">
        <ele>80</ele>
        <time>2013-04-14T07:43:10.000Z</time>
      </trkpt>
      <trkpt lat="48.64832" lon="2.4397">
        <ele>80</ele>
        <time>2013-04-14T07:43:11.000Z</time>
      </trkpt>
      <trkpt lat="48.64831" lon="2.43975">
        <ele>80</ele>
        <time>2013-04-14T07:43:16.000Z</time>
      </trkpt>
      <trkpt lat="48.6483" lon="2.43977">
        <ele>80</ele>
        <time>2013-04-14T07:43:17.000Z</time>
      </trkpt>
      <trkpt lat="48.64827" lon="2.43981">
        <ele>81</ele>
        <time>2013-04-14T07:43:23.000Z</time>
      </trkpt>
      <trkpt lat="48.64827" lon="2.43982">
        <ele>81</ele>
        <time>2013-04-14T07:43:24.000Z</time>
      </trkpt>
      <trkpt lat="48.64823" lon="2.43986">
        <ele>82</ele>
        <time>2013-04-14T07:43:31.000Z</time>
      </trkpt>
      <trkpt lat="48.64822" lon="2.43987">
        <ele>82</ele>
        <time>2013-04-14T07:43:32.000Z</time>
      </trkpt>
      <trkpt lat="48.64819" lon="2.4399">
        <ele>82</ele>
        <time>2013-04-14T07:43:36.000Z</time>
      </trkpt>
      <trkpt lat="48.64818" lon="2.43991">
        <ele>82</ele>
        <time>2013-04-14T07:43:37.000Z</time>
      </trkpt>
      <trkpt lat="48.64816" lon="2.43995">
        <ele>82</ele>
        <time>2013-04-14T07:43:40.000Z</time>
      </trkpt>
      <trkpt lat="48.64814" lon="2.43995">
        <ele>81</ele>
        <time>2013-04-14T07:43:41.000Z</time>
      </trkpt>
      <trkpt lat="48.6481" lon="2.43998">
        <ele>81</ele>
        <time>2013-04-14T07:43:45.000Z</time>
      </trkpt>
      <trkpt lat="48.64809" lon="2.44001">
        <ele>81</ele>
        <time>2013-04-14T07:43:46.000Z</time>
      </trkpt>
      <trkpt lat="48.64807" lon="2.44005">
        <ele>81</ele>
        <time>2013-04-14T07:43:50.000Z</time>
      </trkpt>
      <trkpt lat="48.64807" lon="2.44007">
        <ele>81</ele>
        <time>2013-04-14T07:43:51.000Z</time>
      </trkpt>
      <trkpt lat="48.64803" lon="2.44011">
        <ele>80</ele>
        <time>2013-04-14T07:43:54.000Z</time>
      </trkpt>
      <trkpt lat="48.64803" lon="2.44012">
        <ele>80</ele>
        <time>2013-04-14T07:43:55.000Z</time>
      </trkpt>
      <trkpt lat="48.648" lon="2.44016">
        <ele>80</ele>
        <time>2013-04-14T07:43:58.000Z</time>
      </trkpt>
      <trkpt lat="48.648" lon="2.44017">
        <ele>80</ele>
        <time>2013-04-14T07:43:59.000Z</time>
      </trkpt>
      <trkpt lat="48.64798" lon="2.44021">
        <ele>82</ele>
        <time>2013-04-14T07:44:03.000Z</time>
      </trkpt>
      <trkpt lat="48.64796" lon="2.44023">
        <ele>82</ele>
        <time>2013-04-14T07:44:04.000Z</time>
      </trkpt>
      <trkpt lat="48.64793" lon="2.44027">
        <ele>82</ele>
        <time>2013-04-14T07:44:06.000Z</time>
      </trkpt>
      <trkpt lat="48.64792" lon="2.4403">
        <ele>82</ele>
        <time>2013-04-14T07:44:07.000Z</time>
      </trkpt>
      <trkpt lat="48.64788" lon="2.44034">
        <ele>83</ele>
        <time>2013-04-14T07:44:13.000Z</time>
      </trkpt>
      <trkpt lat="48.64788" lon="2.44035">
        <ele>83</ele>
        <time>2013-04-14T07:44:14.000Z</time>
      </trkpt>
      <trkpt lat="48.64785" lon="2.44039">
        <ele>83</ele>
        <time>2013-04-14T07:44:18.000Z</time>
      </trkpt>
      <trkpt lat="48.64784" lon="2.4404">
        <ele>83</ele>
        <time>2013-04-14T07:44:19.000Z</time>
      </trkpt>
      <trkpt lat="48.64781" lon="2.44044">
        <ele>84</ele>
        <time>2013-04-14T07:44:23.000Z</time>
      </trkpt>
      <trkpt lat="48.6478" lon="2.44046">
        <ele>83</ele>
        <time>2013-04-14T07:44:24.000Z</time>
      </trkpt>
      <trkpt lat="48.64778" lon="2.44051">
        <ele>82</ele>
        <time>2013-04-14T07:44:26.000Z</time>
      </trkpt>
      <trkpt lat="48.64777" lon="2.44053">
        <ele>82</ele>
        <time>2013-04-14T07:44:27.000Z</time>
      </trkpt>
      <trkpt lat="48.64774" lon="2.44057">
        <ele>82</ele>
        <time>2013-04-14T07:44:29.000Z</time>
      </trkpt>
      <trkpt lat="48.64773" lon="2.44058">
        <ele>83</ele>
        <time>2013-04-14T07:44:30.000Z</time>
      </trkpt>
      <trkpt lat="48.6477" lon="2.44063">
        <ele>83</ele>
        <time>2013-04-14T07:44:33.000Z</time>
      </trkpt>
      <trkpt lat="48.64768" lon="2.44064">
        <ele>82</ele>
        <time>2013-04-14T07:44:34.000Z</time>
      </trkpt>
      <trkpt lat="48.64766" lon="2.44067">
        <ele>83</ele>
        <time>2013-04-14T07:44:35.000Z</time>
      </trkpt>
      <trkpt lat="48.64762" lon="2.44069">
        <ele>83</ele>
        <time>2013-04-14T07:44:36.000Z</time>
      </trkpt>
      <trkpt lat="48.6476" lon="2.44072">
        <ele>83</ele>
        <time>2013-04-14T07:44:39.000Z</time>
      </trkpt>
      <trkpt lat="48.6476" lon="2.44075">
        <ele>83</ele>
        <time>2013-04-14T07:44:40.000Z</time>
      </trkpt>
      <trkpt lat="48.64757" lon="2.44076">
        <ele>84</ele>
        <time>2013-04-14T07:44:41.000Z</time>
      </trkpt>
      <trkpt lat="48.64756" lon="2.44078">
        <ele>84</ele>
        <time>2013-04-14T07:44:42.000Z</time>
      </trkpt>
      <trkpt lat="48.64753" lon="2.44082">
        <ele>84</ele>
        <time>2013-04-14T07:44:44.000Z</time>
      </trkpt>
      <trkpt lat="48.64751" lon="2.44083">
        <ele>84</ele>
        <time>2013-04-14T07:44:45.000Z</time>
      </trkpt>
      <trkpt lat="48.64749" lon="2.44086">
        <ele>84</ele>
        <time>2013-04-14T07:44:47.000Z</time>
      </trkpt>
      <trkpt lat="48.64747" lon="2.44089">
        <ele>84</ele>
        <time>2013-04-14T07:44:48.000Z</time>
      </trkpt>
      <trkpt lat="48.64743" lon="2.44091">
        <ele>84</ele>
        <time>2013-04-14T07:44:49.000Z</time>
      </trkpt>
      <trkpt lat="48.64741" lon="2.44093">
        <ele>84</ele>
        <time>2013-04-14T07:44:50.000Z</time>
      </trkpt>
      <trkpt lat="48.64737" lon="2.44095">
        <ele>83</ele>
        <time>2013-04-14T07:44:52.000Z</time>
      </trkpt>
      <trkpt lat="48.64738" lon="2.44098">
        <ele>85</ele>
        <time>2013-04-14T07:44:53.000Z</time>
      </trkpt>
      <trkpt lat="48.64735" lon="2.44101">
        <ele>84</ele>
        <time>2013-04-14T07:44:55.000Z</time>
      </trkpt>
      <trkpt lat="48.64734" lon="2.44103">
        <ele>84</ele>
        <time>2013-04-14T07:44:56.000Z</time>
      </trkpt>
      <trkpt lat="48.64733" lon="2.44106">
        <ele>84</ele>
        <time>2013-04-14T07:44:58.000Z</time>
      </trkpt>
      <trkpt lat="48.64731" lon="2.44109">
        <ele>83</ele>
        <time>2013-04-14T07:44:59.000Z</time>
      </trkpt>
      <trkpt lat="48.64727" lon="2.44112">
        <ele>84</ele>
        <time>2013-04-14T07:45:03.000Z</time>
      </trkpt>
      <trkpt lat="48.64725" lon="2.44112">
        <ele>84</ele>
        <time>2013-04-14T07:45:04.000Z</time>
      </trkpt>
      <trkpt lat="48.64722" lon="2.44115">
        <ele>83</ele>
        <time>2013-04-14T07:45:07.000Z</time>
      </trkpt>
      <trkpt lat="48.6472" lon="2.44117">
        <ele>82</ele>
        <time>2013-04-14T07:45:08.000Z</time>
      </trkpt>
      <trkpt lat="48.64717" lon="2.44121">
        <ele>83</ele>
        <time>2013-04-14T07:45:48.000Z</time>
      </trkpt>
      <trkpt lat="48.64716" lon="2.44123">
        <ele>82</ele>
        <time>2013-04-14T07:45:49.000Z</time>
      </trkpt>
      <trkpt lat="48.64712" lon="2.44126">
        <ele>81</ele>
        <time>2013-04-14T07:45:53.000Z</time>
      </trkpt>
      <trkpt lat="48.64711" lon="2.44128">
        <ele>81</ele>
        <time>2013-04-14T07:45:54.000Z</time>
      </trkpt>
      <trkpt lat="48.64708" lon="2.44132">
        <ele>81</ele>
        <time>2013-04-14T07:45:58.000Z</time>
      </trkpt>
      <trkpt lat="48.64706" lon="2.44133">
        <ele>81</ele>
        <time>2013-04-14T07:45:59.000Z</time>
      </trkpt>
      <trkpt lat="48.64704" lon="2.44138">
        <ele>82</ele>
        <time>2013-04-14T07:46:03.000Z</time>
      </trkpt>
      <trkpt lat="48.64702" lon="2.44139">
        <ele>83</ele>
        <time>2013-04-14T07:46:04.000Z</time>
      </trkpt>
      <trkpt lat="48.64699" lon="2.44145">
        <ele>83</ele>
        <time>2013-04-14T07:46:11.000Z</time>
      </trkpt>
      <trkpt lat="48.64699" lon="2.44147">
        <ele>82</ele>
        <time>2013-04-14T07:46:12.000Z</time>
      </trkpt>
      <trkpt lat="48.64696" lon="2.44152">
        <ele>82</ele>
        <time>2013-04-14T07:46:18.000Z</time>
      </trkpt>
      <trkpt lat="48.64695" lon="2.44153">
        <ele>82</ele>
        <time>2013-04-14T07:46:19.000Z</time>
      </trkpt>
      <trkpt lat="48.64692" lon="2.44158">
        <ele>82</ele>
        <time>2013-04-14T07:46:23.000Z</time>
      </trkpt>
      <trkpt lat="48.6469" lon="2.44158">
        <ele>82</ele>
        <time>2013-04-14T07:46:24.000Z</time>
      </trkpt>
      <trkpt lat="48.64691" lon="2.44164">
        <ele>82</ele>
        <time>2013-04-14T07:46:27.000Z</time>
      </trkpt>
      <trkpt lat="48.6468" lon="2.44168">
        <ele>82</ele>
        <time>2013-04-14T07:46:31.000Z</time>
      </trkpt>
      <trkpt lat="48.64679" lon="2.44171">
        <ele>83</ele>
        <time>2013-04-14T07:46:34.000Z</time>
      </trkpt>
      <trkpt lat="48.64677" lon="2.44174">
        <ele>82</ele>
        <time>2013-04-14T07:46:36.000Z</time>
      </trkpt>
      <trkpt lat="48.64676" lon="2.4418">
        <ele>83</ele>
        <time>2013-04-14T07:46:40.000Z</time>
      </trkpt>
      <trkpt lat="48.64676" lon="2.44181">
        <ele>83</ele>
        <time>2013-04-14T07:46:41.000Z</time>
      </trkpt>
      <trkpt lat="48.64674" lon="2.44187">
        <ele>85</ele>
        <time>2013-04-14T07:46:47.000Z</time>
      </trkpt>
      <trkpt lat="48.64672" lon="2.44188">
        <ele>85</ele>
        <time>2013-04-14T07:46:48.000Z</time>
      </trkpt>
      <trkpt lat="48.6467" lon="2.44189">
        <ele>86</ele>
        <time>2013-04-14T07:46:49.000Z</time>
      </trkpt>
      <trkpt lat="48.64668" lon="2.44191">
        <ele>86</ele>
        <time>2013-04-14T07:46:50.000Z</time>
      </trkpt>
      <trkpt lat="48.64664" lon="2.44192">
        <ele>86</ele>
        <time>2013-04-14T07:46:54.000Z</time>
      </trkpt>
      <trkpt lat="48.64662" lon="2.44194">
        <ele>86</ele>
        <time>2013-04-14T07:46:55.000Z</time>
      </trkpt>
      <trkpt lat="48.6466" lon="2.44197">
        <ele>86</ele>
        <time>2013-04-14T07:46:57.000Z</time>
      </trkpt>
      <trkpt lat="48.64659" lon="2.44201">
        <ele>86</ele>
        <time>2013-04-14T07:46:58.000Z</time>
      </trkpt>
      <trkpt lat="48.64657" lon="2.44204">
        <ele>84</ele>
        <time>2013-04-14T07:47:04.000Z</time>
      </trkpt>
      <trkpt lat="48.64654" lon="2.44203">
        <ele>84</ele>
        <time>2013-04-14T07:47:05.000Z</time>
      </trkpt>
      <trkpt lat="48.64651" lon="2.44209">
        <ele>82</ele>
        <time>2013-04-14T07:47:08.000Z</time>
      </trkpt>
      <trkpt lat="48.6465" lon="2.44211">
        <ele>82</ele>
        <time>2013-04-14T07:47:10.000Z</time>
      </trkpt>
      <trkpt lat="48.64646" lon="2.44214">
        <ele>84</ele>
        <time>2013-04-14T07:47:13.000Z</time>
      </trkpt>
      <trkpt lat="48.64645" lon="2.44215">
        <ele>84</ele>
        <time>2013-04-14T07:47:14.000Z</time>
      </trkpt>
      <trkpt lat="48.64641" lon="2.44218">
        <ele>83</ele>
        <time>2013-04-14T07:47:22.000Z</time>
      </trkpt>
      <trkpt lat="48.64641" lon="2.44219">
        <ele>83</ele>
        <time>2013-04-14T07:47:23.000Z</time>
      </trkpt>
      <trkpt lat="48.64639" lon="2.44224">
        <ele>83</ele>
        <time>2013-04-14T07:47:26.000Z</time>
      </trkpt>
      <trkpt lat="48.64638" lon="2.44225">
        <ele>83</ele>
        <time>2013-04-14T07:47:27.000Z</time>
      </trkpt>
      <trkpt lat="48.64638" lon="2.44231">
        <ele>82</ele>
        <time>2013-04-14T07:47:31.000Z</time>
      </trkpt>
      <trkpt lat="48.64638" lon="2.44232">
        <ele>82</ele>
        <time>2013-04-14T07:47:32.000Z</time>
      </trkpt>
      <trkpt lat="48.64634" lon="2.44233">
        <ele>81</ele>
        <time>2013-04-14T07:47:34.000Z</time>
      </trkpt>
      <trkpt lat="48.64631" lon="2.44232">
        <ele>81</ele>
        <time>2013-04-14T07:47:35.000Z</time>
      </trkpt>
      <trkpt lat="48.64628" lon="2.44232">
        <ele>78</ele>
        <time>2013-04-14T07:47:41.000Z</time>
      </trkpt>
      <trkpt lat="48.64626" lon="2.44232">
        <ele>77</ele>
        <time>2013-04-14T07:47:42.000Z</time>
      </trkpt>
      <trkpt lat="48.64623" lon="2.44235">
        <ele>77</ele>
        <time>2013-04-14T07:47:47.000Z</time>
      </trkpt>
      <trkpt lat="48.64622" lon="2.44236">
        <ele>76</ele>
        <time>2013-04-14T07:47:48.000Z</time>
      </trkpt>
      <trkpt lat="48.64619" lon="2.44239">
        <ele>80</ele>
        <time>2013-04-14T07:48:04.000Z</time>
      </trkpt>
      <trkpt lat="48.64618" lon="2.4424">
        <ele>80</ele>
        <time>2013-04-14T07:48:05.000Z</time>
      </trkpt>
      <trkpt lat="48.64615" lon="2.44244">
        <ele>82</ele>
        <time>2013-04-14T07:48:09.000Z</time>
      </trkpt>
      <trkpt lat="48.64614" lon="2.44246">
        <ele>82</ele>
        <time>2013-04-14T07:48:10.000Z</time>
      </trkpt>
      <trkpt lat="48.6461" lon="2.44249">
        <ele>83</ele>
        <time>2013-04-14T07:48:12.000Z</time>
      </trkpt>
      <trkpt lat="48.64608" lon="2.44249">
        <ele>84</ele>
        <time>2013-04-14T07:48:13.000Z</time>
      </trkpt>
      <trkpt lat="48.64604" lon="2.44253">
        <ele>83</ele>
        <time>2013-04-14T07:48:17.000Z</time>
      </trkpt>
      <trkpt lat="48.64603" lon="2.44254">
        <ele>84</ele>
        <time>2013-04-14T07:48:18.000Z</time>
      </trkpt>
      <trkpt lat="48.646" lon="2.44258">
        <ele>84</ele>
        <time>2013-04-14T07:48:21.000Z</time>
      </trkpt>
      <trkpt lat="48.64599" lon="2.44259">
        <ele>84</ele>
        <time>2013-04-14T07:48:22.000Z</time>
      </trkpt>
      <trkpt lat="48.64595" lon="2.44262">
        <ele>85</ele>
        <time>2013-04-14T07:48:25.000Z</time>
      </trkpt>
      <trkpt lat="48.64595" lon="2.44263">
        <ele>85</ele>
        <time>2013-04-14T07:48:26.000Z</time>
      </trkpt>
      <trkpt lat="48.64591" lon="2.44266">
        <ele>83</ele>
        <time>2013-04-14T07:48:30.000Z</time>
      </trkpt>
      <trkpt lat="48.64589" lon="2.44267">
        <ele>83</ele>
        <time>2013-04-14T07:48:31.000Z</time>
      </trkpt>
      <trkpt lat="48.64587" lon="2.44272">
        <ele>83</ele>
        <time>2013-04-14T07:48:34.000Z</time>
      </trkpt>
      <trkpt lat="48.64585" lon="2.44274">
        <ele>83</ele>
        <time>2013-04-14T07:48:35.000Z</time>
      </trkpt>
      <trkpt lat="48.64582" lon="2.44278">
        <ele>83</ele>
        <time>2013-04-14T07:48:38.000Z</time>
      </trkpt>
      <trkpt lat="48.64581" lon="2.44279">
        <ele>83</ele>
        <time>2013-04-14T07:48:39.000Z</time>
      </trkpt>
      <trkpt lat="48.64578" lon="2.44281">
        <ele>83</ele>
        <time>2013-04-14T07:48:41.000Z</time>
      </trkpt>
      <trkpt lat="48.64576" lon="2.44281">
        <ele>84</ele>
        <time>2013-04-14T07:48:42.000Z</time>
      </trkpt>
      <trkpt lat="48.64572" lon="2.44282">
        <ele>84</ele>
        <time>2013-04-14T07:48:46.000Z</time>
      </trkpt>
      <trkpt lat="48.64571" lon="2.44282">
        <ele>85</ele>
        <time>2013-04-14T07:48:47.000Z</time>
      </trkpt>
      <trkpt lat="48.64569" lon="2.44288">
        <ele>85</ele>
        <time>2013-04-14T07:48:51.000Z</time>
      </trkpt>
      <trkpt lat="48.64569" lon="2.44289">
        <ele>84</ele>
        <time>2013-04-14T07:48:52.000Z</time>
      </trkpt>
      <trkpt lat="48.64565" lon="2.44293">
        <ele>84</ele>
        <time>2013-04-14T07:48:56.000Z</time>
      </trkpt>
      <trkpt lat="48.64565" lon="2.44295">
        <ele>85</ele>
        <time>2013-04-14T07:48:57.000Z</time>
      </trkpt>
      <trkpt lat="48.64562" lon="2.44299">
        <ele>87</ele>
        <time>2013-04-14T07:48:59.000Z</time>
      </trkpt>
      <trkpt lat="48.64561" lon="2.44299">
        <ele>88</ele>
        <time>2013-04-14T07:49:00.000Z</time>
      </trkpt>
      <trkpt lat="48.64557" lon="2.44301">
        <ele>89</ele>
        <time>2013-04-14T07:49:03.000Z</time>
      </trkpt>
      <trkpt lat="48.64556" lon="2.44303">
        <ele>89</ele>
        <time>2013-04-14T07:49:04.000Z</time>
      </trkpt>
      <trkpt lat="48.6456" lon="2.44303">
        <ele>85</ele>
        <time>2013-04-14T07:49:09.000Z</time>
      </trkpt>
      <trkpt lat="48.6456" lon="2.44304">
        <ele>83</ele>
        <time>2013-04-14T07:49:10.000Z</time>
      </trkpt>
      <trkpt lat="48.64559" lon="2.44307">
        <ele>83</ele>
        <time>2013-04-14T07:49:16.000Z</time>
      </trkpt>
      <trkpt lat="48.64556" lon="2.44309">
        <ele>83</ele>
        <time>2013-04-14T07:49:17.000Z</time>
      </trkpt>
      <trkpt lat="48.64554" lon="2.4431">
        <ele>82</ele>
        <time>2013-04-14T07:49:18.000Z</time>
      </trkpt>
      <trkpt lat="48.64551" lon="2.44312">
        <ele>83</ele>
        <time>2013-04-14T07:49:19.000Z</time>
      </trkpt>
      <trkpt lat="48.64548" lon="2.44317">
        <ele>83</ele>
        <time>2013-04-14T07:49:22.000Z</time>
      </trkpt>
      <trkpt lat="48.64547" lon="2.44318">
        <ele>83</ele>
        <time>2013-04-14T07:49:23.000Z</time>
      </trkpt>
      <trkpt lat="48.64546" lon="2.44324">
        <ele>81</ele>
        <time>2013-04-14T07:49:34.000Z</time>
      </trkpt>
      <trkpt lat="48.64544" lon="2.44325">
        <ele>80</ele>
        <time>2013-04-14T07:49:35.000Z</time>
      </trkpt>
      <trkpt lat="48.64542" lon="2.44331">
        <ele>78</ele>
        <time>2013-04-14T07:49:43.000Z</time>
      </trkpt>
      <trkpt lat="48.64542" lon="2.44332">
        <ele>78</ele>
        <time>2013-04-14T07:49:44.000Z</time>
      </trkpt>
      <trkpt lat="48.6454" lon="2.44336">
        <ele>78</ele>
        <time>2013-04-14T07:49:50.000Z</time>
      </trkpt>
      <trkpt lat="48.6454" lon="2.44338">
        <ele>78</ele>
        <time>2013-04-14T07:49:51.000Z</time>
      </trkpt>
      <trkpt lat="48.64539" lon="2.44344">
        <ele>78</ele>
        <time>2013-04-14T07:49:58.000Z</time>
      </trkpt>
      <trkpt lat="48.64539" lon="2.44345">
        <ele>77</ele>
        <time>2013-04-14T07:49:59.000Z</time>
      </trkpt>
      <trkpt lat="48.64535" lon="2.44347">
        <ele>77</ele>
        <time>2013-04-14T07:50:01.000Z</time>
      </trkpt>
      <trkpt lat="48.64535" lon="2.44347">
        <ele>77</ele>
        <time>2013-04-14T07:50:02.000Z</time>
      </trkpt>
      <trkpt lat="48.6453" lon="2.44349">
        <ele>79</ele>
        <time>2013-04-14T07:50:07.000Z</time>
      </trkpt>
      <trkpt lat="48.6453" lon="2.44349">
        <ele>79</ele>
        <time>2013-04-14T07:50:08.000Z</time>
      </trkpt>
      <trkpt lat="48.64528" lon="2.44354">
        <ele>79</ele>
        <time>2013-04-14T07:50:12.000Z</time>
      </trkpt>
      <trkpt lat="48.64526" lon="2.44355">
        <ele>80</ele>
        <time>2013-04-14T07:50:13.000Z</time>
      </trkpt>
      <trkpt lat="48.64522" lon="2.44357">
        <ele>80</ele>
        <time>2013-04-14T07:50:15.000Z</time>
      </trkpt>
      <trkpt lat="48.64519" lon="2.44359">
        <ele>80</ele>
        <time>2013-04-14T07:50:16.000Z</time>
      </trkpt>
      <trkpt lat="48.64516" lon="2.44362">
        <ele>81</ele>
        <time>2013-04-14T07:50:18.000Z</time>
      </trkpt>
      <trkpt lat="48.64514" lon="2.44365">
        <ele>81</ele>
        <time>2013-04-14T07:50:19.000Z</time>
      </trkpt>
      <trkpt lat="48.64511" lon="2.44367">
        <ele>81</ele>
        <time>2013-04-14T07:50:23.000Z</time>
      </trkpt>
      <trkpt lat="48.6451" lon="2.44366">
        <ele>82</ele>
        <time>2013-04-14T07:50:24.000Z</time>
      </trkpt>
      <trkpt lat="48.64508" lon="2.44369">
        <ele>83</ele>
        <time>2013-04-14T07:50:25.000Z</time>
      </trkpt>
      <trkpt lat="48.64504" lon="2.4437">
        <ele>82</ele>
        <time>2013-04-14T07:50:26.000Z</time>
      </trkpt>
      <trkpt lat="48.645" lon="2.44374">
        <ele>83</ele>
        <time>2013-04-14T07:50:29.000Z</time>
      </trkpt>
      <trkpt lat="48.645" lon="2.44376">
        <ele>83</ele>
        <time>2013-04-14T07:50:30.000Z</time>
      </trkpt>
      <trkpt lat="48.64498" lon="2.44381">
        <ele>84</ele>
        <time>2013-04-14T07:50:32.000Z</time>
      </trkpt>
      <trkpt lat="48.64497" lon="2.44383">
        <ele>84</ele>
        <time>2013-04-14T07:50:33.000Z</time>
      </trkpt>
      <trkpt lat="48.64495" lon="2.44386">
        <ele>85</ele>
        <time>2013-04-14T07:50:35.000Z</time>
      </trkpt>
      <trkpt lat="48.64493" lon="2.44387">
        <ele>86</ele>
        <time>2013-04-14T07:50:36.000Z</time>
      </trkpt>
      <trkpt lat="48.6449" lon="2.44388">
        <ele>86</ele>
        <time>2013-04-14T07:50:40.000Z</time>
      </trkpt>
      <trkpt lat="48.64488" lon="2.44389">
        <ele>86</ele>
        <time>2013-04-14T07:50:41.000Z</time>
      </trkpt>
      <trkpt lat="48.64488" lon="2.44395">
        <ele>86</ele>
        <time>2013-04-14T07:50:48.000Z</time>
      </trkpt>
      <trkpt lat="48.64486" lon="2.44396">
        <ele>86</ele>
        <time>2013-04-14T07:50:49.000Z</time>
      </trkpt>
      <trkpt lat="48.64482" lon="2.44398">
        <ele>86</ele>
        <time>2013-04-14T07:50:53.000Z</time>
      </trkpt>
      <trkpt lat="48.6448" lon="2.44399">
        <ele>86</ele>
        <time>2013-04-14T07:50:54.000Z</time>
      </trkpt>
      <trkpt lat="48.64477" lon="2.44399">
        <ele>86</ele>
        <time>2013-04-14T07:50:56.000Z</time>
      </trkpt>
      <trkpt lat="48.64476" lon="2.44401">
        <ele>86</ele>
        <time>2013-04-14T07:50:57.000Z</time>
      </trkpt>
      <trkpt lat="48.64471" lon="2.44401">
        <ele>87</ele>
        <time>2013-04-14T07:50:59.000Z</time>
      </trkpt>
      <trkpt lat="48.6447" lon="2.44401">
        <ele>86</ele>
        <time>2013-04-14T07:51:00.000Z</time>
      </trkpt>
      <trkpt lat="48.64468" lon="2.44407">
        <ele>85</ele>
        <time>2013-04-14T07:51:05.000Z</time>
      </trkpt>
      <trkpt lat="48.64469" lon="2.44411">
        <ele>86</ele>
        <time>2013-04-14T07:51:06.000Z</time>
      </trkpt>
      <trkpt lat="48.64466" lon="2.44413">
        <ele>87</ele>
        <time>2013-04-14T07:51:07.000Z</time>
      </trkpt>
      <trkpt lat="48.64464" lon="2.44414">
        <ele>87</ele>
        <time>2013-04-14T07:51:08.000Z</time>
      </trkpt>
      <trkpt lat="48.64462" lon="2.44416">
        <ele>87</ele>
        <time>2013-04-14T07:51:10.000Z</time>
      </trkpt>
      <trkpt lat="48.64461" lon="2.44418">
        <ele>87</ele>
        <time>2013-04-14T07:51:11.000Z</time>
      </trkpt>
      <trkpt lat="48.64458" lon="2.44423">
        <ele>85</ele>
        <time>2013-04-14T07:51:19.000Z</time>
      </trkpt>
      <trkpt lat="48.64457" lon="2.44425">
        <ele>85</ele>
        <time>2013-04-14T07:51:20.000Z</time>
      </trkpt>
      <trkpt lat="48.64454" lon="2.44429">
        <ele>84</ele>
        <time>2013-04-14T07:51:23.000Z</time>
      </trkpt>
      <trkpt lat="48.64451" lon="2.44429">
        <ele>85</ele>
        <time>2013-04-14T07:51:24.000Z</time>
      </trkpt>
      <trkpt lat="48.64448" lon="2.44433">
        <ele>85</ele>
        <time>2013-04-14T07:51:28.000Z</time>
      </trkpt>
      <trkpt lat="48.64447" lon="2.44436">
        <ele>85</ele>
        <time>2013-04-14T07:51:29.000Z</time>
      </trkpt>
      <trkpt lat="48.64445" lon="2.4444">
        <ele>85</ele>
        <time>2013-04-14T07:51:32.000Z</time>
      </trkpt>
      <trkpt lat="48.64443" lon="2.44442">
        <ele>86</ele>
        <time>2013-04-14T07:51:33.000Z</time>
      </trkpt>
      <trkpt lat="48.64441" lon="2.44444">
        <ele>87</ele>
        <time>2013-04-14T07:51:34.000Z</time>
      </trkpt>
      <trkpt lat="48.64439" lon="2.44445">
        <ele>88</ele>
        <time>2013-04-14T07:51:35.000Z</time>
      </trkpt>
      <trkpt lat="48.64435" lon="2.44447">
        <ele>88</ele>
        <time>2013-04-14T07:51:38.000Z</time>
      </trkpt>
      <trkpt lat="48.64434" lon="2.44449">
        <ele>87</ele>
        <time>2013-04-14T07:51:39.000Z</time>
      </trkpt>
      <trkpt lat="48.64432" lon="2.44452">
        <ele>87</ele>
        <time>2013-04-14T07:51:42.000Z</time>
      </trkpt>
      <trkpt lat="48.64431" lon="2.44454">
        <ele>87</ele>
        <time>2013-04-14T07:51:43.000Z</time>
      </trkpt>
      <trkpt lat="48.64428" lon="2.44458">
        <ele>86</ele>
        <time>2013-04-14T07:51:47.000Z</time>
      </trkpt>
      <trkpt lat="48.64427" lon="2.44458">
        <ele>86</ele>
        <time>2013-04-14T07:51:48.000Z</time>
      </trkpt>
      <trkpt lat="48.64423" lon="2.44458">
        <ele>86</ele>
        <time>2013-04-14T07:51:51.000Z</time>
      </trkpt>
      <trkpt lat="48.64422" lon="2.44459">
        <ele>86</ele>
        <time>2013-04-14T07:51:52.000Z</time>
      </trkpt>
      <trkpt lat="48.64419" lon="2.44463">
        <ele>85</ele>
        <time>2013-04-14T07:51:56.000Z</time>
      </trkpt>
      <trkpt lat="48.64417" lon="2.44463">
        <ele>85</ele>
        <time>2013-04-14T07:51:57.000Z</time>
      </trkpt>
      <trkpt lat="48.64414" lon="2.44467">
        <ele>84</ele>
        <time>2013-04-14T07:52:00.000Z</time>
      </trkpt>
      <trkpt lat="48.64414" lon="2.44468">
        <ele>84</ele>
        <time>2013-04-14T07:52:01.000Z</time>
      </trkpt>
      <trkpt lat="48.6441" lon="2.44469">
        <ele>84</ele>
        <time>2013-04-14T07:52:02.000Z</time>
      </trkpt>
      <trkpt lat="48.64409" lon="2.44469">
        <ele>83</ele>
        <time>2013-04-14T07:52:03.000Z</time>
      </trkpt>
      <trkpt lat="48.64405" lon="2.44472">
        <ele>82</ele>
        <time>2013-04-14T07:52:09.000Z</time>
      </trkpt>
      <trkpt lat="48.64404" lon="2.44474">
        <ele>81</ele>
        <time>2013-04-14T07:52:10.000Z</time>
      </trkpt>
      <trkpt lat="48.64402" lon="2.4448">
        <ele>80</ele>
        <time>2013-04-14T07:52:13.000Z</time>
      </trkpt>
      <trkpt lat="48.64402" lon="2.44482">
        <ele>81</ele>
        <time>2013-04-14T07:52:14.000Z</time>
      </trkpt>
      <trkpt lat="48.644" lon="2.44485">
        <ele>81</ele>
        <time>2013-04-14T07:52:19.000Z</time>
      </trkpt>
      <trkpt lat="48.64398" lon="2.44486">
        <ele>80</ele>
        <time>2013-04-14T07:52:20.000Z</time>
      </trkpt>
      <trkpt lat="48.64395" lon="2.44489">
        <ele>77</ele>
        <time>2013-04-14T07:52:26.000Z</time>
      </trkpt>
      <trkpt lat="48.64394" lon="2.44489">
        <ele>77</ele>
        <time>2013-04-14T07:52:27.000Z</time>
      </trkpt>
      <trkpt lat="48.6439" lon="2.44492">
        <ele>77</ele>
        <time>2013-04-14T07:52:33.000Z</time>
      </trkpt>
      <trkpt lat="48.6439" lon="2.44492">
        <ele>78</ele>
        <time>2013-04-14T07:52:34.000Z</time>
      </trkpt>
      <trkpt lat="48.64386" lon="2.44495">
        <ele>78</ele>
        <time>2013-04-14T07:52:51.000Z</time>
      </trkpt>
      <trkpt lat="48.64385" lon="2.44496">
        <ele>78</ele>
        <time>2013-04-14T07:52:52.000Z</time>
      </trkpt>
      <trkpt lat="48.64385" lon="2.44501">
        <ele>78</ele>
        <time>2013-04-14T07:52:55.000Z</time>
      </trkpt>
      <trkpt lat="48.64383" lon="2.44502">
        <ele>79</ele>
        <time>2013-04-14T07:52:56.000Z</time>
      </trkpt>
      <trkpt lat="48.6438" lon="2.44507">
        <ele>78</ele>
        <time>2013-04-14T07:52:59.000Z</time>
      </trkpt>
      <trkpt lat="48.64379" lon="2.44509">
        <ele>79</ele>
        <time>2013-04-14T07:53:00.000Z</time>
      </trkpt>
      <trkpt lat="48.64376" lon="2.44512">
        <ele>78</ele>
        <time>2013-04-14T07:53:02.000Z</time>
      </trkpt>
      <trkpt lat="48.64375" lon="2.44513">
        <ele>78</ele>
        <time>2013-04-14T07:53:03.000Z</time>
      </trkpt>
      <trkpt lat="48.64373" lon="2.44519">
        <ele>77</ele>
        <time>2013-04-14T07:53:07.000Z</time>
      </trkpt>
      <trkpt lat="48.64372" lon="2.4452">
        <ele>77</ele>
        <time>2013-04-14T07:53:08.000Z</time>
      </trkpt>
      <trkpt lat="48.6437" lon="2.44523">
        <ele>76</ele>
        <time>2013-04-14T07:53:11.000Z</time>
      </trkpt>
      <trkpt lat="48.64368" lon="2.44525">
        <ele>76</ele>
        <time>2013-04-14T07:53:12.000Z</time>
      </trkpt>
      <trkpt lat="48.64367" lon="2.4453">
        <ele>77</ele>
        <time>2013-04-14T07:53:15.000Z</time>
      </trkpt>
      <trkpt lat="48.64367" lon="2.44532">
        <ele>76</ele>
        <time>2013-04-14T07:53:16.000Z</time>
      </trkpt>
      <trkpt lat="48.64366" lon="2.44536">
        <ele>75</ele>
        <time>2013-04-14T07:53:19.000Z</time>
      </trkpt>
      <trkpt lat="48.64363" lon="2.44538">
        <ele>76</ele>
        <time>2013-04-14T07:53:20.000Z</time>
      </trkpt>
      <trkpt lat="48.6436" lon="2.4454">
        <ele>76</ele>
        <time>2013-04-14T07:53:22.000Z</time>
      </trkpt>
      <trkpt lat="48.64359" lon="2.44541">
        <ele>75</ele>
        <time>2013-04-14T07:53:23.000Z</time>
      </trkpt>
      <trkpt lat="48.64356" lon="2.44545">
        <ele>75</ele>
        <time>2013-04-14T07:53:26.000Z</time>
      </trkpt>
      <trkpt lat="48.64356" lon="2.44546">
        <ele>76</ele>
        <time>2013-04-14T07:53:27.000Z</time>
      </trkpt>
      <trkpt lat="48.64352" lon="2.44549">
        <ele>76</ele>
        <time>2013-04-14T07:53:30.000Z</time>
      </trkpt>
      <trkpt lat="48.64351" lon="2.4455">
        <ele>76</ele>
        <time>2013-04-14T07:53:31.000Z</time>
      </trkpt>
      <trkpt lat="48.64349" lon="2.44554">
        <ele>76</ele>
        <time>2013-04-14T07:53:34.000Z</time>
      </trkpt>
      <trkpt lat="48.64348" lon="2.44556">
        <ele>76</ele>
        <time>2013-04-14T07:53:35.000Z</time>
      </trkpt>
      <trkpt lat="48.64345" lon="2.44561">
        <ele>75</ele>
        <time>2013-04-14T07:53:38.000Z</time>
      </trkpt>
      <trkpt lat="48.64344" lon="2.44562">
        <ele>75</ele>
        <time>2013-04-14T07:53:39.000Z</time>
      </trkpt>
      <trkpt lat="48.64342" lon="2.44565">
        <ele>77</ele>
        <time>2013-04-14T07:53:40.000Z</time>
      </trkpt>
      <trkpt lat="48.64341" lon="2.44568">
        <ele>77</ele>
        <time>2013-04-14T07:53:41.000Z</time>
      </trkpt>
      <trkpt lat="48.64337" lon="2.44572">
        <ele>80</ele>
        <time>2013-04-14T07:53:44.000Z</time>
      </trkpt>
      <trkpt lat="48.64336" lon="2.44573">
        <ele>81</ele>
        <time>2013-04-14T07:53:45.000Z</time>
      </trkpt>
      <trkpt lat="48.64334" lon="2.44579">
        <ele>82</ele>
        <time>2013-04-14T07:53:49.000Z</time>
      </trkpt>
      <trkpt lat="48.64332" lon="2.4458">
        <ele>82</ele>
        <time>2013-04-14T07:53:50.000Z</time>
      </trkpt>
      <trkpt lat="48.64329" lon="2.44582">
        <ele>82</ele>
        <time>2013-04-14T07:53:51.000Z</time>
      </trkpt>
      <trkpt lat="48.64328" lon="2.44583">
        <ele>82</ele>
        <time>2013-04-14T07:53:52.000Z</time>
      </trkpt>
      <trkpt lat="48.64324" lon="2.44586">
        <ele>83</ele>
        <time>2013-04-14T07:53:55.000Z</time>
      </trkpt>
      <trkpt lat="48.64324" lon="2.44589">
        <ele>83</ele>
        <time>2013-04-14T07:53:56.000Z</time>
      </trkpt>
      <trkpt lat="48.64325" lon="2.44594">
        <ele>83</ele>
        <time>2013-04-14T07:53:58.000Z</time>
      </trkpt>
      <trkpt lat="48.64324" lon="2.44597">
        <ele>81</ele>
        <time>2013-04-14T07:53:59.000Z</time>
      </trkpt>
      <trkpt lat="48.64322" lon="2.446">
        <ele>81</ele>
        <time>2013-04-14T07:54:01.000Z</time>
      </trkpt>
      <trkpt lat="48.6432" lon="2.44601">
        <ele>81</ele>
        <time>2013-04-14T07:54:02.000Z</time>
      </trkpt>
      <trkpt lat="48.64317" lon="2.44602">
        <ele>80</ele>
        <time>2013-04-14T07:54:05.000Z</time>
      </trkpt>
      <trkpt lat="48.64315" lon="2.44601">
        <ele>79</ele>
        <time>2013-04-14T07:54:06.000Z</time>
      </trkpt>
      <trkpt lat="48.64312" lon="2.44603">
        <ele>79</ele>
        <time>2013-04-14T07:54:08.000Z</time>
      </trkpt>
      <trkpt lat="48.6431" lon="2.44604">
        <ele>79</ele>
        <time>2013-04-14T07:54:09.000Z</time>
      </trkpt>
      <trkpt lat="48.64307" lon="2.44604">
        <ele>78</ele>
        <time>2013-04-14T07:54:11.000Z</time>
      </trkpt>
      <trkpt lat="48.64305" lon="2.44604">
        <ele>78</ele>
        <time>2013-04-14T07:54:12.000Z</time>
      </trkpt>
      <trkpt lat="48.64301" lon="2.44606">
        <ele>79</ele>
        <time>2013-04-14T07:54:15.000Z</time>
      </trkpt>
      <trkpt lat="48.64298" lon="2.44605">
        <ele>79</ele>
        <time>2013-04-14T07:54:16.000Z</time>
      </trkpt>
      <trkpt lat="48.64294" lon="2.44607">
        <ele>81</ele>
        <time>2013-04-14T07:54:20.000Z</time>
      </trkpt>
      <trkpt lat="48.64293" lon="2.44607">
        <ele>81</ele>
        <time>2013-04-14T07:54:21.000Z</time>
      </trkpt>
      <trkpt lat="48.6429" lon="2.44612">
        <ele>84</ele>
        <time>2013-04-14T07:54:27.000Z</time>
      </trkpt>
      <trkpt lat="48.6429" lon="2.44613">
        <ele>84</ele>
        <time>2013-04-14T07:54:28.000Z</time>
      </trkpt>
      <trkpt lat="48.64288" lon="2.44609">
        <ele>83</ele>
        <time>2013-04-14T07:54:34.000Z</time>
      </trkpt>
      <trkpt lat="48.64287" lon="2.44607">
        <ele>83</ele>
        <time>2013-04-14T07:54:38.000Z</time>
      </trkpt>
      <trkpt lat="48.64291" lon="2.44606">
        <ele>80</ele>
        <time>2013-04-14T07:55:09.000Z</time>
      </trkpt>
      <trkpt lat="48.64292" lon="2.44607">
        <ele>80</ele>
        <time>2013-04-14T07:55:10.000Z</time>
      </trkpt>
      <trkpt lat="48.64295" lon="2.44606">
        <ele>79</ele>
        <time>2013-04-14T07:55:12.000Z</time>
      </trkpt>
      <trkpt lat="48.64297" lon="2.44606">
        <ele>79</ele>
        <time>2013-04-14T07:55:13.000Z</time>
      </trkpt>
      <trkpt lat="48.643" lon="2.44603">
        <ele>79</ele>
        <time>2013-04-14T07:55:15.000Z</time>
      </trkpt>
      <trkpt lat="48.64302" lon="2.44602">
        <ele>79</ele>
        <time>2013-04-14T07:55:16.000Z</time>
      </trkpt>
      <trkpt lat="48.64306" lon="2.44603">
        <ele>78</ele>
        <time>2013-04-14T07:55:19.000Z</time>
      </trkpt>
      <trkpt lat="48.64307" lon="2.44603">
        <ele>79</ele>
        <time>2013-04-14T07:55:20.000Z</time>
      </trkpt>
      <trkpt lat="48.64309" lon="2.44606">
        <ele>79</ele>
        <time>2013-04-14T07:55:21.000Z</time>
      </trkpt>
      <trkpt lat="48.64309" lon="2.44609">
        <ele>79</ele>
        <time>2013-04-14T07:55:22.000Z</time>
      </trkpt>
      <trkpt lat="48.6431" lon="2.44615">
        <ele>79</ele>
        <time>2013-04-14T07:55:25.000Z</time>
      </trkpt>
      <trkpt lat="48.64307" lon="2.44616">
        <ele>79</ele>
        <time>2013-04-14T07:55:26.000Z</time>
      </trkpt>
      <trkpt lat="48.64304" lon="2.44621">
        <ele>80</ele>
        <time>2013-04-14T07:55:29.000Z</time>
      </trkpt>
      <trkpt lat="48.64299" lon="2.44623">
        <ele>79</ele>
        <time>2013-04-14T07:55:30.000Z</time>
      </trkpt>
      <trkpt lat="48.64297" lon="2.44625">
        <ele>76</ele>
        <time>2013-04-14T07:55:31.000Z</time>
      </trkpt>
      <trkpt lat="48.64294" lon="2.44627">
        <ele>75</ele>
        <time>2013-04-14T07:55:32.000Z</time>
      </trkpt>
      <trkpt lat="48.64291" lon="2.44629">
        <ele>74</ele>
        <time>2013-04-14T07:55:34.000Z</time>
      </trkpt>
      <trkpt lat="48.6429" lon="2.4463">
        <ele>73</ele>
        <time>2013-04-14T07:55:35.000Z</time>
      </trkpt>
      <trkpt lat="48.64286" lon="2.44635">
        <ele>73</ele>
        <time>2013-04-14T07:55:38.000Z</time>
      </trkpt>
      <trkpt lat="48.64284" lon="2.44637">
        <ele>72</ele>
        <time>2013-04-14T07:55:39.000Z</time>
      </trkpt>
      <trkpt lat="48.64282" lon="2.44637">
        <ele>73</ele>
        <time>2013-04-14T07:55:41.000Z</time>
      </trkpt>
      <trkpt lat="48.6428" lon="2.44639">
        <ele>75</ele>
        <time>2013-04-14T07:55:42.000Z</time>
      </trkpt>
      <trkpt lat="48.64276" lon="2.44643">
        <ele>76</ele>
        <time>2013-04-14T07:55:46.000Z</time>
      </trkpt>
      <trkpt lat="48.64276" lon="2.44643">
        <ele>77</ele>
        <time>2013-04-14T07:55:47.000Z</time>
      </trkpt>
      <trkpt lat="48.6428" lon="2.44644">
        <ele>81</ele>
        <time>2013-04-14T08:00:02.000Z</time>
      </trkpt>
      <trkpt lat="48.64281" lon="2.44645">
        <ele>81</ele>
        <time>2013-04-14T08:00:03.000Z</time>
      </trkpt>
      <trkpt lat="48.64282" lon="2.44641">
        <ele>82</ele>
        <time>2013-04-14T08:00:05.000Z</time>
      </trkpt>
      <trkpt lat="48.64282" lon="2.44638">
        <ele>82</ele>
        <time>2013-04-14T08:00:06.000Z</time>
      </trkpt>
      <trkpt lat="48.64285" lon="2.44636">
        <ele>83</ele>
        <time>2013-04-14T08:00:10.000Z</time>
      </trkpt>
      <trkpt lat="48.64286" lon="2.44636">
        <ele>84</ele>
        <time>2013-04-14T08:00:11.000Z</time>
      </trkpt>
      <trkpt lat="48.64288" lon="2.44631">
        <ele>84</ele>
        <time>2013-04-14T08:00:13.000Z</time>
      </trkpt>
      <trkpt lat="48.6429" lon="2.4463">
        <ele>85</ele>
        <time>2013-04-14T08:00:14.000Z</time>
      </trkpt>
      <trkpt lat="48.64287" lon="2.44626">
        <ele>84</ele>
        <time>2013-04-14T08:00:20.000Z</time>
      </trkpt>
      <trkpt lat="48.64286" lon="2.44624">
        <ele>84</ele>
        <time>2013-04-14T08:00:21.000Z</time>
      </trkpt>
      <trkpt lat="48.64283" lon="2.44621">
        <ele>84</ele>
        <time>2013-04-14T08:00:24.000Z</time>
      </trkpt>
      <trkpt lat="48.64283" lon="2.44619">
        <ele>85</ele>
        <time>2013-04-14T08:00:25.000Z</time>
      </trkpt>
      <trkpt lat="48.64279" lon="2.44616">
        <ele>85</ele>
        <time>2013-04-14T08:00:31.000Z</time>
      </trkpt>
      <trkpt lat="48.64279" lon="2.44614">
        <ele>85</ele>
        <time>2013-04-14T08:00:32.000Z</time>
      </trkpt>
      <trkpt lat="48.64277" lon="2.4461">
        <ele>85</ele>
        <time>2013-04-14T08:00:36.000Z</time>
      </trkpt>
      <trkpt lat="48.64276" lon="2.44609">
        <ele>85</ele>
        <time>2013-04-14T08:00:37.000Z</time>
      </trkpt>
      <trkpt lat="48.64273" lon="2.44604">
        <ele>86</ele>
        <time>2013-04-14T08:00:43.000Z</time>
      </trkpt>
      <trkpt lat="48.64273" lon="2.44602">
        <ele>86</ele>
        <time>2013-04-14T08:00:44.000Z</time>
      </trkpt>
      <trkpt lat="48.64271" lon="2.44597">
        <ele>87</ele>
        <time>2013-04-14T08:00:49.000Z</time>
      </trkpt>
      <trkpt lat="48.64269" lon="2.44595">
        <ele>86</ele>
        <time>2013-04-14T08:00:50.000Z</time>
      </trkpt>
      <trkpt lat="48.64267" lon="2.44591">
        <ele>86</ele>
        <time>2013-04-14T08:00:52.000Z</time>
      </trkpt>
      <trkpt lat="48.64266" lon="2.44589">
        <ele>86</ele>
        <time>2013-04-14T08:00:53.000Z</time>
      </trkpt>
      <trkpt lat="48.64263" lon="2.44584">
        <ele>86</ele>
        <time>2013-04-14T08:00:56.000Z</time>
      </trkpt>
      <trkpt lat="48.64262" lon="2.44583">
        <ele>86</ele>
        <time>2013-04-14T08:00:57.000Z</time>
      </trkpt>
      <trkpt lat="48.64259" lon="2.44578">
        <ele>87</ele>
        <time>2013-04-14T08:01:03.000Z</time>
      </trkpt>
      <trkpt lat="48.64258" lon="2.44577">
        <ele>87</ele>
        <time>2013-04-14T08:01:04.000Z</time>
      </trkpt>
      <trkpt lat="48.64257" lon="2.44572">
        <ele>88</ele>
        <time>2013-04-14T08:01:08.000Z</time>
      </trkpt>
      <trkpt lat="48.64256" lon="2.44571">
        <ele>88</ele>
        <time>2013-04-14T08:01:09.000Z</time>
      </trkpt>
      <trkpt lat="48.64253" lon="2.44567">
        <ele>88</ele>
        <time>2013-04-14T08:01:13.000Z</time>
      </trkpt>
      <trkpt lat="48.64251" lon="2.44565">
        <ele>88</ele>
        <time>2013-04-14T08:01:14.000Z</time>
      </trkpt>
      <trkpt lat="48.64248" lon="2.44561">
        <ele>88</ele>
        <time>2013-04-14T08:01:17.000Z</time>
      </trkpt>
      <trkpt lat="48.64247" lon="2.4456">
        <ele>88</ele>
        <time>2013-04-14T08:01:18.000Z</time>
      </trkpt>
      <trkpt lat="48.64244" lon="2.44557">
        <ele>88</ele>
        <time>2013-04-14T08:01:20.000Z</time>
      </trkpt>
      <trkpt lat="48.64243" lon="2.44555">
        <ele>87</ele>
        <time>2013-04-14T08:01:21.000Z</time>
      </trkpt>
      <trkpt lat="48.6424" lon="2.44551">
        <ele>87</ele>
        <time>2013-04-14T08:01:23.000Z</time>
      </trkpt>
      <trkpt lat="48.64239" lon="2.44548">
        <ele>87</ele>
        <time>2013-04-14T08:01:24.000Z</time>
      </trkpt>
      <trkpt lat="48.64237" lon="2.44543">
        <ele>88</ele>
        <time>2013-04-14T08:01:28.000Z</time>
      </trkpt>
      <trkpt lat="48.64235" lon="2.44542">
        <ele>89</ele>
        <time>2013-04-14T08:01:29.000Z</time>
      </trkpt>
      <trkpt lat="48.64234" lon="2.44539">
        <ele>89</ele>
        <time>2013-04-14T08:01:31.000Z</time>
      </trkpt>
      <trkpt lat="48.64232" lon="2.44535">
        <ele>90</ele>
        <time>2013-04-14T08:01:32.000Z</time>
      </trkpt>
      <trkpt lat="48.64229" lon="2.44532">
        <ele>90</ele>
        <time>2013-04-14T08:01:34.000Z</time>
      </trkpt>
      <trkpt lat="48.64227" lon="2.44532">
        <ele>91</ele>
        <time>2013-04-14T08:01:35.000Z</time>
      </trkpt>
      <trkpt lat="48.64224" lon="2.44527">
        <ele>91</ele>
        <time>2013-04-14T08:01:38.000Z</time>
      </trkpt>
      <trkpt lat="48.64224" lon="2.44525">
        <ele>91</ele>
        <time>2013-04-14T08:01:39.000Z</time>
      </trkpt>
      <trkpt lat="48.64223" lon="2.44521">
        <ele>92</ele>
        <time>2013-04-14T08:01:45.000Z</time>
      </trkpt>
      <trkpt lat="48.64222" lon="2.44519">
        <ele>93</ele>
        <time>2013-04-14T08:01:46.000Z</time>
      </trkpt>
      <trkpt lat="48.64219" lon="2.44514">
        <ele>94</ele>
        <time>2013-04-14T08:01:51.000Z</time>
      </trkpt>
      <trkpt lat="48.64218" lon="2.44513">
        <ele>94</ele>
        <time>2013-04-14T08:01:52.000Z</time>
      </trkpt>
      <trkpt lat="48.64216" lon="2.44509">
        <ele>94</ele>
        <time>2013-04-14T08:01:57.000Z</time>
      </trkpt>
      <trkpt lat="48.64215" lon="2.44508">
        <ele>95</ele>
        <time>2013-04-14T08:01:58.000Z</time>
      </trkpt>
      <trkpt lat="48.64212" lon="2.44504">
        <ele>94</ele>
        <time>2013-04-14T08:02:02.000Z</time>
      </trkpt>
      <trkpt lat="48.64211" lon="2.44503">
        <ele>93</ele>
        <time>2013-04-14T08:02:03.000Z</time>
      </trkpt>
      <trkpt lat="48.64211" lon="2.44496">
        <ele>94</ele>
        <time>2013-04-14T08:02:18.000Z</time>
      </trkpt>
      <trkpt lat="48.64213" lon="2.44495">
        <ele>91</ele>
        <time>2013-04-14T08:02:19.000Z</time>
      </trkpt>
      <trkpt lat="48.64212" lon="2.4449">
        <ele>89</ele>
        <time>2013-04-14T08:02:27.000Z</time>
      </trkpt>
      <trkpt lat="48.64211" lon="2.44488">
        <ele>89</ele>
        <time>2013-04-14T08:02:28.000Z</time>
      </trkpt>
      <trkpt lat="48.64209" lon="2.44485">
        <ele>89</ele>
        <time>2013-04-14T08:02:30.000Z</time>
      </trkpt>
      <trkpt lat="48.64207" lon="2.44483">
        <ele>90</ele>
        <time>2013-04-14T08:02:31.000Z</time>
      </trkpt>
      <trkpt lat="48.64204" lon="2.4448">
        <ele>89</ele>
        <time>2013-04-14T08:02:37.000Z</time>
      </trkpt>
      <trkpt lat="48.64203" lon="2.44478">
        <ele>90</ele>
        <time>2013-04-14T08:02:38.000Z</time>
      </trkpt>
      <trkpt lat="48.64202" lon="2.44472">
        <ele>90</ele>
        <time>2013-04-14T08:02:42.000Z</time>
      </trkpt>
      <trkpt lat="48.64201" lon="2.4447">
        <ele>90</ele>
        <time>2013-04-14T08:02:43.000Z</time>
      </trkpt>
      <trkpt lat="48.64201" lon="2.44464">
        <ele>89</ele>
        <time>2013-04-14T08:02:48.000Z</time>
      </trkpt>
      <trkpt lat="48.64201" lon="2.44463">
        <ele>89</ele>
        <time>2013-04-14T08:02:49.000Z</time>
      </trkpt>
      <trkpt lat="48.64197" lon="2.44461">
        <ele>89</ele>
        <time>2013-04-14T08:02:54.000Z</time>
      </trkpt>
      <trkpt lat="48.64195" lon="2.44458">
        <ele>89</ele>
        <time>2013-04-14T08:02:55.000Z</time>
      </trkpt>
      <trkpt lat="48.64193" lon="2.44453">
        <ele>88</ele>
        <time>2013-04-14T08:02:58.000Z</time>
      </trkpt>
      <trkpt lat="48.64192" lon="2.44452">
        <ele>88</ele>
        <time>2013-04-14T08:02:59.000Z</time>
      </trkpt>
      <trkpt lat="48.64189" lon="2.44449">
        <ele>89</ele>
        <time>2013-04-14T08:03:02.000Z</time>
      </trkpt>
      <trkpt lat="48.64188" lon="2.44447">
        <ele>88</ele>
        <time>2013-04-14T08:03:03.000Z</time>
      </trkpt>
      <trkpt lat="48.64185" lon="2.44443">
        <ele>88</ele>
        <time>2013-04-14T08:03:05.000Z</time>
      </trkpt>
      <trkpt lat="48.64184" lon="2.44442">
        <ele>88</ele>
        <time>2013-04-14T08:03:06.000Z</time>
      </trkpt>
      <trkpt lat="48.6418" lon="2.44439">
        <ele>89</ele>
        <time>2013-04-14T08:03:09.000Z</time>
      </trkpt>
      <trkpt lat="48.6418" lon="2.44438">
        <ele>89</ele>
        <time>2013-04-14T08:03:10.000Z</time>
      </trkpt>
      <trkpt lat="48.64179" lon="2.44434">
        <ele>88</ele>
        <time>2013-04-14T08:03:14.000Z</time>
      </trkpt>
      <trkpt lat="48.64177" lon="2.44431">
        <ele>89</ele>
        <time>2013-04-14T08:03:15.000Z</time>
      </trkpt>
      <trkpt lat="48.64179" lon="2.44425">
        <ele>86</ele>
        <time>2013-04-14T08:03:54.000Z</time>
      </trkpt>
      <trkpt lat="48.6418" lon="2.44425">
        <ele>85</ele>
        <time>2013-04-14T08:03:55.000Z</time>
      </trkpt>
      <trkpt lat="48.64182" lon="2.44421">
        <ele>85</ele>
        <time>2013-04-14T08:04:00.000Z</time>
      </trkpt>
      <trkpt lat="48.64183" lon="2.44419">
        <ele>86</ele>
        <time>2013-04-14T08:04:01.000Z</time>
      </trkpt>
      <trkpt lat="48.64186" lon="2.44414">
        <ele>87</ele>
        <time>2013-04-14T08:04:05.000Z</time>
      </trkpt>
      <trkpt lat="48.64187" lon="2.44414">
        <ele>87</ele>
        <time>2013-04-14T08:04:06.000Z</time>
      </trkpt>
      <trkpt lat="48.64188" lon="2.44408">
        <ele>86</ele>
        <time>2013-04-14T08:04:09.000Z</time>
      </trkpt>
      <trkpt lat="48.64189" lon="2.44407">
        <ele>86</ele>
        <time>2013-04-14T08:04:10.000Z</time>
      </trkpt>
      <trkpt lat="48.64188" lon="2.44401">
        <ele>84</ele>
        <time>2013-04-14T08:04:15.000Z</time>
      </trkpt>
      <trkpt lat="48.64187" lon="2.44399">
        <ele>84</ele>
        <time>2013-04-14T08:04:16.000Z</time>
      </trkpt>
      <trkpt lat="48.64183" lon="2.44403">
        <ele>79</ele>
        <time>2013-04-14T08:04:24.000Z</time>
      </trkpt>
      <trkpt lat="48.64182" lon="2.44403">
        <ele>79</ele>
        <time>2013-04-14T08:04:25.000Z</time>
      </trkpt>
      <trkpt lat="48.6418" lon="2.44409">
        <ele>77</ele>
        <time>2013-04-14T08:04:29.000Z</time>
      </trkpt>
      <trkpt lat="48.64179" lon="2.44412">
        <ele>77</ele>
        <time>2013-04-14T08:04:30.000Z</time>
      </trkpt>
      <trkpt lat="48.64177" lon="2.44417">
        <ele>78</ele>
        <time>2013-04-14T08:04:32.000Z</time>
      </trkpt>
      <trkpt lat="48.64175" lon="2.4442">
        <ele>78</ele>
        <time>2013-04-14T08:04:33.000Z</time>
      </trkpt>
      <trkpt lat="48.64172" lon="2.44422">
        <ele>78</ele>
        <time>2013-04-14T08:04:35.000Z</time>
      </trkpt>
      <trkpt lat="48.6417" lon="2.44423">
        <ele>78</ele>
        <time>2013-04-14T08:04:36.000Z</time>
      </trkpt>
      <trkpt lat="48.64168" lon="2.44429">
        <ele>78</ele>
        <time>2013-04-14T08:04:39.000Z</time>
      </trkpt>
      <trkpt lat="48.64166" lon="2.4443">
        <ele>79</ele>
        <time>2013-04-14T08:04:40.000Z</time>
      </trkpt>
      <trkpt lat="48.64162" lon="2.44432">
        <ele>79</ele>
        <time>2013-04-14T08:04:42.000Z</time>
      </trkpt>
      <trkpt lat="48.64161" lon="2.44434">
        <ele>79</ele>
        <time>2013-04-14T08:04:43.000Z</time>
      </trkpt>
      <trkpt lat="48.6416" lon="2.44437">
        <ele>79</ele>
        <time>2013-04-14T08:04:44.000Z</time>
      </trkpt>
      <trkpt lat="48.64158" lon="2.44438">
        <ele>79</ele>
        <time>2013-04-14T08:04:45.000Z</time>
      </trkpt>
      <trkpt lat="48.64155" lon="2.44443">
        <ele>79</ele>
        <time>2013-04-14T08:04:47.000Z</time>
      </trkpt>
      <trkpt lat="48.64153" lon="2.44444">
        <ele>80</ele>
        <time>2013-04-14T08:04:48.000Z</time>
      </trkpt>
      <trkpt lat="48.64152" lon="2.44447">
        <ele>80</ele>
        <time>2013-04-14T08:04:51.000Z</time>
      </trkpt>
      <trkpt lat="48.6415" lon="2.44448">
        <ele>80</ele>
        <time>2013-04-14T08:04:52.000Z</time>
      </trkpt>
      <trkpt lat="48.64149" lon="2.44452">
        <ele>80</ele>
        <time>2013-04-14T08:04:54.000Z</time>
      </trkpt>
      <trkpt lat="48.64146" lon="2.44455">
        <ele>81</ele>
        <time>2013-04-14T08:04:55.000Z</time>
      </trkpt>
      <trkpt lat="48.64143" lon="2.44456">
        <ele>81</ele>
        <time>2013-04-14T08:04:57.000Z</time>
      </trkpt>
      <trkpt lat="48.64143" lon="2.4446">
        <ele>81</ele>
        <time>2013-04-14T08:04:58.000Z</time>
      </trkpt>
      <trkpt lat="48.6414" lon="2.44465">
        <ele>81</ele>
        <time>2013-04-14T08:05:02.000Z</time>
      </trkpt>
      <trkpt lat="48.6414" lon="2.44465">
        <ele>80</ele>
        <time>2013-04-14T08:05:03.000Z</time>
      </trkpt>
      <trkpt lat="48.64136" lon="2.44468">
        <ele>81</ele>
        <time>2013-04-14T08:05:05.000Z</time>
      </trkpt>
      <trkpt lat="48.64135" lon="2.44469">
        <ele>81</ele>
        <time>2013-04-14T08:05:06.000Z</time>
      </trkpt>
      <trkpt lat="48.64131" lon="2.44473">
        <ele>81</ele>
        <time>2013-04-14T08:05:09.000Z</time>
      </trkpt>
      <trkpt lat="48.6413" lon="2.44475">
        <ele>82</ele>
        <time>2013-04-14T08:05:10.000Z</time>
      </trkpt>
      <trkpt lat="48.64127" lon="2.44479">
        <ele>81</ele>
        <time>2013-04-14T08:05:14.000Z</time>
      </trkpt>
      <trkpt lat="48.64125" lon="2.4448">
        <ele>81</ele>
        <time>2013-04-14T08:05:15.000Z</time>
      </trkpt>
      <trkpt lat="48.64123" lon="2.44483">
        <ele>82</ele>
        <time>2013-04-14T08:05:18.000Z</time>
      </trkpt>
      <trkpt lat="48.64122" lon="2.44484">
        <ele>82</ele>
        <time>2013-04-14T08:05:19.000Z</time>
      </trkpt>
      <trkpt lat="48.64118" lon="2.44488">
        <ele>83</ele>
        <time>2013-04-14T08:05:23.000Z</time>
      </trkpt>
      <trkpt lat="48.64117" lon="2.44489">
        <ele>83</ele>
        <time>2013-04-14T08:05:24.000Z</time>
      </trkpt>
      <trkpt lat="48.64114" lon="2.44492">
        <ele>83</ele>
        <time>2013-04-14T08:05:27.000Z</time>
      </trkpt>
      <trkpt lat="48.64113" lon="2.44494">
        <ele>83</ele>
        <time>2013-04-14T08:05:28.000Z</time>
      </trkpt>
      <trkpt lat="48.6411" lon="2.44497">
        <ele>84</ele>
        <time>2013-04-14T08:05:30.000Z</time>
      </trkpt>
      <trkpt lat="48.64109" lon="2.44498">
        <ele>84</ele>
        <time>2013-04-14T08:05:31.000Z</time>
      </trkpt>
      <trkpt lat="48.64106" lon="2.44501">
        <ele>84</ele>
        <time>2013-04-14T08:05:33.000Z</time>
      </trkpt>
      <trkpt lat="48.64105" lon="2.44502">
        <ele>84</ele>
        <time>2013-04-14T08:05:34.000Z</time>
      </trkpt>
      <trkpt lat="48.64101" lon="2.44506">
        <ele>84</ele>
        <time>2013-04-14T08:05:37.000Z</time>
      </trkpt>
      <trkpt lat="48.641" lon="2.44507">
        <ele>84</ele>
        <time>2013-04-14T08:05:38.000Z</time>
      </trkpt>
      <trkpt lat="48.64096" lon="2.44509">
        <ele>84</ele>
        <time>2013-04-14T08:05:40.000Z</time>
      </trkpt>
      <trkpt lat="48.64094" lon="2.44512">
        <ele>83</ele>
        <time>2013-04-14T08:05:41.000Z</time>
      </trkpt>
      <trkpt lat="48.64091" lon="2.44517">
        <ele>83</ele>
        <time>2013-04-14T08:05:43.000Z</time>
      </trkpt>
      <trkpt lat="48.64089" lon="2.44518">
        <ele>83</ele>
        <time>2013-04-14T08:05:44.000Z</time>
      </trkpt>
      <trkpt lat="48.64086" lon="2.4452">
        <ele>84</ele>
        <time>2013-04-14T08:05:46.000Z</time>
      </trkpt>
      <trkpt lat="48.64085" lon="2.4452">
        <ele>84</ele>
        <time>2013-04-14T08:05:47.000Z</time>
      </trkpt>
      <trkpt lat="48.64081" lon="2.44521">
        <ele>83</ele>
        <time>2013-04-14T08:05:49.000Z</time>
      </trkpt>
      <trkpt lat="48.6408" lon="2.44523">
        <ele>83</ele>
        <time>2013-04-14T08:05:50.000Z</time>
      </trkpt>
      <trkpt lat="48.64076" lon="2.44523">
        <ele>83</ele>
        <time>2013-04-14T08:05:51.000Z</time>
      </trkpt>
      <trkpt lat="48.64075" lon="2.44525">
        <ele>83</ele>
        <time>2013-04-14T08:05:52.000Z</time>
      </trkpt>
      <trkpt lat="48.64073" lon="2.4453">
        <ele>84</ele>
        <time>2013-04-14T08:05:54.000Z</time>
      </trkpt>
      <trkpt lat="48.64071" lon="2.44534">
        <ele>84</ele>
        <time>2013-04-14T08:05:55.000Z</time>
      </trkpt>
      <trkpt lat="48.64073" lon="2.44539">
        <ele>84</ele>
        <time>2013-04-14T08:05:57.000Z</time>
      </trkpt>
      <trkpt lat="48.64073" lon="2.44542">
        <ele>85</ele>
        <time>2013-04-14T08:05:58.000Z</time>
      </trkpt>
      <trkpt lat="48.6407" lon="2.44545">
        <ele>84</ele>
        <time>2013-04-14T08:06:02.000Z</time>
      </trkpt>
      <trkpt lat="48.6407" lon="2.44547">
        <ele>84</ele>
        <time>2013-04-14T08:06:03.000Z</time>
      </trkpt>
      <trkpt lat="48.64065" lon="2.44547">
        <ele>85</ele>
        <time>2013-04-14T08:06:04.000Z</time>
      </trkpt>
      <trkpt lat="48.64065" lon="2.44548">
        <ele>86</ele>
        <time>2013-04-14T08:06:05.000Z</time>
      </trkpt>
      <trkpt lat="48.64066" lon="2.44555">
        <ele>86</ele>
        <time>2013-04-14T08:06:06.000Z</time>
      </trkpt>
      <trkpt lat="48.64067" lon="2.44561">
        <ele>85</ele>
        <time>2013-04-14T08:06:08.000Z</time>
      </trkpt>
      <trkpt lat="48.64066" lon="2.44562">
        <ele>85</ele>
        <time>2013-04-14T08:06:09.000Z</time>
      </trkpt>
      <trkpt lat="48.64064" lon="2.44564">
        <ele>86</ele>
        <time>2013-04-14T08:06:11.000Z</time>
      </trkpt>
      <trkpt lat="48.64062" lon="2.44565">
        <ele>85</ele>
        <time>2013-04-14T08:06:12.000Z</time>
      </trkpt>
      <trkpt lat="48.64059" lon="2.44567">
        <ele>85</ele>
        <time>2013-04-14T08:06:13.000Z</time>
      </trkpt>
      <trkpt lat="48.64057" lon="2.44567">
        <ele>85</ele>
        <time>2013-04-14T08:06:14.000Z</time>
      </trkpt>
      <trkpt lat="48.64055" lon="2.44572">
        <ele>84</ele>
        <time>2013-04-14T08:06:17.000Z</time>
      </trkpt>
      <trkpt lat="48.64054" lon="2.44573">
        <ele>84</ele>
        <time>2013-04-14T08:06:18.000Z</time>
      </trkpt>
      <trkpt lat="48.64052" lon="2.44577">
        <ele>85</ele>
        <time>2013-04-14T08:06:20.000Z</time>
      </trkpt>
      <trkpt lat="48.64051" lon="2.4458">
        <ele>84</ele>
        <time>2013-04-14T08:06:21.000Z</time>
      </trkpt>
      <trkpt lat="48.64048" lon="2.44582">
        <ele>85</ele>
        <time>2013-04-14T08:06:23.000Z</time>
      </trkpt>
      <trkpt lat="48.64046" lon="2.44584">
        <ele>84</ele>
        <time>2013-04-14T08:06:24.000Z</time>
      </trkpt>
      <trkpt lat="48.64042" lon="2.44587">
        <ele>84</ele>
        <time>2013-04-14T08:06:26.000Z</time>
      </trkpt>
      <trkpt lat="48.6404" lon="2.44588">
        <ele>85</ele>
        <time>2013-04-14T08:06:27.000Z</time>
      </trkpt>
      <trkpt lat="48.64037" lon="2.44593">
        <ele>85</ele>
        <time>2013-04-14T08:06:32.000Z</time>
      </trkpt>
      <trkpt lat="48.64037" lon="2.44596">
        <ele>85</ele>
        <time>2013-04-14T08:06:33.000Z</time>
      </trkpt>
      <trkpt lat="48.64036" lon="2.44602">
        <ele>87</ele>
        <time>2013-04-14T08:06:36.000Z</time>
      </trkpt>
      <trkpt lat="48.64035" lon="2.44604">
        <ele>87</ele>
        <time>2013-04-14T08:06:37.000Z</time>
      </trkpt>
      <trkpt lat="48.64033" lon="2.44607">
        <ele>86</ele>
        <time>2013-04-14T08:06:45.000Z</time>
      </trkpt>
      <trkpt lat="48.64032" lon="2.44607">
        <ele>87</ele>
        <time>2013-04-14T08:06:46.000Z</time>
      </trkpt>
      <trkpt lat="48.64023" lon="2.44605">
        <ele>86</ele>
        <time>2013-04-14T08:06:47.000Z</time>
      </trkpt>
      <trkpt lat="48.6402" lon="2.44608">
        <ele>87</ele>
        <time>2013-04-14T08:06:54.000Z</time>
      </trkpt>
      <trkpt lat="48.64018" lon="2.44607">
        <ele>87</ele>
        <time>2013-04-14T08:06:55.000Z</time>
      </trkpt>
      <trkpt lat="48.64014" lon="2.44607">
        <ele>87</ele>
        <time>2013-04-14T08:06:57.000Z</time>
      </trkpt>
      <trkpt lat="48.64013" lon="2.44606">
        <ele>88</ele>
        <time>2013-04-14T08:06:58.000Z</time>
      </trkpt>
      <trkpt lat="48.64008" lon="2.44606">
        <ele>88</ele>
        <time>2013-04-14T08:07:00.000Z</time>
      </trkpt>
      <trkpt lat="48.64006" lon="2.44606">
        <ele>87</ele>
        <time>2013-04-14T08:07:01.000Z</time>
      </trkpt>
      <trkpt lat="48.64004" lon="2.44606">
        <ele>87</ele>
        <time>2013-04-14T08:07:03.000Z</time>
      </trkpt>
      <trkpt lat="48.64002" lon="2.44607">
        <ele>88</ele>
        <time>2013-04-14T08:07:04.000Z</time>
      </trkpt>
      <trkpt lat="48.63999" lon="2.44609">
        <ele>87</ele>
        <time>2013-04-14T08:07:05.000Z</time>
      </trkpt>
      <trkpt lat="48.63997" lon="2.4461">
        <ele>88</ele>
        <time>2013-04-14T08:07:06.000Z</time>
      </trkpt>
      <trkpt lat="48.63993" lon="2.4461">
        <ele>88</ele>
        <time>2013-04-14T08:07:08.000Z</time>
      </trkpt>
      <trkpt lat="48.63991" lon="2.44611">
        <ele>87</ele>
        <time>2013-04-14T08:07:09.000Z</time>
      </trkpt>
      <trkpt lat="48.63989" lon="2.44615">
        <ele>86</ele>
        <time>2013-04-14T08:07:15.000Z</time>
      </trkpt>
      <trkpt lat="48.63988" lon="2.44615">
        <ele>86</ele>
        <time>2013-04-14T08:07:16.000Z</time>
      </trkpt>
      <trkpt lat="48.63987" lon="2.44619">
        <ele>86</ele>
        <time>2013-04-14T08:07:18.000Z</time>
      </trkpt>
      <trkpt lat="48.63982" lon="2.4462">
        <ele>86</ele>
        <time>2013-04-14T08:07:19.000Z</time>
      </trkpt>
      <trkpt lat="48.63979" lon="2.44622">
        <ele>85</ele>
        <time>2013-04-14T08:07:21.000Z</time>
      </trkpt>
      <trkpt lat="48.63977" lon="2.44622">
        <ele>86</ele>
        <time>2013-04-14T08:07:22.000Z</time>
      </trkpt>
      <trkpt lat="48.63975" lon="2.44624">
        <ele>85</ele>
        <time>2013-04-14T08:07:25.000Z</time>
      </trkpt>
      <trkpt lat="48.63973" lon="2.44627">
        <ele>87</ele>
        <time>2013-04-14T08:07:26.000Z</time>
      </trkpt>
      <trkpt lat="48.6397" lon="2.44628">
        <ele>86</ele>
        <time>2013-04-14T08:07:29.000Z</time>
      </trkpt>
      <trkpt lat="48.63968" lon="2.44629">
        <ele>86</ele>
        <time>2013-04-14T08:07:30.000Z</time>
      </trkpt>
      <trkpt lat="48.63964" lon="2.44629">
        <ele>86</ele>
        <time>2013-04-14T08:07:33.000Z</time>
      </trkpt>
      <trkpt lat="48.63963" lon="2.44629">
        <ele>86</ele>
        <time>2013-04-14T08:07:34.000Z</time>
      </trkpt>
      <trkpt lat="48.63959" lon="2.44627">
        <ele>86</ele>
        <time>2013-04-14T08:07:39.000Z</time>
      </trkpt>
      <trkpt lat="48.63958" lon="2.44625">
        <ele>86</ele>
        <time>2013-04-14T08:07:40.000Z</time>
      </trkpt>
      <trkpt lat="48.63955" lon="2.44622">
        <ele>86</ele>
        <time>2013-04-14T08:07:44.000Z</time>
      </trkpt>
      <trkpt lat="48.6395" lon="2.44602">
        <ele>85</ele>
        <time>2013-04-14T08:07:52.000Z</time>
      </trkpt>
      <trkpt lat="48.63948" lon="2.44601">
        <ele>88</ele>
        <time>2013-04-14T08:07:57.000Z</time>
      </trkpt>
      <trkpt lat="48.63946" lon="2.44604">
        <ele>88</ele>
        <time>2013-04-14T08:07:58.000Z</time>
      </trkpt>
      <trkpt lat="48.63948" lon="2.44609">
        <ele>89</ele>
        <time>2013-04-14T08:08:04.000Z</time>
      </trkpt>
      <trkpt lat="48.63946" lon="2.44613">
        <ele>89</ele>
        <time>2013-04-14T08:08:05.000Z</time>
      </trkpt>
      <trkpt lat="48.63944" lon="2.44616">
        <ele>90</ele>
        <time>2013-04-14T08:08:09.000Z</time>
      </trkpt>
      <trkpt lat="48.63943" lon="2.44618">
        <ele>90</ele>
        <time>2013-04-14T08:08:10.000Z</time>
      </trkpt>
      <trkpt lat="48.63938" lon="2.44619">
        <ele>90</ele>
        <time>2013-04-14T08:08:13.000Z</time>
      </trkpt>
      <trkpt lat="48.63937" lon="2.44621">
        <ele>91</ele>
        <time>2013-04-14T08:08:14.000Z</time>
      </trkpt>
      <trkpt lat="48.63935" lon="2.44623">
        <ele>91</ele>
        <time>2013-04-14T08:08:16.000Z</time>
      </trkpt>
      <trkpt lat="48.63932" lon="2.44623">
        <ele>92</ele>
        <time>2013-04-14T08:08:17.000Z</time>
      </trkpt>
      <trkpt lat="48.63931" lon="2.44627">
        <ele>92</ele>
        <time>2013-04-14T08:08:19.000Z</time>
      </trkpt>
      <trkpt lat="48.63929" lon="2.44629">
        <ele>92</ele>
        <time>2013-04-14T08:08:20.000Z</time>
      </trkpt>
      <trkpt lat="48.63928" lon="2.44631">
        <ele>92</ele>
        <time>2013-04-14T08:08:21.000Z</time>
      </trkpt>
      <trkpt lat="48.63926" lon="2.44635">
        <ele>94</ele>
        <time>2013-04-14T08:08:22.000Z</time>
      </trkpt>
      <trkpt lat="48.63926" lon="2.4464">
        <ele>95</ele>
        <time>2013-04-14T08:08:25.000Z</time>
      </trkpt>
      <trkpt lat="48.63924" lon="2.44642">
        <ele>96</ele>
        <time>2013-04-14T08:08:26.000Z</time>
      </trkpt>
      <trkpt lat="48.63924" lon="2.44648">
        <ele>97</ele>
        <time>2013-04-14T08:08:31.000Z</time>
      </trkpt>
      <trkpt lat="48.63925" lon="2.44649">
        <ele>96</ele>
        <time>2013-04-14T08:08:32.000Z</time>
      </trkpt>
      <trkpt lat="48.63923" lon="2.44653">
        <ele>96</ele>
        <time>2013-04-14T08:08:35.000Z</time>
      </trkpt>
      <trkpt lat="48.63922" lon="2.44655">
        <ele>96</ele>
        <time>2013-04-14T08:08:36.000Z</time>
      </trkpt>
      <trkpt lat="48.63919" lon="2.44659">
        <ele>96</ele>
        <time>2013-04-14T08:08:38.000Z</time>
      </trkpt>
      <trkpt lat="48.63919" lon="2.44662">
        <ele>96</ele>
        <time>2013-04-14T08:08:39.000Z</time>
      </trkpt>
      <trkpt lat="48.63917" lon="2.44665">
        <ele>96</ele>
        <time>2013-04-14T08:08:41.000Z</time>
      </trkpt>
      <trkpt lat="48.63914" lon="2.44665">
        <ele>96</ele>
        <time>2013-04-14T08:08:42.000Z</time>
      </trkpt>
      <trkpt lat="48.63911" lon="2.4467">
        <ele>97</ele>
        <time>2013-04-14T08:08:47.000Z</time>
      </trkpt>
      <trkpt lat="48.63911" lon="2.44671">
        <ele>97</ele>
        <time>2013-04-14T08:08:48.000Z</time>
      </trkpt>
      <trkpt lat="48.63907" lon="2.44672">
        <ele>95</ele>
        <time>2013-04-14T08:08:51.000Z</time>
      </trkpt>
      <trkpt lat="48.63907" lon="2.44673">
        <ele>96</ele>
        <time>2013-04-14T08:08:52.000Z</time>
      </trkpt>
      <trkpt lat="48.63904" lon="2.44676">
        <ele>97</ele>
        <time>2013-04-14T08:08:53.000Z</time>
      </trkpt>
      <trkpt lat="48.63902" lon="2.44677">
        <ele>95</ele>
        <time>2013-04-14T08:08:54.000Z</time>
      </trkpt>
      <trkpt lat="48.63899" lon="2.4468">
        <ele>94</ele>
        <time>2013-04-14T08:08:58.000Z</time>
      </trkpt>
      <trkpt lat="48.63898" lon="2.44681">
        <ele>95</ele>
        <time>2013-04-14T08:08:59.000Z</time>
      </trkpt>
      <trkpt lat="48.63896" lon="2.44686">
        <ele>95</ele>
        <time>2013-04-14T08:09:02.000Z</time>
      </trkpt>
      <trkpt lat="48.63893" lon="2.44689">
        <ele>95</ele>
        <time>2013-04-14T08:09:03.000Z</time>
      </trkpt>
      <trkpt lat="48.63891" lon="2.44693">
        <ele>95</ele>
        <time>2013-04-14T08:09:05.000Z</time>
      </trkpt>
      <trkpt lat="48.6389" lon="2.44696">
        <ele>95</ele>
        <time>2013-04-14T08:09:06.000Z</time>
      </trkpt>
      <trkpt lat="48.63887" lon="2.44699">
        <ele>98</ele>
        <time>2013-04-14T08:09:10.000Z</time>
      </trkpt>
      <trkpt lat="48.63886" lon="2.44697">
        <ele>98</ele>
        <time>2013-04-14T08:09:11.000Z</time>
      </trkpt>
      <trkpt lat="48.63887" lon="2.44702">
        <ele>98</ele>
        <time>2013-04-14T08:09:13.000Z</time>
      </trkpt>
      <trkpt lat="48.63886" lon="2.44705">
        <ele>98</ele>
        <time>2013-04-14T08:09:14.000Z</time>
      </trkpt>
      <trkpt lat="48.63882" lon="2.44707">
        <ele>98</ele>
        <time>2013-04-14T08:09:15.000Z</time>
      </trkpt>
      <trkpt lat="48.63879" lon="2.44707">
        <ele>98</ele>
        <time>2013-04-14T08:09:16.000Z</time>
      </trkpt>
      <trkpt lat="48.63877" lon="2.44711">
        <ele>97</ele>
        <time>2013-04-14T08:09:21.000Z</time>
      </trkpt>
      <trkpt lat="48.63875" lon="2.4471">
        <ele>97</ele>
        <time>2013-04-14T08:09:22.000Z</time>
      </trkpt>
      <trkpt lat="48.63871" lon="2.44712">
        <ele>97</ele>
        <time>2013-04-14T08:09:25.000Z</time>
      </trkpt>
      <trkpt lat="48.6387" lon="2.44712">
        <ele>97</ele>
        <time>2013-04-14T08:09:26.000Z</time>
      </trkpt>
      <trkpt lat="48.63866" lon="2.44714">
        <ele>98</ele>
        <time>2013-04-14T08:09:29.000Z</time>
      </trkpt>
      <trkpt lat="48.63864" lon="2.44714">
        <ele>98</ele>
        <time>2013-04-14T08:09:30.000Z</time>
      </trkpt>
      <trkpt lat="48.63862" lon="2.44719">
        <ele>100</ele>
        <time>2013-04-14T08:09:33.000Z</time>
      </trkpt>
      <trkpt lat="48.63862" lon="2.44721">
        <ele>101</ele>
        <time>2013-04-14T08:09:34.000Z</time>
      </trkpt>
      <trkpt lat="48.6386" lon="2.44724">
        <ele>100</ele>
        <time>2013-04-14T08:09:39.000Z</time>
      </trkpt>
      <trkpt lat="48.63859" lon="2.44726">
        <ele>100</ele>
        <time>2013-04-14T08:09:40.000Z</time>
      </trkpt>
      <trkpt lat="48.63856" lon="2.4473">
        <ele>99</ele>
        <time>2013-04-14T08:09:42.000Z</time>
      </trkpt>
      <trkpt lat="48.63854" lon="2.44731">
        <ele>99</ele>
        <time>2013-04-14T08:09:43.000Z</time>
      </trkpt>
      <trkpt lat="48.6385" lon="2.44735">
        <ele>99</ele>
        <time>2013-04-14T08:09:47.000Z</time>
      </trkpt>
      <trkpt lat="48.6385" lon="2.44735">
        <ele>100</ele>
        <time>2013-04-14T08:09:48.000Z</time>
      </trkpt>
      <trkpt lat="48.63849" lon="2.44741">
        <ele>102</ele>
        <time>2013-04-14T08:09:52.000Z</time>
      </trkpt>
      <trkpt lat="48.63846" lon="2.4474">
        <ele>101</ele>
        <time>2013-04-14T08:09:53.000Z</time>
      </trkpt>
      <trkpt lat="48.63842" lon="2.44742">
        <ele>103</ele>
        <time>2013-04-14T08:09:56.000Z</time>
      </trkpt>
      <trkpt lat="48.63841" lon="2.44744">
        <ele>102</ele>
        <time>2013-04-14T08:09:57.000Z</time>
      </trkpt>
      <trkpt lat="48.6384" lon="2.44748">
        <ele>101</ele>
        <time>2013-04-14T08:10:00.000Z</time>
      </trkpt>
      <trkpt lat="48.63833" lon="2.44744">
        <ele>102</ele>
        <time>2013-04-14T08:10:01.000Z</time>
      </trkpt>
      <trkpt lat="48.63831" lon="2.44749">
        <ele>99</ele>
        <time>2013-04-14T08:10:12.000Z</time>
      </trkpt>
      <trkpt lat="48.63831" lon="2.4475">
        <ele>99</ele>
        <time>2013-04-14T08:10:13.000Z</time>
      </trkpt>
      <trkpt lat="48.63828" lon="2.44753">
        <ele>97</ele>
        <time>2013-04-14T08:10:17.000Z</time>
      </trkpt>
      <trkpt lat="48.63827" lon="2.44754">
        <ele>97</ele>
        <time>2013-04-14T08:10:18.000Z</time>
      </trkpt>
      <trkpt lat="48.63826" lon="2.44759">
        <ele>96</ele>
        <time>2013-04-14T08:10:21.000Z</time>
      </trkpt>
      <trkpt lat="48.63824" lon="2.4476">
        <ele>96</ele>
        <time>2013-04-14T08:10:22.000Z</time>
      </trkpt>
      <trkpt lat="48.63822" lon="2.44765">
        <ele>95</ele>
        <time>2013-04-14T08:10:27.000Z</time>
      </trkpt>
      <trkpt lat="48.6382" lon="2.44766">
        <ele>94</ele>
        <time>2013-04-14T08:10:28.000Z</time>
      </trkpt>
      <trkpt lat="48.63817" lon="2.44769">
        <ele>95</ele>
        <time>2013-04-14T08:10:32.000Z</time>
      </trkpt>
      <trkpt lat="48.63815" lon="2.4477">
        <ele>95</ele>
        <time>2013-04-14T08:10:33.000Z</time>
      </trkpt>
      <trkpt lat="48.63813" lon="2.44772">
        <ele>96</ele>
        <time>2013-04-14T08:10:36.000Z</time>
      </trkpt>
      <trkpt lat="48.6381" lon="2.44774">
        <ele>96</ele>
        <time>2013-04-14T08:10:37.000Z</time>
      </trkpt>
      <trkpt lat="48.63808" lon="2.44772">
        <ele>96</ele>
        <time>2013-04-14T08:10:38.000Z</time>
      </trkpt>
      <trkpt lat="48.63806" lon="2.44771">
        <ele>96</ele>
        <time>2013-04-14T08:10:39.000Z</time>
      </trkpt>
      <trkpt lat="48.63805" lon="2.44777">
        <ele>97</ele>
        <time>2013-04-14T08:10:44.000Z</time>
      </trkpt>
      <trkpt lat="48.63802" lon="2.44778">
        <ele>97</ele>
        <time>2013-04-14T08:10:45.000Z</time>
      </trkpt>
      <trkpt lat="48.63801" lon="2.44783">
        <ele>97</ele>
        <time>2013-04-14T08:10:50.000Z</time>
      </trkpt>
      <trkpt lat="48.63801" lon="2.44785">
        <ele>97</ele>
        <time>2013-04-14T08:10:51.000Z</time>
      </trkpt>
      <trkpt lat="48.63799" lon="2.44786">
        <ele>97</ele>
        <time>2013-04-14T08:10:52.000Z</time>
      </trkpt>
      <trkpt lat="48.63797" lon="2.44789">
        <ele>96</ele>
        <time>2013-04-14T08:10:53.000Z</time>
      </trkpt>
      <trkpt lat="48.63793" lon="2.44793">
        <ele>96</ele>
        <time>2013-04-14T08:10:59.000Z</time>
      </trkpt>
      <trkpt lat="48.63791" lon="2.44794">
        <ele>96</ele>
        <time>2013-04-14T08:11:00.000Z</time>
      </trkpt>
      <trkpt lat="48.63789" lon="2.44791">
        <ele>96</ele>
        <time>2013-04-14T08:11:02.000Z</time>
      </trkpt>
      <trkpt lat="48.63786" lon="2.44792">
        <ele>96</ele>
        <time>2013-04-14T08:11:03.000Z</time>
      </trkpt>
      <trkpt lat="48.63785" lon="2.44799">
        <ele>96</ele>
        <time>2013-04-14T08:11:07.000Z</time>
      </trkpt>
      <trkpt lat="48.63783" lon="2.44798">
        <ele>95</ele>
        <time>2013-04-14T08:11:08.000Z</time>
      </trkpt>
      <trkpt lat="48.63782" lon="2.44804">
        <ele>96</ele>
        <time>2013-04-14T08:11:11.000Z</time>
      </trkpt>
      <trkpt lat="48.63782" lon="2.44806">
        <ele>96</ele>
        <time>2013-04-14T08:11:12.000Z</time>
      </trkpt>
      <trkpt lat="48.6378" lon="2.44806">
        <ele>94</ele>
        <time>2013-04-14T08:11:17.000Z</time>
      </trkpt>
      <trkpt lat="48.63777" lon="2.44807">
        <ele>96</ele>
        <time>2013-04-14T08:11:18.000Z</time>
      </trkpt>
      <trkpt lat="48.63773" lon="2.44811">
        <ele>93</ele>
        <time>2013-04-14T08:11:25.000Z</time>
      </trkpt>
      <trkpt lat="48.63773" lon="2.44812">
        <ele>92</ele>
        <time>2013-04-14T08:11:26.000Z</time>
      </trkpt>
      <trkpt lat="48.63769" lon="2.4481">
        <ele>90</ele>
        <time>2013-04-14T08:11:29.000Z</time>
      </trkpt>
      <trkpt lat="48.63768" lon="2.4481">
        <ele>90</ele>
        <time>2013-04-14T08:11:30.000Z</time>
      </trkpt>
      <trkpt lat="48.63765" lon="2.44814">
        <ele>89</ele>
        <time>2013-04-14T08:11:36.000Z</time>
      </trkpt>
      <trkpt lat="48.63765" lon="2.44816">
        <ele>89</ele>
        <time>2013-04-14T08:11:37.000Z</time>
      </trkpt>
      <trkpt lat="48.63761" lon="2.44819">
        <ele>88</ele>
        <time>2013-04-14T08:11:40.000Z</time>
      </trkpt>
      <trkpt lat="48.6376" lon="2.44819">
        <ele>89</ele>
        <time>2013-04-14T08:11:41.000Z</time>
      </trkpt>
      <trkpt lat="48.63756" lon="2.44819">
        <ele>89</ele>
        <time>2013-04-14T08:11:44.000Z</time>
      </trkpt>
      <trkpt lat="48.63755" lon="2.4482">
        <ele>90</ele>
        <time>2013-04-14T08:11:45.000Z</time>
      </trkpt>
      <trkpt lat="48.63757" lon="2.44825">
        <ele>90</ele>
        <time>2013-04-14T08:11:48.000Z</time>
      </trkpt>
      <trkpt lat="48.63759" lon="2.44827">
        <ele>90</ele>
        <time>2013-04-14T08:11:49.000Z</time>
      </trkpt>
      <trkpt lat="48.63757" lon="2.4483">
        <ele>90</ele>
        <time>2013-04-14T08:11:52.000Z</time>
      </trkpt>
      <trkpt lat="48.63754" lon="2.44831">
        <ele>91</ele>
        <time>2013-04-14T08:11:53.000Z</time>
      </trkpt>
      <trkpt lat="48.6375" lon="2.44833">
        <ele>91</ele>
        <time>2013-04-14T08:11:56.000Z</time>
      </trkpt>
      <trkpt lat="48.63749" lon="2.44837">
        <ele>91</ele>
        <time>2013-04-14T08:11:57.000Z</time>
      </trkpt>
      <trkpt lat="48.63746" lon="2.44839">
        <ele>92</ele>
        <time>2013-04-14T08:11:59.000Z</time>
      </trkpt>
      <trkpt lat="48.63744" lon="2.44841">
        <ele>91</ele>
        <time>2013-04-14T08:12:00.000Z</time>
      </trkpt>
      <trkpt lat="48.6374" lon="2.4484">
        <ele>92</ele>
        <time>2013-04-14T08:12:02.000Z</time>
      </trkpt>
      <trkpt lat="48.63738" lon="2.4484">
        <ele>92</ele>
        <time>2013-04-14T08:12:03.000Z</time>
      </trkpt>
      <trkpt lat="48.63736" lon="2.44845">
        <ele>92</ele>
        <time>2013-04-14T08:12:09.000Z</time>
      </trkpt>
      <trkpt lat="48.63735" lon="2.44847">
        <ele>92</ele>
        <time>2013-04-14T08:12:10.000Z</time>
      </trkpt>
      <trkpt lat="48.63734" lon="2.44852">
        <ele>92</ele>
        <time>2013-04-14T08:12:15.000Z</time>
      </trkpt>
      <trkpt lat="48.63733" lon="2.44854">
        <ele>92</ele>
        <time>2013-04-14T08:12:16.000Z</time>
      </trkpt>
      <trkpt lat="48.63731" lon="2.44858">
        <ele>91</ele>
        <time>2013-04-14T08:12:21.000Z</time>
      </trkpt>
      <trkpt lat="48.63731" lon="2.4486">
        <ele>91</ele>
        <time>2013-04-14T08:12:22.000Z</time>
      </trkpt>
      <trkpt lat="48.63727" lon="2.44862">
        <ele>91</ele>
        <time>2013-04-14T08:12:24.000Z</time>
      </trkpt>
      <trkpt lat="48.63726" lon="2.44863">
        <ele>90</ele>
        <time>2013-04-14T08:12:25.000Z</time>
      </trkpt>
      <trkpt lat="48.63722" lon="2.44862">
        <ele>87</ele>
        <time>2013-04-14T08:12:37.000Z</time>
      </trkpt>
      <trkpt lat="48.6372" lon="2.44861">
        <ele>87</ele>
        <time>2013-04-14T08:12:38.000Z</time>
      </trkpt>
      <trkpt lat="48.63718" lon="2.44867">
        <ele>87</ele>
        <time>2013-04-14T08:12:40.000Z</time>
      </trkpt>
      <trkpt lat="48.63716" lon="2.44866">
        <ele>89</ele>
        <time>2013-04-14T08:12:41.000Z</time>
      </trkpt>
      <trkpt lat="48.63712" lon="2.44867">
        <ele>90</ele>
        <time>2013-04-14T08:12:43.000Z</time>
      </trkpt>
      <trkpt lat="48.63711" lon="2.44867">
        <ele>90</ele>
        <time>2013-04-14T08:12:44.000Z</time>
      </trkpt>
      <trkpt lat="48.63707" lon="2.44871">
        <ele>91</ele>
        <time>2013-04-14T08:12:46.000Z</time>
      </trkpt>
      <trkpt lat="48.63705" lon="2.44875">
        <ele>91</ele>
        <time>2013-04-14T08:12:47.000Z</time>
      </trkpt>
      <trkpt lat="48.63703" lon="2.4488">
        <ele>91</ele>
        <time>2013-04-14T08:12:49.000Z</time>
      </trkpt>
      <trkpt lat="48.63701" lon="2.4488">
        <ele>90</ele>
        <time>2013-04-14T08:12:50.000Z</time>
      </trkpt>
      <trkpt lat="48.63698" lon="2.44885">
        <ele>88</ele>
        <time>2013-04-14T08:12:56.000Z</time>
      </trkpt>
      <trkpt lat="48.63698" lon="2.44885">
        <ele>89</ele>
        <time>2013-04-14T08:12:57.000Z</time>
      </trkpt>
      <trkpt lat="48.63695" lon="2.44888">
        <ele>87</ele>
        <time>2013-04-14T08:13:00.000Z</time>
      </trkpt>
      <trkpt lat="48.63695" lon="2.4489">
        <ele>87</ele>
        <time>2013-04-14T08:13:01.000Z</time>
      </trkpt>
      <trkpt lat="48.63691" lon="2.44893">
        <ele>90</ele>
        <time>2013-04-14T08:13:04.000Z</time>
      </trkpt>
      <trkpt lat="48.6369" lon="2.44894">
        <ele>90</ele>
        <time>2013-04-14T08:13:05.000Z</time>
      </trkpt>
      <trkpt lat="48.63687" lon="2.44897">
        <ele>91</ele>
        <time>2013-04-14T08:13:09.000Z</time>
      </trkpt>
      <trkpt lat="48.63687" lon="2.44899">
        <ele>91</ele>
        <time>2013-04-14T08:13:10.000Z</time>
      </trkpt>
      <trkpt lat="48.63683" lon="2.44902">
        <ele>91</ele>
        <time>2013-04-14T08:13:14.000Z</time>
      </trkpt>
      <trkpt lat="48.63681" lon="2.44902">
        <ele>90</ele>
        <time>2013-04-14T08:13:15.000Z</time>
      </trkpt>
      <trkpt lat="48.63679" lon="2.44907">
        <ele>91</ele>
        <time>2013-04-14T08:13:18.000Z</time>
      </trkpt>
      <trkpt lat="48.63677" lon="2.4491">
        <ele>92</ele>
        <time>2013-04-14T08:13:19.000Z</time>
      </trkpt>
      <trkpt lat="48.63674" lon="2.44913">
        <ele>91</ele>
        <time>2013-04-14T08:13:22.000Z</time>
      </trkpt>
      <trkpt lat="48.63672" lon="2.44913">
        <ele>91</ele>
        <time>2013-04-14T08:13:23.000Z</time>
      </trkpt>
      <trkpt lat="48.63668" lon="2.44915">
        <ele>91</ele>
        <time>2013-04-14T08:13:35.000Z</time>
      </trkpt>
      <trkpt lat="48.63665" lon="2.44917">
        <ele>91</ele>
        <time>2013-04-14T08:13:36.000Z</time>
      </trkpt>
      <trkpt lat="48.63664" lon="2.44923">
        <ele>91</ele>
        <time>2013-04-14T08:13:39.000Z</time>
      </trkpt>
      <trkpt lat="48.63664" lon="2.44925">
        <ele>90</ele>
        <time>2013-04-14T08:13:40.000Z</time>
      </trkpt>
      <trkpt lat="48.6366" lon="2.44928">
        <ele>92</ele>
        <time>2013-04-14T08:13:42.000Z</time>
      </trkpt>
      <trkpt lat="48.63659" lon="2.44929">
        <ele>92</ele>
        <time>2013-04-14T08:13:43.000Z</time>
      </trkpt>
      <trkpt lat="48.63658" lon="2.4493">
        <ele>92</ele>
        <time>2013-04-14T08:13:44.000Z</time>
      </trkpt>
      <trkpt lat="48.63654" lon="2.44929">
        <ele>92</ele>
        <time>2013-04-14T08:13:45.000Z</time>
      </trkpt>
      <trkpt lat="48.63651" lon="2.44933">
        <ele>92</ele>
        <time>2013-04-14T08:13:49.000Z</time>
      </trkpt>
      <trkpt lat="48.6365" lon="2.44934">
        <ele>92</ele>
        <time>2013-04-14T08:13:50.000Z</time>
      </trkpt>
      <trkpt lat="48.63646" lon="2.44937">
        <ele>92</ele>
        <time>2013-04-14T08:13:54.000Z</time>
      </trkpt>
      <trkpt lat="48.63644" lon="2.44937">
        <ele>91</ele>
        <time>2013-04-14T08:13:55.000Z</time>
      </trkpt>
      <trkpt lat="48.63643" lon="2.44943">
        <ele>89</ele>
        <time>2013-04-14T08:14:00.000Z</time>
      </trkpt>
      <trkpt lat="48.63643" lon="2.44944">
        <ele>89</ele>
        <time>2013-04-14T08:14:01.000Z</time>
      </trkpt>
      <trkpt lat="48.6364" lon="2.44947">
        <ele>90</ele>
        <time>2013-04-14T08:14:04.000Z</time>
      </trkpt>
      <trkpt lat="48.6364" lon="2.44949">
        <ele>90</ele>
        <time>2013-04-14T08:14:05.000Z</time>
      </trkpt>
      <trkpt lat="48.63637" lon="2.44952">
        <ele>91</ele>
        <time>2013-04-14T08:14:09.000Z</time>
      </trkpt>
      <trkpt lat="48.63636" lon="2.44953">
        <ele>91</ele>
        <time>2013-04-14T08:14:10.000Z</time>
      </trkpt>
      <trkpt lat="48.63633" lon="2.44958">
        <ele>92</ele>
        <time>2013-04-14T08:14:13.000Z</time>
      </trkpt>
      <trkpt lat="48.63632" lon="2.44961">
        <ele>92</ele>
        <time>2013-04-14T08:14:14.000Z</time>
      </trkpt>
      <trkpt lat="48.63631" lon="2.44966">
        <ele>92</ele>
        <time>2013-04-14T08:14:18.000Z</time>
      </trkpt>
      <trkpt lat="48.63631" lon="2.44968">
        <ele>92</ele>
        <time>2013-04-14T08:14:19.000Z</time>
      </trkpt>
      <trkpt lat="48.6363" lon="2.44974">
        <ele>92</ele>
        <time>2013-04-14T08:14:24.000Z</time>
      </trkpt>
      <trkpt lat="48.63627" lon="2.44972">
        <ele>92</ele>
        <time>2013-04-14T08:14:25.000Z</time>
      </trkpt>
      <trkpt lat="48.63624" lon="2.44975">
        <ele>90</ele>
        <time>2013-04-14T08:14:30.000Z</time>
      </trkpt>
      <trkpt lat="48.63623" lon="2.44977">
        <ele>90</ele>
        <time>2013-04-14T08:14:31.000Z</time>
      </trkpt>
      <trkpt lat="48.6362" lon="2.44981">
        <ele>89</ele>
        <time>2013-04-14T08:14:35.000Z</time>
      </trkpt>
      <trkpt lat="48.63618" lon="2.4498">
        <ele>88</ele>
        <time>2013-04-14T08:14:36.000Z</time>
      </trkpt>
      <trkpt lat="48.63614" lon="2.44982">
        <ele>83</ele>
        <time>2013-04-14T08:14:42.000Z</time>
      </trkpt>
      <trkpt lat="48.63614" lon="2.44984">
        <ele>83</ele>
        <time>2013-04-14T08:14:43.000Z</time>
      </trkpt>
      <trkpt lat="48.63611" lon="2.44988">
        <ele>85</ele>
        <time>2013-04-14T08:14:46.000Z</time>
      </trkpt>
      <trkpt lat="48.6361" lon="2.44989">
        <ele>85</ele>
        <time>2013-04-14T08:14:47.000Z</time>
      </trkpt>
      <trkpt lat="48.63607" lon="2.4499">
        <ele>86</ele>
        <time>2013-04-14T08:14:50.000Z</time>
      </trkpt>
      <trkpt lat="48.63606" lon="2.44991">
        <ele>86</ele>
        <time>2013-04-14T08:14:51.000Z</time>
      </trkpt>
      <trkpt lat="48.63603" lon="2.44996">
        <ele>85</ele>
        <time>2013-04-14T08:14:57.000Z</time>
      </trkpt>
      <trkpt lat="48.63602" lon="2.44997">
        <ele>85</ele>
        <time>2013-04-14T08:14:58.000Z</time>
      </trkpt>
      <trkpt lat="48.63598" lon="2.45">
        <ele>84</ele>
        <time>2013-04-14T08:15:05.000Z</time>
      </trkpt>
      <trkpt lat="48.63598" lon="2.45002">
        <ele>84</ele>
        <time>2013-04-14T08:15:06.000Z</time>
      </trkpt>
      <trkpt lat="48.63595" lon="2.45006">
        <ele>86</ele>
        <time>2013-04-14T08:15:09.000Z</time>
      </trkpt>
      <trkpt lat="48.63594" lon="2.45007">
        <ele>87</ele>
        <time>2013-04-14T08:15:10.000Z</time>
      </trkpt>
      <trkpt lat="48.63591" lon="2.45011">
        <ele>88</ele>
        <time>2013-04-14T08:15:13.000Z</time>
      </trkpt>
      <trkpt lat="48.6359" lon="2.45011">
        <ele>88</ele>
        <time>2013-04-14T08:15:14.000Z</time>
      </trkpt>
      <trkpt lat="48.63587" lon="2.45016">
        <ele>88</ele>
        <time>2013-04-14T08:15:19.000Z</time>
      </trkpt>
      <trkpt lat="48.63586" lon="2.45017">
        <ele>89</ele>
        <time>2013-04-14T08:15:20.000Z</time>
      </trkpt>
      <trkpt lat="48.63584" lon="2.45022">
        <ele>89</ele>
        <time>2013-04-14T08:15:24.000Z</time>
      </trkpt>
      <trkpt lat="48.63583" lon="2.45023">
        <ele>89</ele>
        <time>2013-04-14T08:15:25.000Z</time>
      </trkpt>
      <trkpt lat="48.6358" lon="2.45027">
        <ele>88</ele>
        <time>2013-04-14T08:15:30.000Z</time>
      </trkpt>
      <trkpt lat="48.63578" lon="2.45028">
        <ele>89</ele>
        <time>2013-04-14T08:15:31.000Z</time>
      </trkpt>
      <trkpt lat="48.63575" lon="2.45029">
        <ele>88</ele>
        <time>2013-04-14T08:15:33.000Z</time>
      </trkpt>
      <trkpt lat="48.63573" lon="2.4503">
        <ele>88</ele>
        <time>2013-04-14T08:15:34.000Z</time>
      </trkpt>
      <trkpt lat="48.63571" lon="2.45035">
        <ele>89</ele>
        <time>2013-04-14T08:15:38.000Z</time>
      </trkpt>
      <trkpt lat="48.63569" lon="2.45035">
        <ele>89</ele>
        <time>2013-04-14T08:15:39.000Z</time>
      </trkpt>
      <trkpt lat="48.63566" lon="2.45038">
        <ele>90</ele>
        <time>2013-04-14T08:15:42.000Z</time>
      </trkpt>
      <trkpt lat="48.63565" lon="2.45038">
        <ele>91</ele>
        <time>2013-04-14T08:15:43.000Z</time>
      </trkpt>
      <trkpt lat="48.63564" lon="2.45043">
        <ele>91</ele>
        <time>2013-04-14T08:15:48.000Z</time>
      </trkpt>
      <trkpt lat="48.63564" lon="2.45045">
        <ele>91</ele>
        <time>2013-04-14T08:15:49.000Z</time>
      </trkpt>
      <trkpt lat="48.6356" lon="2.45048">
        <ele>90</ele>
        <time>2013-04-14T08:15:52.000Z</time>
      </trkpt>
      <trkpt lat="48.63558" lon="2.45049">
        <ele>91</ele>
        <time>2013-04-14T08:15:53.000Z</time>
      </trkpt>
      <trkpt lat="48.63559" lon="2.45055">
        <ele>91</ele>
        <time>2013-04-14T08:15:56.000Z</time>
      </trkpt>
      <trkpt lat="48.63559" lon="2.45056">
        <ele>91</ele>
        <time>2013-04-14T08:15:57.000Z</time>
      </trkpt>
      <trkpt lat="48.63556" lon="2.45061">
        <ele>94</ele>
        <time>2013-04-14T08:16:00.000Z</time>
      </trkpt>
      <trkpt lat="48.63554" lon="2.45062">
        <ele>94</ele>
        <time>2013-04-14T08:16:01.000Z</time>
      </trkpt>
      <trkpt lat="48.63551" lon="2.45065">
        <ele>95</ele>
        <time>2013-04-14T08:16:04.000Z</time>
      </trkpt>
      <trkpt lat="48.6355" lon="2.45066">
        <ele>96</ele>
        <time>2013-04-14T08:16:05.000Z</time>
      </trkpt>
      <trkpt lat="48.63547" lon="2.45069">
        <ele>96</ele>
        <time>2013-04-14T08:16:08.000Z</time>
      </trkpt>
      <trkpt lat="48.63545" lon="2.4507">
        <ele>96</ele>
        <time>2013-04-14T08:16:09.000Z</time>
      </trkpt>
      <trkpt lat="48.63542" lon="2.45073">
        <ele>96</ele>
        <time>2013-04-14T08:16:13.000Z</time>
      </trkpt>
      <trkpt lat="48.63541" lon="2.45075">
        <ele>96</ele>
        <time>2013-04-14T08:16:14.000Z</time>
      </trkpt>
      <trkpt lat="48.63539" lon="2.45077">
        <ele>96</ele>
        <time>2013-04-14T08:16:15.000Z</time>
      </trkpt>
      <trkpt lat="48.63536" lon="2.45074">
        <ele>95</ele>
        <time>2013-04-14T08:16:17.000Z</time>
      </trkpt>
      <trkpt lat="48.63535" lon="2.45079">
        <ele>94</ele>
        <time>2013-04-14T08:16:24.000Z</time>
      </trkpt>
      <trkpt lat="48.63532" lon="2.4508">
        <ele>95</ele>
        <time>2013-04-14T08:16:26.000Z</time>
      </trkpt>
      <trkpt lat="48.6353" lon="2.45082">
        <ele>95</ele>
        <time>2013-04-14T08:16:28.000Z</time>
      </trkpt>
      <trkpt lat="48.63528" lon="2.45085">
        <ele>95</ele>
        <time>2013-04-14T08:16:29.000Z</time>
      </trkpt>
      <trkpt lat="48.63526" lon="2.45089">
        <ele>96</ele>
        <time>2013-04-14T08:16:32.000Z</time>
      </trkpt>
      <trkpt lat="48.63525" lon="2.45091">
        <ele>96</ele>
        <time>2013-04-14T08:16:33.000Z</time>
      </trkpt>
      <trkpt lat="48.63522" lon="2.45093">
        <ele>94</ele>
        <time>2013-04-14T08:16:37.000Z</time>
      </trkpt>
      <trkpt lat="48.63521" lon="2.45096">
        <ele>94</ele>
        <time>2013-04-14T08:16:39.000Z</time>
      </trkpt>
      <trkpt lat="48.63518" lon="2.45101">
        <ele>92</ele>
        <time>2013-04-14T08:16:43.000Z</time>
      </trkpt>
      <trkpt lat="48.63517" lon="2.45101">
        <ele>92</ele>
        <time>2013-04-14T08:16:44.000Z</time>
      </trkpt>
      <trkpt lat="48.63513" lon="2.45105">
        <ele>94</ele>
        <time>2013-04-14T08:16:50.000Z</time>
      </trkpt>
      <trkpt lat="48.63513" lon="2.45106">
        <ele>94</ele>
        <time>2013-04-14T08:16:51.000Z</time>
      </trkpt>
      <trkpt lat="48.6351" lon="2.4511">
        <ele>93</ele>
        <time>2013-04-14T08:16:57.000Z</time>
      </trkpt>
      <trkpt lat="48.63509" lon="2.45112">
        <ele>93</ele>
        <time>2013-04-14T08:16:58.000Z</time>
      </trkpt>
      <trkpt lat="48.63506" lon="2.45115">
        <ele>93</ele>
        <time>2013-04-14T08:17:01.000Z</time>
      </trkpt>
      <trkpt lat="48.63505" lon="2.45116">
        <ele>93</ele>
        <time>2013-04-14T08:17:02.000Z</time>
      </trkpt>
      <trkpt lat="48.63503" lon="2.45118">
        <ele>93</ele>
        <time>2013-04-14T08:17:04.000Z</time>
      </trkpt>
      <trkpt lat="48.63501" lon="2.45119">
        <ele>93</ele>
        <time>2013-04-14T08:17:05.000Z</time>
      </trkpt>
      <trkpt lat="48.63498" lon="2.45122">
        <ele>93</ele>
        <time>2013-04-14T08:17:08.000Z</time>
      </trkpt>
      <trkpt lat="48.63497" lon="2.45123">
        <ele>93</ele>
        <time>2013-04-14T08:17:09.000Z</time>
      </trkpt>
      <trkpt lat="48.63495" lon="2.45127">
        <ele>93</ele>
        <time>2013-04-14T08:17:10.000Z</time>
      </trkpt>
      <trkpt lat="48.63494" lon="2.45129">
        <ele>93</ele>
        <time>2013-04-14T08:17:11.000Z</time>
      </trkpt>
      <trkpt lat="48.63492" lon="2.45134">
        <ele>93</ele>
        <time>2013-04-14T08:17:14.000Z</time>
      </trkpt>
      <trkpt lat="48.63492" lon="2.45135">
        <ele>93</ele>
        <time>2013-04-14T08:17:15.000Z</time>
      </trkpt>
      <trkpt lat="48.63488" lon="2.45136">
        <ele>93</ele>
        <time>2013-04-14T08:17:18.000Z</time>
      </trkpt>
      <trkpt lat="48.63485" lon="2.45137">
        <ele>93</ele>
        <time>2013-04-14T08:17:19.000Z</time>
      </trkpt>
      <trkpt lat="48.63487" lon="2.45141">
        <ele>93</ele>
        <time>2013-04-14T08:17:21.000Z</time>
      </trkpt>
      <trkpt lat="48.63488" lon="2.45144">
        <ele>94</ele>
        <time>2013-04-14T08:17:22.000Z</time>
      </trkpt>
      <trkpt lat="48.63485" lon="2.45147">
        <ele>94</ele>
        <time>2013-04-14T08:17:26.000Z</time>
      </trkpt>
      <trkpt lat="48.63484" lon="2.45148">
        <ele>94</ele>
        <time>2013-04-14T08:17:27.000Z</time>
      </trkpt>
      <trkpt lat="48.63481" lon="2.4515">
        <ele>93</ele>
        <time>2013-04-14T08:17:31.000Z</time>
      </trkpt>
      <trkpt lat="48.6348" lon="2.45152">
        <ele>93</ele>
        <time>2013-04-14T08:17:32.000Z</time>
      </trkpt>
      <trkpt lat="48.63476" lon="2.45154">
        <ele>93</ele>
        <time>2013-04-14T08:17:35.000Z</time>
      </trkpt>
      <trkpt lat="48.63474" lon="2.45155">
        <ele>93</ele>
        <time>2013-04-14T08:17:36.000Z</time>
      </trkpt>
      <trkpt lat="48.63474" lon="2.45161">
        <ele>95</ele>
        <time>2013-04-14T08:17:41.000Z</time>
      </trkpt>
      <trkpt lat="48.63474" lon="2.45162">
        <ele>94</ele>
        <time>2013-04-14T08:17:42.000Z</time>
      </trkpt>
      <trkpt lat="48.6347" lon="2.45164">
        <ele>93</ele>
        <time>2013-04-14T08:17:46.000Z</time>
      </trkpt>
      <trkpt lat="48.63469" lon="2.45164">
        <ele>93</ele>
        <time>2013-04-14T08:17:47.000Z</time>
      </trkpt>
      <trkpt lat="48.63465" lon="2.45167">
        <ele>94</ele>
        <time>2013-04-14T08:17:51.000Z</time>
      </trkpt>
      <trkpt lat="48.63464" lon="2.45168">
        <ele>93</ele>
        <time>2013-04-14T08:17:52.000Z</time>
      </trkpt>
      <trkpt lat="48.63461" lon="2.45169">
        <ele>94</ele>
        <time>2013-04-14T08:17:54.000Z</time>
      </trkpt>
      <trkpt lat="48.63459" lon="2.45168">
        <ele>94</ele>
        <time>2013-04-14T08:17:55.000Z</time>
      </trkpt>
      <trkpt lat="48.63457" lon="2.45162">
        <ele>90</ele>
        <time>2013-04-14T08:19:02.000Z</time>
      </trkpt>
      <trkpt lat="48.63456" lon="2.45162">
        <ele>90</ele>
        <time>2013-04-14T08:19:03.000Z</time>
      </trkpt>
      <trkpt lat="48.63453" lon="2.45158">
        <ele>86</ele>
        <time>2013-04-14T08:20:23.000Z</time>
      </trkpt>
      <trkpt lat="48.63453" lon="2.45158">
        <ele>86</ele>
        <time>2013-04-14T08:20:24.000Z</time>
      </trkpt>
      <trkpt lat="48.63452" lon="2.45156">
        <ele>85</ele>
        <time>2013-04-14T08:20:35.000Z</time>
      </trkpt>
      <trkpt lat="48.6345" lon="2.45152">
        <ele>86</ele>
        <time>2013-04-14T08:20:36.000Z</time>
      </trkpt>
      <trkpt lat="48.63448" lon="2.45148">
        <ele>87</ele>
        <time>2013-04-14T08:20:37.000Z</time>
      </trkpt>
      <trkpt lat="48.63446" lon="2.45145">
        <ele>87</ele>
        <time>2013-04-14T08:20:38.000Z</time>
      </trkpt>
      <trkpt lat="48.63444" lon="2.45142">
        <ele>88</ele>
        <time>2013-04-14T08:20:39.000Z</time>
      </trkpt>
      <trkpt lat="48.63443" lon="2.4514">
        <ele>89</ele>
        <time>2013-04-14T08:20:40.000Z</time>
      </trkpt>
      <trkpt lat="48.6344" lon="2.45135">
        <ele>88</ele>
        <time>2013-04-14T08:20:42.000Z</time>
      </trkpt>
      <trkpt lat="48.6344" lon="2.45134">
        <ele>87</ele>
        <time>2013-04-14T08:20:43.000Z</time>
      </trkpt>
      <trkpt lat="48.63437" lon="2.4513">
        <ele>87</ele>
        <time>2013-04-14T08:20:45.000Z</time>
      </trkpt>
      <trkpt lat="48.63436" lon="2.4513">
        <ele>87</ele>
        <time>2013-04-14T08:20:46.000Z</time>
      </trkpt>
      <trkpt lat="48.63432" lon="2.45127">
        <ele>90</ele>
        <time>2013-04-14T08:20:50.000Z</time>
      </trkpt>
      <trkpt lat="48.63432" lon="2.45124">
        <ele>91</ele>
        <time>2013-04-14T08:20:51.000Z</time>
      </trkpt>
      <trkpt lat="48.63431" lon="2.45118">
        <ele>93</ele>
        <time>2013-04-14T08:20:56.000Z</time>
      </trkpt>
      <trkpt lat="48.6343" lon="2.45117">
        <ele>94</ele>
        <time>2013-04-14T08:20:57.000Z</time>
      </trkpt>
      <trkpt lat="48.63428" lon="2.45116">
        <ele>94</ele>
        <time>2013-04-14T08:20:58.000Z</time>
      </trkpt>
      <trkpt lat="48.63426" lon="2.45112">
        <ele>94</ele>
        <time>2013-04-14T08:20:59.000Z</time>
      </trkpt>
      <trkpt lat="48.63423" lon="2.45109">
        <ele>93</ele>
        <time>2013-04-14T08:21:01.000Z</time>
      </trkpt>
      <trkpt lat="48.63422" lon="2.45107">
        <ele>94</ele>
        <time>2013-04-14T08:21:02.000Z</time>
      </trkpt>
      <trkpt lat="48.63419" lon="2.45103">
        <ele>94</ele>
        <time>2013-04-14T08:21:05.000Z</time>
      </trkpt>
      <trkpt lat="48.63418" lon="2.45102">
        <ele>94</ele>
        <time>2013-04-14T08:21:06.000Z</time>
      </trkpt>
      <trkpt lat="48.63416" lon="2.45099">
        <ele>94</ele>
        <time>2013-04-14T08:21:08.000Z</time>
      </trkpt>
      <trkpt lat="48.63414" lon="2.45097">
        <ele>95</ele>
        <time>2013-04-14T08:21:09.000Z</time>
      </trkpt>
      <trkpt lat="48.63411" lon="2.45094">
        <ele>95</ele>
        <time>2013-04-14T08:21:12.000Z</time>
      </trkpt>
      <trkpt lat="48.6341" lon="2.45092">
        <ele>94</ele>
        <time>2013-04-14T08:21:13.000Z</time>
      </trkpt>
      <trkpt lat="48.63408" lon="2.45087">
        <ele>94</ele>
        <time>2013-04-14T08:21:18.000Z</time>
      </trkpt>
      <trkpt lat="48.63407" lon="2.45085">
        <ele>94</ele>
        <time>2013-04-14T08:21:19.000Z</time>
      </trkpt>
      <trkpt lat="48.63406" lon="2.45079">
        <ele>96</ele>
        <time>2013-04-14T08:21:23.000Z</time>
      </trkpt>
      <trkpt lat="48.63406" lon="2.45077">
        <ele>95</ele>
        <time>2013-04-14T08:21:24.000Z</time>
      </trkpt>
      <trkpt lat="48.63403" lon="2.45072">
        <ele>96</ele>
        <time>2013-04-14T08:21:27.000Z</time>
      </trkpt>
      <trkpt lat="48.63402" lon="2.4507">
        <ele>96</ele>
        <time>2013-04-14T08:21:28.000Z</time>
      </trkpt>
      <trkpt lat="48.634" lon="2.45068">
        <ele>97</ele>
        <time>2013-04-14T08:21:30.000Z</time>
      </trkpt>
      <trkpt lat="48.63399" lon="2.45064">
        <ele>96</ele>
        <time>2013-04-14T08:21:31.000Z</time>
      </trkpt>
      <trkpt lat="48.63396" lon="2.45061">
        <ele>97</ele>
        <time>2013-04-14T08:21:34.000Z</time>
      </trkpt>
      <trkpt lat="48.63395" lon="2.45058">
        <ele>97</ele>
        <time>2013-04-14T08:21:35.000Z</time>
      </trkpt>
      <trkpt lat="48.63392" lon="2.45055">
        <ele>97</ele>
        <time>2013-04-14T08:21:37.000Z</time>
      </trkpt>
      <trkpt lat="48.6339" lon="2.45054">
        <ele>98</ele>
        <time>2013-04-14T08:21:38.000Z</time>
      </trkpt>
      <trkpt lat="48.63388" lon="2.45049">
        <ele>98</ele>
        <time>2013-04-14T08:21:41.000Z</time>
      </trkpt>
      <trkpt lat="48.63386" lon="2.45047">
        <ele>98</ele>
        <time>2013-04-14T08:21:42.000Z</time>
      </trkpt>
      <trkpt lat="48.63384" lon="2.45042">
        <ele>98</ele>
        <time>2013-04-14T08:21:45.000Z</time>
      </trkpt>
      <trkpt lat="48.63382" lon="2.45041">
        <ele>98</ele>
        <time>2013-04-14T08:21:46.000Z</time>
      </trkpt>
      <trkpt lat="48.6338" lon="2.45036">
        <ele>97</ele>
        <time>2013-04-14T08:21:49.000Z</time>
      </trkpt>
      <trkpt lat="48.63379" lon="2.45034">
        <ele>97</ele>
        <time>2013-04-14T08:21:50.000Z</time>
      </trkpt>
      <trkpt lat="48.63375" lon="2.45032">
        <ele>97</ele>
        <time>2013-04-14T08:21:55.000Z</time>
      </trkpt>
      <trkpt lat="48.63374" lon="2.45032">
        <ele>97</ele>
        <time>2013-04-14T08:21:56.000Z</time>
      </trkpt>
      <trkpt lat="48.63373" lon="2.45026">
        <ele>97</ele>
        <time>2013-04-14T08:22:01.000Z</time>
      </trkpt>
      <trkpt lat="48.63373" lon="2.45025">
        <ele>97</ele>
        <time>2013-04-14T08:22:02.000Z</time>
      </trkpt>
      <trkpt lat="48.6337" lon="2.45021">
        <ele>97</ele>
        <time>2013-04-14T08:22:04.000Z</time>
      </trkpt>
      <trkpt lat="48.6337" lon="2.45018">
        <ele>97</ele>
        <time>2013-04-14T08:22:05.000Z</time>
      </trkpt>
      <trkpt lat="48.63368" lon="2.45014">
        <ele>96</ele>
        <time>2013-04-14T08:22:08.000Z</time>
      </trkpt>
      <trkpt lat="48.63366" lon="2.45011">
        <ele>97</ele>
        <time>2013-04-14T08:22:09.000Z</time>
      </trkpt>
      <trkpt lat="48.63365" lon="2.45006">
        <ele>97</ele>
        <time>2013-04-14T08:22:11.000Z</time>
      </trkpt>
      <trkpt lat="48.63363" lon="2.45005">
        <ele>98</ele>
        <time>2013-04-14T08:22:12.000Z</time>
      </trkpt>
      <trkpt lat="48.63363" lon="2.45002">
        <ele>98</ele>
        <time>2013-04-14T08:22:15.000Z</time>
      </trkpt>
      <trkpt lat="48.63361" lon="2.44998">
        <ele>98</ele>
        <time>2013-04-14T08:22:16.000Z</time>
      </trkpt>
      <trkpt lat="48.63357" lon="2.44995">
        <ele>98</ele>
        <time>2013-04-14T08:22:21.000Z</time>
      </trkpt>
      <trkpt lat="48.63357" lon="2.44993">
        <ele>99</ele>
        <time>2013-04-14T08:22:22.000Z</time>
      </trkpt>
      <trkpt lat="48.63359" lon="2.44988">
        <ele>97</ele>
        <time>2013-04-14T08:22:24.000Z</time>
      </trkpt>
      <trkpt lat="48.6336" lon="2.44987">
        <ele>96</ele>
        <time>2013-04-14T08:22:25.000Z</time>
      </trkpt>
      <trkpt lat="48.63362" lon="2.44983">
        <ele>93</ele>
        <time>2013-04-14T08:22:27.000Z</time>
      </trkpt>
      <trkpt lat="48.63363" lon="2.44981">
        <ele>93</ele>
        <time>2013-04-14T08:22:28.000Z</time>
      </trkpt>
      <trkpt lat="48.63361" lon="2.44976">
        <ele>92</ele>
        <time>2013-04-14T08:22:31.000Z</time>
      </trkpt>
      <trkpt lat="48.63361" lon="2.44974">
        <ele>92</ele>
        <time>2013-04-14T08:22:32.000Z</time>
      </trkpt>
      <trkpt lat="48.63358" lon="2.44971">
        <ele>92</ele>
        <time>2013-04-14T08:22:36.000Z</time>
      </trkpt>
      <trkpt lat="48.63357" lon="2.4497">
        <ele>92</ele>
        <time>2013-04-14T08:22:37.000Z</time>
      </trkpt>
      <trkpt lat="48.63353" lon="2.44967">
        <ele>96</ele>
        <time>2013-04-14T08:22:41.000Z</time>
      </trkpt>
      <trkpt lat="48.63352" lon="2.44967">
        <ele>96</ele>
        <time>2013-04-14T08:22:42.000Z</time>
      </trkpt>
      <trkpt lat="48.63349" lon="2.44962">
        <ele>98</ele>
        <time>2013-04-14T08:22:47.000Z</time>
      </trkpt>
      <trkpt lat="48.63349" lon="2.44961">
        <ele>99</ele>
        <time>2013-04-14T08:22:48.000Z</time>
      </trkpt>
      <trkpt lat="48.63345" lon="2.44956">
        <ele>102</ele>
        <time>2013-04-14T08:22:57.000Z</time>
      </trkpt>
      <trkpt lat="48.63345" lon="2.44956">
        <ele>102</ele>
        <time>2013-04-14T08:22:58.000Z</time>
      </trkpt>
      <trkpt lat="48.63344" lon="2.4495">
        <ele>103</ele>
        <time>2013-04-14T08:23:04.000Z</time>
      </trkpt>
      <trkpt lat="48.63341" lon="2.44946">
        <ele>104</ele>
        <time>2013-04-14T08:23:07.000Z</time>
      </trkpt>
      <trkpt lat="48.63337" lon="2.44943">
        <ele>104</ele>
        <time>2013-04-14T08:23:10.000Z</time>
      </trkpt>
      <trkpt lat="48.63336" lon="2.44941">
        <ele>104</ele>
        <time>2013-04-14T08:23:11.000Z</time>
      </trkpt>
      <trkpt lat="48.63335" lon="2.44936">
        <ele>104</ele>
        <time>2013-04-14T08:23:14.000Z</time>
      </trkpt>
      <trkpt lat="48.63332" lon="2.44933">
        <ele>104</ele>
        <time>2013-04-14T08:23:15.000Z</time>
      </trkpt>
      <trkpt lat="48.63329" lon="2.44931">
        <ele>103</ele>
        <time>2013-04-14T08:23:16.000Z</time>
      </trkpt>
      <trkpt lat="48.63328" lon="2.4493">
        <ele>104</ele>
        <time>2013-04-14T08:23:17.000Z</time>
      </trkpt>
      <trkpt lat="48.63326" lon="2.44925">
        <ele>104</ele>
        <time>2013-04-14T08:23:21.000Z</time>
      </trkpt>
      <trkpt lat="48.63326" lon="2.44924">
        <ele>105</ele>
        <time>2013-04-14T08:23:22.000Z</time>
      </trkpt>
      <trkpt lat="48.63323" lon="2.44921">
        <ele>106</ele>
        <time>2013-04-14T08:23:25.000Z</time>
      </trkpt>
      <trkpt lat="48.63322" lon="2.44919">
        <ele>106</ele>
        <time>2013-04-14T08:23:26.000Z</time>
      </trkpt>
      <trkpt lat="48.63321" lon="2.44918">
        <ele>106</ele>
        <time>2013-04-14T08:23:27.000Z</time>
      </trkpt>
      <trkpt lat="48.63319" lon="2.44914">
        <ele>107</ele>
        <time>2013-04-14T08:23:29.000Z</time>
      </trkpt>
      <trkpt lat="48.63317" lon="2.44909">
        <ele>109</ele>
        <time>2013-04-14T08:23:34.000Z</time>
      </trkpt>
      <trkpt lat="48.63316" lon="2.44908">
        <ele>109</ele>
        <time>2013-04-14T08:23:36.000Z</time>
      </trkpt>
      <trkpt lat="48.63313" lon="2.44904">
        <ele>112</ele>
        <time>2013-04-14T08:23:40.000Z</time>
      </trkpt>
      <trkpt lat="48.63312" lon="2.44902">
        <ele>111</ele>
        <time>2013-04-14T08:23:41.000Z</time>
      </trkpt>
      <trkpt lat="48.63309" lon="2.44899">
        <ele>109</ele>
        <time>2013-04-14T08:23:45.000Z</time>
      </trkpt>
      <trkpt lat="48.63308" lon="2.44897">
        <ele>109</ele>
        <time>2013-04-14T08:23:46.000Z</time>
      </trkpt>
      <trkpt lat="48.63305" lon="2.44896">
        <ele>109</ele>
        <time>2013-04-14T08:23:49.000Z</time>
      </trkpt>
      <trkpt lat="48.63304" lon="2.44895">
        <ele>109</ele>
        <time>2013-04-14T08:23:50.000Z</time>
      </trkpt>
      <trkpt lat="48.633" lon="2.44892">
        <ele>110</ele>
        <time>2013-04-14T08:23:56.000Z</time>
      </trkpt>
      <trkpt lat="48.63299" lon="2.44892">
        <ele>110</ele>
        <time>2013-04-14T08:23:57.000Z</time>
      </trkpt>
      <trkpt lat="48.63296" lon="2.44888">
        <ele>112</ele>
        <time>2013-04-14T08:24:02.000Z</time>
      </trkpt>
      <trkpt lat="48.63295" lon="2.44887">
        <ele>111</ele>
        <time>2013-04-14T08:24:03.000Z</time>
      </trkpt>
      <trkpt lat="48.63291" lon="2.44886">
        <ele>113</ele>
        <time>2013-04-14T08:24:07.000Z</time>
      </trkpt>
      <trkpt lat="48.6329" lon="2.44887">
        <ele>114</ele>
        <time>2013-04-14T08:24:08.000Z</time>
      </trkpt>
      <trkpt lat="48.63286" lon="2.44883">
        <ele>114</ele>
        <time>2013-04-14T08:24:10.000Z</time>
      </trkpt>
      <trkpt lat="48.63284" lon="2.44882">
        <ele>113</ele>
        <time>2013-04-14T08:24:11.000Z</time>
      </trkpt>
      <trkpt lat="48.63281" lon="2.44879">
        <ele>113</ele>
        <time>2013-04-14T08:24:13.000Z</time>
      </trkpt>
      <trkpt lat="48.63279" lon="2.44879">
        <ele>114</ele>
        <time>2013-04-14T08:24:14.000Z</time>
      </trkpt>
      <trkpt lat="48.63277" lon="2.44873">
        <ele>112</ele>
        <time>2013-04-14T08:24:18.000Z</time>
      </trkpt>
      <trkpt lat="48.63276" lon="2.44871">
        <ele>112</ele>
        <time>2013-04-14T08:24:19.000Z</time>
      </trkpt>
      <trkpt lat="48.63273" lon="2.44867">
        <ele>113</ele>
        <time>2013-04-14T08:24:22.000Z</time>
      </trkpt>
      <trkpt lat="48.63273" lon="2.44865">
        <ele>112</ele>
        <time>2013-04-14T08:24:23.000Z</time>
      </trkpt>
      <trkpt lat="48.63275" lon="2.4486">
        <ele>113</ele>
        <time>2013-04-14T08:24:25.000Z</time>
      </trkpt>
      <trkpt lat="48.63274" lon="2.44858">
        <ele>113</ele>
        <time>2013-04-14T08:24:26.000Z</time>
      </trkpt>
      <trkpt lat="48.63271" lon="2.44853">
        <ele>114</ele>
        <time>2013-04-14T08:24:30.000Z</time>
      </trkpt>
      <trkpt lat="48.6327" lon="2.44852">
        <ele>114</ele>
        <time>2013-04-14T08:24:31.000Z</time>
      </trkpt>
      <trkpt lat="48.63271" lon="2.44847">
        <ele>115</ele>
        <time>2013-04-14T08:24:34.000Z</time>
      </trkpt>
      <trkpt lat="48.6327" lon="2.44844">
        <ele>115</ele>
        <time>2013-04-14T08:24:35.000Z</time>
      </trkpt>
      <trkpt lat="48.63269" lon="2.44839">
        <ele>116</ele>
        <time>2013-04-14T08:24:38.000Z</time>
      </trkpt>
      <trkpt lat="48.63265" lon="2.44837">
        <ele>116</ele>
        <time>2013-04-14T08:24:40.000Z</time>
      </trkpt>
      <trkpt lat="48.63262" lon="2.44833">
        <ele>117</ele>
        <time>2013-04-14T08:24:44.000Z</time>
      </trkpt>
      <trkpt lat="48.63261" lon="2.4483">
        <ele>117</ele>
        <time>2013-04-14T08:24:45.000Z</time>
      </trkpt>
      <trkpt lat="48.63261" lon="2.44824">
        <ele>116</ele>
        <time>2013-04-14T08:24:50.000Z</time>
      </trkpt>
      <trkpt lat="48.63262" lon="2.44822">
        <ele>115</ele>
        <time>2013-04-14T08:24:51.000Z</time>
      </trkpt>
      <trkpt lat="48.63262" lon="2.44818">
        <ele>115</ele>
        <time>2013-04-14T08:24:58.000Z</time>
      </trkpt>
      <trkpt lat="48.6326" lon="2.44815">
        <ele>115</ele>
        <time>2013-04-14T08:24:59.000Z</time>
      </trkpt>
      <trkpt lat="48.63259" lon="2.44812">
        <ele>115</ele>
        <time>2013-04-14T08:25:03.000Z</time>
      </trkpt>
      <trkpt lat="48.63256" lon="2.4481">
        <ele>113</ele>
        <time>2013-04-14T08:25:04.000Z</time>
      </trkpt>
      <trkpt lat="48.63253" lon="2.44806">
        <ele>114</ele>
        <time>2013-04-14T08:25:06.000Z</time>
      </trkpt>
      <trkpt lat="48.63252" lon="2.44805">
        <ele>114</ele>
        <time>2013-04-14T08:25:07.000Z</time>
      </trkpt>
      <trkpt lat="48.63251" lon="2.44801">
        <ele>115</ele>
        <time>2013-04-14T08:25:09.000Z</time>
      </trkpt>
      <trkpt lat="48.63249" lon="2.44798">
        <ele>116</ele>
        <time>2013-04-14T08:25:10.000Z</time>
      </trkpt>
      <trkpt lat="48.63246" lon="2.44793">
        <ele>116</ele>
        <time>2013-04-14T08:25:13.000Z</time>
      </trkpt>
      <trkpt lat="48.63247" lon="2.44792">
        <ele>116</ele>
        <time>2013-04-14T08:25:14.000Z</time>
      </trkpt>
      <trkpt lat="48.63243" lon="2.44788">
        <ele>116</ele>
        <time>2013-04-14T08:25:19.000Z</time>
      </trkpt>
      <trkpt lat="48.63242" lon="2.44788">
        <ele>116</ele>
        <time>2013-04-14T08:25:20.000Z</time>
      </trkpt>
      <trkpt lat="48.63238" lon="2.44784">
        <ele>114</ele>
        <time>2013-04-14T08:25:23.000Z</time>
      </trkpt>
      <trkpt lat="48.63237" lon="2.44784">
        <ele>114</ele>
        <time>2013-04-14T08:25:24.000Z</time>
      </trkpt>
      <trkpt lat="48.63233" lon="2.44782">
        <ele>113</ele>
        <time>2013-04-14T08:25:28.000Z</time>
      </trkpt>
      <trkpt lat="48.63232" lon="2.44781">
        <ele>113</ele>
        <time>2013-04-14T08:25:29.000Z</time>
      </trkpt>
      <trkpt lat="48.6323" lon="2.44778">
        <ele>114</ele>
        <time>2013-04-14T08:25:33.000Z</time>
      </trkpt>
      <trkpt lat="48.63228" lon="2.44778">
        <ele>114</ele>
        <time>2013-04-14T08:25:34.000Z</time>
      </trkpt>
      <trkpt lat="48.63225" lon="2.44775">
        <ele>114</ele>
        <time>2013-04-14T08:25:38.000Z</time>
      </trkpt>
      <trkpt lat="48.63223" lon="2.44774">
        <ele>115</ele>
        <time>2013-04-14T08:25:39.000Z</time>
      </trkpt>
      <trkpt lat="48.63219" lon="2.44774">
        <ele>115</ele>
        <time>2013-04-14T08:25:43.000Z</time>
      </trkpt>
      <trkpt lat="48.63217" lon="2.44772">
        <ele>114</ele>
        <time>2013-04-14T08:25:44.000Z</time>
      </trkpt>
      <trkpt lat="48.63215" lon="2.44771">
        <ele>114</ele>
        <time>2013-04-14T08:25:47.000Z</time>
      </trkpt>
      <trkpt lat="48.63212" lon="2.44769">
        <ele>114</ele>
        <time>2013-04-14T08:25:48.000Z</time>
      </trkpt>
      <trkpt lat="48.63208" lon="2.44769">
        <ele>114</ele>
        <time>2013-04-14T08:25:51.000Z</time>
      </trkpt>
      <trkpt lat="48.63207" lon="2.44768">
        <ele>114</ele>
        <time>2013-04-14T08:25:52.000Z</time>
      </trkpt>
      <trkpt lat="48.63203" lon="2.44768">
        <ele>114</ele>
        <time>2013-04-14T08:25:55.000Z</time>
      </trkpt>
      <trkpt lat="48.63202" lon="2.44768">
        <ele>114</ele>
        <time>2013-04-14T08:25:56.000Z</time>
      </trkpt>
      <trkpt lat="48.63197" lon="2.44768">
        <ele>116</ele>
        <time>2013-04-14T08:26:01.000Z</time>
      </trkpt>
      <trkpt lat="48.63196" lon="2.44769">
        <ele>117</ele>
        <time>2013-04-14T08:26:02.000Z</time>
      </trkpt>
      <trkpt lat="48.63193" lon="2.44768">
        <ele>117</ele>
        <time>2013-04-14T08:26:06.000Z</time>
      </trkpt>
      <trkpt lat="48.63191" lon="2.44768">
        <ele>117</ele>
        <time>2013-04-14T08:26:07.000Z</time>
      </trkpt>
      <trkpt lat="48.63187" lon="2.44766">
        <ele>117</ele>
        <time>2013-04-14T08:26:10.000Z</time>
      </trkpt>
      <trkpt lat="48.63187" lon="2.44764">
        <ele>117</ele>
        <time>2013-04-14T08:26:11.000Z</time>
      </trkpt>
      <trkpt lat="48.63184" lon="2.44761">
        <ele>116</ele>
        <time>2013-04-14T08:26:14.000Z</time>
      </trkpt>
      <trkpt lat="48.63182" lon="2.44759">
        <ele>116</ele>
        <time>2013-04-14T08:26:15.000Z</time>
      </trkpt>
      <trkpt lat="48.63182" lon="2.44754">
        <ele>116</ele>
        <time>2013-04-14T08:26:19.000Z</time>
      </trkpt>
      <trkpt lat="48.63181" lon="2.44752">
        <ele>116</ele>
        <time>2013-04-14T08:26:20.000Z</time>
      </trkpt>
      <trkpt lat="48.63178" lon="2.4475">
        <ele>116</ele>
        <time>2013-04-14T08:26:24.000Z</time>
      </trkpt>
      <trkpt lat="48.63177" lon="2.44747">
        <ele>115</ele>
        <time>2013-04-14T08:26:25.000Z</time>
      </trkpt>
      <trkpt lat="48.63175" lon="2.44744">
        <ele>113</ele>
        <time>2013-04-14T08:26:28.000Z</time>
      </trkpt>
      <trkpt lat="48.63174" lon="2.44742">
        <ele>113</ele>
        <time>2013-04-14T08:26:29.000Z</time>
      </trkpt>
      <trkpt lat="48.63171" lon="2.44738">
        <ele>114</ele>
        <time>2013-04-14T08:26:32.000Z</time>
      </trkpt>
      <trkpt lat="48.63169" lon="2.44738">
        <ele>114</ele>
        <time>2013-04-14T08:26:33.000Z</time>
      </trkpt>
      <trkpt lat="48.63166" lon="2.44734">
        <ele>112</ele>
        <time>2013-04-14T08:26:38.000Z</time>
      </trkpt>
      <trkpt lat="48.63166" lon="2.44733">
        <ele>113</ele>
        <time>2013-04-14T08:26:39.000Z</time>
      </trkpt>
      <trkpt lat="48.63162" lon="2.44731">
        <ele>114</ele>
        <time>2013-04-14T08:26:42.000Z</time>
      </trkpt>
      <trkpt lat="48.63161" lon="2.4473">
        <ele>114</ele>
        <time>2013-04-14T08:26:43.000Z</time>
      </trkpt>
      <trkpt lat="48.63158" lon="2.44727">
        <ele>114</ele>
        <time>2013-04-14T08:26:46.000Z</time>
      </trkpt>
      <trkpt lat="48.63158" lon="2.44725">
        <ele>113</ele>
        <time>2013-04-14T08:26:47.000Z</time>
      </trkpt>
      <trkpt lat="48.63156" lon="2.4472">
        <ele>114</ele>
        <time>2013-04-14T08:26:50.000Z</time>
      </trkpt>
      <trkpt lat="48.63154" lon="2.44719">
        <ele>114</ele>
        <time>2013-04-14T08:26:51.000Z</time>
      </trkpt>
      <trkpt lat="48.63152" lon="2.44715">
        <ele>116</ele>
        <time>2013-04-14T08:26:55.000Z</time>
      </trkpt>
      <trkpt lat="48.63151" lon="2.44713">
        <ele>116</ele>
        <time>2013-04-14T08:26:56.000Z</time>
      </trkpt>
      <trkpt lat="48.63149" lon="2.44709">
        <ele>117</ele>
        <time>2013-04-14T08:26:59.000Z</time>
      </trkpt>
      <trkpt lat="48.63147" lon="2.44708">
        <ele>117</ele>
        <time>2013-04-14T08:27:00.000Z</time>
      </trkpt>
      <trkpt lat="48.63144" lon="2.44703">
        <ele>118</ele>
        <time>2013-04-14T08:27:04.000Z</time>
      </trkpt>
      <trkpt lat="48.63143" lon="2.44702">
        <ele>118</ele>
        <time>2013-04-14T08:27:05.000Z</time>
      </trkpt>
      <trkpt lat="48.63139" lon="2.44698">
        <ele>118</ele>
        <time>2013-04-14T08:27:09.000Z</time>
      </trkpt>
      <trkpt lat="48.63139" lon="2.44697">
        <ele>118</ele>
        <time>2013-04-14T08:27:10.000Z</time>
      </trkpt>
      <trkpt lat="48.63136" lon="2.44693">
        <ele>119</ele>
        <time>2013-04-14T08:27:14.000Z</time>
      </trkpt>
      <trkpt lat="48.63135" lon="2.44691">
        <ele>120</ele>
        <time>2013-04-14T08:27:15.000Z</time>
      </trkpt>
      <trkpt lat="48.63131" lon="2.44689">
        <ele>121</ele>
        <time>2013-04-14T08:27:18.000Z</time>
      </trkpt>
      <trkpt lat="48.6313" lon="2.44688">
        <ele>121</ele>
        <time>2013-04-14T08:27:19.000Z</time>
      </trkpt>
      <trkpt lat="48.63127" lon="2.44684">
        <ele>120</ele>
        <time>2013-04-14T08:27:23.000Z</time>
      </trkpt>
      <trkpt lat="48.63126" lon="2.44683">
        <ele>120</ele>
        <time>2013-04-14T08:27:24.000Z</time>
      </trkpt>
      <trkpt lat="48.63123" lon="2.44678">
        <ele>121</ele>
        <time>2013-04-14T08:27:28.000Z</time>
      </trkpt>
      <trkpt lat="48.63122" lon="2.44677">
        <ele>122</ele>
        <time>2013-04-14T08:27:29.000Z</time>
      </trkpt>
      <trkpt lat="48.6312" lon="2.44674">
        <ele>121</ele>
        <time>2013-04-14T08:27:32.000Z</time>
      </trkpt>
      <trkpt lat="48.63118" lon="2.44672">
        <ele>121</ele>
        <time>2013-04-14T08:27:34.000Z</time>
      </trkpt>
      <trkpt lat="48.63115" lon="2.44668">
        <ele>122</ele>
        <time>2013-04-14T08:27:38.000Z</time>
      </trkpt>
      <trkpt lat="48.63114" lon="2.44667">
        <ele>122</ele>
        <time>2013-04-14T08:27:39.000Z</time>
      </trkpt>
      <trkpt lat="48.63112" lon="2.44662">
        <ele>124</ele>
        <time>2013-04-14T08:27:43.000Z</time>
      </trkpt>
      <trkpt lat="48.63111" lon="2.4466">
        <ele>124</ele>
        <time>2013-04-14T08:27:44.000Z</time>
      </trkpt>
      <trkpt lat="48.63108" lon="2.44656">
        <ele>123</ele>
        <time>2013-04-14T08:27:47.000Z</time>
      </trkpt>
      <trkpt lat="48.63108" lon="2.44655">
        <ele>123</ele>
        <time>2013-04-14T08:27:48.000Z</time>
      </trkpt>
      <trkpt lat="48.63106" lon="2.44649">
        <ele>124</ele>
        <time>2013-04-14T08:27:52.000Z</time>
      </trkpt>
      <trkpt lat="48.63105" lon="2.44649">
        <ele>124</ele>
        <time>2013-04-14T08:27:53.000Z</time>
      </trkpt>
      <trkpt lat="48.63104" lon="2.44644">
        <ele>124</ele>
        <time>2013-04-14T08:27:56.000Z</time>
      </trkpt>
      <trkpt lat="48.63102" lon="2.44643">
        <ele>124</ele>
        <time>2013-04-14T08:27:57.000Z</time>
      </trkpt>
      <trkpt lat="48.63101" lon="2.44638">
        <ele>124</ele>
        <time>2013-04-14T08:28:00.000Z</time>
      </trkpt>
      <trkpt lat="48.631" lon="2.44637">
        <ele>124</ele>
        <time>2013-04-14T08:28:01.000Z</time>
      </trkpt>
      <trkpt lat="48.63097" lon="2.44631">
        <ele>124</ele>
        <time>2013-04-14T08:28:05.000Z</time>
      </trkpt>
      <trkpt lat="48.63096" lon="2.4463">
        <ele>124</ele>
        <time>2013-04-14T08:28:06.000Z</time>
      </trkpt>
      <trkpt lat="48.63094" lon="2.44626">
        <ele>124</ele>
        <time>2013-04-14T08:28:09.000Z</time>
      </trkpt>
      <trkpt lat="48.63094" lon="2.44624">
        <ele>123</ele>
        <time>2013-04-14T08:28:10.000Z</time>
      </trkpt>
      <trkpt lat="48.63091" lon="2.44619">
        <ele>123</ele>
        <time>2013-04-14T08:28:14.000Z</time>
      </trkpt>
      <trkpt lat="48.63091" lon="2.44617">
        <ele>124</ele>
        <time>2013-04-14T08:28:15.000Z</time>
      </trkpt>
      <trkpt lat="48.63088" lon="2.44614">
        <ele>124</ele>
        <time>2013-04-14T08:28:19.000Z</time>
      </trkpt>
      <trkpt lat="48.63087" lon="2.44613">
        <ele>124</ele>
        <time>2013-04-14T08:28:20.000Z</time>
      </trkpt>
      <trkpt lat="48.63086" lon="2.4461">
        <ele>124</ele>
        <time>2013-04-14T08:28:21.000Z</time>
      </trkpt>
      <trkpt lat="48.63084" lon="2.44607">
        <ele>124</ele>
        <time>2013-04-14T08:28:23.000Z</time>
      </trkpt>
      <trkpt lat="48.63081" lon="2.44602">
        <ele>124</ele>
        <time>2013-04-14T08:28:25.000Z</time>
      </trkpt>
      <trkpt lat="48.63079" lon="2.446">
        <ele>123</ele>
        <time>2013-04-14T08:28:26.000Z</time>
      </trkpt>
      <trkpt lat="48.63077" lon="2.44595">
        <ele>124</ele>
        <time>2013-04-14T08:28:30.000Z</time>
      </trkpt>
      <trkpt lat="48.63075" lon="2.44593">
        <ele>124</ele>
        <time>2013-04-14T08:28:32.000Z</time>
      </trkpt>
      <trkpt lat="48.63073" lon="2.4459">
        <ele>123</ele>
        <time>2013-04-14T08:28:34.000Z</time>
      </trkpt>
      <trkpt lat="48.63071" lon="2.44586">
        <ele>123</ele>
        <time>2013-04-14T08:28:36.000Z</time>
      </trkpt>
      <trkpt lat="48.6307" lon="2.44582">
        <ele>122</ele>
        <time>2013-04-14T08:28:39.000Z</time>
      </trkpt>
      <trkpt lat="48.6307" lon="2.4458">
        <ele>122</ele>
        <time>2013-04-14T08:28:40.000Z</time>
      </trkpt>
      <trkpt lat="48.63069" lon="2.44575">
        <ele>121</ele>
        <time>2013-04-14T08:28:43.000Z</time>
      </trkpt>
      <trkpt lat="48.63068" lon="2.44573">
        <ele>121</ele>
        <time>2013-04-14T08:28:44.000Z</time>
      </trkpt>
      <trkpt lat="48.63066" lon="2.44568">
        <ele>121</ele>
        <time>2013-04-14T08:28:47.000Z</time>
      </trkpt>
      <trkpt lat="48.63066" lon="2.44567">
        <ele>121</ele>
        <time>2013-04-14T08:28:48.000Z</time>
      </trkpt>
      <trkpt lat="48.63064" lon="2.44561">
        <ele>121</ele>
        <time>2013-04-14T08:28:51.000Z</time>
      </trkpt>
      <trkpt lat="48.63064" lon="2.4456">
        <ele>122</ele>
        <time>2013-04-14T08:28:52.000Z</time>
      </trkpt>
      <trkpt lat="48.63063" lon="2.44556">
        <ele>120</ele>
        <time>2013-04-14T08:28:55.000Z</time>
      </trkpt>
      <trkpt lat="48.63062" lon="2.44554">
        <ele>120</ele>
        <time>2013-04-14T08:28:56.000Z</time>
      </trkpt>
      <trkpt lat="48.63061" lon="2.44548">
        <ele>122</ele>
        <time>2013-04-14T08:28:59.000Z</time>
      </trkpt>
      <trkpt lat="48.6306" lon="2.44546">
        <ele>123</ele>
        <time>2013-04-14T08:29:00.000Z</time>
      </trkpt>
      <trkpt lat="48.63058" lon="2.44541">
        <ele>122</ele>
        <time>2013-04-14T08:29:03.000Z</time>
      </trkpt>
      <trkpt lat="48.63058" lon="2.44539">
        <ele>122</ele>
        <time>2013-04-14T08:29:04.000Z</time>
      </trkpt>
      <trkpt lat="48.63057" lon="2.44534">
        <ele>122</ele>
        <time>2013-04-14T08:29:07.000Z</time>
      </trkpt>
      <trkpt lat="48.63056" lon="2.44532">
        <ele>122</ele>
        <time>2013-04-14T08:29:08.000Z</time>
      </trkpt>
      <trkpt lat="48.63055" lon="2.44528">
        <ele>122</ele>
        <time>2013-04-14T08:29:11.000Z</time>
      </trkpt>
      <trkpt lat="48.63055" lon="2.44525">
        <ele>122</ele>
        <time>2013-04-14T08:29:12.000Z</time>
      </trkpt>
      <trkpt lat="48.63053" lon="2.4452">
        <ele>122</ele>
        <time>2013-04-14T08:29:15.000Z</time>
      </trkpt>
      <trkpt lat="48.63053" lon="2.44518">
        <ele>122</ele>
        <time>2013-04-14T08:29:16.000Z</time>
      </trkpt>
      <trkpt lat="48.6305" lon="2.44512">
        <ele>122</ele>
        <time>2013-04-14T08:29:19.000Z</time>
      </trkpt>
      <trkpt lat="48.6305" lon="2.44511">
        <ele>122</ele>
        <time>2013-04-14T08:29:20.000Z</time>
      </trkpt>
      <trkpt lat="48.63049" lon="2.44505">
        <ele>122</ele>
        <time>2013-04-14T08:29:24.000Z</time>
      </trkpt>
      <trkpt lat="48.63049" lon="2.44504">
        <ele>122</ele>
        <time>2013-04-14T08:29:25.000Z</time>
      </trkpt>
      <trkpt lat="48.63046" lon="2.44499">
        <ele>122</ele>
        <time>2013-04-14T08:29:28.000Z</time>
      </trkpt>
      <trkpt lat="48.63045" lon="2.44498">
        <ele>124</ele>
        <time>2013-04-14T08:29:29.000Z</time>
      </trkpt>
      <trkpt lat="48.63042" lon="2.44493">
        <ele>125</ele>
        <time>2013-04-14T08:29:33.000Z</time>
      </trkpt>
      <trkpt lat="48.63041" lon="2.44491">
        <ele>125</ele>
        <time>2013-04-14T08:29:34.000Z</time>
      </trkpt>
      <trkpt lat="48.63041" lon="2.44487">
        <ele>124</ele>
        <time>2013-04-14T08:29:37.000Z</time>
      </trkpt>
      <trkpt lat="48.6304" lon="2.44484">
        <ele>124</ele>
        <time>2013-04-14T08:29:38.000Z</time>
      </trkpt>
      <trkpt lat="48.63039" lon="2.4448">
        <ele>124</ele>
        <time>2013-04-14T08:29:41.000Z</time>
      </trkpt>
      <trkpt lat="48.63039" lon="2.44477">
        <ele>124</ele>
        <time>2013-04-14T08:29:42.000Z</time>
      </trkpt>
      <trkpt lat="48.63038" lon="2.44472">
        <ele>124</ele>
        <time>2013-04-14T08:29:45.000Z</time>
      </trkpt>
      <trkpt lat="48.63037" lon="2.44469">
        <ele>124</ele>
        <time>2013-04-14T08:29:46.000Z</time>
      </trkpt>
      <trkpt lat="48.63035" lon="2.44464">
        <ele>125</ele>
        <time>2013-04-14T08:29:48.000Z</time>
      </trkpt>
      <trkpt lat="48.63036" lon="2.44462">
        <ele>125</ele>
        <time>2013-04-14T08:29:49.000Z</time>
      </trkpt>
      <trkpt lat="48.63036" lon="2.44457">
        <ele>125</ele>
        <time>2013-04-14T08:29:52.000Z</time>
      </trkpt>
      <trkpt lat="48.63035" lon="2.44455">
        <ele>124</ele>
        <time>2013-04-14T08:29:53.000Z</time>
      </trkpt>
      <trkpt lat="48.63034" lon="2.4445">
        <ele>125</ele>
        <time>2013-04-14T08:29:56.000Z</time>
      </trkpt>
      <trkpt lat="48.63032" lon="2.44448">
        <ele>126</ele>
        <time>2013-04-14T08:29:57.000Z</time>
      </trkpt>
      <trkpt lat="48.6303" lon="2.44443">
        <ele>128</ele>
        <time>2013-04-14T08:30:00.000Z</time>
      </trkpt>
      <trkpt lat="48.6303" lon="2.44442">
        <ele>128</ele>
        <time>2013-04-14T08:30:01.000Z</time>
      </trkpt>
      <trkpt lat="48.63028" lon="2.44436">
        <ele>128</ele>
        <time>2013-04-14T08:30:05.000Z</time>
      </trkpt>
      <trkpt lat="48.63028" lon="2.44434">
        <ele>128</ele>
        <time>2013-04-14T08:30:06.000Z</time>
      </trkpt>
      <trkpt lat="48.63027" lon="2.44429">
        <ele>128</ele>
        <time>2013-04-14T08:30:09.000Z</time>
      </trkpt>
      <trkpt lat="48.63026" lon="2.44428">
        <ele>128</ele>
        <time>2013-04-14T08:30:10.000Z</time>
      </trkpt>
      <trkpt lat="48.63022" lon="2.44424">
        <ele>127</ele>
        <time>2013-04-14T08:30:14.000Z</time>
      </trkpt>
      <trkpt lat="48.63021" lon="2.44423">
        <ele>127</ele>
        <time>2013-04-14T08:30:15.000Z</time>
      </trkpt>
      <trkpt lat="48.63018" lon="2.4442">
        <ele>128</ele>
        <time>2013-04-14T08:30:18.000Z</time>
      </trkpt>
      <trkpt lat="48.63017" lon="2.44419">
        <ele>128</ele>
        <time>2013-04-14T08:30:19.000Z</time>
      </trkpt>
      <trkpt lat="48.63014" lon="2.44415">
        <ele>128</ele>
        <time>2013-04-14T08:30:23.000Z</time>
      </trkpt>
      <trkpt lat="48.63014" lon="2.44411">
        <ele>128</ele>
        <time>2013-04-14T08:30:24.000Z</time>
      </trkpt>
      <trkpt lat="48.63014" lon="2.44405">
        <ele>127</ele>
        <time>2013-04-14T08:30:27.000Z</time>
      </trkpt>
      <trkpt lat="48.63013" lon="2.44403">
        <ele>128</ele>
        <time>2013-04-14T08:30:28.000Z</time>
      </trkpt>
      <trkpt lat="48.63011" lon="2.44398">
        <ele>129</ele>
        <time>2013-04-14T08:30:31.000Z</time>
      </trkpt>
      <trkpt lat="48.6301" lon="2.44397">
        <ele>130</ele>
        <time>2013-04-14T08:30:32.000Z</time>
      </trkpt>
      <trkpt lat="48.63009" lon="2.44391">
        <ele>129</ele>
        <time>2013-04-14T08:30:35.000Z</time>
      </trkpt>
      <trkpt lat="48.63008" lon="2.44389">
        <ele>128</ele>
        <time>2013-04-14T08:30:36.000Z</time>
      </trkpt>
      <trkpt lat="48.63005" lon="2.44384">
        <ele>131</ele>
        <time>2013-04-14T08:30:39.000Z</time>
      </trkpt>
      <trkpt lat="48.63005" lon="2.44383">
        <ele>131</ele>
        <time>2013-04-14T08:30:40.000Z</time>
      </trkpt>
      <trkpt lat="48.63002" lon="2.44381">
        <ele>132</ele>
        <time>2013-04-14T08:30:42.000Z</time>
      </trkpt>
      <trkpt lat="48.63001" lon="2.44379">
        <ele>132</ele>
        <time>2013-04-14T08:30:43.000Z</time>
      </trkpt>
      <trkpt lat="48.62997" lon="2.44377">
        <ele>132</ele>
        <time>2013-04-14T08:30:46.000Z</time>
      </trkpt>
      <trkpt lat="48.62996" lon="2.44377">
        <ele>132</ele>
        <time>2013-04-14T08:30:47.000Z</time>
      </trkpt>
      <trkpt lat="48.62991" lon="2.44376">
        <ele>130</ele>
        <time>2013-04-14T08:30:51.000Z</time>
      </trkpt>
      <trkpt lat="48.6299" lon="2.44376">
        <ele>130</ele>
        <time>2013-04-14T08:30:52.000Z</time>
      </trkpt>
      <trkpt lat="48.62986" lon="2.44377">
        <ele>131</ele>
        <time>2013-04-14T08:30:55.000Z</time>
      </trkpt>
      <trkpt lat="48.62985" lon="2.44378">
        <ele>130</ele>
        <time>2013-04-14T08:30:56.000Z</time>
      </trkpt>
      <trkpt lat="48.62981" lon="2.44377">
        <ele>129</ele>
        <time>2013-04-14T08:30:59.000Z</time>
      </trkpt>
      <trkpt lat="48.6298" lon="2.44376">
        <ele>129</ele>
        <time>2013-04-14T08:31:00.000Z</time>
      </trkpt>
      <trkpt lat="48.62976" lon="2.44373">
        <ele>126</ele>
        <time>2013-04-14T08:31:04.000Z</time>
      </trkpt>
      <trkpt lat="48.62976" lon="2.44372">
        <ele>126</ele>
        <time>2013-04-14T08:31:05.000Z</time>
      </trkpt>
      <trkpt lat="48.62975" lon="2.44366">
        <ele>125</ele>
        <time>2013-04-14T08:31:08.000Z</time>
      </trkpt>
      <trkpt lat="48.62976" lon="2.44364">
        <ele>124</ele>
        <time>2013-04-14T08:31:09.000Z</time>
      </trkpt>
      <trkpt lat="48.62978" lon="2.44361">
        <ele>124</ele>
        <time>2013-04-14T08:31:11.000Z</time>
      </trkpt>
      <trkpt lat="48.6298" lon="2.44358">
        <ele>123</ele>
        <time>2013-04-14T08:31:12.000Z</time>
      </trkpt>
      <trkpt lat="48.62982" lon="2.44355">
        <ele>121</ele>
        <time>2013-04-14T08:31:15.000Z</time>
      </trkpt>
      <trkpt lat="48.62983" lon="2.44353">
        <ele>121</ele>
        <time>2013-04-14T08:31:16.000Z</time>
      </trkpt>
      <trkpt lat="48.62984" lon="2.44348">
        <ele>120</ele>
        <time>2013-04-14T08:31:19.000Z</time>
      </trkpt>
      <trkpt lat="48.62985" lon="2.44345">
        <ele>120</ele>
        <time>2013-04-14T08:31:20.000Z</time>
      </trkpt>
      <trkpt lat="48.62986" lon="2.44342">
        <ele>121</ele>
        <time>2013-04-14T08:31:22.000Z</time>
      </trkpt>
      <trkpt lat="48.62987" lon="2.44339">
        <ele>120</ele>
        <time>2013-04-14T08:31:23.000Z</time>
      </trkpt>
      <trkpt lat="48.62987" lon="2.44335">
        <ele>121</ele>
        <time>2013-04-14T08:31:25.000Z</time>
      </trkpt>
      <trkpt lat="48.62987" lon="2.44332">
        <ele>121</ele>
        <time>2013-04-14T08:31:26.000Z</time>
      </trkpt>
      <trkpt lat="48.62988" lon="2.44327">
        <ele>121</ele>
        <time>2013-04-14T08:31:28.000Z</time>
      </trkpt>
      <trkpt lat="48.62988" lon="2.44325">
        <ele>121</ele>
        <time>2013-04-14T08:31:29.000Z</time>
      </trkpt>
      <trkpt lat="48.62989" lon="2.4432">
        <ele>121</ele>
        <time>2013-04-14T08:31:31.000Z</time>
      </trkpt>
      <trkpt lat="48.62989" lon="2.44317">
        <ele>122</ele>
        <time>2013-04-14T08:31:32.000Z</time>
      </trkpt>
      <trkpt lat="48.6299" lon="2.44311">
        <ele>122</ele>
        <time>2013-04-14T08:31:35.000Z</time>
      </trkpt>
      <trkpt lat="48.62989" lon="2.44308">
        <ele>122</ele>
        <time>2013-04-14T08:31:36.000Z</time>
      </trkpt>
      <trkpt lat="48.6299" lon="2.44303">
        <ele>121</ele>
        <time>2013-04-14T08:31:39.000Z</time>
      </trkpt>
      <trkpt lat="48.6299" lon="2.44299">
        <ele>120</ele>
        <time>2013-04-14T08:31:40.000Z</time>
      </trkpt>
      <trkpt lat="48.62991" lon="2.44294">
        <ele>121</ele>
        <time>2013-04-14T08:31:43.000Z</time>
      </trkpt>
      <trkpt lat="48.62992" lon="2.44293">
        <ele>120</ele>
        <time>2013-04-14T08:31:44.000Z</time>
      </trkpt>
      <trkpt lat="48.62992" lon="2.44286">
        <ele>119</ele>
        <time>2013-04-14T08:31:47.000Z</time>
      </trkpt>
      <trkpt lat="48.62993" lon="2.44284">
        <ele>119</ele>
        <time>2013-04-14T08:31:48.000Z</time>
      </trkpt>
      <trkpt lat="48.62994" lon="2.44278">
        <ele>120</ele>
        <time>2013-04-14T08:31:52.000Z</time>
      </trkpt>
      <trkpt lat="48.62992" lon="2.44276">
        <ele>120</ele>
        <time>2013-04-14T08:31:53.000Z</time>
      </trkpt>
      <trkpt lat="48.62992" lon="2.4427">
        <ele>119</ele>
        <time>2013-04-14T08:31:57.000Z</time>
      </trkpt>
      <trkpt lat="48.62992" lon="2.44269">
        <ele>119</ele>
        <time>2013-04-14T08:31:58.000Z</time>
      </trkpt>
      <trkpt lat="48.62993" lon="2.44264">
        <ele>119</ele>
        <time>2013-04-14T08:32:01.000Z</time>
      </trkpt>
      <trkpt lat="48.62993" lon="2.44261">
        <ele>119</ele>
        <time>2013-04-14T08:32:02.000Z</time>
      </trkpt>
      <trkpt lat="48.62991" lon="2.44256">
        <ele>118</ele>
        <time>2013-04-14T08:32:05.000Z</time>
      </trkpt>
      <trkpt lat="48.62991" lon="2.44255">
        <ele>119</ele>
        <time>2013-04-14T08:32:06.000Z</time>
      </trkpt>
      <trkpt lat="48.62989" lon="2.44251">
        <ele>119</ele>
        <time>2013-04-14T08:32:10.000Z</time>
      </trkpt>
      <trkpt lat="48.62987" lon="2.44248">
        <ele>119</ele>
        <time>2013-04-14T08:32:11.000Z</time>
      </trkpt>
      <trkpt lat="48.62983" lon="2.44244">
        <ele>120</ele>
        <time>2013-04-14T08:32:16.000Z</time>
      </trkpt>
      <trkpt lat="48.62983" lon="2.44243">
        <ele>120</ele>
        <time>2013-04-14T08:32:17.000Z</time>
      </trkpt>
      <trkpt lat="48.62985" lon="2.44243">
        <ele>119</ele>
        <time>2013-04-14T08:32:35.000Z</time>
      </trkpt>
      <trkpt lat="48.62988" lon="2.44242">
        <ele>120</ele>
        <time>2013-04-14T08:32:36.000Z</time>
      </trkpt>
      <trkpt lat="48.62985" lon="2.44239">
        <ele>122</ele>
        <time>2013-04-14T08:33:25.000Z</time>
      </trkpt>
      <trkpt lat="48.62983" lon="2.44239">
        <ele>122</ele>
        <time>2013-04-14T08:33:26.000Z</time>
      </trkpt>
      <trkpt lat="48.62982" lon="2.44234">
        <ele>122</ele>
        <time>2013-04-14T08:33:30.000Z</time>
      </trkpt>
      <trkpt lat="48.62981" lon="2.44232">
        <ele>123</ele>
        <time>2013-04-14T08:33:31.000Z</time>
      </trkpt>
      <trkpt lat="48.62979" lon="2.44226">
        <ele>122</ele>
        <time>2013-04-14T08:33:34.000Z</time>
      </trkpt>
      <trkpt lat="48.62978" lon="2.44225">
        <ele>123</ele>
        <time>2013-04-14T08:33:35.000Z</time>
      </trkpt>
      <trkpt lat="48.62974" lon="2.44223">
        <ele>123</ele>
        <time>2013-04-14T08:33:38.000Z</time>
      </trkpt>
      <trkpt lat="48.62974" lon="2.44223">
        <ele>123</ele>
        <time>2013-04-14T08:33:39.000Z</time>
      </trkpt>
      <trkpt lat="48.6297" lon="2.4422">
        <ele>125</ele>
        <time>2013-04-14T08:33:45.000Z</time>
      </trkpt>
      <trkpt lat="48.62968" lon="2.44219">
        <ele>124</ele>
        <time>2013-04-14T08:33:46.000Z</time>
      </trkpt>
      <trkpt lat="48.62964" lon="2.44216">
        <ele>124</ele>
        <time>2013-04-14T08:33:50.000Z</time>
      </trkpt>
      <trkpt lat="48.62963" lon="2.44216">
        <ele>124</ele>
        <time>2013-04-14T08:33:51.000Z</time>
      </trkpt>
      <trkpt lat="48.62959" lon="2.44217">
        <ele>124</ele>
        <time>2013-04-14T08:33:57.000Z</time>
      </trkpt>
      <trkpt lat="48.62958" lon="2.44216">
        <ele>125</ele>
        <time>2013-04-14T08:33:58.000Z</time>
      </trkpt>
      <trkpt lat="48.62954" lon="2.44212">
        <ele>124</ele>
        <time>2013-04-14T08:34:03.000Z</time>
      </trkpt>
      <trkpt lat="48.62954" lon="2.44212">
        <ele>125</ele>
        <time>2013-04-14T08:34:04.000Z</time>
      </trkpt>
      <trkpt lat="48.62951" lon="2.44214">
        <ele>126</ele>
        <time>2013-04-14T08:34:07.000Z</time>
      </trkpt>
      <trkpt lat="48.6295" lon="2.44215">
        <ele>125</ele>
        <time>2013-04-14T08:34:08.000Z</time>
      </trkpt>
      <trkpt lat="48.62945" lon="2.44212">
        <ele>126</ele>
        <time>2013-04-14T08:34:13.000Z</time>
      </trkpt>
      <trkpt lat="48.62944" lon="2.44211">
        <ele>126</ele>
        <time>2013-04-14T08:34:14.000Z</time>
      </trkpt>
      <trkpt lat="48.6294" lon="2.44211">
        <ele>127</ele>
        <time>2013-04-14T08:34:19.000Z</time>
      </trkpt>
      <trkpt lat="48.62938" lon="2.4421">
        <ele>127</ele>
        <time>2013-04-14T08:34:20.000Z</time>
      </trkpt>
      <trkpt lat="48.62935" lon="2.44211">
        <ele>128</ele>
        <time>2013-04-14T08:34:24.000Z</time>
      </trkpt>
      <trkpt lat="48.62933" lon="2.44211">
        <ele>128</ele>
        <time>2013-04-14T08:34:25.000Z</time>
      </trkpt>
      <trkpt lat="48.62929" lon="2.44212">
        <ele>130</ele>
        <time>2013-04-14T08:34:30.000Z</time>
      </trkpt>
      <trkpt lat="48.62928" lon="2.44213">
        <ele>130</ele>
        <time>2013-04-14T08:34:31.000Z</time>
      </trkpt>
      <trkpt lat="48.62924" lon="2.44214">
        <ele>131</ele>
        <time>2013-04-14T08:34:36.000Z</time>
      </trkpt>
      <trkpt lat="48.62923" lon="2.44214">
        <ele>131</ele>
        <time>2013-04-14T08:34:37.000Z</time>
      </trkpt>
      <trkpt lat="48.6292" lon="2.44217">
        <ele>130</ele>
        <time>2013-04-14T08:34:40.000Z</time>
      </trkpt>
      <trkpt lat="48.62918" lon="2.44217">
        <ele>130</ele>
        <time>2013-04-14T08:34:41.000Z</time>
      </trkpt>
      <trkpt lat="48.62915" lon="2.44222">
        <ele>130</ele>
        <time>2013-04-14T08:34:46.000Z</time>
      </trkpt>
      <trkpt lat="48.62915" lon="2.44221">
        <ele>130</ele>
        <time>2013-04-14T08:34:47.000Z</time>
      </trkpt>
      <trkpt lat="48.62913" lon="2.44215">
        <ele>130</ele>
        <time>2013-04-14T08:34:53.000Z</time>
      </trkpt>
      <trkpt lat="48.62911" lon="2.44214">
        <ele>131</ele>
        <time>2013-04-14T08:34:54.000Z</time>
      </trkpt>
      <trkpt lat="48.62909" lon="2.44209">
        <ele>131</ele>
        <time>2013-04-14T08:34:57.000Z</time>
      </trkpt>
      <trkpt lat="48.62907" lon="2.44208">
        <ele>131</ele>
        <time>2013-04-14T08:34:58.000Z</time>
      </trkpt>
      <trkpt lat="48.62903" lon="2.44204">
        <ele>131</ele>
        <time>2013-04-14T08:35:01.000Z</time>
      </trkpt>
      <trkpt lat="48.62901" lon="2.44204">
        <ele>131</ele>
        <time>2013-04-14T08:35:02.000Z</time>
      </trkpt>
      <trkpt lat="48.62899" lon="2.44201">
        <ele>130</ele>
        <time>2013-04-14T08:35:05.000Z</time>
      </trkpt>
      <trkpt lat="48.62898" lon="2.44199">
        <ele>130</ele>
        <time>2013-04-14T08:35:06.000Z</time>
      </trkpt>
      <trkpt lat="48.62896" lon="2.44193">
        <ele>130</ele>
        <time>2013-04-14T08:35:10.000Z</time>
      </trkpt>
      <trkpt lat="48.62896" lon="2.44192">
        <ele>130</ele>
        <time>2013-04-14T08:35:11.000Z</time>
      </trkpt>
      <trkpt lat="48.62893" lon="2.4419">
        <ele>129</ele>
        <time>2013-04-14T08:35:14.000Z</time>
      </trkpt>
      <trkpt lat="48.62891" lon="2.44188">
        <ele>129</ele>
        <time>2013-04-14T08:35:15.000Z</time>
      </trkpt>
      <trkpt lat="48.62887" lon="2.44187">
        <ele>130</ele>
        <time>2013-04-14T08:35:18.000Z</time>
      </trkpt>
      <trkpt lat="48.62886" lon="2.44187">
        <ele>130</ele>
        <time>2013-04-14T08:35:19.000Z</time>
      </trkpt>
      <trkpt lat="48.62882" lon="2.44189">
        <ele>129</ele>
        <time>2013-04-14T08:35:24.000Z</time>
      </trkpt>
      <trkpt lat="48.6288" lon="2.44189">
        <ele>129</ele>
        <time>2013-04-14T08:35:25.000Z</time>
      </trkpt>
      <trkpt lat="48.62878" lon="2.44189">
        <ele>129</ele>
        <time>2013-04-14T08:35:28.000Z</time>
      </trkpt>
      <trkpt lat="48.62876" lon="2.44189">
        <ele>129</ele>
        <time>2013-04-14T08:35:30.000Z</time>
      </trkpt>
      <trkpt lat="48.62873" lon="2.44184">
        <ele>127</ele>
        <time>2013-04-14T08:35:33.000Z</time>
      </trkpt>
      <trkpt lat="48.62873" lon="2.44182">
        <ele>127</ele>
        <time>2013-04-14T08:35:34.000Z</time>
      </trkpt>
      <trkpt lat="48.6287" lon="2.44177">
        <ele>127</ele>
        <time>2013-04-14T08:35:39.000Z</time>
      </trkpt>
      <trkpt lat="48.6287" lon="2.44175">
        <ele>127</ele>
        <time>2013-04-14T08:35:40.000Z</time>
      </trkpt>
      <trkpt lat="48.62867" lon="2.44171">
        <ele>126</ele>
        <time>2013-04-14T08:35:43.000Z</time>
      </trkpt>
      <trkpt lat="48.62866" lon="2.44169">
        <ele>127</ele>
        <time>2013-04-14T08:35:44.000Z</time>
      </trkpt>
      <trkpt lat="48.62864" lon="2.44164">
        <ele>129</ele>
        <time>2013-04-14T08:35:48.000Z</time>
      </trkpt>
      <trkpt lat="48.62863" lon="2.44163">
        <ele>129</ele>
        <time>2013-04-14T08:35:49.000Z</time>
      </trkpt>
      <trkpt lat="48.62861" lon="2.44159">
        <ele>129</ele>
        <time>2013-04-14T08:35:51.000Z</time>
      </trkpt>
      <trkpt lat="48.62861" lon="2.44157">
        <ele>129</ele>
        <time>2013-04-14T08:35:52.000Z</time>
      </trkpt>
      <trkpt lat="48.62858" lon="2.44153">
        <ele>129</ele>
        <time>2013-04-14T08:35:55.000Z</time>
      </trkpt>
      <trkpt lat="48.62857" lon="2.44152">
        <ele>130</ele>
        <time>2013-04-14T08:35:56.000Z</time>
      </trkpt>
      <trkpt lat="48.62854" lon="2.44148">
        <ele>130</ele>
        <time>2013-04-14T08:36:00.000Z</time>
      </trkpt>
      <trkpt lat="48.62854" lon="2.44146">
        <ele>130</ele>
        <time>2013-04-14T08:36:01.000Z</time>
      </trkpt>
      <trkpt lat="48.6285" lon="2.44142">
        <ele>130</ele>
        <time>2013-04-14T08:36:04.000Z</time>
      </trkpt>
      <trkpt lat="48.6285" lon="2.44141">
        <ele>130</ele>
        <time>2013-04-14T08:36:05.000Z</time>
      </trkpt>
      <trkpt lat="48.62848" lon="2.44136">
        <ele>131</ele>
        <time>2013-04-14T08:36:09.000Z</time>
      </trkpt>
      <trkpt lat="48.62846" lon="2.44134">
        <ele>131</ele>
        <time>2013-04-14T08:36:10.000Z</time>
      </trkpt>
      <trkpt lat="48.62844" lon="2.44128">
        <ele>131</ele>
        <time>2013-04-14T08:36:13.000Z</time>
      </trkpt>
      <trkpt lat="48.62843" lon="2.44126">
        <ele>131</ele>
        <time>2013-04-14T08:36:14.000Z</time>
      </trkpt>
      <trkpt lat="48.62841" lon="2.44121">
        <ele>132</ele>
        <time>2013-04-14T08:36:18.000Z</time>
      </trkpt>
      <trkpt lat="48.6284" lon="2.4412">
        <ele>132</ele>
        <time>2013-04-14T08:36:19.000Z</time>
      </trkpt>
      <trkpt lat="48.62838" lon="2.44116">
        <ele>133</ele>
        <time>2013-04-14T08:36:22.000Z</time>
      </trkpt>
      <trkpt lat="48.62837" lon="2.44114">
        <ele>131</ele>
        <time>2013-04-14T08:36:23.000Z</time>
      </trkpt>
      <trkpt lat="48.62835" lon="2.44108">
        <ele>129</ele>
        <time>2013-04-14T08:36:27.000Z</time>
      </trkpt>
      <trkpt lat="48.62835" lon="2.44107">
        <ele>128</ele>
        <time>2013-04-14T08:36:28.000Z</time>
      </trkpt>
      <trkpt lat="48.62834" lon="2.44101">
        <ele>128</ele>
        <time>2013-04-14T08:36:32.000Z</time>
      </trkpt>
      <trkpt lat="48.62833" lon="2.44099">
        <ele>128</ele>
        <time>2013-04-14T08:36:33.000Z</time>
      </trkpt>
      <trkpt lat="48.6283" lon="2.44096">
        <ele>127</ele>
        <time>2013-04-14T08:36:38.000Z</time>
      </trkpt>
      <trkpt lat="48.62828" lon="2.44095">
        <ele>127</ele>
        <time>2013-04-14T08:36:39.000Z</time>
      </trkpt>
      <trkpt lat="48.62826" lon="2.44091">
        <ele>127</ele>
        <time>2013-04-14T08:36:44.000Z</time>
      </trkpt>
      <trkpt lat="48.62825" lon="2.44089">
        <ele>128</ele>
        <time>2013-04-14T08:36:45.000Z</time>
      </trkpt>
      <trkpt lat="48.62822" lon="2.44085">
        <ele>129</ele>
        <time>2013-04-14T08:36:48.000Z</time>
      </trkpt>
      <trkpt lat="48.62821" lon="2.44084">
        <ele>129</ele>
        <time>2013-04-14T08:36:49.000Z</time>
      </trkpt>
      <trkpt lat="48.62819" lon="2.44082">
        <ele>128</ele>
        <time>2013-04-14T08:36:50.000Z</time>
      </trkpt>
      <trkpt lat="48.62817" lon="2.44079">
        <ele>128</ele>
        <time>2013-04-14T08:36:51.000Z</time>
      </trkpt>
      <trkpt lat="48.62813" lon="2.44078">
        <ele>130</ele>
        <time>2013-04-14T08:36:53.000Z</time>
      </trkpt>
      <trkpt lat="48.62812" lon="2.44077">
        <ele>130</ele>
        <time>2013-04-14T08:36:54.000Z</time>
      </trkpt>
      <trkpt lat="48.62808" lon="2.44073">
        <ele>133</ele>
        <time>2013-04-14T08:36:57.000Z</time>
      </trkpt>
      <trkpt lat="48.62807" lon="2.44072">
        <ele>133</ele>
        <time>2013-04-14T08:36:58.000Z</time>
      </trkpt>
      <trkpt lat="48.62804" lon="2.44068">
        <ele>133</ele>
        <time>2013-04-14T08:37:01.000Z</time>
      </trkpt>
      <trkpt lat="48.62803" lon="2.44067">
        <ele>133</ele>
        <time>2013-04-14T08:37:02.000Z</time>
      </trkpt>
      <trkpt lat="48.62799" lon="2.44065">
        <ele>131</ele>
        <time>2013-04-14T08:37:05.000Z</time>
      </trkpt>
      <trkpt lat="48.62798" lon="2.44064">
        <ele>131</ele>
        <time>2013-04-14T08:37:06.000Z</time>
      </trkpt>
      <trkpt lat="48.62795" lon="2.44061">
        <ele>130</ele>
        <time>2013-04-14T08:37:09.000Z</time>
      </trkpt>
      <trkpt lat="48.62793" lon="2.4406">
        <ele>129</ele>
        <time>2013-04-14T08:37:10.000Z</time>
      </trkpt>
      <trkpt lat="48.6279" lon="2.44056">
        <ele>129</ele>
        <time>2013-04-14T08:37:14.000Z</time>
      </trkpt>
      <trkpt lat="48.62789" lon="2.44056">
        <ele>129</ele>
        <time>2013-04-14T08:37:15.000Z</time>
      </trkpt>
      <trkpt lat="48.62785" lon="2.44056">
        <ele>129</ele>
        <time>2013-04-14T08:37:17.000Z</time>
      </trkpt>
      <trkpt lat="48.62784" lon="2.44056">
        <ele>130</ele>
        <time>2013-04-14T08:37:18.000Z</time>
      </trkpt>
      <trkpt lat="48.62779" lon="2.44057">
        <ele>131</ele>
        <time>2013-04-14T08:37:22.000Z</time>
      </trkpt>
      <trkpt lat="48.62778" lon="2.44057">
        <ele>131</ele>
        <time>2013-04-14T08:37:23.000Z</time>
      </trkpt>
      <trkpt lat="48.62774" lon="2.44058">
        <ele>133</ele>
        <time>2013-04-14T08:37:26.000Z</time>
      </trkpt>
      <trkpt lat="48.62773" lon="2.44059">
        <ele>133</ele>
        <time>2013-04-14T08:37:27.000Z</time>
      </trkpt>
      <trkpt lat="48.62768" lon="2.4406">
        <ele>132</ele>
        <time>2013-04-14T08:37:31.000Z</time>
      </trkpt>
      <trkpt lat="48.62767" lon="2.4406">
        <ele>132</ele>
        <time>2013-04-14T08:37:32.000Z</time>
      </trkpt>
      <trkpt lat="48.62763" lon="2.4406">
        <ele>132</ele>
        <time>2013-04-14T08:37:35.000Z</time>
      </trkpt>
      <trkpt lat="48.62762" lon="2.44061">
        <ele>132</ele>
        <time>2013-04-14T08:37:36.000Z</time>
      </trkpt>
      <trkpt lat="48.62758" lon="2.44062">
        <ele>132</ele>
        <time>2013-04-14T08:37:40.000Z</time>
      </trkpt>
      <trkpt lat="48.62756" lon="2.44062">
        <ele>132</ele>
        <time>2013-04-14T08:37:41.000Z</time>
      </trkpt>
      <trkpt lat="48.62753" lon="2.44061">
        <ele>133</ele>
        <time>2013-04-14T08:37:45.000Z</time>
      </trkpt>
      <trkpt lat="48.62752" lon="2.4406">
        <ele>133</ele>
        <time>2013-04-14T08:37:46.000Z</time>
      </trkpt>
      <trkpt lat="48.62748" lon="2.44058">
        <ele>133</ele>
        <time>2013-04-14T08:37:49.000Z</time>
      </trkpt>
      <trkpt lat="48.62746" lon="2.44057">
        <ele>133</ele>
        <time>2013-04-14T08:37:50.000Z</time>
      </trkpt>
      <trkpt lat="48.62742" lon="2.44057">
        <ele>133</ele>
        <time>2013-04-14T08:37:52.000Z</time>
      </trkpt>
      <trkpt lat="48.62741" lon="2.44057">
        <ele>133</ele>
        <time>2013-04-14T08:37:53.000Z</time>
      </trkpt>
      <trkpt lat="48.62737" lon="2.44058">
        <ele>133</ele>
        <time>2013-04-14T08:37:56.000Z</time>
      </trkpt>
      <trkpt lat="48.62736" lon="2.44058">
        <ele>133</ele>
        <time>2013-04-14T08:37:57.000Z</time>
      </trkpt>
      <trkpt lat="48.62732" lon="2.44056">
        <ele>133</ele>
        <time>2013-04-14T08:38:00.000Z</time>
      </trkpt>
      <trkpt lat="48.62731" lon="2.44055">
        <ele>133</ele>
        <time>2013-04-14T08:38:01.000Z</time>
      </trkpt>
      <trkpt lat="48.62727" lon="2.44051">
        <ele>133</ele>
        <time>2013-04-14T08:38:04.000Z</time>
      </trkpt>
      <trkpt lat="48.62726" lon="2.44048">
        <ele>134</ele>
        <time>2013-04-14T08:38:05.000Z</time>
      </trkpt>
      <trkpt lat="48.62723" lon="2.44044">
        <ele>134</ele>
        <time>2013-04-14T08:38:08.000Z</time>
      </trkpt>
      <trkpt lat="48.62722" lon="2.44042">
        <ele>134</ele>
        <time>2013-04-14T08:38:09.000Z</time>
      </trkpt>
      <trkpt lat="48.62719" lon="2.44038">
        <ele>134</ele>
        <time>2013-04-14T08:38:13.000Z</time>
      </trkpt>
      <trkpt lat="48.62719" lon="2.44035">
        <ele>133</ele>
        <time>2013-04-14T08:38:14.000Z</time>
      </trkpt>
      <trkpt lat="48.62718" lon="2.4403">
        <ele>133</ele>
        <time>2013-04-14T08:38:16.000Z</time>
      </trkpt>
      <trkpt lat="48.62718" lon="2.44027">
        <ele>132</ele>
        <time>2013-04-14T08:38:17.000Z</time>
      </trkpt>
      <trkpt lat="48.62719" lon="2.44021">
        <ele>131</ele>
        <time>2013-04-14T08:38:20.000Z</time>
      </trkpt>
      <trkpt lat="48.6272" lon="2.44019">
        <ele>131</ele>
        <time>2013-04-14T08:38:21.000Z</time>
      </trkpt>
      <trkpt lat="48.62721" lon="2.44015">
        <ele>130</ele>
        <time>2013-04-14T08:38:39.000Z</time>
      </trkpt>
      <trkpt lat="48.62719" lon="2.4401">
        <ele>130</ele>
        <time>2013-04-14T08:38:40.000Z</time>
      </trkpt>
      <trkpt lat="48.62716" lon="2.44008">
        <ele>131</ele>
        <time>2013-04-14T08:38:46.000Z</time>
      </trkpt>
      <trkpt lat="48.62715" lon="2.44005">
        <ele>131</ele>
        <time>2013-04-14T08:38:47.000Z</time>
      </trkpt>
      <trkpt lat="48.62713" lon="2.44">
        <ele>132</ele>
        <time>2013-04-14T08:38:52.000Z</time>
      </trkpt>
      <trkpt lat="48.62713" lon="2.43998">
        <ele>131</ele>
        <time>2013-04-14T08:38:53.000Z</time>
      </trkpt>
      <trkpt lat="48.62713" lon="2.43993">
        <ele>130</ele>
        <time>2013-04-14T08:38:56.000Z</time>
      </trkpt>
      <trkpt lat="48.62713" lon="2.43991">
        <ele>129</ele>
        <time>2013-04-14T08:38:57.000Z</time>
      </trkpt>
      <trkpt lat="48.62711" lon="2.43986">
        <ele>129</ele>
        <time>2013-04-14T08:39:00.000Z</time>
      </trkpt>
      <trkpt lat="48.62711" lon="2.43984">
        <ele>129</ele>
        <time>2013-04-14T08:39:01.000Z</time>
      </trkpt>
      <trkpt lat="48.6271" lon="2.43979">
        <ele>129</ele>
        <time>2013-04-14T08:39:04.000Z</time>
      </trkpt>
      <trkpt lat="48.62709" lon="2.43977">
        <ele>128</ele>
        <time>2013-04-14T08:39:05.000Z</time>
      </trkpt>
      <trkpt lat="48.62709" lon="2.43971">
        <ele>129</ele>
        <time>2013-04-14T08:39:08.000Z</time>
      </trkpt>
      <trkpt lat="48.62708" lon="2.4397">
        <ele>129</ele>
        <time>2013-04-14T08:39:09.000Z</time>
      </trkpt>
      <trkpt lat="48.62708" lon="2.43964">
        <ele>130</ele>
        <time>2013-04-14T08:39:12.000Z</time>
      </trkpt>
      <trkpt lat="48.62708" lon="2.43963">
        <ele>130</ele>
        <time>2013-04-14T08:39:13.000Z</time>
      </trkpt>
      <trkpt lat="48.62705" lon="2.43958">
        <ele>130</ele>
        <time>2013-04-14T08:39:15.000Z</time>
      </trkpt>
      <trkpt lat="48.62704" lon="2.43955">
        <ele>129</ele>
        <time>2013-04-14T08:39:16.000Z</time>
      </trkpt>
      <trkpt lat="48.62703" lon="2.43951">
        <ele>129</ele>
        <time>2013-04-14T08:39:18.000Z</time>
      </trkpt>
      <trkpt lat="48.62702" lon="2.43949">
        <ele>129</ele>
        <time>2013-04-14T08:39:19.000Z</time>
      </trkpt>
      <trkpt lat="48.627" lon="2.43944">
        <ele>129</ele>
        <time>2013-04-14T08:39:21.000Z</time>
      </trkpt>
      <trkpt lat="48.62699" lon="2.43942">
        <ele>129</ele>
        <time>2013-04-14T08:39:22.000Z</time>
      </trkpt>
      <trkpt lat="48.62697" lon="2.43939">
        <ele>129</ele>
        <time>2013-04-14T08:39:24.000Z</time>
      </trkpt>
      <trkpt lat="48.62695" lon="2.43936">
        <ele>129</ele>
        <time>2013-04-14T08:39:25.000Z</time>
      </trkpt>
      <trkpt lat="48.62693" lon="2.43933">
        <ele>129</ele>
        <time>2013-04-14T08:39:27.000Z</time>
      </trkpt>
      <trkpt lat="48.62693" lon="2.4393">
        <ele>129</ele>
        <time>2013-04-14T08:39:28.000Z</time>
      </trkpt>
      <trkpt lat="48.62691" lon="2.43926">
        <ele>127</ele>
        <time>2013-04-14T08:39:31.000Z</time>
      </trkpt>
      <trkpt lat="48.6269" lon="2.43923">
        <ele>126</ele>
        <time>2013-04-14T08:39:32.000Z</time>
      </trkpt>
      <trkpt lat="48.62687" lon="2.43919">
        <ele>127</ele>
        <time>2013-04-14T08:39:34.000Z</time>
      </trkpt>
      <trkpt lat="48.62686" lon="2.43917">
        <ele>128</ele>
        <time>2013-04-14T08:39:35.000Z</time>
      </trkpt>
      <trkpt lat="48.62683" lon="2.43913">
        <ele>129</ele>
        <time>2013-04-14T08:39:37.000Z</time>
      </trkpt>
      <trkpt lat="48.62682" lon="2.43911">
        <ele>129</ele>
        <time>2013-04-14T08:39:38.000Z</time>
      </trkpt>
      <trkpt lat="48.6268" lon="2.43906">
        <ele>129</ele>
        <time>2013-04-14T08:39:41.000Z</time>
      </trkpt>
      <trkpt lat="48.62679" lon="2.43902">
        <ele>129</ele>
        <time>2013-04-14T08:39:42.000Z</time>
      </trkpt>
      <trkpt lat="48.62677" lon="2.43897">
        <ele>128</ele>
        <time>2013-04-14T08:39:45.000Z</time>
      </trkpt>
      <trkpt lat="48.62676" lon="2.43896">
        <ele>128</ele>
        <time>2013-04-14T08:39:46.000Z</time>
      </trkpt>
      <trkpt lat="48.62674" lon="2.43891">
        <ele>130</ele>
        <time>2013-04-14T08:39:49.000Z</time>
      </trkpt>
      <trkpt lat="48.62673" lon="2.4389">
        <ele>130</ele>
        <time>2013-04-14T08:39:50.000Z</time>
      </trkpt>
      <trkpt lat="48.6267" lon="2.43885">
        <ele>130</ele>
        <time>2013-04-14T08:39:54.000Z</time>
      </trkpt>
      <trkpt lat="48.6267" lon="2.43884">
        <ele>129</ele>
        <time>2013-04-14T08:39:55.000Z</time>
      </trkpt>
      <trkpt lat="48.62667" lon="2.4388">
        <ele>132</ele>
        <time>2013-04-14T08:39:59.000Z</time>
      </trkpt>
      <trkpt lat="48.62666" lon="2.43878">
        <ele>132</ele>
        <time>2013-04-14T08:40:00.000Z</time>
      </trkpt>
      <trkpt lat="48.62664" lon="2.43873">
        <ele>133</ele>
        <time>2013-04-14T08:40:03.000Z</time>
      </trkpt>
      <trkpt lat="48.62664" lon="2.43872">
        <ele>133</ele>
        <time>2013-04-14T08:40:04.000Z</time>
      </trkpt>
      <trkpt lat="48.62661" lon="2.43867">
        <ele>132</ele>
        <time>2013-04-14T08:40:07.000Z</time>
      </trkpt>
      <trkpt lat="48.62661" lon="2.43865">
        <ele>132</ele>
        <time>2013-04-14T08:40:08.000Z</time>
      </trkpt>
      <trkpt lat="48.62659" lon="2.43861">
        <ele>134</ele>
        <time>2013-04-14T08:40:12.000Z</time>
      </trkpt>
      <trkpt lat="48.62658" lon="2.43859">
        <ele>134</ele>
        <time>2013-04-14T08:40:13.000Z</time>
      </trkpt>
      <trkpt lat="48.62657" lon="2.43852">
        <ele>133</ele>
        <time>2013-04-14T08:40:16.000Z</time>
      </trkpt>
      <trkpt lat="48.62657" lon="2.43851">
        <ele>133</ele>
        <time>2013-04-14T08:40:17.000Z</time>
      </trkpt>
      <trkpt lat="48.62654" lon="2.43847">
        <ele>134</ele>
        <time>2013-04-14T08:40:20.000Z</time>
      </trkpt>
      <trkpt lat="48.62653" lon="2.43846">
        <ele>134</ele>
        <time>2013-04-14T08:40:21.000Z</time>
      </trkpt>
      <trkpt lat="48.62651" lon="2.43841">
        <ele>133</ele>
        <time>2013-04-14T08:40:24.000Z</time>
      </trkpt>
      <trkpt lat="48.62651" lon="2.4384">
        <ele>133</ele>
        <time>2013-04-14T08:40:25.000Z</time>
      </trkpt>
      <trkpt lat="48.62649" lon="2.43835">
        <ele>133</ele>
        <time>2013-04-14T08:40:28.000Z</time>
      </trkpt>
      <trkpt lat="48.62648" lon="2.43833">
        <ele>133</ele>
        <time>2013-04-14T08:40:29.000Z</time>
      </trkpt>
      <trkpt lat="48.62646" lon="2.43828">
        <ele>133</ele>
        <time>2013-04-14T08:40:32.000Z</time>
      </trkpt>
      <trkpt lat="48.62645" lon="2.43826">
        <ele>133</ele>
        <time>2013-04-14T08:40:33.000Z</time>
      </trkpt>
      <trkpt lat="48.62644" lon="2.43821">
        <ele>134</ele>
        <time>2013-04-14T08:40:36.000Z</time>
      </trkpt>
      <trkpt lat="48.62643" lon="2.4382">
        <ele>134</ele>
        <time>2013-04-14T08:40:37.000Z</time>
      </trkpt>
      <trkpt lat="48.62642" lon="2.43814">
        <ele>133</ele>
        <time>2013-04-14T08:40:40.000Z</time>
      </trkpt>
      <trkpt lat="48.62641" lon="2.43812">
        <ele>133</ele>
        <time>2013-04-14T08:40:41.000Z</time>
      </trkpt>
      <trkpt lat="48.62639" lon="2.43807">
        <ele>133</ele>
        <time>2013-04-14T08:40:44.000Z</time>
      </trkpt>
      <trkpt lat="48.62638" lon="2.43806">
        <ele>133</ele>
        <time>2013-04-14T08:40:45.000Z</time>
      </trkpt>
      <trkpt lat="48.62636" lon="2.43802">
        <ele>132</ele>
        <time>2013-04-14T08:40:47.000Z</time>
      </trkpt>
      <trkpt lat="48.62635" lon="2.43799">
        <ele>132</ele>
        <time>2013-04-14T08:40:48.000Z</time>
      </trkpt>
      <trkpt lat="48.62633" lon="2.43794">
        <ele>132</ele>
        <time>2013-04-14T08:40:50.000Z</time>
      </trkpt>
      <trkpt lat="48.62632" lon="2.43792">
        <ele>132</ele>
        <time>2013-04-14T08:40:51.000Z</time>
      </trkpt>
      <trkpt lat="48.6263" lon="2.43788">
        <ele>130</ele>
        <time>2013-04-14T08:40:53.000Z</time>
      </trkpt>
      <trkpt lat="48.6263" lon="2.43786">
        <ele>130</ele>
        <time>2013-04-14T08:40:54.000Z</time>
      </trkpt>
      <trkpt lat="48.6263" lon="2.43781">
        <ele>130</ele>
        <time>2013-04-14T08:40:56.000Z</time>
      </trkpt>
      <trkpt lat="48.6263" lon="2.43779">
        <ele>130</ele>
        <time>2013-04-14T08:40:57.000Z</time>
      </trkpt>
      <trkpt lat="48.6263" lon="2.43774">
        <ele>129</ele>
        <time>2013-04-14T08:40:59.000Z</time>
      </trkpt>
      <trkpt lat="48.6263" lon="2.43771">
        <ele>129</ele>
        <time>2013-04-14T08:41:00.000Z</time>
      </trkpt>
      <trkpt lat="48.6263" lon="2.43766">
        <ele>129</ele>
        <time>2013-04-14T08:41:02.000Z</time>
      </trkpt>
      <trkpt lat="48.6263" lon="2.43764">
        <ele>129</ele>
        <time>2013-04-14T08:41:03.000Z</time>
      </trkpt>
      <trkpt lat="48.6263" lon="2.43761">
        <ele>129</ele>
        <time>2013-04-14T08:41:04.000Z</time>
      </trkpt>
      <trkpt lat="48.62631" lon="2.43757">
        <ele>128</ele>
        <time>2013-04-14T08:41:05.000Z</time>
      </trkpt>
      <trkpt lat="48.62631" lon="2.43752">
        <ele>128</ele>
        <time>2013-04-14T08:41:07.000Z</time>
      </trkpt>
      <trkpt lat="48.62632" lon="2.4375">
        <ele>127</ele>
        <time>2013-04-14T08:41:08.000Z</time>
      </trkpt>
      <trkpt lat="48.62632" lon="2.43745">
        <ele>128</ele>
        <time>2013-04-14T08:41:10.000Z</time>
      </trkpt>
      <trkpt lat="48.62633" lon="2.43743">
        <ele>128</ele>
        <time>2013-04-14T08:41:11.000Z</time>
      </trkpt>
      <trkpt lat="48.62635" lon="2.43737">
        <ele>127</ele>
        <time>2013-04-14T08:41:14.000Z</time>
      </trkpt>
      <trkpt lat="48.62635" lon="2.43734">
        <ele>128</ele>
        <time>2013-04-14T08:41:15.000Z</time>
      </trkpt>
      <trkpt lat="48.62636" lon="2.43728">
        <ele>127</ele>
        <time>2013-04-14T08:41:18.000Z</time>
      </trkpt>
      <trkpt lat="48.62636" lon="2.43726">
        <ele>127</ele>
        <time>2013-04-14T08:41:19.000Z</time>
      </trkpt>
      <trkpt lat="48.62636" lon="2.43722">
        <ele>127</ele>
        <time>2013-04-14T08:41:21.000Z</time>
      </trkpt>
      <trkpt lat="48.62635" lon="2.43719">
        <ele>127</ele>
        <time>2013-04-14T08:41:22.000Z</time>
      </trkpt>
      <trkpt lat="48.62635" lon="2.43713">
        <ele>127</ele>
        <time>2013-04-14T08:41:26.000Z</time>
      </trkpt>
      <trkpt lat="48.62635" lon="2.43712">
        <ele>127</ele>
        <time>2013-04-14T08:41:27.000Z</time>
      </trkpt>
      <trkpt lat="48.62635" lon="2.43706">
        <ele>129</ele>
        <time>2013-04-14T08:41:31.000Z</time>
      </trkpt>
      <trkpt lat="48.62634" lon="2.43706">
        <ele>129</ele>
        <time>2013-04-14T08:41:32.000Z</time>
      </trkpt>
      <trkpt lat="48.62633" lon="2.437">
        <ele>129</ele>
        <time>2013-04-14T08:41:35.000Z</time>
      </trkpt>
      <trkpt lat="48.62632" lon="2.43697">
        <ele>129</ele>
        <time>2013-04-14T08:41:36.000Z</time>
      </trkpt>
      <trkpt lat="48.62629" lon="2.43693">
        <ele>129</ele>
        <time>2013-04-14T08:41:39.000Z</time>
      </trkpt>
      <trkpt lat="48.62629" lon="2.43692">
        <ele>129</ele>
        <time>2013-04-14T08:41:40.000Z</time>
      </trkpt>
      <trkpt lat="48.62627" lon="2.43686">
        <ele>130</ele>
        <time>2013-04-14T08:41:44.000Z</time>
      </trkpt>
      <trkpt lat="48.62627" lon="2.43685">
        <ele>130</ele>
        <time>2013-04-14T08:41:45.000Z</time>
      </trkpt>
      <trkpt lat="48.62626" lon="2.4368">
        <ele>130</ele>
        <time>2013-04-14T08:41:48.000Z</time>
      </trkpt>
      <trkpt lat="48.62624" lon="2.43679">
        <ele>131</ele>
        <time>2013-04-14T08:41:49.000Z</time>
      </trkpt>
      <trkpt lat="48.62622" lon="2.43674">
        <ele>131</ele>
        <time>2013-04-14T08:41:52.000Z</time>
      </trkpt>
      <trkpt lat="48.62621" lon="2.43673">
        <ele>132</ele>
        <time>2013-04-14T08:41:53.000Z</time>
      </trkpt>
      <trkpt lat="48.6262" lon="2.43667">
        <ele>133</ele>
        <time>2013-04-14T08:41:56.000Z</time>
      </trkpt>
      <trkpt lat="48.62619" lon="2.43666">
        <ele>133</ele>
        <time>2013-04-14T08:41:57.000Z</time>
      </trkpt>
      <trkpt lat="48.62616" lon="2.43662">
        <ele>133</ele>
        <time>2013-04-14T08:42:00.000Z</time>
      </trkpt>
      <trkpt lat="48.62615" lon="2.43659">
        <ele>133</ele>
        <time>2013-04-14T08:42:01.000Z</time>
      </trkpt>
      <trkpt lat="48.62613" lon="2.43655">
        <ele>132</ele>
        <time>2013-04-14T08:42:04.000Z</time>
      </trkpt>
      <trkpt lat="48.62613" lon="2.43653">
        <ele>132</ele>
        <time>2013-04-14T08:42:05.000Z</time>
      </trkpt>
      <trkpt lat="48.62611" lon="2.43649">
        <ele>132</ele>
        <time>2013-04-14T08:42:08.000Z</time>
      </trkpt>
      <trkpt lat="48.62611" lon="2.43647">
        <ele>133</ele>
        <time>2013-04-14T08:42:09.000Z</time>
      </trkpt>
      <trkpt lat="48.62609" lon="2.43643">
        <ele>134</ele>
        <time>2013-04-14T08:42:11.000Z</time>
      </trkpt>
      <trkpt lat="48.62609" lon="2.43641">
        <ele>134</ele>
        <time>2013-04-14T08:42:12.000Z</time>
      </trkpt>
      <trkpt lat="48.62607" lon="2.43637">
        <ele>135</ele>
        <time>2013-04-14T08:42:15.000Z</time>
      </trkpt>
      <trkpt lat="48.62606" lon="2.43635">
        <ele>135</ele>
        <time>2013-04-14T08:42:16.000Z</time>
      </trkpt>
      <trkpt lat="48.62605" lon="2.4363">
        <ele>134</ele>
        <time>2013-04-14T08:42:19.000Z</time>
      </trkpt>
      <trkpt lat="48.62605" lon="2.43628">
        <ele>134</ele>
        <time>2013-04-14T08:42:20.000Z</time>
      </trkpt>
      <trkpt lat="48.62604" lon="2.43622">
        <ele>134</ele>
        <time>2013-04-14T08:42:22.000Z</time>
      </trkpt>
      <trkpt lat="48.62602" lon="2.4362">
        <ele>135</ele>
        <time>2013-04-14T08:42:23.000Z</time>
      </trkpt>
      <trkpt lat="48.62601" lon="2.43615">
        <ele>135</ele>
        <time>2013-04-14T08:42:25.000Z</time>
      </trkpt>
      <trkpt lat="48.626" lon="2.43613">
        <ele>133</ele>
        <time>2013-04-14T08:42:26.000Z</time>
      </trkpt>
      <trkpt lat="48.62598" lon="2.43608">
        <ele>133</ele>
        <time>2013-04-14T08:42:29.000Z</time>
      </trkpt>
      <trkpt lat="48.62598" lon="2.43606">
        <ele>133</ele>
        <time>2013-04-14T08:42:30.000Z</time>
      </trkpt>
      <trkpt lat="48.62597" lon="2.43599">
        <ele>133</ele>
        <time>2013-04-14T08:42:33.000Z</time>
      </trkpt>
      <trkpt lat="48.62596" lon="2.43598">
        <ele>133</ele>
        <time>2013-04-14T08:42:34.000Z</time>
      </trkpt>
      <trkpt lat="48.62594" lon="2.43592">
        <ele>133</ele>
        <time>2013-04-14T08:42:38.000Z</time>
      </trkpt>
      <trkpt lat="48.62594" lon="2.4359">
        <ele>133</ele>
        <time>2013-04-14T08:42:39.000Z</time>
      </trkpt>
      <trkpt lat="48.62593" lon="2.43583">
        <ele>130</ele>
        <time>2013-04-14T08:42:42.000Z</time>
      </trkpt>
      <trkpt lat="48.62593" lon="2.43581">
        <ele>128</ele>
        <time>2013-04-14T08:42:43.000Z</time>
      </trkpt>
      <trkpt lat="48.62593" lon="2.43575">
        <ele>128</ele>
        <time>2013-04-14T08:42:47.000Z</time>
      </trkpt>
      <trkpt lat="48.62593" lon="2.43574">
        <ele>128</ele>
        <time>2013-04-14T08:42:48.000Z</time>
      </trkpt>
      <trkpt lat="48.62592" lon="2.43569">
        <ele>128</ele>
        <time>2013-04-14T08:42:51.000Z</time>
      </trkpt>
      <trkpt lat="48.62592" lon="2.43566">
        <ele>128</ele>
        <time>2013-04-14T08:42:52.000Z</time>
      </trkpt>
      <trkpt lat="48.62592" lon="2.43561">
        <ele>128</ele>
        <time>2013-04-14T08:42:54.000Z</time>
      </trkpt>
      <trkpt lat="48.62592" lon="2.43559">
        <ele>128</ele>
        <time>2013-04-14T08:42:55.000Z</time>
      </trkpt>
      <trkpt lat="48.62591" lon="2.43553">
        <ele>127</ele>
        <time>2013-04-14T08:42:58.000Z</time>
      </trkpt>
      <trkpt lat="48.62591" lon="2.4355">
        <ele>127</ele>
        <time>2013-04-14T08:42:59.000Z</time>
      </trkpt>
      <trkpt lat="48.62592" lon="2.43544">
        <ele>128</ele>
        <time>2013-04-14T08:43:02.000Z</time>
      </trkpt>
      <trkpt lat="48.62592" lon="2.43541">
        <ele>128</ele>
        <time>2013-04-14T08:43:03.000Z</time>
      </trkpt>
      <trkpt lat="48.62591" lon="2.43537">
        <ele>129</ele>
        <time>2013-04-14T08:43:06.000Z</time>
      </trkpt>
      <trkpt lat="48.62592" lon="2.43534">
        <ele>129</ele>
        <time>2013-04-14T08:43:07.000Z</time>
      </trkpt>
      <trkpt lat="48.62591" lon="2.4353">
        <ele>129</ele>
        <time>2013-04-14T08:43:10.000Z</time>
      </trkpt>
      <trkpt lat="48.62592" lon="2.43527">
        <ele>129</ele>
        <time>2013-04-14T08:43:11.000Z</time>
      </trkpt>
      <trkpt lat="48.62591" lon="2.43522">
        <ele>129</ele>
        <time>2013-04-14T08:43:14.000Z</time>
      </trkpt>
      <trkpt lat="48.62592" lon="2.4352">
        <ele>129</ele>
        <time>2013-04-14T08:43:15.000Z</time>
      </trkpt>
      <trkpt lat="48.62593" lon="2.43513">
        <ele>128</ele>
        <time>2013-04-14T08:43:18.000Z</time>
      </trkpt>
      <trkpt lat="48.62593" lon="2.43512">
        <ele>128</ele>
        <time>2013-04-14T08:43:19.000Z</time>
      </trkpt>
      <trkpt lat="48.62594" lon="2.43506">
        <ele>128</ele>
        <time>2013-04-14T08:43:23.000Z</time>
      </trkpt>
      <trkpt lat="48.62594" lon="2.43505">
        <ele>128</ele>
        <time>2013-04-14T08:43:24.000Z</time>
      </trkpt>
      <trkpt lat="48.62593" lon="2.43499">
        <ele>128</ele>
        <time>2013-04-14T08:43:27.000Z</time>
      </trkpt>
      <trkpt lat="48.62593" lon="2.43496">
        <ele>128</ele>
        <time>2013-04-14T08:43:28.000Z</time>
      </trkpt>
      <trkpt lat="48.62594" lon="2.43491">
        <ele>129</ele>
        <time>2013-04-14T08:43:32.000Z</time>
      </trkpt>
      <trkpt lat="48.62593" lon="2.43489">
        <ele>129</ele>
        <time>2013-04-14T08:43:33.000Z</time>
      </trkpt>
      <trkpt lat="48.62593" lon="2.43483">
        <ele>130</ele>
        <time>2013-04-14T08:43:36.000Z</time>
      </trkpt>
      <trkpt lat="48.62593" lon="2.43482">
        <ele>130</ele>
        <time>2013-04-14T08:43:37.000Z</time>
      </trkpt>
      <trkpt lat="48.62593" lon="2.43475">
        <ele>129</ele>
        <time>2013-04-14T08:43:41.000Z</time>
      </trkpt>
      <trkpt lat="48.62593" lon="2.43473">
        <ele>130</ele>
        <time>2013-04-14T08:43:42.000Z</time>
      </trkpt>
      <trkpt lat="48.62592" lon="2.43468">
        <ele>128</ele>
        <time>2013-04-14T08:43:45.000Z</time>
      </trkpt>
      <trkpt lat="48.62591" lon="2.43466">
        <ele>128</ele>
        <time>2013-04-14T08:43:46.000Z</time>
      </trkpt>
      <trkpt lat="48.6259" lon="2.43461">
        <ele>128</ele>
        <time>2013-04-14T08:43:50.000Z</time>
      </trkpt>
      <trkpt lat="48.6259" lon="2.43459">
        <ele>128</ele>
        <time>2013-04-14T08:43:51.000Z</time>
      </trkpt>
      <trkpt lat="48.6259" lon="2.43453">
        <ele>129</ele>
        <time>2013-04-14T08:43:54.000Z</time>
      </trkpt>
      <trkpt lat="48.6259" lon="2.43452">
        <ele>129</ele>
        <time>2013-04-14T08:43:55.000Z</time>
      </trkpt>
      <trkpt lat="48.6259" lon="2.43446">
        <ele>129</ele>
        <time>2013-04-14T08:43:59.000Z</time>
      </trkpt>
      <trkpt lat="48.62589" lon="2.43445">
        <ele>129</ele>
        <time>2013-04-14T08:44:00.000Z</time>
      </trkpt>
      <trkpt lat="48.62588" lon="2.4344">
        <ele>130</ele>
        <time>2013-04-14T08:44:03.000Z</time>
      </trkpt>
      <trkpt lat="48.62589" lon="2.43438">
        <ele>129</ele>
        <time>2013-04-14T08:44:04.000Z</time>
      </trkpt>
      <trkpt lat="48.62589" lon="2.43431">
        <ele>129</ele>
        <time>2013-04-14T08:44:08.000Z</time>
      </trkpt>
      <trkpt lat="48.62589" lon="2.4343">
        <ele>129</ele>
        <time>2013-04-14T08:44:09.000Z</time>
      </trkpt>
      <trkpt lat="48.62588" lon="2.43424">
        <ele>129</ele>
        <time>2013-04-14T08:44:13.000Z</time>
      </trkpt>
      <trkpt lat="48.62588" lon="2.43422">
        <ele>130</ele>
        <time>2013-04-14T08:44:14.000Z</time>
      </trkpt>
      <trkpt lat="48.62588" lon="2.43416">
        <ele>131</ele>
        <time>2013-04-14T08:44:17.000Z</time>
      </trkpt>
      <trkpt lat="48.62587" lon="2.43414">
        <ele>131</ele>
        <time>2013-04-14T08:44:18.000Z</time>
      </trkpt>
      <trkpt lat="48.62587" lon="2.43408">
        <ele>130</ele>
        <time>2013-04-14T08:44:22.000Z</time>
      </trkpt>
      <trkpt lat="48.62587" lon="2.43406">
        <ele>130</ele>
        <time>2013-04-14T08:44:23.000Z</time>
      </trkpt>
      <trkpt lat="48.62586" lon="2.434">
        <ele>130</ele>
        <time>2013-04-14T08:44:26.000Z</time>
      </trkpt>
      <trkpt lat="48.62586" lon="2.43399">
        <ele>130</ele>
        <time>2013-04-14T08:44:27.000Z</time>
      </trkpt>
      <trkpt lat="48.62586" lon="2.43394">
        <ele>130</ele>
        <time>2013-04-14T08:44:30.000Z</time>
      </trkpt>
      <trkpt lat="48.62587" lon="2.43391">
        <ele>130</ele>
        <time>2013-04-14T08:44:31.000Z</time>
      </trkpt>
      <trkpt lat="48.62587" lon="2.43385">
        <ele>131</ele>
        <time>2013-04-14T08:44:35.000Z</time>
      </trkpt>
      <trkpt lat="48.62588" lon="2.43383">
        <ele>131</ele>
        <time>2013-04-14T08:44:36.000Z</time>
      </trkpt>
      <trkpt lat="48.62588" lon="2.43377">
        <ele>131</ele>
        <time>2013-04-14T08:44:39.000Z</time>
      </trkpt>
      <trkpt lat="48.62588" lon="2.43375">
        <ele>131</ele>
        <time>2013-04-14T08:44:40.000Z</time>
      </trkpt>
      <trkpt lat="48.62589" lon="2.43368">
        <ele>130</ele>
        <time>2013-04-14T08:44:45.000Z</time>
      </trkpt>
      <trkpt lat="48.62589" lon="2.43366">
        <ele>130</ele>
        <time>2013-04-14T08:44:46.000Z</time>
      </trkpt>
      <trkpt lat="48.62591" lon="2.43361">
        <ele>130</ele>
        <time>2013-04-14T08:44:48.000Z</time>
      </trkpt>
      <trkpt lat="48.62591" lon="2.43358">
        <ele>130</ele>
        <time>2013-04-14T08:44:49.000Z</time>
      </trkpt>
      <trkpt lat="48.62592" lon="2.43354">
        <ele>129</ele>
        <time>2013-04-14T08:44:51.000Z</time>
      </trkpt>
      <trkpt lat="48.62593" lon="2.43352">
        <ele>129</ele>
        <time>2013-04-14T08:44:52.000Z</time>
      </trkpt>
      <trkpt lat="48.62593" lon="2.43348">
        <ele>129</ele>
        <time>2013-04-14T08:44:55.000Z</time>
      </trkpt>
      <trkpt lat="48.62594" lon="2.43344">
        <ele>129</ele>
        <time>2013-04-14T08:44:56.000Z</time>
      </trkpt>
      <trkpt lat="48.62594" lon="2.43339">
        <ele>130</ele>
        <time>2013-04-14T08:44:59.000Z</time>
      </trkpt>
      <trkpt lat="48.62594" lon="2.43336">
        <ele>130</ele>
        <time>2013-04-14T08:45:00.000Z</time>
      </trkpt>
      <trkpt lat="48.62595" lon="2.43332">
        <ele>131</ele>
        <time>2013-04-14T08:45:03.000Z</time>
      </trkpt>
      <trkpt lat="48.62595" lon="2.43329">
        <ele>131</ele>
        <time>2013-04-14T08:45:04.000Z</time>
      </trkpt>
      <trkpt lat="48.62596" lon="2.43323">
        <ele>131</ele>
        <time>2013-04-14T08:45:07.000Z</time>
      </trkpt>
      <trkpt lat="48.62597" lon="2.4332">
        <ele>132</ele>
        <time>2013-04-14T08:45:08.000Z</time>
      </trkpt>
      <trkpt lat="48.62597" lon="2.43317">
        <ele>132</ele>
        <time>2013-04-14T08:45:10.000Z</time>
      </trkpt>
      <trkpt lat="48.62597" lon="2.43313">
        <ele>132</ele>
        <time>2013-04-14T08:45:11.000Z</time>
      </trkpt>
      <trkpt lat="48.62598" lon="2.43309">
        <ele>132</ele>
        <time>2013-04-14T08:45:13.000Z</time>
      </trkpt>
      <trkpt lat="48.62598" lon="2.43306">
        <ele>133</ele>
        <time>2013-04-14T08:45:14.000Z</time>
      </trkpt>
      <trkpt lat="48.62599" lon="2.433">
        <ele>133</ele>
        <time>2013-04-14T08:45:16.000Z</time>
      </trkpt>
      <trkpt lat="48.62598" lon="2.43297">
        <ele>133</ele>
        <time>2013-04-14T08:45:17.000Z</time>
      </trkpt>
      <trkpt lat="48.62598" lon="2.4329">
        <ele>134</ele>
        <time>2013-04-14T08:45:20.000Z</time>
      </trkpt>
      <trkpt lat="48.62599" lon="2.43288">
        <ele>134</ele>
        <time>2013-04-14T08:45:21.000Z</time>
      </trkpt>
      <trkpt lat="48.62598" lon="2.43282">
        <ele>136</ele>
        <time>2013-04-14T08:45:24.000Z</time>
      </trkpt>
      <trkpt lat="48.62597" lon="2.43279">
        <ele>136</ele>
        <time>2013-04-14T08:45:25.000Z</time>
      </trkpt>
      <trkpt lat="48.62597" lon="2.43274">
        <ele>136</ele>
        <time>2013-04-14T08:45:28.000Z</time>
      </trkpt>
      <trkpt lat="48.62598" lon="2.43271">
        <ele>137</ele>
        <time>2013-04-14T08:45:29.000Z</time>
      </trkpt>
      <trkpt lat="48.62598" lon="2.43265">
        <ele>137</ele>
        <time>2013-04-14T08:45:32.000Z</time>
      </trkpt>
      <trkpt lat="48.62599" lon="2.43263">
        <ele>137</ele>
        <time>2013-04-14T08:45:33.000Z</time>
      </trkpt>
      <trkpt lat="48.626" lon="2.43258">
        <ele>140</ele>
        <time>2013-04-14T08:45:38.000Z</time>
      </trkpt>
      <trkpt lat="48.626" lon="2.43256">
        <ele>140</ele>
        <time>2013-04-14T08:45:39.000Z</time>
      </trkpt>
      <trkpt lat="48.626" lon="2.43251">
        <ele>141</ele>
        <time>2013-04-14T08:45:41.000Z</time>
      </trkpt>
      <trkpt lat="48.62601" lon="2.43249">
        <ele>142</ele>
        <time>2013-04-14T08:45:42.000Z</time>
      </trkpt>
      <trkpt lat="48.62602" lon="2.43244">
        <ele>142</ele>
        <time>2013-04-14T08:45:46.000Z</time>
      </trkpt>
      <trkpt lat="48.62603" lon="2.43241">
        <ele>143</ele>
        <time>2013-04-14T08:45:47.000Z</time>
      </trkpt>
      <trkpt lat="48.62602" lon="2.43235">
        <ele>143</ele>
        <time>2013-04-14T08:45:50.000Z</time>
      </trkpt>
      <trkpt lat="48.62603" lon="2.43234">
        <ele>143</ele>
        <time>2013-04-14T08:45:51.000Z</time>
      </trkpt>
      <trkpt lat="48.62604" lon="2.43228">
        <ele>144</ele>
        <time>2013-04-14T08:45:57.000Z</time>
      </trkpt>
      <trkpt lat="48.62604" lon="2.43227">
        <ele>144</ele>
        <time>2013-04-14T08:45:58.000Z</time>
      </trkpt>
      <trkpt lat="48.62605" lon="2.43223">
        <ele>145</ele>
        <time>2013-04-14T08:45:59.000Z</time>
      </trkpt>
      <trkpt lat="48.62605" lon="2.43219">
        <ele>146</ele>
        <time>2013-04-14T08:46:00.000Z</time>
      </trkpt>
      <trkpt lat="48.62604" lon="2.43214">
        <ele>147</ele>
        <time>2013-04-14T08:46:04.000Z</time>
      </trkpt>
      <trkpt lat="48.62604" lon="2.43211">
        <ele>148</ele>
        <time>2013-04-14T08:46:05.000Z</time>
      </trkpt>
      <trkpt lat="48.62601" lon="2.43214">
        <ele>144</ele>
        <time>2013-04-14T08:46:07.000Z</time>
      </trkpt>
      <trkpt lat="48.626" lon="2.43215">
        <ele>144</ele>
        <time>2013-04-14T08:46:08.000Z</time>
      </trkpt>
      <trkpt lat="48.62597" lon="2.4321">
        <ele>147</ele>
        <time>2013-04-14T08:46:16.000Z</time>
      </trkpt>
      <trkpt lat="48.62597" lon="2.43209">
        <ele>147</ele>
        <time>2013-04-14T08:46:17.000Z</time>
      </trkpt>
      <trkpt lat="48.62595" lon="2.43205">
        <ele>149</ele>
        <time>2013-04-14T08:46:23.000Z</time>
      </trkpt>
      <trkpt lat="48.62593" lon="2.43204">
        <ele>150</ele>
        <time>2013-04-14T08:46:24.000Z</time>
      </trkpt>
      <trkpt lat="48.62589" lon="2.43204">
        <ele>151</ele>
        <time>2013-04-14T08:46:25.000Z</time>
      </trkpt>
      <trkpt lat="48.62586" lon="2.43204">
        <ele>150</ele>
        <time>2013-04-14T08:46:26.000Z</time>
      </trkpt>
      <trkpt lat="48.62583" lon="2.43203">
        <ele>150</ele>
        <time>2013-04-14T08:46:27.000Z</time>
      </trkpt>
      <trkpt lat="48.62582" lon="2.43203">
        <ele>150</ele>
        <time>2013-04-14T08:46:28.000Z</time>
      </trkpt>
      <trkpt lat="48.62578" lon="2.43202">
        <ele>150</ele>
        <time>2013-04-14T08:46:30.000Z</time>
      </trkpt>
      <trkpt lat="48.62576" lon="2.43201">
        <ele>150</ele>
        <time>2013-04-14T08:46:31.000Z</time>
      </trkpt>
      <trkpt lat="48.62574" lon="2.432">
        <ele>150</ele>
        <time>2013-04-14T08:46:32.000Z</time>
      </trkpt>
      <trkpt lat="48.62571" lon="2.43199">
        <ele>150</ele>
        <time>2013-04-14T08:46:33.000Z</time>
      </trkpt>
      <trkpt lat="48.62568" lon="2.43196">
        <ele>150</ele>
        <time>2013-04-14T08:46:35.000Z</time>
      </trkpt>
      <trkpt lat="48.62567" lon="2.43195">
        <ele>151</ele>
        <time>2013-04-14T08:46:36.000Z</time>
      </trkpt>
      <trkpt lat="48.62563" lon="2.43196">
        <ele>151</ele>
        <time>2013-04-14T08:46:42.000Z</time>
      </trkpt>
      <trkpt lat="48.62561" lon="2.43196">
        <ele>152</ele>
        <time>2013-04-14T08:46:43.000Z</time>
      </trkpt>
      <trkpt lat="48.62556" lon="2.43197">
        <ele>152</ele>
        <time>2013-04-14T08:46:45.000Z</time>
      </trkpt>
      <trkpt lat="48.62556" lon="2.43196">
        <ele>152</ele>
        <time>2013-04-14T08:46:46.000Z</time>
      </trkpt>
      <trkpt lat="48.62553" lon="2.43193">
        <ele>153</ele>
        <time>2013-04-14T08:46:49.000Z</time>
      </trkpt>
      <trkpt lat="48.62549" lon="2.43193">
        <ele>153</ele>
        <time>2013-04-14T08:46:50.000Z</time>
      </trkpt>
      <trkpt lat="48.62547" lon="2.43192">
        <ele>153</ele>
        <time>2013-04-14T08:46:51.000Z</time>
      </trkpt>
      <trkpt lat="48.62545" lon="2.43192">
        <ele>153</ele>
        <time>2013-04-14T08:46:52.000Z</time>
      </trkpt>
      <trkpt lat="48.62541" lon="2.43195">
        <ele>154</ele>
        <time>2013-04-14T08:46:54.000Z</time>
      </trkpt>
      <trkpt lat="48.62541" lon="2.432">
        <ele>153</ele>
        <time>2013-04-14T08:46:55.000Z</time>
      </trkpt>
      <trkpt lat="48.6254" lon="2.43203">
        <ele>152</ele>
        <time>2013-04-14T08:46:57.000Z</time>
      </trkpt>
      <trkpt lat="48.62538" lon="2.43204">
        <ele>152</ele>
        <time>2013-04-14T08:46:58.000Z</time>
      </trkpt>
      <trkpt lat="48.62535" lon="2.43207">
        <ele>152</ele>
        <time>2013-04-14T08:47:00.000Z</time>
      </trkpt>
      <trkpt lat="48.62534" lon="2.4321">
        <ele>150</ele>
        <time>2013-04-14T08:47:01.000Z</time>
      </trkpt>
      <trkpt lat="48.62532" lon="2.43215">
        <ele>150</ele>
        <time>2013-04-14T08:47:05.000Z</time>
      </trkpt>
      <trkpt lat="48.62531" lon="2.43216">
        <ele>150</ele>
        <time>2013-04-14T08:47:06.000Z</time>
      </trkpt>
      <trkpt lat="48.62527" lon="2.43216">
        <ele>149</ele>
        <time>2013-04-14T08:47:11.000Z</time>
      </trkpt>
      <trkpt lat="48.62526" lon="2.43216">
        <ele>148</ele>
        <time>2013-04-14T08:47:12.000Z</time>
      </trkpt>
      <trkpt lat="48.62523" lon="2.43215">
        <ele>148</ele>
        <time>2013-04-14T08:47:17.000Z</time>
      </trkpt>
      <trkpt lat="48.62521" lon="2.43215">
        <ele>148</ele>
        <time>2013-04-14T08:47:18.000Z</time>
      </trkpt>
      <trkpt lat="48.62517" lon="2.43213">
        <ele>147</ele>
        <time>2013-04-14T08:47:21.000Z</time>
      </trkpt>
      <trkpt lat="48.62516" lon="2.43213">
        <ele>147</ele>
        <time>2013-04-14T08:47:22.000Z</time>
      </trkpt>
      <trkpt lat="48.62512" lon="2.43212">
        <ele>147</ele>
        <time>2013-04-14T08:47:25.000Z</time>
      </trkpt>
      <trkpt lat="48.6251" lon="2.43213">
        <ele>148</ele>
        <time>2013-04-14T08:47:26.000Z</time>
      </trkpt>
      <trkpt lat="48.62506" lon="2.43213">
        <ele>149</ele>
        <time>2013-04-14T08:47:31.000Z</time>
      </trkpt>
      <trkpt lat="48.62504" lon="2.43213">
        <ele>148</ele>
        <time>2013-04-14T08:47:32.000Z</time>
      </trkpt>
      <trkpt lat="48.62499" lon="2.43213">
        <ele>149</ele>
        <time>2013-04-14T08:47:34.000Z</time>
      </trkpt>
      <trkpt lat="48.62498" lon="2.43212">
        <ele>149</ele>
        <time>2013-04-14T08:47:35.000Z</time>
      </trkpt>
      <trkpt lat="48.62495" lon="2.43214">
        <ele>150</ele>
        <time>2013-04-14T08:47:38.000Z</time>
      </trkpt>
      <trkpt lat="48.62493" lon="2.43214">
        <ele>149</ele>
        <time>2013-04-14T08:47:39.000Z</time>
      </trkpt>
      <trkpt lat="48.62489" lon="2.43215">
        <ele>149</ele>
        <time>2013-04-14T08:47:42.000Z</time>
      </trkpt>
      <trkpt lat="48.62488" lon="2.43215">
        <ele>149</ele>
        <time>2013-04-14T08:47:43.000Z</time>
      </trkpt>
      <trkpt lat="48.62484" lon="2.43213">
        <ele>149</ele>
        <time>2013-04-14T08:47:46.000Z</time>
      </trkpt>
      <trkpt lat="48.62482" lon="2.43215">
        <ele>150</ele>
        <time>2013-04-14T08:47:47.000Z</time>
      </trkpt>
      <trkpt lat="48.6248" lon="2.43212">
        <ele>151</ele>
        <time>2013-04-14T08:47:49.000Z</time>
      </trkpt>
      <trkpt lat="48.62479" lon="2.4321">
        <ele>152</ele>
        <time>2013-04-14T08:47:50.000Z</time>
      </trkpt>
      <trkpt lat="48.62478" lon="2.43204">
        <ele>152</ele>
        <time>2013-04-14T08:47:53.000Z</time>
      </trkpt>
      <trkpt lat="48.62479" lon="2.43202">
        <ele>152</ele>
        <time>2013-04-14T08:47:54.000Z</time>
      </trkpt>
      <trkpt lat="48.62481" lon="2.43196">
        <ele>152</ele>
        <time>2013-04-14T08:47:56.000Z</time>
      </trkpt>
      <trkpt lat="48.62481" lon="2.43194">
        <ele>152</ele>
        <time>2013-04-14T08:47:57.000Z</time>
      </trkpt>
      <trkpt lat="48.62482" lon="2.43188">
        <ele>152</ele>
        <time>2013-04-14T08:48:02.000Z</time>
      </trkpt>
      <trkpt lat="48.62481" lon="2.43186">
        <ele>152</ele>
        <time>2013-04-14T08:48:03.000Z</time>
      </trkpt>
      <trkpt lat="48.62484" lon="2.43184">
        <ele>151</ele>
        <time>2013-04-14T08:48:05.000Z</time>
      </trkpt>
      <trkpt lat="48.62485" lon="2.43181">
        <ele>151</ele>
        <time>2013-04-14T08:48:06.000Z</time>
      </trkpt>
      <trkpt lat="48.62484" lon="2.43175">
        <ele>149</ele>
        <time>2013-04-14T08:48:08.000Z</time>
      </trkpt>
      <trkpt lat="48.62486" lon="2.43172">
        <ele>148</ele>
        <time>2013-04-14T08:48:09.000Z</time>
      </trkpt>
      <trkpt lat="48.62485" lon="2.43167">
        <ele>147</ele>
        <time>2013-04-14T08:48:13.000Z</time>
      </trkpt>
      <trkpt lat="48.62486" lon="2.43164">
        <ele>147</ele>
        <time>2013-04-14T08:48:14.000Z</time>
      </trkpt>
      <trkpt lat="48.62486" lon="2.4316">
        <ele>146</ele>
        <time>2013-04-14T08:48:16.000Z</time>
      </trkpt>
      <trkpt lat="48.62484" lon="2.43155">
        <ele>145</ele>
        <time>2013-04-14T08:48:17.000Z</time>
      </trkpt>
      <trkpt lat="48.62483" lon="2.4315">
        <ele>144</ele>
        <time>2013-04-14T08:48:18.000Z</time>
      </trkpt>
      <trkpt lat="48.62482" lon="2.43148">
        <ele>145</ele>
        <time>2013-04-14T08:48:19.000Z</time>
      </trkpt>
      <trkpt lat="48.62482" lon="2.43142">
        <ele>143</ele>
        <time>2013-04-14T08:48:22.000Z</time>
      </trkpt>
      <trkpt lat="48.62482" lon="2.43139">
        <ele>142</ele>
        <time>2013-04-14T08:48:23.000Z</time>
      </trkpt>
      <trkpt lat="48.62481" lon="2.43134">
        <ele>143</ele>
        <time>2013-04-14T08:48:25.000Z</time>
      </trkpt>
      <trkpt lat="48.6248" lon="2.43132">
        <ele>142</ele>
        <time>2013-04-14T08:48:26.000Z</time>
      </trkpt>
      <trkpt lat="48.62479" lon="2.43127">
        <ele>142</ele>
        <time>2013-04-14T08:48:28.000Z</time>
      </trkpt>
      <trkpt lat="48.6248" lon="2.43125">
        <ele>141</ele>
        <time>2013-04-14T08:48:29.000Z</time>
      </trkpt>
      <trkpt lat="48.62481" lon="2.43118">
        <ele>140</ele>
        <time>2013-04-14T08:48:33.000Z</time>
      </trkpt>
      <trkpt lat="48.62482" lon="2.43117">
        <ele>139</ele>
        <time>2013-04-14T08:48:34.000Z</time>
      </trkpt>
      <trkpt lat="48.62483" lon="2.43112">
        <ele>140</ele>
        <time>2013-04-14T08:48:37.000Z</time>
      </trkpt>
      <trkpt lat="48.62483" lon="2.4311">
        <ele>140</ele>
        <time>2013-04-14T08:48:38.000Z</time>
      </trkpt>
      <trkpt lat="48.62483" lon="2.43105">
        <ele>139</ele>
        <time>2013-04-14T08:48:41.000Z</time>
      </trkpt>
      <trkpt lat="48.62484" lon="2.43103">
        <ele>139</ele>
        <time>2013-04-14T08:48:42.000Z</time>
      </trkpt>
      <trkpt lat="48.62486" lon="2.43097">
        <ele>137</ele>
        <time>2013-04-14T08:48:45.000Z</time>
      </trkpt>
      <trkpt lat="48.62485" lon="2.43095">
        <ele>137</ele>
        <time>2013-04-14T08:48:46.000Z</time>
      </trkpt>
      <trkpt lat="48.62484" lon="2.43089">
        <ele>138</ele>
        <time>2013-04-14T08:48:49.000Z</time>
      </trkpt>
      <trkpt lat="48.62483" lon="2.43087">
        <ele>137</ele>
        <time>2013-04-14T08:48:50.000Z</time>
      </trkpt>
      <trkpt lat="48.62482" lon="2.43082">
        <ele>138</ele>
        <time>2013-04-14T08:48:55.000Z</time>
      </trkpt>
      <trkpt lat="48.6248" lon="2.43082">
        <ele>139</ele>
        <time>2013-04-14T08:48:56.000Z</time>
      </trkpt>
      <trkpt lat="48.62476" lon="2.43079">
        <ele>139</ele>
        <time>2013-04-14T08:48:59.000Z</time>
      </trkpt>
      <trkpt lat="48.62475" lon="2.43078">
        <ele>137</ele>
        <time>2013-04-14T08:49:00.000Z</time>
      </trkpt>
      <trkpt lat="48.62473" lon="2.43072">
        <ele>134</ele>
        <time>2013-04-14T08:49:04.000Z</time>
      </trkpt>
      <trkpt lat="48.62473" lon="2.43071">
        <ele>134</ele>
        <time>2013-04-14T08:49:05.000Z</time>
      </trkpt>
      <trkpt lat="48.62472" lon="2.43065">
        <ele>132</ele>
        <time>2013-04-14T08:49:13.000Z</time>
      </trkpt>
      <trkpt lat="48.62473" lon="2.43061">
        <ele>132</ele>
        <time>2013-04-14T08:49:14.000Z</time>
      </trkpt>
      <trkpt lat="48.62471" lon="2.43055">
        <ele>130</ele>
        <time>2013-04-14T08:49:16.000Z</time>
      </trkpt>
      <trkpt lat="48.62471" lon="2.43053">
        <ele>129</ele>
        <time>2013-04-14T08:49:17.000Z</time>
      </trkpt>
      <trkpt lat="48.62469" lon="2.4305">
        <ele>129</ele>
        <time>2013-04-14T08:49:18.000Z</time>
      </trkpt>
      <trkpt lat="48.62469" lon="2.43046">
        <ele>130</ele>
        <time>2013-04-14T08:49:19.000Z</time>
      </trkpt>
      <trkpt lat="48.6247" lon="2.43041">
        <ele>128</ele>
        <time>2013-04-14T08:49:21.000Z</time>
      </trkpt>
      <trkpt lat="48.62469" lon="2.43039">
        <ele>127</ele>
        <time>2013-04-14T08:49:22.000Z</time>
      </trkpt>
      <trkpt lat="48.62468" lon="2.43033">
        <ele>127</ele>
        <time>2013-04-14T08:49:25.000Z</time>
      </trkpt>
      <trkpt lat="48.62469" lon="2.43031">
        <ele>127</ele>
        <time>2013-04-14T08:49:26.000Z</time>
      </trkpt>
      <trkpt lat="48.62471" lon="2.43025">
        <ele>126</ele>
        <time>2013-04-14T08:49:28.000Z</time>
      </trkpt>
      <trkpt lat="48.62471" lon="2.43022">
        <ele>125</ele>
        <time>2013-04-14T08:49:29.000Z</time>
      </trkpt>
      <trkpt lat="48.62472" lon="2.43015">
        <ele>124</ele>
        <time>2013-04-14T08:49:31.000Z</time>
      </trkpt>
      <trkpt lat="48.62472" lon="2.43013">
        <ele>124</ele>
        <time>2013-04-14T08:49:32.000Z</time>
      </trkpt>
      <trkpt lat="48.62472" lon="2.43007">
        <ele>123</ele>
        <time>2013-04-14T08:49:36.000Z</time>
      </trkpt>
      <trkpt lat="48.62472" lon="2.43005">
        <ele>123</ele>
        <time>2013-04-14T08:49:37.000Z</time>
      </trkpt>
      <trkpt lat="48.62469" lon="2.43001">
        <ele>124</ele>
        <time>2013-04-14T08:49:41.000Z</time>
      </trkpt>
      <trkpt lat="48.62468" lon="2.43">
        <ele>125</ele>
        <time>2013-04-14T08:49:42.000Z</time>
      </trkpt>
      <trkpt lat="48.62465" lon="2.42999">
        <ele>126</ele>
        <time>2013-04-14T08:49:45.000Z</time>
      </trkpt>
      <trkpt lat="48.62464" lon="2.43">
        <ele>127</ele>
        <time>2013-04-14T08:49:46.000Z</time>
      </trkpt>
      <trkpt lat="48.62459" lon="2.42999">
        <ele>129</ele>
        <time>2013-04-14T08:49:50.000Z</time>
      </trkpt>
      <trkpt lat="48.62458" lon="2.42998">
        <ele>129</ele>
        <time>2013-04-14T08:49:51.000Z</time>
      </trkpt>
      <trkpt lat="48.62454" lon="2.43">
        <ele>130</ele>
        <time>2013-04-14T08:49:54.000Z</time>
      </trkpt>
      <trkpt lat="48.62453" lon="2.43">
        <ele>131</ele>
        <time>2013-04-14T08:49:55.000Z</time>
      </trkpt>
      <trkpt lat="48.62451" lon="2.42996">
        <ele>130</ele>
        <time>2013-04-14T08:50:00.000Z</time>
      </trkpt>
      <trkpt lat="48.6245" lon="2.42995">
        <ele>130</ele>
        <time>2013-04-14T08:50:01.000Z</time>
      </trkpt>
      <trkpt lat="48.62449" lon="2.42989">
        <ele>129</ele>
        <time>2013-04-14T08:50:08.000Z</time>
      </trkpt>
      <trkpt lat="48.62449" lon="2.42986">
        <ele>128</ele>
        <time>2013-04-14T08:50:09.000Z</time>
      </trkpt>
      <trkpt lat="48.62449" lon="2.4298">
        <ele>126</ele>
        <time>2013-04-14T08:50:12.000Z</time>
      </trkpt>
      <trkpt lat="48.62449" lon="2.42978">
        <ele>126</ele>
        <time>2013-04-14T08:50:13.000Z</time>
      </trkpt>
      <trkpt lat="48.62445" lon="2.42978">
        <ele>127</ele>
        <time>2013-04-14T08:50:40.000Z</time>
      </trkpt>
      <trkpt lat="48.62443" lon="2.4298">
        <ele>127</ele>
        <time>2013-04-14T08:50:41.000Z</time>
      </trkpt>
      <trkpt lat="48.62439" lon="2.42983">
        <ele>128</ele>
        <time>2013-04-14T08:50:44.000Z</time>
      </trkpt>
      <trkpt lat="48.62439" lon="2.42983">
        <ele>128</ele>
        <time>2013-04-14T08:50:45.000Z</time>
      </trkpt>
      <trkpt lat="48.62438" lon="2.42989">
        <ele>128</ele>
        <time>2013-04-14T08:50:54.000Z</time>
      </trkpt>
      <trkpt lat="48.62438" lon="2.4299">
        <ele>128</ele>
        <time>2013-04-14T08:50:55.000Z</time>
      </trkpt>
      <trkpt lat="48.62442" lon="2.42994">
        <ele>126</ele>
        <time>2013-04-14T08:50:58.000Z</time>
      </trkpt>
      <trkpt lat="48.62442" lon="2.42995">
        <ele>126</ele>
        <time>2013-04-14T08:50:59.000Z</time>
      </trkpt>
      <trkpt lat="48.62446" lon="2.42994">
        <ele>125</ele>
        <time>2013-04-14T08:51:12.000Z</time>
      </trkpt>
      <trkpt lat="48.62447" lon="2.42994">
        <ele>125</ele>
        <time>2013-04-14T08:51:13.000Z</time>
      </trkpt>
      <trkpt lat="48.62444" lon="2.42989">
        <ele>125</ele>
        <time>2013-04-14T08:51:26.000Z</time>
      </trkpt>
      <trkpt lat="48.62443" lon="2.42989">
        <ele>125</ele>
        <time>2013-04-14T08:51:27.000Z</time>
      </trkpt>
      <trkpt lat="48.6244" lon="2.42989">
        <ele>125</ele>
        <time>2013-04-14T08:51:28.000Z</time>
      </trkpt>
      <trkpt lat="48.62437" lon="2.42989">
        <ele>125</ele>
        <time>2013-04-14T08:51:29.000Z</time>
      </trkpt>
      <trkpt lat="48.62433" lon="2.42986">
        <ele>123</ele>
        <time>2013-04-14T08:51:32.000Z</time>
      </trkpt>
      <trkpt lat="48.62433" lon="2.42983">
        <ele>122</ele>
        <time>2013-04-14T08:51:33.000Z</time>
      </trkpt>
      <trkpt lat="48.62431" lon="2.42981">
        <ele>121</ele>
        <time>2013-04-14T08:51:45.000Z</time>
      </trkpt>
      <trkpt lat="48.62429" lon="2.42979">
        <ele>120</ele>
        <time>2013-04-14T08:51:46.000Z</time>
      </trkpt>
      <trkpt lat="48.62425" lon="2.42979">
        <ele>121</ele>
        <time>2013-04-14T08:51:49.000Z</time>
      </trkpt>
      <trkpt lat="48.62423" lon="2.42979">
        <ele>121</ele>
        <time>2013-04-14T08:51:50.000Z</time>
      </trkpt>
      <trkpt lat="48.62419" lon="2.42977">
        <ele>121</ele>
        <time>2013-04-14T08:51:53.000Z</time>
      </trkpt>
      <trkpt lat="48.62418" lon="2.42976">
        <ele>121</ele>
        <time>2013-04-14T08:51:54.000Z</time>
      </trkpt>
      <trkpt lat="48.62418" lon="2.4297">
        <ele>120</ele>
        <time>2013-04-14T08:52:10.000Z</time>
      </trkpt>
      <trkpt lat="48.62418" lon="2.42969">
        <ele>120</ele>
        <time>2013-04-14T08:52:11.000Z</time>
      </trkpt>
      <trkpt lat="48.62417" lon="2.42964">
        <ele>120</ele>
        <time>2013-04-14T08:52:16.000Z</time>
      </trkpt>
      <trkpt lat="48.62416" lon="2.42962">
        <ele>120</ele>
        <time>2013-04-14T08:52:17.000Z</time>
      </trkpt>
      <trkpt lat="48.62413" lon="2.42958">
        <ele>119</ele>
        <time>2013-04-14T08:52:20.000Z</time>
      </trkpt>
      <trkpt lat="48.62412" lon="2.42957">
        <ele>119</ele>
        <time>2013-04-14T08:52:21.000Z</time>
      </trkpt>
      <trkpt lat="48.6241" lon="2.42954">
        <ele>119</ele>
        <time>2013-04-14T08:52:26.000Z</time>
      </trkpt>
      <trkpt lat="48.62408" lon="2.42952">
        <ele>119</ele>
        <time>2013-04-14T08:52:27.000Z</time>
      </trkpt>
      <trkpt lat="48.62405" lon="2.4295">
        <ele>121</ele>
        <time>2013-04-14T08:52:32.000Z</time>
      </trkpt>
      <trkpt lat="48.62405" lon="2.42948">
        <ele>121</ele>
        <time>2013-04-14T08:52:33.000Z</time>
      </trkpt>
      <trkpt lat="48.62402" lon="2.42949">
        <ele>121</ele>
        <time>2013-04-14T08:52:41.000Z</time>
      </trkpt>
      <trkpt lat="48.62397" lon="2.4295">
        <ele>120</ele>
        <time>2013-04-14T08:52:42.000Z</time>
      </trkpt>
      <trkpt lat="48.62394" lon="2.42948">
        <ele>121</ele>
        <time>2013-04-14T08:52:43.000Z</time>
      </trkpt>
      <trkpt lat="48.62393" lon="2.42947">
        <ele>122</ele>
        <time>2013-04-14T08:52:44.000Z</time>
      </trkpt>
      <trkpt lat="48.62389" lon="2.42945">
        <ele>123</ele>
        <time>2013-04-14T08:52:46.000Z</time>
      </trkpt>
      <trkpt lat="48.62388" lon="2.42945">
        <ele>123</ele>
        <time>2013-04-14T08:52:47.000Z</time>
      </trkpt>
      <trkpt lat="48.62387" lon="2.42939">
        <ele>124</ele>
        <time>2013-04-14T08:52:51.000Z</time>
      </trkpt>
      <trkpt lat="48.62387" lon="2.42938">
        <ele>124</ele>
        <time>2013-04-14T08:52:52.000Z</time>
      </trkpt>
      <trkpt lat="48.62391" lon="2.42936">
        <ele>125</ele>
        <time>2013-04-14T08:52:58.000Z</time>
      </trkpt>
      <trkpt lat="48.62391" lon="2.42936">
        <ele>125</ele>
        <time>2013-04-14T08:52:59.000Z</time>
      </trkpt>
      <trkpt lat="48.62391" lon="2.42931">
        <ele>125</ele>
        <time>2013-04-14T08:53:04.000Z</time>
      </trkpt>
      <trkpt lat="48.62389" lon="2.4293">
        <ele>125</ele>
        <time>2013-04-14T08:53:05.000Z</time>
      </trkpt>
      <trkpt lat="48.62388" lon="2.42923">
        <ele>128</ele>
        <time>2013-04-14T08:53:08.000Z</time>
      </trkpt>
      <trkpt lat="48.62388" lon="2.42922">
        <ele>128</ele>
        <time>2013-04-14T08:53:09.000Z</time>
      </trkpt>
      <trkpt lat="48.62387" lon="2.42916">
        <ele>130</ele>
        <time>2013-04-14T08:53:12.000Z</time>
      </trkpt>
      <trkpt lat="48.62385" lon="2.42914">
        <ele>131</ele>
        <time>2013-04-14T08:53:13.000Z</time>
      </trkpt>
      <trkpt lat="48.62383" lon="2.42909">
        <ele>133</ele>
        <time>2013-04-14T08:53:15.000Z</time>
      </trkpt>
      <trkpt lat="48.62383" lon="2.42907">
        <ele>134</ele>
        <time>2013-04-14T08:53:16.000Z</time>
      </trkpt>
      <trkpt lat="48.6238" lon="2.42905">
        <ele>133</ele>
        <time>2013-04-14T08:53:18.000Z</time>
      </trkpt>
      <trkpt lat="48.62378" lon="2.42905">
        <ele>132</ele>
        <time>2013-04-14T08:53:19.000Z</time>
      </trkpt>
      <trkpt lat="48.62374" lon="2.42902">
        <ele>131</ele>
        <time>2013-04-14T08:53:23.000Z</time>
      </trkpt>
      <trkpt lat="48.62373" lon="2.42902">
        <ele>132</ele>
        <time>2013-04-14T08:53:24.000Z</time>
      </trkpt>
      <trkpt lat="48.62369" lon="2.42903">
        <ele>132</ele>
        <time>2013-04-14T08:53:27.000Z</time>
      </trkpt>
      <trkpt lat="48.62368" lon="2.42902">
        <ele>132</ele>
        <time>2013-04-14T08:53:28.000Z</time>
      </trkpt>
      <trkpt lat="48.62365" lon="2.42904">
        <ele>132</ele>
        <time>2013-04-14T08:53:30.000Z</time>
      </trkpt>
      <trkpt lat="48.62363" lon="2.42903">
        <ele>132</ele>
        <time>2013-04-14T08:53:31.000Z</time>
      </trkpt>
      <trkpt lat="48.62359" lon="2.42902">
        <ele>134</ele>
        <time>2013-04-14T08:53:37.000Z</time>
      </trkpt>
      <trkpt lat="48.62359" lon="2.429">
        <ele>133</ele>
        <time>2013-04-14T08:53:38.000Z</time>
      </trkpt>
      <trkpt lat="48.62355" lon="2.429">
        <ele>131</ele>
        <time>2013-04-14T08:53:42.000Z</time>
      </trkpt>
      <trkpt lat="48.62354" lon="2.429">
        <ele>132</ele>
        <time>2013-04-14T08:53:43.000Z</time>
      </trkpt>
      <trkpt lat="48.62351" lon="2.42899">
        <ele>132</ele>
        <time>2013-04-14T08:53:46.000Z</time>
      </trkpt>
      <trkpt lat="48.62349" lon="2.42899">
        <ele>132</ele>
        <time>2013-04-14T08:53:47.000Z</time>
      </trkpt>
      <trkpt lat="48.62346" lon="2.42898">
        <ele>132</ele>
        <time>2013-04-14T08:53:51.000Z</time>
      </trkpt>
      <trkpt lat="48.62344" lon="2.42897">
        <ele>133</ele>
        <time>2013-04-14T08:53:52.000Z</time>
      </trkpt>
      <trkpt lat="48.62342" lon="2.42891">
        <ele>133</ele>
        <time>2013-04-14T08:53:57.000Z</time>
      </trkpt>
      <trkpt lat="48.62341" lon="2.42891">
        <ele>133</ele>
        <time>2013-04-14T08:53:58.000Z</time>
      </trkpt>
      <trkpt lat="48.62342" lon="2.42891">
        <ele>133</ele>
        <time>2013-04-14T08:53:57.000Z</time>
      </trkpt>
    </trkseg>
  </trk>
</gpx>